<?xml version='1.0' encoding='UTF-8'?><gpx version="1.1" creator="JPX - https://github.com/jenetics/jpx" xmlns="http://www.topografix.com/GPX/1/1"><trk><trkseg><trkpt lat="43.4093702552598" lon="10.412691267009848"><ele>72.0</ele><time>2026-04-25T07:25:25.503Z</time></trkpt><trkpt lat="43.40927915156775" lon="10.41265335463124"><ele>72.0</ele><time>2026-04-25T07:25:31.513Z</time></trkpt><trkpt lat="43.40918230607605" lon="10.412613052829359"><ele>72.0</ele><time>2026-04-25T07:25:37.525Z</time></trkpt><trkpt lat="43.409101742947584" lon="10.41268919149858"><ele>72.0</ele><time>2026-04-25T07:25:40.165Z</time></trkpt><trkpt lat="43.409170872000146" lon="10.41267952137304"><ele>72.0</ele><time>2026-04-25T07:25:40.932Z</time></trkpt><trkpt lat="43.40922542042629" lon="10.412581508733782"><ele>72.0</ele><time>2026-04-25T07:25:58Z</time></trkpt><trkpt lat="43.40918919487526" lon="10.412493931804063"><ele>72.0</ele><time>2026-04-25T07:26:01Z</time></trkpt><trkpt lat="43.409170479519446" lon="10.412402770263165"><ele>72.0</ele><time>2026-04-25T07:26:03Z</time></trkpt><trkpt lat="43.4091309087568" lon="10.412252087630993"><ele>72.0</ele><time>2026-04-25T07:26:05Z</time></trkpt><trkpt lat="43.40909220713915" lon="10.412095921175972"><ele>72.0</ele><time>2026-04-25T07:26:07Z</time></trkpt><trkpt lat="43.40904863352196" lon="10.411939078109558"><ele>71.0</ele><time>2026-04-25T07:26:09Z</time></trkpt><trkpt lat="43.40902684600557" lon="10.411854055287787"><ele>70.0</ele><time>2026-04-25T07:26:10Z</time></trkpt><trkpt lat="43.40901897405753" lon="10.411753323338317"><ele>69.0</ele><time>2026-04-25T07:26:11Z</time></trkpt><trkpt lat="43.40899380366397" lon="10.411663986263289"><ele>68.0</ele><time>2026-04-25T07:26:12Z</time></trkpt><trkpt lat="43.40897942924721" lon="10.411481345062018"><ele>67.0</ele><time>2026-04-25T07:26:14Z</time></trkpt><trkpt lat="43.40895058601906" lon="10.411378970712565"><ele>66.0</ele><time>2026-04-25T07:26:15Z</time></trkpt><trkpt lat="43.408897059230355" lon="10.411290355188527"><ele>64.83333333333333</ele><time>2026-04-25T07:26:16Z</time></trkpt><trkpt lat="43.40882898296714" lon="10.411243651921323"><ele>63.66666666666667</ele><time>2026-04-25T07:26:17Z</time></trkpt><trkpt lat="43.40874976563242" lon="10.411246598085683"><ele>62.5</ele><time>2026-04-25T07:26:18Z</time></trkpt><trkpt lat="43.40867848518075" lon="10.411308738940855"><ele>61.333333333333336</ele><time>2026-04-25T07:26:19Z</time></trkpt><trkpt lat="43.40864065926664" lon="10.411413874950428"><ele>60.16666666666667</ele><time>2026-04-25T07:26:20Z</time></trkpt><trkpt lat="43.40862627397457" lon="10.411529000323563"><ele>59.0</ele><time>2026-04-25T07:26:21Z</time></trkpt><trkpt lat="43.40862215701248" lon="10.411691673490907"><ele>59.00000000000001</ele><time>2026-04-25T07:26:22Z</time></trkpt><trkpt lat="43.40861625008645" lon="10.411801796038409"><ele>59.0</ele><time>2026-04-25T07:26:23Z</time></trkpt><trkpt lat="43.4086042435718" lon="10.411895138809717"><ele>59.0</ele><time>2026-04-25T07:26:24Z</time></trkpt><trkpt lat="43.40857630472275" lon="10.411976181298488"><ele>59.0</ele><time>2026-04-25T07:26:25Z</time></trkpt><trkpt lat="43.40852373525484" lon="10.412032147671653"><ele>59.00000000000001</ele><time>2026-04-25T07:26:26Z</time></trkpt><trkpt lat="43.40843818200113" lon="10.412040822827246"><ele>59.0</ele><time>2026-04-25T07:26:27Z</time></trkpt><trkpt lat="43.40835479750427" lon="10.412030770347664"><ele>59.0</ele><time>2026-04-25T07:26:28Z</time></trkpt><trkpt lat="43.40827785267138" lon="10.411973530181632"><ele>59.00000000000001</ele><time>2026-04-25T07:26:29Z</time></trkpt><trkpt lat="43.408229302244976" lon="10.41186176367429"><ele>59.00000000000001</ele><time>2026-04-25T07:26:30Z</time></trkpt><trkpt lat="43.40817203238827" lon="10.411792138034416"><ele>59.0</ele><time>2026-04-25T07:26:31Z</time></trkpt><trkpt lat="43.40810057407615" lon="10.411701820846293"><ele>59.0</ele><time>2026-04-25T07:26:32Z</time></trkpt><trkpt lat="43.40803620240942" lon="10.411604907108346"><ele>58.2</ele><time>2026-04-25T07:26:33Z</time></trkpt><trkpt lat="43.40794688790069" lon="10.41154371357426"><ele>57.400000000000006</ele><time>2026-04-25T07:26:34Z</time></trkpt><trkpt lat="43.407841549235435" lon="10.411531199563276"><ele>56.6</ele><time>2026-04-25T07:26:35Z</time></trkpt><trkpt lat="43.40774114768519" lon="10.411502244947663"><ele>55.8</ele><time>2026-04-25T07:26:36Z</time></trkpt><trkpt lat="43.4076392925638" lon="10.411479697264536"><ele>55.0</ele><time>2026-04-25T07:26:37Z</time></trkpt><trkpt lat="43.40753180941878" lon="10.41144691760055"><ele>55.0</ele><time>2026-04-25T07:26:38Z</time></trkpt><trkpt lat="43.407424311613305" lon="10.41141231589897"><ele>55.0</ele><time>2026-04-25T07:26:39Z</time></trkpt><trkpt lat="43.40732360518123" lon="10.41137012067278"><ele>55.0</ele><time>2026-04-25T07:26:40Z</time></trkpt><trkpt lat="43.407223597939705" lon="10.411355867125694"><ele>55.0</ele><time>2026-04-25T07:26:41Z</time></trkpt><trkpt lat="43.407121878792296" lon="10.411371905029352"><ele>55.0</ele><time>2026-04-25T07:26:42Z</time></trkpt><trkpt lat="43.40704858930198" lon="10.411371456364765"><ele>53.666666666666664</ele><time>2026-04-25T07:26:43Z</time></trkpt><trkpt lat="43.40696712973937" lon="10.411351406412848"><ele>52.33333333333333</ele><time>2026-04-25T07:26:44Z</time></trkpt><trkpt lat="43.40688500449948" lon="10.411371236883747"><ele>51.0</ele><time>2026-04-25T07:26:45Z</time></trkpt><trkpt lat="43.40681993073654" lon="10.411330232942957"><ele>49.666666666666664</ele><time>2026-04-25T07:26:46.001Z</time></trkpt><trkpt lat="43.406773898463435" lon="10.411253646619267"><ele>48.33333333333333</ele><time>2026-04-25T07:26:47.001Z</time></trkpt><trkpt lat="43.40677224953434" lon="10.411138184558416"><ele>47.0</ele><time>2026-04-25T07:26:48.001Z</time></trkpt><trkpt lat="43.40675514939919" lon="10.411031405915988"><ele>46.166666666666664</ele><time>2026-04-25T07:26:49.001Z</time></trkpt><trkpt lat="43.40672454190359" lon="10.410932065651322"><ele>45.33333333333333</ele><time>2026-04-25T07:26:50.001Z</time></trkpt><trkpt lat="43.40674619747523" lon="10.410838191030932"><ele>44.5</ele><time>2026-04-25T07:26:51.001Z</time></trkpt><trkpt lat="43.40680716363685" lon="10.41075851448123"><ele>43.666666666666664</ele><time>2026-04-25T07:26:52.001Z</time></trkpt><trkpt lat="43.40685885015657" lon="10.410685358014794"><ele>42.833333333333336</ele><time>2026-04-25T07:26:53.001Z</time></trkpt><trkpt lat="43.40691262249788" lon="10.410607591756627"><ele>42.0</ele><time>2026-04-25T07:26:54.001Z</time></trkpt><trkpt lat="43.406968865790965" lon="10.4105303457693"><ele>41.5</ele><time>2026-04-25T07:26:55.001Z</time></trkpt><trkpt lat="43.407025283995466" lon="10.410451699264158"><ele>41.0</ele><time>2026-04-25T07:26:56.001Z</time></trkpt><trkpt lat="43.40708666124834" lon="10.410370621072316"><ele>40.5</ele><time>2026-04-25T07:26:57.001Z</time></trkpt><trkpt lat="43.40714903890589" lon="10.410284858591467"><ele>40.0</ele><time>2026-04-25T07:26:58.001Z</time></trkpt><trkpt lat="43.407208524511454" lon="10.410205704021799"><ele>39.5</ele><time>2026-04-25T07:26:59.001Z</time></trkpt><trkpt lat="43.40726677767627" lon="10.410103520299332"><ele>39.0</ele><time>2026-04-25T07:27:00.001Z</time></trkpt><trkpt lat="43.40732091024348" lon="10.4100041300238"><ele>39.0</ele><time>2026-04-25T07:27:01.001Z</time></trkpt><trkpt lat="43.407391553456655" lon="10.409908494489741"><ele>39.0</ele><time>2026-04-25T07:27:02.001Z</time></trkpt><trkpt lat="43.40745823119667" lon="10.409813134071232"><ele>39.0</ele><time>2026-04-25T07:27:03.001Z</time></trkpt><trkpt lat="43.40752514358865" lon="10.409725128899456"><ele>39.0</ele><time>2026-04-25T07:27:04.001Z</time></trkpt><trkpt lat="43.40759514305196" lon="10.409634702709111"><ele>39.0</ele><time>2026-04-25T07:27:05.001Z</time></trkpt><trkpt lat="43.40766207488061" lon="10.409551451029621"><ele>38.4</ele><time>2026-04-25T07:27:06.001Z</time></trkpt><trkpt lat="43.4077258867362" lon="10.409453468740448"><ele>37.8</ele><time>2026-04-25T07:27:07.001Z</time></trkpt><trkpt lat="43.40779134774675" lon="10.409362925486333"><ele>37.2</ele><time>2026-04-25T07:27:08.001Z</time></trkpt><trkpt lat="43.40785831501994" lon="10.409278423338197"><ele>36.6</ele><time>2026-04-25T07:27:09.001Z</time></trkpt><trkpt lat="43.40792997420516" lon="10.409194611788294"><ele>36.0</ele><time>2026-04-25T07:27:10.001Z</time></trkpt><trkpt lat="43.4080010779235" lon="10.409106868089015"><ele>36.0</ele><time>2026-04-25T07:27:11.001Z</time></trkpt><trkpt lat="43.408063269984666" lon="10.409025027731822"><ele>36.0</ele><time>2026-04-25T07:27:12.001Z</time></trkpt><trkpt lat="43.40811017568403" lon="10.408961269589025"><ele>36.0</ele><time>2026-04-25T07:27:13.001Z</time></trkpt><trkpt lat="43.40815683479115" lon="10.408865886766126"><ele>36.0</ele><time>2026-04-25T07:27:15.001Z</time></trkpt><trkpt lat="43.40810179380037" lon="10.40871872512351"><ele>36.0</ele><time>2026-04-25T07:27:16.001Z</time></trkpt><trkpt lat="43.408078165987845" lon="10.408618676946636"><ele>36.0</ele><time>2026-04-25T07:27:17.001Z</time></trkpt><trkpt lat="43.40805948966315" lon="10.408508643554669"><ele>34.166666666666664</ele><time>2026-04-25T07:27:18.001Z</time></trkpt><trkpt lat="43.408041124088065" lon="10.408412904559482"><ele>32.333333333333336</ele><time>2026-04-25T07:27:19.001Z</time></trkpt><trkpt lat="43.40802907633849" lon="10.408314034899194"><ele>30.5</ele><time>2026-04-25T07:27:20.001Z</time></trkpt><trkpt lat="43.408013384119464" lon="10.408229060237133"><ele>28.666666666666668</ele><time>2026-04-25T07:27:21.001Z</time></trkpt><trkpt lat="43.40800018317968" lon="10.408111824881688"><ele>26.833333333333336</ele><time>2026-04-25T07:27:23.001Z</time></trkpt><trkpt lat="43.40807778606264" lon="10.408008771862344"><ele>25.0</ele><time>2026-04-25T07:27:27.001Z</time></trkpt><trkpt lat="43.408146537804896" lon="10.407999861092435"><ele>23.166666666666668</ele><time>2026-04-25T07:27:29.001Z</time></trkpt><trkpt lat="43.40822346283739" lon="10.407970588678317"><ele>21.333333333333336</ele><time>2026-04-25T07:27:32.001Z</time></trkpt><trkpt lat="43.40830060055356" lon="10.407941095820528"><ele>19.5</ele><time>2026-04-25T07:27:36.001Z</time></trkpt><trkpt lat="43.408358731475715" lon="10.407907315105076"><ele>17.666666666666668</ele><time>2026-04-25T07:27:39.001Z</time></trkpt><trkpt lat="43.408423968872505" lon="10.407880376789715"><ele>15.833333333333336</ele><time>2026-04-25T07:27:41.001Z</time></trkpt><trkpt lat="43.40850456758036" lon="10.407854100344021"><ele>14.0</ele><time>2026-04-25T07:27:43.001Z</time></trkpt><trkpt lat="43.408590201594" lon="10.40782074785222"><ele>14.0</ele><time>2026-04-25T07:27:45.001Z</time></trkpt><trkpt lat="43.40868446449931" lon="10.407792177864826"><ele>13.999999999999998</ele><time>2026-04-25T07:27:47.001Z</time></trkpt><trkpt lat="43.40878142694076" lon="10.407765921598463"><ele>13.999999999999998</ele><time>2026-04-25T07:27:49.001Z</time></trkpt><trkpt lat="43.40888474066408" lon="10.407734582984933"><ele>14.0</ele><time>2026-04-25T07:27:51.001Z</time></trkpt><trkpt lat="43.40899316632989" lon="10.407699037867593"><ele>14.0</ele><time>2026-04-25T07:27:53.002Z</time></trkpt><trkpt lat="43.40910944382949" lon="10.407659527530395"><ele>14.333333333333334</ele><time>2026-04-25T07:27:55.002Z</time></trkpt><trkpt lat="43.40922957905929" lon="10.407619288648364"><ele>14.666666666666668</ele><time>2026-04-25T07:27:57.001Z</time></trkpt><trkpt lat="43.40929371064703" lon="10.407602364888318"><ele>15.0</ele><time>2026-04-25T07:27:58.001Z</time></trkpt><trkpt lat="43.40935969701509" lon="10.407595900861214"><ele>15.333333333333332</ele><time>2026-04-25T07:27:59.001Z</time></trkpt><trkpt lat="43.409424212480005" lon="10.407604156467936"><ele>15.666666666666666</ele><time>2026-04-25T07:28:00.001Z</time></trkpt><trkpt lat="43.409491290961846" lon="10.407612142098158"><ele>16.0</ele><time>2026-04-25T07:28:01.001Z</time></trkpt><trkpt lat="43.409555856630696" lon="10.40761908726861"><ele>16.0</ele><time>2026-04-25T07:28:02.001Z</time></trkpt><trkpt lat="43.4096199459434" lon="10.40762471650375"><ele>15.999999999999998</ele><time>2026-04-25T07:28:03.001Z</time></trkpt><trkpt lat="43.40968444296807" lon="10.407633019788774"><ele>16.0</ele><time>2026-04-25T07:28:04.001Z</time></trkpt><trkpt lat="43.40974881590617" lon="10.407639445211984"><ele>16.0</ele><time>2026-04-25T07:28:05.001Z</time></trkpt><trkpt lat="43.40981350307771" lon="10.407644702792494"><ele>15.999999999999998</ele><time>2026-04-25T07:28:06.001Z</time></trkpt><trkpt lat="43.409878585441916" lon="10.407654508670511"><ele>16.0</ele><time>2026-04-25T07:28:07.001Z</time></trkpt><trkpt lat="43.40994420013868" lon="10.407656688632292"><ele>16.0</ele><time>2026-04-25T07:28:08.001Z</time></trkpt><trkpt lat="43.4100071824402" lon="10.407649110061756"><ele>16.400000000000002</ele><time>2026-04-25T07:28:09.001Z</time></trkpt><trkpt lat="43.410128280345184" lon="10.407614300101528"><ele>16.8</ele><time>2026-04-25T07:28:11.001Z</time></trkpt><trkpt lat="43.410182616808406" lon="10.407570256812766"><ele>17.200000000000003</ele><time>2026-04-25T07:28:12.001Z</time></trkpt><trkpt lat="43.41026332592973" lon="10.407439071722266"><ele>17.6</ele><time>2026-04-25T07:28:14.001Z</time></trkpt><trkpt lat="43.41028193333352" lon="10.407355014790294"><ele>18.0</ele><time>2026-04-25T07:28:15.001Z</time></trkpt><trkpt lat="43.41027312218714" lon="10.407182535051222"><ele>17.5</ele><time>2026-04-25T07:28:17.001Z</time></trkpt><trkpt lat="43.41024935570134" lon="10.407100996469437"><ele>17.0</ele><time>2026-04-25T07:28:18.001Z</time></trkpt><trkpt lat="43.410225841141724" lon="10.407017103097136"><ele>16.5</ele><time>2026-04-25T07:28:19.001Z</time></trkpt><trkpt lat="43.41020815836995" lon="10.406933555017828"><ele>16.0</ele><time>2026-04-25T07:28:20Z</time></trkpt><trkpt lat="43.41019961219513" lon="10.406842773351164"><ele>15.5</ele><time>2026-04-25T07:28:21Z</time></trkpt><trkpt lat="43.41017483041934" lon="10.406686026749524"><ele>15.0</ele><time>2026-04-25T07:28:23Z</time></trkpt><trkpt lat="43.410151618525994" lon="10.406534349285815"><ele>15.0</ele><time>2026-04-25T07:28:25Z</time></trkpt><trkpt lat="43.410135227405135" lon="10.406392865458328"><ele>15.0</ele><time>2026-04-25T07:28:27Z</time></trkpt><trkpt lat="43.4101147736875" lon="10.40624920301867"><ele>15.0</ele><time>2026-04-25T07:28:29Z</time></trkpt><trkpt lat="43.41009976737175" lon="10.406103663341566"><ele>15.0</ele><time>2026-04-25T07:28:31Z</time></trkpt><trkpt lat="43.41008776886525" lon="10.405960917407901"><ele>15.0</ele><time>2026-04-25T07:28:33Z</time></trkpt><trkpt lat="43.41008625775479" lon="10.405821020929906"><ele>15.0</ele><time>2026-04-25T07:28:35Z</time></trkpt><trkpt lat="43.41009778215973" lon="10.405683568445383"><ele>15.0</ele><time>2026-04-25T07:28:37Z</time></trkpt><trkpt lat="43.41010831235125" lon="10.405547182162355"><ele>15.0</ele><time>2026-04-25T07:28:39Z</time></trkpt><trkpt lat="43.41011849576353" lon="10.40541169718674"><ele>15.0</ele><time>2026-04-25T07:28:41Z</time></trkpt><trkpt lat="43.41014387410674" lon="10.405271082973538"><ele>15.0</ele><time>2026-04-25T07:28:43Z</time></trkpt><trkpt lat="43.41017169734014" lon="10.405142489600095"><ele>15.0</ele><time>2026-04-25T07:28:45Z</time></trkpt><trkpt lat="43.410192132214284" lon="10.405005331749884"><ele>15.0</ele><time>2026-04-25T07:28:47Z</time></trkpt><trkpt lat="43.410226021615436" lon="10.404877619364148"><ele>15.0</ele><time>2026-04-25T07:28:49Z</time></trkpt><trkpt lat="43.41026288397168" lon="10.404757593349048"><ele>15.0</ele><time>2026-04-25T07:28:51Z</time></trkpt><trkpt lat="43.410293440193406" lon="10.404641354503374"><ele>15.0</ele><time>2026-04-25T07:28:53Z</time></trkpt><trkpt lat="43.410323885499245" lon="10.404530513789084"><ele>13.2</ele><time>2026-04-25T07:28:55Z</time></trkpt><trkpt lat="43.41036770578142" lon="10.404422764889054"><ele>11.4</ele><time>2026-04-25T07:28:57Z</time></trkpt><trkpt lat="43.41042142641151" lon="10.404315988650625"><ele>9.6</ele><time>2026-04-25T07:28:59Z</time></trkpt><trkpt lat="43.410490197916694" lon="10.404225099966753"><ele>7.8</ele><time>2026-04-25T07:29:01Z</time></trkpt><trkpt lat="43.41056217306105" lon="10.404144396814448"><ele>6.0</ele><time>2026-04-25T07:29:03Z</time></trkpt><trkpt lat="43.410641598228445" lon="10.404060767473812"><ele>10.0</ele><time>2026-04-25T07:29:05Z</time></trkpt><trkpt lat="43.410731517574625" lon="10.403996736955186"><ele>14.0</ele><time>2026-04-25T07:29:07Z</time></trkpt><trkpt lat="43.410822251958976" lon="10.4039488004089"><ele>18.0</ele><time>2026-04-25T07:29:09Z</time></trkpt><trkpt lat="43.410917043202886" lon="10.403921423914642"><ele>22.0</ele><time>2026-04-25T07:29:11Z</time></trkpt><trkpt lat="43.41101046470632" lon="10.403892483226128"><ele>26.0</ele><time>2026-04-25T07:29:13Z</time></trkpt><trkpt lat="43.411106318038875" lon="10.403876553041712"><ele>26.0</ele><time>2026-04-25T07:29:15Z</time></trkpt><trkpt lat="43.41120109116106" lon="10.403889511007527"><ele>26.0</ele><time>2026-04-25T07:29:17Z</time></trkpt><trkpt lat="43.41129309207127" lon="10.403907484563726"><ele>26.0</ele><time>2026-04-25T07:29:19Z</time></trkpt><trkpt lat="43.41138716080826" lon="10.403929500216377"><ele>26.0</ele><time>2026-04-25T07:29:21Z</time></trkpt><trkpt lat="43.41148048862344" lon="10.403953548732929"><ele>26.0</ele><time>2026-04-25T07:29:23Z</time></trkpt><trkpt lat="43.4115733772222" lon="10.403989098365281"><ele>26.200000000000003</ele><time>2026-04-25T07:29:25Z</time></trkpt><trkpt lat="43.411664500004505" lon="10.404028250903432"><ele>26.400000000000002</ele><time>2026-04-25T07:29:27Z</time></trkpt><trkpt lat="43.41175385405955" lon="10.404081488817575"><ele>26.6</ele><time>2026-04-25T07:29:29Z</time></trkpt><trkpt lat="43.411841526900815" lon="10.404113193857887"><ele>26.8</ele><time>2026-04-25T07:29:31Z</time></trkpt><trkpt lat="43.41193479743124" lon="10.404134442690982"><ele>27.0</ele><time>2026-04-25T07:29:33Z</time></trkpt><trkpt lat="43.41202999153425" lon="10.404141720758698"><ele>27.0</ele><time>2026-04-25T07:29:35Z</time></trkpt><trkpt lat="43.41212017351005" lon="10.404148231759475"><ele>27.000000000000004</ele><time>2026-04-25T07:29:37Z</time></trkpt><trkpt lat="43.412210783639395" lon="10.40413225191032"><ele>27.000000000000004</ele><time>2026-04-25T07:29:39Z</time></trkpt><trkpt lat="43.41229982601705" lon="10.40411068652001"><ele>27.0</ele><time>2026-04-25T07:29:41Z</time></trkpt><trkpt lat="43.41238555052092" lon="10.404060051801752"><ele>27.0</ele><time>2026-04-25T07:29:43Z</time></trkpt><trkpt lat="43.41247043904526" lon="10.40399933121245"><ele>28.200000000000003</ele><time>2026-04-25T07:29:45Z</time></trkpt><trkpt lat="43.41254874470223" lon="10.403945341453404"><ele>29.400000000000002</ele><time>2026-04-25T07:29:47Z</time></trkpt><trkpt lat="43.41262334917145" lon="10.403874002554483"><ele>30.599999999999998</ele><time>2026-04-25T07:29:49Z</time></trkpt><trkpt lat="43.41270227714951" lon="10.403797235263271"><ele>31.799999999999997</ele><time>2026-04-25T07:29:51Z</time></trkpt><trkpt lat="43.41277454195529" lon="10.403701327995204"><ele>33.0</ele><time>2026-04-25T07:29:53Z</time></trkpt><trkpt lat="43.41283662975953" lon="10.403591267152485"><ele>33.6</ele><time>2026-04-25T07:29:55Z</time></trkpt><trkpt lat="43.41291283205044" lon="10.403475644529152"><ele>34.199999999999996</ele><time>2026-04-25T07:29:57Z</time></trkpt><trkpt lat="43.41298884883863" lon="10.403362239533399"><ele>34.8</ele><time>2026-04-25T07:29:59.001Z</time></trkpt><trkpt lat="43.413066728613046" lon="10.403232434693148"><ele>35.4</ele><time>2026-04-25T07:30:01.001Z</time></trkpt><trkpt lat="43.413106639847825" lon="10.403165384128494"><ele>36.0</ele><time>2026-04-25T07:30:02.001Z</time></trkpt><trkpt lat="43.41318302007735" lon="10.40304160323821"><ele>31.8</ele><time>2026-04-25T07:30:04.001Z</time></trkpt><trkpt lat="43.41325641319762" lon="10.402919322578706"><ele>27.6</ele><time>2026-04-25T07:30:06Z</time></trkpt><trkpt lat="43.413329951923856" lon="10.402810176225051"><ele>23.4</ele><time>2026-04-25T07:30:08Z</time></trkpt><trkpt lat="43.41342247159495" lon="10.402735544700803"><ele>19.2</ele><time>2026-04-25T07:30:10Z</time></trkpt><trkpt lat="43.41352508574037" lon="10.402688895587954"><ele>15.0</ele><time>2026-04-25T07:30:12Z</time></trkpt><trkpt lat="43.413630228331286" lon="10.40265938410229"><ele>15.0</ele><time>2026-04-25T07:30:14Z</time></trkpt><trkpt lat="43.413732238965075" lon="10.4026712563338"><ele>15.0</ele><time>2026-04-25T07:30:16Z</time></trkpt><trkpt lat="43.4138340102733" lon="10.402702647855763"><ele>15.0</ele><time>2026-04-25T07:30:18Z</time></trkpt><trkpt lat="43.41393450905388" lon="10.402731422141436"><ele>15.0</ele><time>2026-04-25T07:30:20Z</time></trkpt><trkpt lat="43.41403617701765" lon="10.402734727289033"><ele>15.0</ele><time>2026-04-25T07:30:22Z</time></trkpt><trkpt lat="43.4141371191682" lon="10.402714585240973"><ele>16.75</ele><time>2026-04-25T07:30:24Z</time></trkpt><trkpt lat="43.41423801052798" lon="10.4026756527015"><ele>18.5</ele><time>2026-04-25T07:30:26Z</time></trkpt><trkpt lat="43.414342557287206" lon="10.402619167696091"><ele>20.25</ele><time>2026-04-25T07:30:28Z</time></trkpt><trkpt lat="43.41445087040862" lon="10.402547830883217"><ele>22.0</ele><time>2026-04-25T07:30:30Z</time></trkpt><trkpt lat="43.41456367066809" lon="10.402471727122746"><ele>22.0</ele><time>2026-04-25T07:30:32Z</time></trkpt><trkpt lat="43.41462107726977" lon="10.402422705772258"><ele>22.0</ele><time>2026-04-25T07:30:33Z</time></trkpt><trkpt lat="43.41467786327441" lon="10.402371091745472"><ele>22.0</ele><time>2026-04-25T07:30:34Z</time></trkpt><trkpt lat="43.4147361804308" lon="10.4023146934315"><ele>22.0</ele><time>2026-04-25T07:30:35Z</time></trkpt><trkpt lat="43.414795235220716" lon="10.402260033982385"><ele>22.0</ele><time>2026-04-25T07:30:36Z</time></trkpt><trkpt lat="43.41485786751123" lon="10.402218596986854"><ele>22.0</ele><time>2026-04-25T07:30:37Z</time></trkpt><trkpt lat="43.41492396861221" lon="10.402175801055295"><ele>22.0</ele><time>2026-04-25T07:30:38Z</time></trkpt><trkpt lat="43.41499236436066" lon="10.402143368178354"><ele>19.666666666666664</ele><time>2026-04-25T07:30:39Z</time></trkpt><trkpt lat="43.415065116546785" lon="10.402118853057587"><ele>17.333333333333332</ele><time>2026-04-25T07:30:40Z</time></trkpt><trkpt lat="43.41514058253226" lon="10.402097800760647"><ele>15.0</ele><time>2026-04-25T07:30:41Z</time></trkpt><trkpt lat="43.41521693396915" lon="10.402090785525626"><ele>12.666666666666666</ele><time>2026-04-25T07:30:42Z</time></trkpt><trkpt lat="43.41529335871254" lon="10.402077937013939"><ele>10.333333333333332</ele><time>2026-04-25T07:30:43Z</time></trkpt><trkpt lat="43.415366308571755" lon="10.402044003728786"><ele>8.0</ele><time>2026-04-25T07:30:44Z</time></trkpt><trkpt lat="43.41543316456298" lon="10.401979088276962"><ele>10.666666666666666</ele><time>2026-04-25T07:30:45Z</time></trkpt><trkpt lat="43.41549528594033" lon="10.401898640186245"><ele>13.333333333333332</ele><time>2026-04-25T07:30:46Z</time></trkpt><trkpt lat="43.41555687984988" lon="10.401820520613514"><ele>16.0</ele><time>2026-04-25T07:30:47Z</time></trkpt><trkpt lat="43.415618232756955" lon="10.401733448836133"><ele>18.666666666666668</ele><time>2026-04-25T07:30:48Z</time></trkpt><trkpt lat="43.41567737849893" lon="10.40164377451945"><ele>21.333333333333332</ele><time>2026-04-25T07:30:49Z</time></trkpt><trkpt lat="43.41573849026912" lon="10.401552202332109"><ele>24.0</ele><time>2026-04-25T07:30:50Z</time></trkpt><trkpt lat="43.41580593285863" lon="10.401464280226872"><ele>24.0</ele><time>2026-04-25T07:30:51Z</time></trkpt><trkpt lat="43.41588791806095" lon="10.401388754931903"><ele>24.0</ele><time>2026-04-25T07:30:52Z</time></trkpt><trkpt lat="43.41598338484504" lon="10.401342534510762"><ele>24.0</ele><time>2026-04-25T07:30:53Z</time></trkpt><trkpt lat="43.41608448277649" lon="10.401326471056983"><ele>24.0</ele><time>2026-04-25T07:30:54Z</time></trkpt><trkpt lat="43.416186228524445" lon="10.40131646712871"><ele>24.0</ele><time>2026-04-25T07:30:55Z</time></trkpt><trkpt lat="43.416287343205234" lon="10.401334037871964"><ele>24.4</ele><time>2026-04-25T07:30:56Z</time></trkpt><trkpt lat="43.41638820266512" lon="10.401350856460395"><ele>24.799999999999997</ele><time>2026-04-25T07:30:57Z</time></trkpt><trkpt lat="43.416490249632076" lon="10.401368538862526"><ele>25.200000000000003</ele><time>2026-04-25T07:30:58Z</time></trkpt><trkpt lat="43.416596055752834" lon="10.401369623730913"><ele>25.6</ele><time>2026-04-25T07:30:59Z</time></trkpt><trkpt lat="43.416693239363035" lon="10.40139891911379"><ele>26.0</ele><time>2026-04-25T07:31:00Z</time></trkpt><trkpt lat="43.41679828390169" lon="10.401418826876418"><ele>26.0</ele><time>2026-04-25T07:31:01Z</time></trkpt><trkpt lat="43.416905035602504" lon="10.401444604285027"><ele>26.0</ele><time>2026-04-25T07:31:02Z</time></trkpt><trkpt lat="43.41700484039115" lon="10.401464773181841"><ele>26.0</ele><time>2026-04-25T07:31:03Z</time></trkpt><trkpt lat="43.417095026393795" lon="10.401490749867001"><ele>26.0</ele><time>2026-04-25T07:31:04Z</time></trkpt><trkpt lat="43.41719085812123" lon="10.4015015359849"><ele>26.0</ele><time>2026-04-25T07:31:05Z</time></trkpt><trkpt lat="43.41728525468164" lon="10.40151434747994"><ele>24.999999999999996</ele><time>2026-04-25T07:31:06Z</time></trkpt><trkpt lat="43.417374620707086" lon="10.401537729002449"><ele>24.0</ele><time>2026-04-25T07:31:07Z</time></trkpt><trkpt lat="43.417463852992164" lon="10.401556308755058"><ele>23.0</ele><time>2026-04-25T07:31:08Z</time></trkpt><trkpt lat="43.41754805576346" lon="10.401578754417619"><ele>22.0</ele><time>2026-04-25T07:31:09Z</time></trkpt><trkpt lat="43.417635093009274" lon="10.401590938074758"><ele>21.0</ele><time>2026-04-25T07:31:10Z</time></trkpt><trkpt lat="43.41771877049499" lon="10.401608298023824"><ele>20.0</ele><time>2026-04-25T07:31:11Z</time></trkpt><trkpt lat="43.41780221351664" lon="10.40162642377761"><ele>20.0</ele><time>2026-04-25T07:31:12Z</time></trkpt><trkpt lat="43.417883119001274" lon="10.401646008777892"><ele>20.0</ele><time>2026-04-25T07:31:13Z</time></trkpt><trkpt lat="43.417962436688526" lon="10.401662703494798"><ele>20.0</ele><time>2026-04-25T07:31:14Z</time></trkpt><trkpt lat="43.41804372294224" lon="10.401678069057397"><ele>20.0</ele><time>2026-04-25T07:31:15Z</time></trkpt><trkpt lat="43.418118811433345" lon="10.401691922785393"><ele>20.0</ele><time>2026-04-25T07:31:16Z</time></trkpt><trkpt lat="43.41819449788859" lon="10.401708835537923"><ele>20.0</ele><time>2026-04-25T07:31:17Z</time></trkpt><trkpt lat="43.4182704544195" lon="10.40172860435402"><ele>19.333333333333336</ele><time>2026-04-25T07:31:18Z</time></trkpt><trkpt lat="43.41834584836729" lon="10.401741185318844"><ele>18.666666666666668</ele><time>2026-04-25T07:31:19Z</time></trkpt><trkpt lat="43.418420808594384" lon="10.401756750080452"><ele>18.0</ele><time>2026-04-25T07:31:20Z</time></trkpt><trkpt lat="43.41849584773823" lon="10.401771874159724"><ele>17.333333333333332</ele><time>2026-04-25T07:31:21Z</time></trkpt><trkpt lat="43.41857157959948" lon="10.401787269082638"><ele>16.666666666666664</ele><time>2026-04-25T07:31:22Z</time></trkpt><trkpt lat="43.41864532089986" lon="10.401803725282733"><ele>16.0</ele><time>2026-04-25T07:31:23Z</time></trkpt><trkpt lat="43.41871887745061" lon="10.401819301096351"><ele>16.0</ele><time>2026-04-25T07:31:24Z</time></trkpt><trkpt lat="43.41879364820048" lon="10.401827597362773"><ele>15.999999999999998</ele><time>2026-04-25T07:31:25Z</time></trkpt><trkpt lat="43.41886864613568" lon="10.401837176451101"><ele>16.0</ele><time>2026-04-25T07:31:26Z</time></trkpt><trkpt lat="43.41894097073984" lon="10.401842204770448"><ele>16.0</ele><time>2026-04-25T07:31:27Z</time></trkpt><trkpt lat="43.419013367327544" lon="10.401846585133027"><ele>15.999999999999998</ele><time>2026-04-25T07:31:28Z</time></trkpt><trkpt lat="43.41908596992487" lon="10.401856452196999"><ele>16.0</ele><time>2026-04-25T07:31:29Z</time></trkpt><trkpt lat="43.41915714610767" lon="10.401862692049011"><ele>16.0</ele><time>2026-04-25T07:31:30Z</time></trkpt><trkpt lat="43.41922966479718" lon="10.40186405225717"><ele>15.714285714285714</ele><time>2026-04-25T07:31:31Z</time></trkpt><trkpt lat="43.419299430935105" lon="10.401863190017192"><ele>15.428571428571427</ele><time>2026-04-25T07:31:32Z</time></trkpt><trkpt lat="43.41937061769186" lon="10.401867320802664"><ele>15.142857142857142</ele><time>2026-04-25T07:31:33Z</time></trkpt><trkpt lat="43.41944067396865" lon="10.401872826999938"><ele>14.857142857142858</ele><time>2026-04-25T07:31:34Z</time></trkpt><trkpt lat="43.419510637993774" lon="10.401874411392978"><ele>14.571428571428571</ele><time>2026-04-25T07:31:35Z</time></trkpt><trkpt lat="43.41957682572459" lon="10.401877576437597"><ele>14.285714285714285</ele><time>2026-04-25T07:31:36Z</time></trkpt><trkpt lat="43.419644708897046" lon="10.4018791880622"><ele>14.0</ele><time>2026-04-25T07:31:37Z</time></trkpt><trkpt lat="43.419710962189754" lon="10.401874108912782"><ele>13.166666666666668</ele><time>2026-04-25T07:31:38Z</time></trkpt><trkpt lat="43.4197740339391" lon="10.401867903460689"><ele>12.333333333333334</ele><time>2026-04-25T07:31:39Z</time></trkpt><trkpt lat="43.41988889717221" lon="10.401873210316069"><ele>11.5</ele><time>2026-04-25T07:31:41Z</time></trkpt><trkpt lat="43.419949540645156" lon="10.401902672778613"><ele>10.666666666666668</ele><time>2026-04-25T07:31:44Z</time></trkpt><trkpt lat="43.420021211140785" lon="10.401872559149107"><ele>9.833333333333334</ele><time>2026-04-25T07:31:53Z</time></trkpt><trkpt lat="43.420113814569774" lon="10.401862826876851"><ele>9.0</ele><time>2026-04-25T07:31:56Z</time></trkpt><trkpt lat="43.42018418695914" lon="10.401835440658097"><ele>9.0</ele><time>2026-04-25T07:31:58Z</time></trkpt><trkpt lat="43.42026384669155" lon="10.401805545555481"><ele>9.0</ele><time>2026-04-25T07:32:00Z</time></trkpt><trkpt lat="43.42035759602463" lon="10.40175778622741"><ele>9.0</ele><time>2026-04-25T07:32:02Z</time></trkpt><trkpt lat="43.420450419301865" lon="10.401680290519863"><ele>9.0</ele><time>2026-04-25T07:32:04Z</time></trkpt><trkpt lat="43.420548083629676" lon="10.401597149062892"><ele>9.0</ele><time>2026-04-25T07:32:06Z</time></trkpt><trkpt lat="43.420648335354" lon="10.401516600967419"><ele>8.25</ele><time>2026-04-25T07:32:08Z</time></trkpt><trkpt lat="43.420744174607535" lon="10.401431796562942"><ele>7.5</ele><time>2026-04-25T07:32:10Z</time></trkpt><trkpt lat="43.420845187106906" lon="10.40135160912194"><ele>6.75</ele><time>2026-04-25T07:32:12Z</time></trkpt><trkpt lat="43.42094495087906" lon="10.401268627177943"><ele>6.0</ele><time>2026-04-25T07:32:14Z</time></trkpt><trkpt lat="43.42104601799336" lon="10.401204899276548"><ele>6.0</ele><time>2026-04-25T07:32:16Z</time></trkpt><trkpt lat="43.42115925085981" lon="10.401171081725387"><ele>6.0</ele><time>2026-04-25T07:32:18Z</time></trkpt><trkpt lat="43.421271429438896" lon="10.401179364771478"><ele>6.0</ele><time>2026-04-25T07:32:20Z</time></trkpt><trkpt lat="43.42138062236227" lon="10.40119168406269"><ele>6.0</ele><time>2026-04-25T07:32:22Z</time></trkpt><trkpt lat="43.42148975720608" lon="10.40122079964782"><ele>6.0</ele><time>2026-04-25T07:32:24Z</time></trkpt><trkpt lat="43.42160527905125" lon="10.401266557722758"><ele>7.0</ele><time>2026-04-25T07:32:26Z</time></trkpt><trkpt lat="43.421717608583585" lon="10.401291679998359"><ele>8.0</ele><time>2026-04-25T07:32:28Z</time></trkpt><trkpt lat="43.42183313823405" lon="10.401325644698037"><ele>9.0</ele><time>2026-04-25T07:32:30Z</time></trkpt><trkpt lat="43.421949616160056" lon="10.401353692929856"><ele>10.0</ele><time>2026-04-25T07:32:32Z</time></trkpt><trkpt lat="43.422060197907946" lon="10.401368939058326"><ele>12.2</ele><time>2026-04-25T07:32:34Z</time></trkpt><trkpt lat="43.42216898396996" lon="10.401390957258624"><ele>14.4</ele><time>2026-04-25T07:32:36Z</time></trkpt><trkpt lat="43.422283515435595" lon="10.401439114923937"><ele>16.6</ele><time>2026-04-25T07:32:38Z</time></trkpt><trkpt lat="43.42238459821278" lon="10.401455794029292"><ele>18.8</ele><time>2026-04-25T07:32:40Z</time></trkpt><trkpt lat="43.42249288229852" lon="10.401494660204161"><ele>21.0</ele><time>2026-04-25T07:32:42Z</time></trkpt><trkpt lat="43.422591269195074" lon="10.401502870186702"><ele>21.0</ele><time>2026-04-25T07:32:44Z</time></trkpt><trkpt lat="43.42269800930483" lon="10.401536733200736"><ele>21.0</ele><time>2026-04-25T07:32:46Z</time></trkpt><trkpt lat="43.42280042933058" lon="10.401567825334526"><ele>21.0</ele><time>2026-04-25T07:32:48Z</time></trkpt><trkpt lat="43.42290773724163" lon="10.401597751548543"><ele>21.0</ele><time>2026-04-25T07:32:50Z</time></trkpt><trkpt lat="43.423017315838074" lon="10.401616884845067"><ele>21.0</ele><time>2026-04-25T07:32:52Z</time></trkpt><trkpt lat="43.4231285780417" lon="10.401629570884051"><ele>21.0</ele><time>2026-04-25T07:32:54Z</time></trkpt><trkpt lat="43.423244570943076" lon="10.401602804112104"><ele>21.0</ele><time>2026-04-25T07:32:56Z</time></trkpt><trkpt lat="43.42335922573136" lon="10.401558468454088"><ele>21.0</ele><time>2026-04-25T07:32:58Z</time></trkpt><trkpt lat="43.42347203450379" lon="10.401504850244072"><ele>21.0</ele><time>2026-04-25T07:33:00Z</time></trkpt><trkpt lat="43.42358436249095" lon="10.401470370675371"><ele>21.0</ele><time>2026-04-25T07:33:02Z</time></trkpt><trkpt lat="43.42369398377999" lon="10.401440254398928"><ele>21.0</ele><time>2026-04-25T07:33:04Z</time></trkpt><trkpt lat="43.42380677246009" lon="10.401402929961398"><ele>21.0</ele><time>2026-04-25T07:33:06Z</time></trkpt><trkpt lat="43.42391553516922" lon="10.40137775741937"><ele>21.0</ele><time>2026-04-25T07:33:08Z</time></trkpt><trkpt lat="43.42403072926184" lon="10.401347467563753"><ele>17.25</ele><time>2026-04-25T07:33:10Z</time></trkpt><trkpt lat="43.42414063855527" lon="10.401325361246233"><ele>13.5</ele><time>2026-04-25T07:33:12Z</time></trkpt><trkpt lat="43.42425281486614" lon="10.401303325873894"><ele>9.75</ele><time>2026-04-25T07:33:14Z</time></trkpt><trkpt lat="43.42436557159303" lon="10.401285034798843"><ele>6.0</ele><time>2026-04-25T07:33:16Z</time></trkpt><trkpt lat="43.424479690006955" lon="10.401269954777431"><ele>6.0</ele><time>2026-04-25T07:33:18Z</time></trkpt><trkpt lat="43.424591733428684" lon="10.401254736241855"><ele>6.0</ele><time>2026-04-25T07:33:20Z</time></trkpt><trkpt lat="43.424706045876476" lon="10.40122287466421"><ele>6.0</ele><time>2026-04-25T07:33:22Z</time></trkpt><trkpt lat="43.424821603028384" lon="10.401186307347714"><ele>6.0</ele><time>2026-04-25T07:33:24Z</time></trkpt><trkpt lat="43.42493758213493" lon="10.401136086724856"><ele>7.0</ele><time>2026-04-25T07:33:26Z</time></trkpt><trkpt lat="43.425052777662934" lon="10.40108023101741"><ele>8.0</ele><time>2026-04-25T07:33:28Z</time></trkpt><trkpt lat="43.42516707730221" lon="10.401031478879888"><ele>9.0</ele><time>2026-04-25T07:33:30Z</time></trkpt><trkpt lat="43.425289594090366" lon="10.400993631194929"><ele>10.0</ele><time>2026-04-25T07:33:32Z</time></trkpt><trkpt lat="43.42540340080686" lon="10.400951307672198"><ele>12.0</ele><time>2026-04-25T07:33:34Z</time></trkpt><trkpt lat="43.42552042929797" lon="10.400905110492959"><ele>14.0</ele><time>2026-04-25T07:33:36Z</time></trkpt><trkpt lat="43.4255822156718" lon="10.400876003571152"><ele>16.0</ele><time>2026-04-25T07:33:37Z</time></trkpt><trkpt lat="43.42568524462628" lon="10.40081998275599"><ele>18.0</ele><time>2026-04-25T07:33:39Z</time></trkpt><trkpt lat="43.425779423066736" lon="10.40071330281625"><ele>20.0</ele><time>2026-04-25T07:33:41Z</time></trkpt><trkpt lat="43.425851911131794" lon="10.400583549552616"><ele>17.666666666666668</ele><time>2026-04-25T07:33:43Z</time></trkpt><trkpt lat="43.4259167892421" lon="10.400447348014515"><ele>15.333333333333334</ele><time>2026-04-25T07:33:45Z</time></trkpt><trkpt lat="43.42599402959712" lon="10.400305112625293"><ele>13.0</ele><time>2026-04-25T07:33:47Z</time></trkpt><trkpt lat="43.426032457663304" lon="10.400234637923015"><ele>10.666666666666668</ele><time>2026-04-25T07:33:48Z</time></trkpt><trkpt lat="43.426076518583145" lon="10.400169479352273"><ele>8.333333333333334</ele><time>2026-04-25T07:33:49Z</time></trkpt><trkpt lat="43.42612609482927" lon="10.400111917207955"><ele>6.0</ele><time>2026-04-25T07:33:50Z</time></trkpt><trkpt lat="43.42617984979765" lon="10.400059448282422"><ele>6.0</ele><time>2026-04-25T07:33:51Z</time></trkpt><trkpt lat="43.42623715614717" lon="10.400011891450896"><ele>6.0</ele><time>2026-04-25T07:33:52Z</time></trkpt><trkpt lat="43.426298315623875" lon="10.399983672306824"><ele>6.0</ele><time>2026-04-25T07:33:53Z</time></trkpt><trkpt lat="43.426419820079865" lon="10.399938885941799"><ele>6.0</ele><time>2026-04-25T07:33:55Z</time></trkpt><trkpt lat="43.426541481108785" lon="10.39991012094621"><ele>6.0</ele><time>2026-04-25T07:33:57Z</time></trkpt><trkpt lat="43.42663988414505" lon="10.399846142534136"><ele>6.5</ele><time>2026-04-25T07:33:59Z</time></trkpt><trkpt lat="43.426725284023156" lon="10.399758173693098"><ele>7.0</ele><time>2026-04-25T07:34:01Z</time></trkpt><trkpt lat="43.426798166601344" lon="10.399628459326697"><ele>7.5</ele><time>2026-04-25T07:34:03Z</time></trkpt><trkpt lat="43.42685430240492" lon="10.399484705657501"><ele>8.0</ele><time>2026-04-25T07:34:05Z</time></trkpt><trkpt lat="43.426893588013016" lon="10.399327888310772"><ele>8.0</ele><time>2026-04-25T07:34:07Z</time></trkpt><trkpt lat="43.426936869302416" lon="10.39917148326252"><ele>8.0</ele><time>2026-04-25T07:34:09Z</time></trkpt><trkpt lat="43.42700706051734" lon="10.399028202466472"><ele>8.0</ele><time>2026-04-25T07:34:11Z</time></trkpt><trkpt lat="43.4271064186103" lon="10.398923464462518"><ele>8.0</ele><time>2026-04-25T07:34:13Z</time></trkpt><trkpt lat="43.42716897253932" lon="10.398901529823842"><ele>8.0</ele><time>2026-04-25T07:34:14Z</time></trkpt><trkpt lat="43.42728585872281" lon="10.398876371709331"><ele>8.25</ele><time>2026-04-25T07:34:16Z</time></trkpt><trkpt lat="43.42740052607578" lon="10.39885382861494"><ele>8.5</ele><time>2026-04-25T07:34:18Z</time></trkpt><trkpt lat="43.42752000792454" lon="10.398839573742864"><ele>8.75</ele><time>2026-04-25T07:34:20Z</time></trkpt><trkpt lat="43.42764240763925" lon="10.39881973910978"><ele>9.0</ele><time>2026-04-25T07:34:22Z</time></trkpt><trkpt lat="43.427752260563544" lon="10.39877197610257"><ele>9.0</ele><time>2026-04-25T07:34:24Z</time></trkpt><trkpt lat="43.42786050496588" lon="10.398716376894692"><ele>9.0</ele><time>2026-04-25T07:34:26Z</time></trkpt><trkpt lat="43.427948654720936" lon="10.398612526967472"><ele>9.0</ele><time>2026-04-25T07:34:28Z</time></trkpt><trkpt lat="43.42799844644276" lon="10.398544160204994"><ele>9.0</ele><time>2026-04-25T07:34:29Z</time></trkpt><trkpt lat="43.42808374500359" lon="10.398433626083625"><ele>9.0</ele><time>2026-04-25T07:34:31Z</time></trkpt><trkpt lat="43.42813069705565" lon="10.39837514429436"><ele>10.4</ele><time>2026-04-25T07:34:32Z</time></trkpt><trkpt lat="43.42821119900279" lon="10.39825404033462"><ele>11.8</ele><time>2026-04-25T07:34:34Z</time></trkpt><trkpt lat="43.42828873305248" lon="10.398140602660844"><ele>13.200000000000001</ele><time>2026-04-25T07:34:36Z</time></trkpt><trkpt lat="43.428356273187795" lon="10.398027229939062"><ele>14.600000000000001</ele><time>2026-04-25T07:34:38Z</time></trkpt><trkpt lat="43.42841741078421" lon="10.397927556476542"><ele>16.0</ele><time>2026-04-25T07:34:40Z</time></trkpt><trkpt lat="43.42843378114937" lon="10.39779690911082"><ele>16.2</ele><time>2026-04-25T07:34:42Z</time></trkpt><trkpt lat="43.428480805773766" lon="10.397690521954551"><ele>16.400000000000002</ele><time>2026-04-25T07:34:44Z</time></trkpt><trkpt lat="43.42849396718004" lon="10.39756940914928"><ele>16.6</ele><time>2026-04-25T07:34:46Z</time></trkpt><trkpt lat="43.42851783032216" lon="10.397450619891037"><ele>16.8</ele><time>2026-04-25T07:34:48Z</time></trkpt><trkpt lat="43.42855093806529" lon="10.397335990256819"><ele>17.0</ele><time>2026-04-25T07:34:50Z</time></trkpt><trkpt lat="43.4285703075683" lon="10.397213271983171"><ele>16.666666666666668</ele><time>2026-04-25T07:34:52Z</time></trkpt><trkpt lat="43.42858721497586" lon="10.397093589384653"><ele>16.333333333333336</ele><time>2026-04-25T07:34:54Z</time></trkpt><trkpt lat="43.4286124652522" lon="10.396983149826402"><ele>16.0</ele><time>2026-04-25T07:34:56Z</time></trkpt><trkpt lat="43.428653291921876" lon="10.39687146289989"><ele>15.666666666666668</ele><time>2026-04-25T07:34:58Z</time></trkpt><trkpt lat="43.42869363758717" lon="10.3967593961124"><ele>15.333333333333334</ele><time>2026-04-25T07:35:00Z</time></trkpt><trkpt lat="43.42874233412372" lon="10.39665908764862"><ele>15.0</ele><time>2026-04-25T07:35:02Z</time></trkpt><trkpt lat="43.42880485700736" lon="10.396571281189242"><ele>16.2</ele><time>2026-04-25T07:35:04Z</time></trkpt><trkpt lat="43.42886729355436" lon="10.396471558986082"><ele>17.4</ele><time>2026-04-25T07:35:06Z</time></trkpt><trkpt lat="43.428952108650876" lon="10.396406582355663"><ele>18.6</ele><time>2026-04-25T07:35:08Z</time></trkpt><trkpt lat="43.42904045649746" lon="10.396339164471788"><ele>19.8</ele><time>2026-04-25T07:35:10Z</time></trkpt><trkpt lat="43.42912778883731" lon="10.396276119330157"><ele>21.0</ele><time>2026-04-25T07:35:12Z</time></trkpt><trkpt lat="43.42921179569617" lon="10.3962080799939"><ele>21.0</ele><time>2026-04-25T07:35:14Z</time></trkpt><trkpt lat="43.42930242828432" lon="10.396133686879816"><ele>21.0</ele><time>2026-04-25T07:35:16Z</time></trkpt><trkpt lat="43.4293793537116" lon="10.396053866558422"><ele>21.0</ele><time>2026-04-25T07:35:18Z</time></trkpt><trkpt lat="43.42944206417353" lon="10.395957057834005"><ele>21.0</ele><time>2026-04-25T07:35:20Z</time></trkpt><trkpt lat="43.429487061301856" lon="10.395835024000117"><ele>21.0</ele><time>2026-04-25T07:35:22Z</time></trkpt><trkpt lat="43.42953821725319" lon="10.395733503074732"><ele>21.0</ele><time>2026-04-25T07:35:24Z</time></trkpt><trkpt lat="43.4295729950722" lon="10.39563042910175"><ele>21.0</ele><time>2026-04-25T07:35:26Z</time></trkpt><trkpt lat="43.42962699164934" lon="10.395531963620604"><ele>21.0</ele><time>2026-04-25T07:35:28Z</time></trkpt><trkpt lat="43.42966171800286" lon="10.395441253126469"><ele>21.0</ele><time>2026-04-25T07:35:30Z</time></trkpt><trkpt lat="43.42970648847039" lon="10.39535078625641"><ele>21.0</ele><time>2026-04-25T07:35:32Z</time></trkpt><trkpt lat="43.429752620614096" lon="10.395254324368619"><ele>21.0</ele><time>2026-04-25T07:35:34Z</time></trkpt><trkpt lat="43.42980046628063" lon="10.395157937984916"><ele>21.8</ele><time>2026-04-25T07:35:36Z</time></trkpt><trkpt lat="43.429849988216255" lon="10.395062457765922"><ele>22.6</ele><time>2026-04-25T07:35:38Z</time></trkpt><trkpt lat="43.42993806365404" lon="10.39497154354765"><ele>23.4</ele><time>2026-04-25T07:35:40Z</time></trkpt><trkpt lat="43.43004301974259" lon="10.394911351824163"><ele>24.2</ele><time>2026-04-25T07:35:42Z</time></trkpt><trkpt lat="43.43012230597844" lon="10.394798957735153"><ele>25.0</ele><time>2026-04-25T07:35:44Z</time></trkpt><trkpt lat="43.43020634093217" lon="10.394679672872291"><ele>24.333333333333336</ele><time>2026-04-25T07:35:46Z</time></trkpt><trkpt lat="43.43026484873284" lon="10.394615163568448"><ele>23.666666666666668</ele><time>2026-04-25T07:35:47Z</time></trkpt><trkpt lat="43.43030817796848" lon="10.394541639522432"><ele>23.0</ele><time>2026-04-25T07:35:48Z</time></trkpt><trkpt lat="43.430354478921764" lon="10.394455920592556"><ele>22.333333333333336</ele><time>2026-04-25T07:35:49Z</time></trkpt><trkpt lat="43.430401166588375" lon="10.394369999786143"><ele>21.666666666666668</ele><time>2026-04-25T07:35:50Z</time></trkpt><trkpt lat="43.43043941751692" lon="10.394281029265418"><ele>21.0</ele><time>2026-04-25T07:35:51Z</time></trkpt><trkpt lat="43.43049000840625" lon="10.394189509005171"><ele>21.0</ele><time>2026-04-25T07:35:52Z</time></trkpt><trkpt lat="43.4305357027978" lon="10.394098497960856"><ele>21.0</ele><time>2026-04-25T07:35:53Z</time></trkpt><trkpt lat="43.43058424325114" lon="10.39399914401963"><ele>21.0</ele><time>2026-04-25T07:35:54Z</time></trkpt><trkpt lat="43.43063193449173" lon="10.393900660201256"><ele>21.0</ele><time>2026-04-25T07:35:55Z</time></trkpt><trkpt lat="43.4306897256241" lon="10.393804875057612"><ele>21.0</ele><time>2026-04-25T07:35:56Z</time></trkpt><trkpt lat="43.4307361266294" lon="10.393704612908618"><ele>21.0</ele><time>2026-04-25T07:35:57Z</time></trkpt><trkpt lat="43.43078415008274" lon="10.393601807467482"><ele>20.333333333333332</ele><time>2026-04-25T07:35:58Z</time></trkpt><trkpt lat="43.43083457647063" lon="10.393498781987324"><ele>19.666666666666668</ele><time>2026-04-25T07:35:59Z</time></trkpt><trkpt lat="43.430880613145305" lon="10.393402513550507"><ele>19.0</ele><time>2026-04-25T07:36:00Z</time></trkpt><trkpt lat="43.430930384148965" lon="10.393305704862327"><ele>18.333333333333336</ele><time>2026-04-25T07:36:01Z</time></trkpt><trkpt lat="43.43097606813821" lon="10.39321039610785"><ele>17.666666666666668</ele><time>2026-04-25T07:36:02Z</time></trkpt><trkpt lat="43.431012992919776" lon="10.393104614381219"><ele>17.0</ele><time>2026-04-25T07:36:03Z</time></trkpt><trkpt lat="43.43104379020425" lon="10.392999660379639"><ele>16.2</ele><time>2026-04-25T07:36:04Z</time></trkpt><trkpt lat="43.43104765999908" lon="10.392807483813048"><ele>15.399999999999999</ele><time>2026-04-25T07:36:06Z</time></trkpt><trkpt lat="43.43106057945474" lon="10.392709721764444"><ele>14.600000000000001</ele><time>2026-04-25T07:36:07Z</time></trkpt><trkpt lat="43.43106391147663" lon="10.392614762449503"><ele>13.8</ele><time>2026-04-25T07:36:08Z</time></trkpt><trkpt lat="43.43105534426795" lon="10.39244710723271"><ele>13.0</ele><time>2026-04-25T07:36:09.999Z</time></trkpt><trkpt lat="43.431063136540004" lon="10.392352400289724"><ele>13.0</ele><time>2026-04-25T07:36:10.999Z</time></trkpt><trkpt lat="43.43108150447801" lon="10.392187139518539"><ele>13.0</ele><time>2026-04-25T07:36:12.999Z</time></trkpt><trkpt lat="43.43111912787194" lon="10.392041039730419"><ele>13.0</ele><time>2026-04-25T07:36:14.999Z</time></trkpt><trkpt lat="43.43116167296367" lon="10.391896223754447"><ele>13.0</ele><time>2026-04-25T07:36:17Z</time></trkpt><trkpt lat="43.43122095328301" lon="10.39175220124354"><ele>13.600000000000001</ele><time>2026-04-25T07:36:19Z</time></trkpt><trkpt lat="43.431291420659235" lon="10.391639151763464"><ele>14.200000000000001</ele><time>2026-04-25T07:36:21Z</time></trkpt><trkpt lat="43.43137820019559" lon="10.391536279071735"><ele>14.8</ele><time>2026-04-25T07:36:23Z</time></trkpt><trkpt lat="43.431464785037576" lon="10.391436124268463"><ele>15.4</ele><time>2026-04-25T07:36:25Z</time></trkpt><trkpt lat="43.43152155343001" lon="10.391386781591722"><ele>16.0</ele><time>2026-04-25T07:36:26Z</time></trkpt><trkpt lat="43.431609352459766" lon="10.39130587347065"><ele>16.0</ele><time>2026-04-25T07:36:28Z</time></trkpt><trkpt lat="43.431700235975086" lon="10.391217343911004"><ele>16.0</ele><time>2026-04-25T07:36:30Z</time></trkpt><trkpt lat="43.43178993212956" lon="10.391154868374"><ele>16.0</ele><time>2026-04-25T07:36:32Z</time></trkpt><trkpt lat="43.431845261120145" lon="10.391113035390084"><ele>16.0</ele><time>2026-04-25T07:36:33Z</time></trkpt><trkpt lat="43.43195082301335" lon="10.391056338975321"><ele>16.0</ele><time>2026-04-25T07:36:35Z</time></trkpt><trkpt lat="43.432048564427475" lon="10.390984690841746"><ele>16.0</ele><time>2026-04-25T07:36:37Z</time></trkpt><trkpt lat="43.432135556449026" lon="10.390916637062816"><ele>16.0</ele><time>2026-04-25T07:36:39Z</time></trkpt><trkpt lat="43.43222927651634" lon="10.39084210154309"><ele>16.0</ele><time>2026-04-25T07:36:41Z</time></trkpt><trkpt lat="43.43230971623594" lon="10.39076400969038"><ele>16.0</ele><time>2026-04-25T07:36:43Z</time></trkpt><trkpt lat="43.432381757911436" lon="10.390729591006831"><ele>16.0</ele><time>2026-04-25T07:36:44Z</time></trkpt><trkpt lat="43.432483261560805" lon="10.390668191677289"><ele>15.8</ele><time>2026-04-25T07:36:46Z</time></trkpt><trkpt lat="43.43258070510341" lon="10.390607999435122"><ele>15.600000000000001</ele><time>2026-04-25T07:36:48Z</time></trkpt><trkpt lat="43.4326813315651" lon="10.39053946426816"><ele>15.4</ele><time>2026-04-25T07:36:50Z</time></trkpt><trkpt lat="43.43276861961644" lon="10.390458292931331"><ele>15.2</ele><time>2026-04-25T07:36:52Z</time></trkpt><trkpt lat="43.43287208452112" lon="10.390388383252873"><ele>15.0</ele><time>2026-04-25T07:36:54Z</time></trkpt><trkpt lat="43.432964836632756" lon="10.39032148235968"><ele>16.0</ele><time>2026-04-25T07:36:56Z</time></trkpt><trkpt lat="43.433065131360955" lon="10.390255736933161"><ele>17.0</ele><time>2026-04-25T07:36:58Z</time></trkpt><trkpt lat="43.433152082957584" lon="10.39018607317497"><ele>18.0</ele><time>2026-04-25T07:37:00Z</time></trkpt><trkpt lat="43.43324600976637" lon="10.390119982203295"><ele>19.0</ele><time>2026-04-25T07:37:02Z</time></trkpt><trkpt lat="43.433343849642135" lon="10.390056344446732"><ele>20.0</ele><time>2026-04-25T07:37:04Z</time></trkpt><trkpt lat="43.433436417709444" lon="10.38997425874123"><ele>20.0</ele><time>2026-04-25T07:37:06Z</time></trkpt><trkpt lat="43.43353367601726" lon="10.38991021566578"><ele>20.0</ele><time>2026-04-25T07:37:08Z</time></trkpt><trkpt lat="43.43362465746652" lon="10.389850364352856"><ele>20.0</ele><time>2026-04-25T07:37:10Z</time></trkpt><trkpt lat="43.43372140840869" lon="10.389772448073375"><ele>20.0</ele><time>2026-04-25T07:37:12Z</time></trkpt><trkpt lat="43.43381504645023" lon="10.389697562794062"><ele>20.0</ele><time>2026-04-25T07:37:14Z</time></trkpt><trkpt lat="43.43390974804837" lon="10.389628623511015"><ele>19.4</ele><time>2026-04-25T07:37:16Z</time></trkpt><trkpt lat="43.43400457545078" lon="10.389553147312348"><ele>18.8</ele><time>2026-04-25T07:37:18Z</time></trkpt><trkpt lat="43.434102413783734" lon="10.38949134475492"><ele>18.2</ele><time>2026-04-25T07:37:20Z</time></trkpt><trkpt lat="43.434191635840506" lon="10.389417004685097"><ele>17.6</ele><time>2026-04-25T07:37:22Z</time></trkpt><trkpt lat="43.43428393688597" lon="10.389348847255013"><ele>17.0</ele><time>2026-04-25T07:37:24Z</time></trkpt><trkpt lat="43.434373701224004" lon="10.38927933251225"><ele>17.0</ele><time>2026-04-25T07:37:26Z</time></trkpt><trkpt lat="43.43446736215735" lon="10.389209649883922"><ele>17.0</ele><time>2026-04-25T07:37:28Z</time></trkpt><trkpt lat="43.43455902785738" lon="10.389140539152187"><ele>17.0</ele><time>2026-04-25T07:37:30Z</time></trkpt><trkpt lat="43.434657619806195" lon="10.389065799991444"><ele>17.0</ele><time>2026-04-25T07:37:32Z</time></trkpt><trkpt lat="43.43475130459911" lon="10.388996475427428"><ele>17.0</ele><time>2026-04-25T07:37:34Z</time></trkpt><trkpt lat="43.43484802861905" lon="10.3889294267024"><ele>17.2</ele><time>2026-04-25T07:37:36Z</time></trkpt><trkpt lat="43.43494078997774" lon="10.388862902257143"><ele>17.4</ele><time>2026-04-25T07:37:38Z</time></trkpt><trkpt lat="43.43504173106363" lon="10.38879464933118"><ele>17.6</ele><time>2026-04-25T07:37:40Z</time></trkpt><trkpt lat="43.43514257007446" lon="10.388717832818976"><ele>17.8</ele><time>2026-04-25T07:37:42Z</time></trkpt><trkpt lat="43.435244986250595" lon="10.388639307418158"><ele>18.0</ele><time>2026-04-25T07:37:44Z</time></trkpt><trkpt lat="43.435305816179735" lon="10.388612545767625"><ele>18.0</ele><time>2026-04-25T07:37:45Z</time></trkpt><trkpt lat="43.435412432008604" lon="10.388534526609282"><ele>18.0</ele><time>2026-04-25T07:37:47Z</time></trkpt><trkpt lat="43.435469545515446" lon="10.388487944513367"><ele>18.0</ele><time>2026-04-25T07:37:48Z</time></trkpt><trkpt lat="43.43553356978884" lon="10.388474481060138"><ele>18.0</ele><time>2026-04-25T07:37:49Z</time></trkpt><trkpt lat="43.43564447202476" lon="10.38838236413786"><ele>18.0</ele><time>2026-04-25T07:37:51Z</time></trkpt><trkpt lat="43.435708241728676" lon="10.388352356803358"><ele>18.0</ele><time>2026-04-25T07:37:52Z</time></trkpt><trkpt lat="43.435828444615524" lon="10.388285848597627"><ele>18.28571428571429</ele><time>2026-04-25T07:37:54Z</time></trkpt><trkpt lat="43.43589156597993" lon="10.388254389585368"><ele>18.571428571428573</ele><time>2026-04-25T07:37:55Z</time></trkpt><trkpt lat="43.43595415453311" lon="10.388219598115757"><ele>18.857142857142858</ele><time>2026-04-25T07:37:56Z</time></trkpt><trkpt lat="43.43602089399802" lon="10.388186963093455"><ele>19.142857142857146</ele><time>2026-04-25T07:37:57Z</time></trkpt><trkpt lat="43.43608991904588" lon="10.388157704550425"><ele>19.42857142857143</ele><time>2026-04-25T07:37:58Z</time></trkpt><trkpt lat="43.43615711074414" lon="10.388128408713152"><ele>19.714285714285715</ele><time>2026-04-25T07:37:59Z</time></trkpt><trkpt lat="43.436223814461464" lon="10.388090456909215"><ele>20.0</ele><time>2026-04-25T07:38:00Z</time></trkpt><trkpt lat="43.43629376326945" lon="10.388055437522395"><ele>20.0</ele><time>2026-04-25T07:38:01Z</time></trkpt><trkpt lat="43.436358511808905" lon="10.388017357841063"><ele>20.0</ele><time>2026-04-25T07:38:02Z</time></trkpt><trkpt lat="43.43642419590104" lon="10.387988407048253"><ele>20.0</ele><time>2026-04-25T07:38:03Z</time></trkpt><trkpt lat="43.43648933495645" lon="10.387950157451249"><ele>20.0</ele><time>2026-04-25T07:38:04Z</time></trkpt><trkpt lat="43.436556183856965" lon="10.387917808202799"><ele>20.0</ele><time>2026-04-25T07:38:05Z</time></trkpt><trkpt lat="43.43662255409938" lon="10.387881106482709"><ele>20.0</ele><time>2026-04-25T07:38:06Z</time></trkpt><trkpt lat="43.43668942084324" lon="10.387853111851085"><ele>20.0</ele><time>2026-04-25T07:38:07Z</time></trkpt><trkpt lat="43.436755500999816" lon="10.387815477263322"><ele>19.57142857142857</ele><time>2026-04-25T07:38:08Z</time></trkpt><trkpt lat="43.43681998961763" lon="10.38778230717546"><ele>19.142857142857142</ele><time>2026-04-25T07:38:09Z</time></trkpt><trkpt lat="43.4368886624893" lon="10.38774385479063"><ele>18.714285714285715</ele><time>2026-04-25T07:38:10Z</time></trkpt><trkpt lat="43.43695574840591" lon="10.387711752133978"><ele>18.285714285714285</ele><time>2026-04-25T07:38:10.999Z</time></trkpt><trkpt lat="43.43702257245307" lon="10.387682351194536"><ele>17.857142857142858</ele><time>2026-04-25T07:38:11.999Z</time></trkpt><trkpt lat="43.43708984461484" lon="10.387645291948965"><ele>17.428571428571427</ele><time>2026-04-25T07:38:12.999Z</time></trkpt><trkpt lat="43.43715737261649" lon="10.387613012058072"><ele>17.0</ele><time>2026-04-25T07:38:13.999Z</time></trkpt><trkpt lat="43.437220403834495" lon="10.387576788141686"><ele>16.999999999999996</ele><time>2026-04-25T07:38:14.999Z</time></trkpt><trkpt lat="43.437285524142794" lon="10.38754296514145"><ele>17.0</ele><time>2026-04-25T07:38:15.999Z</time></trkpt><trkpt lat="43.43734624870572" lon="10.387507364992883"><ele>17.0</ele><time>2026-04-25T07:38:16.999Z</time></trkpt><trkpt lat="43.43740598877061" lon="10.387474663869707"><ele>17.0</ele><time>2026-04-25T07:38:17.999Z</time></trkpt><trkpt lat="43.43746508489423" lon="10.387444459968407"><ele>17.0</ele><time>2026-04-25T07:38:18.999Z</time></trkpt><trkpt lat="43.437524681334345" lon="10.387414926324894"><ele>16.999999999999996</ele><time>2026-04-25T07:38:19.999Z</time></trkpt><trkpt lat="43.43758418426704" lon="10.387381022426242"><ele>17.0</ele><time>2026-04-25T07:38:20.999Z</time></trkpt><trkpt lat="43.43770091657091" lon="10.387323586118725"><ele>17.0</ele><time>2026-04-25T07:38:23Z</time></trkpt><trkpt lat="43.43781648522621" lon="10.387260567436178"><ele>17.0</ele><time>2026-04-25T07:38:25Z</time></trkpt><trkpt lat="43.437877005813576" lon="10.387231377774407"><ele>17.0</ele><time>2026-04-25T07:38:26Z</time></trkpt><trkpt lat="43.43799165250936" lon="10.38717150748716"><ele>17.0</ele><time>2026-04-25T07:38:28Z</time></trkpt><trkpt lat="43.438051093675504" lon="10.387142032302316"><ele>17.0</ele><time>2026-04-25T07:38:29Z</time></trkpt><trkpt lat="43.438167194639604" lon="10.38708413050877"><ele>16.0</ele><time>2026-04-25T07:38:31Z</time></trkpt><trkpt lat="43.4382832207248" lon="10.387024472629596"><ele>15.0</ele><time>2026-04-25T07:38:33Z</time></trkpt><trkpt lat="43.43834296665014" lon="10.386995409871163"><ele>14.0</ele><time>2026-04-25T07:38:34Z</time></trkpt><trkpt lat="43.43846066067614" lon="10.386936540198315"><ele>13.0</ele><time>2026-04-25T07:38:36Z</time></trkpt><trkpt lat="43.43857905358219" lon="10.386871237622092"><ele>12.0</ele><time>2026-04-25T07:38:38Z</time></trkpt><trkpt lat="43.43869368615509" lon="10.386803174215727"><ele>13.0</ele><time>2026-04-25T07:38:40Z</time></trkpt><trkpt lat="43.43881394226831" lon="10.386754591456103"><ele>14.0</ele><time>2026-04-25T07:38:42Z</time></trkpt><trkpt lat="43.43893180374513" lon="10.38668700689498"><ele>15.0</ele><time>2026-04-25T07:38:44Z</time></trkpt><trkpt lat="43.439050943012454" lon="10.386627264458784"><ele>16.0</ele><time>2026-04-25T07:38:46Z</time></trkpt><trkpt lat="43.43911220036025" lon="10.38659189684611"><ele>17.0</ele><time>2026-04-25T07:38:47Z</time></trkpt><trkpt lat="43.439229691532105" lon="10.386530204949338"><ele>17.0</ele><time>2026-04-25T07:38:49Z</time></trkpt><trkpt lat="43.43934135079094" lon="10.386477108783264"><ele>17.0</ele><time>2026-04-25T07:38:51Z</time></trkpt><trkpt lat="43.439401817467306" lon="10.386442457242278"><ele>17.0</ele><time>2026-04-25T07:38:52Z</time></trkpt><trkpt lat="43.43951533049933" lon="10.386386597091283"><ele>17.0</ele><time>2026-04-25T07:38:54Z</time></trkpt><trkpt lat="43.4396329458198" lon="10.386328460355704"><ele>17.0</ele><time>2026-04-25T07:38:56Z</time></trkpt><trkpt lat="43.43974014730288" lon="10.38627079633611"><ele>17.0</ele><time>2026-04-25T07:38:58Z</time></trkpt><trkpt lat="43.43979745933678" lon="10.386234916620344"><ele>17.0</ele><time>2026-04-25T07:38:59Z</time></trkpt><trkpt lat="43.439858068594795" lon="10.386205557608756"><ele>17.0</ele><time>2026-04-25T07:39:00Z</time></trkpt><trkpt lat="43.439968798826925" lon="10.386145112134225"><ele>17.0</ele><time>2026-04-25T07:39:02Z</time></trkpt><trkpt lat="43.440082937216495" lon="10.38608160432288"><ele>17.0</ele><time>2026-04-25T07:39:04Z</time></trkpt><trkpt lat="43.44014236861398" lon="10.386049380528208"><ele>17.0</ele><time>2026-04-25T07:39:05Z</time></trkpt><trkpt lat="43.440247224573866" lon="10.385983333906301"><ele>17.0</ele><time>2026-04-25T07:39:07Z</time></trkpt><trkpt lat="43.44030727499971" lon="10.385942842405758"><ele>17.0</ele><time>2026-04-25T07:39:08Z</time></trkpt><trkpt lat="43.440363147134676" lon="10.385894633627643"><ele>17.0</ele><time>2026-04-25T07:39:09Z</time></trkpt><trkpt lat="43.44047502690116" lon="10.38582562818491"><ele>17.0</ele><time>2026-04-25T07:39:11Z</time></trkpt><trkpt lat="43.4405344271178" lon="10.38578939466046"><ele>17.0</ele><time>2026-04-25T07:39:12Z</time></trkpt><trkpt lat="43.44059181108291" lon="10.385742899036927"><ele>17.0</ele><time>2026-04-25T07:39:13Z</time></trkpt><trkpt lat="43.44065079328974" lon="10.38569435711894"><ele>17.0</ele><time>2026-04-25T07:39:14Z</time></trkpt><trkpt lat="43.440762244547216" lon="10.385619672151577"><ele>17.0</ele><time>2026-04-25T07:39:16Z</time></trkpt><trkpt lat="43.44082023531984" lon="10.38558418624568"><ele>17.0</ele><time>2026-04-25T07:39:17Z</time></trkpt><trkpt lat="43.44087482658527" lon="10.385539588393152"><ele>17.0</ele><time>2026-04-25T07:39:18Z</time></trkpt><trkpt lat="43.44093364734801" lon="10.385498648748245"><ele>17.0</ele><time>2026-04-25T07:39:19Z</time></trkpt><trkpt lat="43.44104387225757" lon="10.385419273178776"><ele>17.0</ele><time>2026-04-25T07:39:21Z</time></trkpt><trkpt lat="43.44109896772966" lon="10.385373292303232"><ele>16.6</ele><time>2026-04-25T07:39:22Z</time></trkpt><trkpt lat="43.441207678547414" lon="10.38529524047112"><ele>16.2</ele><time>2026-04-25T07:39:24Z</time></trkpt><trkpt lat="43.44126372322598" lon="10.385254224788484"><ele>15.8</ele><time>2026-04-25T07:39:25Z</time></trkpt><trkpt lat="43.44137133979406" lon="10.385183600719344"><ele>15.4</ele><time>2026-04-25T07:39:27Z</time></trkpt><trkpt lat="43.441482334196344" lon="10.38512032421118"><ele>15.0</ele><time>2026-04-25T07:39:29Z</time></trkpt><trkpt lat="43.441589312186316" lon="10.385044431915047"><ele>16.25</ele><time>2026-04-25T07:39:31Z</time></trkpt><trkpt lat="43.44169160398973" lon="10.384964619804867"><ele>17.5</ele><time>2026-04-25T07:39:33Z</time></trkpt><trkpt lat="43.44179764570427" lon="10.384887890577016"><ele>18.75</ele><time>2026-04-25T07:39:35Z</time></trkpt><trkpt lat="43.441902224772676" lon="10.384818833475581"><ele>20.0</ele><time>2026-04-25T07:39:37Z</time></trkpt><trkpt lat="43.44199838308576" lon="10.384746481009424"><ele>20.0</ele><time>2026-04-25T07:39:39Z</time></trkpt><trkpt lat="43.442093910334414" lon="10.384685915159832"><ele>20.0</ele><time>2026-04-25T07:39:41Z</time></trkpt><trkpt lat="43.44215679582315" lon="10.384658688032944"><ele>20.0</ele><time>2026-04-25T07:39:42Z</time></trkpt><trkpt lat="43.44225975566197" lon="10.384578304710093"><ele>20.0</ele><time>2026-04-25T07:39:44Z</time></trkpt><trkpt lat="43.442359826459466" lon="10.384497295549243"><ele>20.0</ele><time>2026-04-25T07:39:46Z</time></trkpt><trkpt lat="43.442473616746504" lon="10.384428932477691"><ele>18.5</ele><time>2026-04-25T07:39:48Z</time></trkpt><trkpt lat="43.44257489871905" lon="10.384343072180275"><ele>17.0</ele><time>2026-04-25T07:39:50Z</time></trkpt><trkpt lat="43.44268096456763" lon="10.384268784605974"><ele>15.5</ele><time>2026-04-25T07:39:52Z</time></trkpt><trkpt lat="43.442784344782496" lon="10.38418826377171"><ele>14.0</ele><time>2026-04-25T07:39:54Z</time></trkpt><trkpt lat="43.44289155699819" lon="10.384115120995208"><ele>13.799999999999999</ele><time>2026-04-25T07:39:56Z</time></trkpt><trkpt lat="43.44299884286189" lon="10.384036136067675"><ele>13.599999999999998</ele><time>2026-04-25T07:39:58Z</time></trkpt><trkpt lat="43.44310401519363" lon="10.383961769341777"><ele>13.4</ele><time>2026-04-25T07:40:00Z</time></trkpt><trkpt lat="43.44319655244835" lon="10.383883914509514"><ele>13.2</ele><time>2026-04-25T07:40:02Z</time></trkpt><trkpt lat="43.44325528722518" lon="10.383840524006535"><ele>13.0</ele><time>2026-04-25T07:40:03Z</time></trkpt><trkpt lat="43.44336680919" lon="10.38376899626291"><ele>13.0</ele><time>2026-04-25T07:40:05Z</time></trkpt><trkpt lat="43.443470187797665" lon="10.383690605054696"><ele>13.0</ele><time>2026-04-25T07:40:07Z</time></trkpt><trkpt lat="43.44357307945609" lon="10.383610241640168"><ele>13.0</ele><time>2026-04-25T07:40:09Z</time></trkpt><trkpt lat="43.44367207912348" lon="10.383521341672427"><ele>13.0</ele><time>2026-04-25T07:40:11Z</time></trkpt><trkpt lat="43.4437744649754" lon="10.383465436664011"><ele>14.2</ele><time>2026-04-25T07:40:13Z</time></trkpt><trkpt lat="43.44387340947854" lon="10.38339462019942"><ele>15.4</ele><time>2026-04-25T07:40:15Z</time></trkpt><trkpt lat="43.44396934952988" lon="10.383340877205976"><ele>16.599999999999998</ele><time>2026-04-25T07:40:16.999Z</time></trkpt><trkpt lat="43.44406339230506" lon="10.383286651030579"><ele>17.8</ele><time>2026-04-25T07:40:18.999Z</time></trkpt><trkpt lat="43.444152300025955" lon="10.383251477316405"><ele>19.0</ele><time>2026-04-25T07:40:20.999Z</time></trkpt><trkpt lat="43.44423350087769" lon="10.38320818991401"><ele>19.0</ele><time>2026-04-25T07:40:22.999Z</time></trkpt><trkpt lat="43.44431445328122" lon="10.383173987430672"><ele>19.0</ele><time>2026-04-25T07:40:24.999Z</time></trkpt><trkpt lat="43.444399056469145" lon="10.383145894492039"><ele>19.0</ele><time>2026-04-25T07:40:26.999Z</time></trkpt><trkpt lat="43.44447110359076" lon="10.383122603030785"><ele>19.0</ele><time>2026-04-25T07:40:29Z</time></trkpt><trkpt lat="43.44456252906288" lon="10.383090118762249"><ele>19.0</ele><time>2026-04-25T07:40:31Z</time></trkpt><trkpt lat="43.444638921802664" lon="10.383073632603736"><ele>19.0</ele><time>2026-04-25T07:40:33Z</time></trkpt><trkpt lat="43.44471027414652" lon="10.383047434494706"><ele>20.0</ele><time>2026-04-25T07:40:35Z</time></trkpt><trkpt lat="43.444793439572166" lon="10.383025816955714"><ele>21.0</ele><time>2026-04-25T07:40:37Z</time></trkpt><trkpt lat="43.44487515052501" lon="10.383003625690767"><ele>22.0</ele><time>2026-04-25T07:40:39Z</time></trkpt><trkpt lat="43.444951825032526" lon="10.382980234791326"><ele>23.0</ele><time>2026-04-25T07:40:41Z</time></trkpt><trkpt lat="43.44503357368767" lon="10.382958573992951"><ele>24.000000000000004</ele><time>2026-04-25T07:40:43Z</time></trkpt><trkpt lat="43.44511637607383" lon="10.382928447595852"><ele>25.0</ele><time>2026-04-25T07:40:45Z</time></trkpt><trkpt lat="43.44520889573352" lon="10.382912199024446"><ele>22.6</ele><time>2026-04-25T07:40:47Z</time></trkpt><trkpt lat="43.4452978892461" lon="10.3829282516539"><ele>20.2</ele><time>2026-04-25T07:40:49Z</time></trkpt><trkpt lat="43.445386357319585" lon="10.382936240982893"><ele>17.8</ele><time>2026-04-25T07:40:51Z</time></trkpt><trkpt lat="43.445478843826216" lon="10.38294354828566"><ele>15.4</ele><time>2026-04-25T07:40:53Z</time></trkpt><trkpt lat="43.445572270112656" lon="10.382948442326489"><ele>13.0</ele><time>2026-04-25T07:40:55Z</time></trkpt><trkpt lat="43.44566477504009" lon="10.382946028844739"><ele>13.0</ele><time>2026-04-25T07:40:57Z</time></trkpt><trkpt lat="43.44575445148365" lon="10.382912421245546"><ele>13.0</ele><time>2026-04-25T07:40:59Z</time></trkpt><trkpt lat="43.445850111766696" lon="10.382855440135431"><ele>13.0</ele><time>2026-04-25T07:41:01Z</time></trkpt><trkpt lat="43.44595056971337" lon="10.382785468240494"><ele>13.0</ele><time>2026-04-25T07:41:03Z</time></trkpt><trkpt lat="43.44605362276279" lon="10.382713389844664"><ele>13.0</ele><time>2026-04-25T07:41:05Z</time></trkpt><trkpt lat="43.44615925447125" lon="10.382636144958354"><ele>13.0</ele><time>2026-04-25T07:41:07Z</time></trkpt><trkpt lat="43.4462672182177" lon="10.382550420677097"><ele>13.0</ele><time>2026-04-25T07:41:09Z</time></trkpt><trkpt lat="43.44637252758115" lon="10.382464970328186"><ele>13.0</ele><time>2026-04-25T07:41:11Z</time></trkpt><trkpt lat="43.44647634593742" lon="10.382366973017843"><ele>13.0</ele><time>2026-04-25T07:41:13Z</time></trkpt><trkpt lat="43.446529492428375" lon="10.382317154842166"><ele>13.0</ele><time>2026-04-25T07:41:14Z</time></trkpt><trkpt lat="43.44658508858442" lon="10.382271231693869"><ele>12.428571428571429</ele><time>2026-04-25T07:41:15Z</time></trkpt><trkpt lat="43.44664060130696" lon="10.38222123195841"><ele>11.857142857142858</ele><time>2026-04-25T07:41:16Z</time></trkpt><trkpt lat="43.44669612135404" lon="10.382167849583112"><ele>11.285714285714286</ele><time>2026-04-25T07:41:17Z</time></trkpt><trkpt lat="43.44675401386709" lon="10.382116805901349"><ele>10.714285714285715</ele><time>2026-04-25T07:41:18Z</time></trkpt><trkpt lat="43.4468108958556" lon="10.382064040575568"><ele>10.142857142857142</ele><time>2026-04-25T07:41:19Z</time></trkpt><trkpt lat="43.44686754807748" lon="10.382011410048287"><ele>9.571428571428573</ele><time>2026-04-25T07:41:20Z</time></trkpt><trkpt lat="43.44692528972611" lon="10.38195669165485"><ele>9.0</ele><time>2026-04-25T07:41:21Z</time></trkpt><trkpt lat="43.44698308185564" lon="10.38190502867326"><ele>9.000000000000002</ele><time>2026-04-25T07:41:22Z</time></trkpt><trkpt lat="43.44704201008656" lon="10.38185535294581"><ele>9.0</ele><time>2026-04-25T07:41:23Z</time></trkpt><trkpt lat="43.447099125699886" lon="10.381799970016733"><ele>9.0</ele><time>2026-04-25T07:41:24Z</time></trkpt><trkpt lat="43.44715774553069" lon="10.381741238682066"><ele>9.0</ele><time>2026-04-25T07:41:25Z</time></trkpt><trkpt lat="43.44721861080651" lon="10.38168524197696"><ele>9.0</ele><time>2026-04-25T07:41:26Z</time></trkpt><trkpt lat="43.44728145909465" lon="10.381628121979222"><ele>9.000000000000002</ele><time>2026-04-25T07:41:27Z</time></trkpt><trkpt lat="43.44734978732557" lon="10.381565983253756"><ele>9.0</ele><time>2026-04-25T07:41:28Z</time></trkpt><trkpt lat="43.44741098789378" lon="10.381505613654314"><ele>9.333333333333334</ele><time>2026-04-25T07:41:29Z</time></trkpt><trkpt lat="43.44747892553236" lon="10.38144022934844"><ele>9.666666666666666</ele><time>2026-04-25T07:41:30Z</time></trkpt><trkpt lat="43.44754137031431" lon="10.381374432628903"><ele>10.0</ele><time>2026-04-25T07:41:31Z</time></trkpt><trkpt lat="43.44761607285473" lon="10.381316341983338"><ele>10.333333333333332</ele><time>2026-04-25T07:41:32Z</time></trkpt><trkpt lat="43.44768716841758" lon="10.381249544156718"><ele>10.666666666666666</ele><time>2026-04-25T07:41:33Z</time></trkpt><trkpt lat="43.44775786082719" lon="10.381183478953789"><ele>11.0</ele><time>2026-04-25T07:41:34Z</time></trkpt><trkpt lat="43.44783002864244" lon="10.381116301587051"><ele>11.0</ele><time>2026-04-25T07:41:35Z</time></trkpt><trkpt lat="43.4479051625212" lon="10.3810499827974"><ele>11.0</ele><time>2026-04-25T07:41:36Z</time></trkpt><trkpt lat="43.44797778534968" lon="10.38097988563856"><ele>11.0</ele><time>2026-04-25T07:41:37Z</time></trkpt><trkpt lat="43.44805158191298" lon="10.380911315307404"><ele>11.0</ele><time>2026-04-25T07:41:38Z</time></trkpt><trkpt lat="43.448124721233754" lon="10.380834223633864"><ele>11.0</ele><time>2026-04-25T07:41:39Z</time></trkpt><trkpt lat="43.44819825207282" lon="10.3807554921679"><ele>10.8</ele><time>2026-04-25T07:41:40Z</time></trkpt><trkpt lat="43.448277996909376" lon="10.38068783762309"><ele>10.600000000000001</ele><time>2026-04-25T07:41:41Z</time></trkpt><trkpt lat="43.44835723658441" lon="10.38060856357397"><ele>10.4</ele><time>2026-04-25T07:41:42Z</time></trkpt><trkpt lat="43.44843354937239" lon="10.380530691332227"><ele>10.2</ele><time>2026-04-25T07:41:43Z</time></trkpt><trkpt lat="43.448519301744064" lon="10.38046791711982"><ele>10.0</ele><time>2026-04-25T07:41:44Z</time></trkpt><trkpt lat="43.44860229088357" lon="10.380394346880935"><ele>10.0</ele><time>2026-04-25T07:41:45Z</time></trkpt><trkpt lat="43.44868161792425" lon="10.38032113900714"><ele>10.0</ele><time>2026-04-25T07:41:46Z</time></trkpt><trkpt lat="43.448759057388465" lon="10.380243421482763"><ele>10.0</ele><time>2026-04-25T07:41:47Z</time></trkpt><trkpt lat="43.448841746453" lon="10.380162737400235"><ele>10.0</ele><time>2026-04-25T07:41:48Z</time></trkpt><trkpt lat="43.44892255389354" lon="10.380090886343364"><ele>10.0</ele><time>2026-04-25T07:41:49Z</time></trkpt><trkpt lat="43.449003650320975" lon="10.380013539481695"><ele>10.2</ele><time>2026-04-25T07:41:50Z</time></trkpt><trkpt lat="43.449082047538134" lon="10.379937689897472"><ele>10.4</ele><time>2026-04-25T07:41:51Z</time></trkpt><trkpt lat="43.449157764746914" lon="10.379858989480688"><ele>10.600000000000001</ele><time>2026-04-25T07:41:52Z</time></trkpt><trkpt lat="43.449229397426144" lon="10.379774314223464"><ele>10.8</ele><time>2026-04-25T07:41:53Z</time></trkpt><trkpt lat="43.44930140330079" lon="10.37970286631612"><ele>11.0</ele><time>2026-04-25T07:41:54Z</time></trkpt><trkpt lat="43.44937308417477" lon="10.379638852272254"><ele>11.333333333333332</ele><time>2026-04-25T07:41:55Z</time></trkpt><trkpt lat="43.44944117111375" lon="10.379567264003759"><ele>11.666666666666666</ele><time>2026-04-25T07:41:56Z</time></trkpt><trkpt lat="43.449504298451764" lon="10.379492321951428"><ele>12.0</ele><time>2026-04-25T07:41:57Z</time></trkpt><trkpt lat="43.449571550901005" lon="10.379430221389505"><ele>12.333333333333332</ele><time>2026-04-25T07:41:58Z</time></trkpt><trkpt lat="43.44963645065898" lon="10.379367726998602"><ele>12.666666666666666</ele><time>2026-04-25T07:41:59Z</time></trkpt><trkpt lat="43.44969711741256" lon="10.379306557320584"><ele>13.0</ele><time>2026-04-25T07:42:00Z</time></trkpt><trkpt lat="43.44975845642075" lon="10.37924258681976"><ele>12.999999999999998</ele><time>2026-04-25T07:42:01Z</time></trkpt><trkpt lat="43.44981240518815" lon="10.379196453841692"><ele>13.0</ele><time>2026-04-25T07:42:02Z</time></trkpt><trkpt lat="43.449923908043" lon="10.379204774656941"><ele>13.0</ele><time>2026-04-25T07:42:04Z</time></trkpt><trkpt lat="43.44996807658253" lon="10.379292818890962"><ele>13.0</ele><time>2026-04-25T07:42:05Z</time></trkpt><trkpt lat="43.449990810368966" lon="10.379390372742398"><ele>12.999999999999998</ele><time>2026-04-25T07:42:06Z</time></trkpt><trkpt lat="43.45004293334483" lon="10.379481553322341"><ele>13.0</ele><time>2026-04-25T07:42:08Z</time></trkpt><trkpt lat="43.45019364405324" lon="10.379374409539647"><ele>13.0</ele><time>2026-04-25T07:42:12Z</time></trkpt><trkpt lat="43.45021831160061" lon="10.37927478119354"><ele>13.0</ele><time>2026-04-25T07:42:14Z</time></trkpt><trkpt lat="43.450236241896626" lon="10.379165946138802"><ele>13.0</ele><time>2026-04-25T07:42:16Z</time></trkpt><trkpt lat="43.45026993115807" lon="10.379091736304837"><ele>13.0</ele><time>2026-04-25T07:42:18Z</time></trkpt><trkpt lat="43.45030187657798" lon="10.378998014381747"><ele>13.0</ele><time>2026-04-25T07:42:19.999Z</time></trkpt><trkpt lat="43.45033177128908" lon="10.378903045238484"><ele>13.0</ele><time>2026-04-25T07:42:21.999Z</time></trkpt><trkpt lat="43.45035924088728" lon="10.378808539604046"><ele>13.0</ele><time>2026-04-25T07:42:23.999Z</time></trkpt><trkpt lat="43.45041307844326" lon="10.378717291199838"><ele>14.833333333333332</ele><time>2026-04-25T07:42:25.999Z</time></trkpt><trkpt lat="43.45046092366011" lon="10.378635182233506"><ele>16.666666666666664</ele><time>2026-04-25T07:42:27.999Z</time></trkpt><trkpt lat="43.45050372144159" lon="10.37854294391792"><ele>18.5</ele><time>2026-04-25T07:42:29.999Z</time></trkpt><trkpt lat="43.45054428214132" lon="10.378436675616154"><ele>20.333333333333332</ele><time>2026-04-25T07:42:31.999Z</time></trkpt><trkpt lat="43.45058992200397" lon="10.378360411994704"><ele>22.166666666666668</ele><time>2026-04-25T07:42:34Z</time></trkpt><trkpt lat="43.45063415658212" lon="10.378270786404222"><ele>24.0</ele><time>2026-04-25T07:42:36Z</time></trkpt><trkpt lat="43.45067635447714" lon="10.378193416277268"><ele>24.0</ele><time>2026-04-25T07:42:38Z</time></trkpt><trkpt lat="43.45072006160662" lon="10.37810033589313"><ele>24.0</ele><time>2026-04-25T07:42:40Z</time></trkpt><trkpt lat="43.45076402167415" lon="10.378016497246238"><ele>24.0</ele><time>2026-04-25T07:42:42Z</time></trkpt><trkpt lat="43.45080760522972" lon="10.377927522214188"><ele>24.0</ele><time>2026-04-25T07:42:44Z</time></trkpt><trkpt lat="43.45085785630772" lon="10.37784611096361"><ele>24.0</ele><time>2026-04-25T07:42:46Z</time></trkpt><trkpt lat="43.45090929889236" lon="10.3777695650159"><ele>24.0</ele><time>2026-04-25T07:42:48Z</time></trkpt><trkpt lat="43.45096389492224" lon="10.37769356408141"><ele>23.166666666666668</ele><time>2026-04-25T07:42:50Z</time></trkpt><trkpt lat="43.45102386483126" lon="10.377632159703778"><ele>22.333333333333332</ele><time>2026-04-25T07:42:52Z</time></trkpt><trkpt lat="43.451079368959626" lon="10.377554921118058"><ele>21.5</ele><time>2026-04-25T07:42:54Z</time></trkpt><trkpt lat="43.45113764321747" lon="10.37748233463939"><ele>20.666666666666664</ele><time>2026-04-25T07:42:56Z</time></trkpt><trkpt lat="43.45119769286486" lon="10.377410497032068"><ele>19.833333333333332</ele><time>2026-04-25T07:42:58Z</time></trkpt><trkpt lat="43.451257990595515" lon="10.377337864013574"><ele>19.0</ele><time>2026-04-25T07:43:00Z</time></trkpt><trkpt lat="43.451314098265534" lon="10.37727119464841"><ele>19.666666666666664</ele><time>2026-04-25T07:43:02Z</time></trkpt><trkpt lat="43.451368402553115" lon="10.377206952954737"><ele>20.333333333333332</ele><time>2026-04-25T07:43:04Z</time></trkpt><trkpt lat="43.4514326754912" lon="10.377156495966997"><ele>21.0</ele><time>2026-04-25T07:43:06Z</time></trkpt><trkpt lat="43.45150410680727" lon="10.37710024989804"><ele>21.666666666666668</ele><time>2026-04-25T07:43:08Z</time></trkpt><trkpt lat="43.45157457449109" lon="10.377046153861881"><ele>22.333333333333336</ele><time>2026-04-25T07:43:10Z</time></trkpt><trkpt lat="43.45164683150591" lon="10.376992358359654"><ele>23.0</ele><time>2026-04-25T07:43:12Z</time></trkpt><trkpt lat="43.451711733808914" lon="10.376942493279325"><ele>23.0</ele><time>2026-04-25T07:43:14Z</time></trkpt><trkpt lat="43.45178483207953" lon="10.37688583360662"><ele>23.0</ele><time>2026-04-25T07:43:16Z</time></trkpt><trkpt lat="43.45188836620674" lon="10.376843672376113"><ele>23.0</ele><time>2026-04-25T07:43:18Z</time></trkpt><trkpt lat="43.45192885448641" lon="10.376761876967334"><ele>23.0</ele><time>2026-04-25T07:43:20Z</time></trkpt><trkpt lat="43.45200569339797" lon="10.376720339971317"><ele>23.0</ele><time>2026-04-25T07:43:22Z</time></trkpt><trkpt lat="43.452073926962775" lon="10.376669463722395"><ele>23.0</ele><time>2026-04-25T07:43:24Z</time></trkpt><trkpt lat="43.452142122027034" lon="10.376610394091765"><ele>23.5</ele><time>2026-04-25T07:43:26Z</time></trkpt><trkpt lat="43.45221083552593" lon="10.376558104018049"><ele>24.0</ele><time>2026-04-25T07:43:28Z</time></trkpt><trkpt lat="43.45227538220946" lon="10.376504393234708"><ele>24.5</ele><time>2026-04-25T07:43:30Z</time></trkpt><trkpt lat="43.45234343933606" lon="10.376452417406727"><ele>25.0</ele><time>2026-04-25T07:43:32Z</time></trkpt><trkpt lat="43.45240890781742" lon="10.376398081744757"><ele>25.499999999999996</ele><time>2026-04-25T07:43:34Z</time></trkpt><trkpt lat="43.4524746967359" lon="10.376342114327757"><ele>26.0</ele><time>2026-04-25T07:43:36Z</time></trkpt><trkpt lat="43.45254282378646" lon="10.376288732159553"><ele>25.999999999999996</ele><time>2026-04-25T07:43:38Z</time></trkpt><trkpt lat="43.45261205465183" lon="10.376240519148299"><ele>26.0</ele><time>2026-04-25T07:43:40Z</time></trkpt><trkpt lat="43.452680030457884" lon="10.376183440449275"><ele>26.0</ele><time>2026-04-25T07:43:42Z</time></trkpt><trkpt lat="43.452751074400894" lon="10.376138555003571"><ele>26.0</ele><time>2026-04-25T07:43:44Z</time></trkpt><trkpt lat="43.45282387443821" lon="10.376092506295095"><ele>25.999999999999996</ele><time>2026-04-25T07:43:46Z</time></trkpt><trkpt lat="43.45289259917053" lon="10.3760310177034"><ele>26.0</ele><time>2026-04-25T07:43:48Z</time></trkpt><trkpt lat="43.452965819248114" lon="10.375978781383749"><ele>27.166666666666664</ele><time>2026-04-25T07:43:50Z</time></trkpt><trkpt lat="43.453038922668924" lon="10.375924081613794"><ele>28.333333333333332</ele><time>2026-04-25T07:43:52Z</time></trkpt><trkpt lat="43.45310900793764" lon="10.375859808393159"><ele>29.5</ele><time>2026-04-25T07:43:54Z</time></trkpt><trkpt lat="43.45317696626348" lon="10.375788335085815"><ele>30.666666666666664</ele><time>2026-04-25T07:43:56Z</time></trkpt><trkpt lat="43.45325291995027" lon="10.375740456817363"><ele>31.833333333333332</ele><time>2026-04-25T07:43:58Z</time></trkpt><trkpt lat="43.453328074360655" lon="10.3756901109167"><ele>33.0</ele><time>2026-04-25T07:44:00Z</time></trkpt><trkpt lat="43.45340215137984" lon="10.375631642917359"><ele>33.0</ele><time>2026-04-25T07:44:02Z</time></trkpt><trkpt lat="43.453475564292035" lon="10.375576071576052"><ele>33.0</ele><time>2026-04-25T07:44:04Z</time></trkpt><trkpt lat="43.453551750485985" lon="10.375519125484825"><ele>33.0</ele><time>2026-04-25T07:44:06Z</time></trkpt><trkpt lat="43.453629703092396" lon="10.375458766474862"><ele>33.0</ele><time>2026-04-25T07:44:08Z</time></trkpt><trkpt lat="43.45370479974069" lon="10.375406408610422"><ele>33.0</ele><time>2026-04-25T07:44:10Z</time></trkpt><trkpt lat="43.45378758586927" lon="10.375340414650369"><ele>33.0</ele><time>2026-04-25T07:44:12Z</time></trkpt><trkpt lat="43.45386602634451" lon="10.37528470014303"><ele>32.666666666666664</ele><time>2026-04-25T07:44:14Z</time></trkpt><trkpt lat="43.45394303376216" lon="10.375220754008465"><ele>32.333333333333336</ele><time>2026-04-25T07:44:16Z</time></trkpt><trkpt lat="43.45402435550428" lon="10.375155430777175"><ele>32.0</ele><time>2026-04-25T07:44:18Z</time></trkpt><trkpt lat="43.45410122074096" lon="10.375098195100012"><ele>31.666666666666668</ele><time>2026-04-25T07:44:20Z</time></trkpt><trkpt lat="43.4541781713126" lon="10.375034124315782"><ele>31.333333333333336</ele><time>2026-04-25T07:44:22Z</time></trkpt><trkpt lat="43.45425580882408" lon="10.374977517735182"><ele>31.0</ele><time>2026-04-25T07:44:24Z</time></trkpt><trkpt lat="43.45433421933064" lon="10.374913531806694"><ele>31.0</ele><time>2026-04-25T07:44:26Z</time></trkpt><trkpt lat="43.454419962901824" lon="10.374866799618285"><ele>31.0</ele><time>2026-04-25T07:44:28Z</time></trkpt><trkpt lat="43.45449515075137" lon="10.374793646809865"><ele>31.0</ele><time>2026-04-25T07:44:29.999Z</time></trkpt><trkpt lat="43.4545630563522" lon="10.374736990843354"><ele>31.0</ele><time>2026-04-25T07:44:31.999Z</time></trkpt><trkpt lat="43.454643861296425" lon="10.374657241172534"><ele>31.0</ele><time>2026-04-25T07:44:33.999Z</time></trkpt><trkpt lat="43.45471538518654" lon="10.374573498941814"><ele>31.200000000000003</ele><time>2026-04-25T07:44:35.999Z</time></trkpt><trkpt lat="43.45479035359919" lon="10.374495425950002"><ele>31.400000000000002</ele><time>2026-04-25T07:44:37.999Z</time></trkpt><trkpt lat="43.45486148441713" lon="10.374409065965203"><ele>31.6</ele><time>2026-04-25T07:44:40Z</time></trkpt><trkpt lat="43.45492692823912" lon="10.374312971001265"><ele>31.8</ele><time>2026-04-25T07:44:42Z</time></trkpt><trkpt lat="43.454995287966106" lon="10.374244500803869"><ele>32.0</ele><time>2026-04-25T07:44:44Z</time></trkpt><trkpt lat="43.455064212691" lon="10.374155333254356"><ele>32.0</ele><time>2026-04-25T07:44:46Z</time></trkpt><trkpt lat="43.45513860565664" lon="10.37407743498666"><ele>32.0</ele><time>2026-04-25T07:44:48Z</time></trkpt><trkpt lat="43.45520691618026" lon="10.373989424363463"><ele>32.0</ele><time>2026-04-25T07:44:50Z</time></trkpt><trkpt lat="43.45528077094221" lon="10.373909352522027"><ele>32.0</ele><time>2026-04-25T07:44:52Z</time></trkpt><trkpt lat="43.455351791470385" lon="10.373812400198313"><ele>32.0</ele><time>2026-04-25T07:44:54Z</time></trkpt><trkpt lat="43.455422338739176" lon="10.373721902388615"><ele>32.2</ele><time>2026-04-25T07:44:56Z</time></trkpt><trkpt lat="43.45549290748149" lon="10.373637915747892"><ele>32.400000000000006</ele><time>2026-04-25T07:44:58Z</time></trkpt><trkpt lat="43.45556416461214" lon="10.373551454449927"><ele>32.599999999999994</ele><time>2026-04-25T07:45:00Z</time></trkpt><trkpt lat="43.455629050647694" lon="10.373469682532486"><ele>32.8</ele><time>2026-04-25T07:45:02Z</time></trkpt><trkpt lat="43.45569942395549" lon="10.373382774075164"><ele>33.0</ele><time>2026-04-25T07:45:04Z</time></trkpt><trkpt lat="43.45577018355717" lon="10.373301995202175"><ele>33.0</ele><time>2026-04-25T07:45:06Z</time></trkpt><trkpt lat="43.455832246202114" lon="10.37321195241004"><ele>33.0</ele><time>2026-04-25T07:45:08Z</time></trkpt><trkpt lat="43.45590166313821" lon="10.373140702357547"><ele>33.0</ele><time>2026-04-25T07:45:10Z</time></trkpt><trkpt lat="43.45596857675734" lon="10.373055912573578"><ele>33.0</ele><time>2026-04-25T07:45:12Z</time></trkpt><trkpt lat="43.456038768526646" lon="10.372968034261937"><ele>33.0</ele><time>2026-04-25T07:45:14Z</time></trkpt><trkpt lat="43.45610953160829" lon="10.372884260086453"><ele>32.4</ele><time>2026-04-25T07:45:16Z</time></trkpt><trkpt lat="43.456186799705904" lon="10.372792254787923"><ele>31.799999999999997</ele><time>2026-04-25T07:45:18Z</time></trkpt><trkpt lat="43.456265583378745" lon="10.372699468087164"><ele>31.2</ele><time>2026-04-25T07:45:20Z</time></trkpt><trkpt lat="43.456345109735366" lon="10.372605192842677"><ele>30.6</ele><time>2026-04-25T07:45:22Z</time></trkpt><trkpt lat="43.45642437072181" lon="10.372503378378434"><ele>30.0</ele><time>2026-04-25T07:45:24Z</time></trkpt><trkpt lat="43.456503475193344" lon="10.372411446354437"><ele>30.0</ele><time>2026-04-25T07:45:26Z</time></trkpt><trkpt lat="43.45658476259407" lon="10.372314758763142"><ele>30.0</ele><time>2026-04-25T07:45:28Z</time></trkpt><trkpt lat="43.45665672855573" lon="10.372211433660029"><ele>30.0</ele><time>2026-04-25T07:45:30Z</time></trkpt><trkpt lat="43.456747225939615" lon="10.372109034914045"><ele>30.0</ele><time>2026-04-25T07:45:32Z</time></trkpt><trkpt lat="43.45683202267768" lon="10.372007194364667"><ele>30.0</ele><time>2026-04-25T07:45:34Z</time></trkpt><trkpt lat="43.45692026017639" lon="10.371898191966284"><ele>31.0</ele><time>2026-04-25T07:45:36Z</time></trkpt><trkpt lat="43.4570046293371" lon="10.371799166622228"><ele>32.0</ele><time>2026-04-25T07:45:38Z</time></trkpt><trkpt lat="43.457094543608356" lon="10.371697545225924"><ele>33.0</ele><time>2026-04-25T07:45:40Z</time></trkpt><trkpt lat="43.457183063968934" lon="10.371595320838917"><ele>34.0</ele><time>2026-04-25T07:45:42Z</time></trkpt><trkpt lat="43.4572714185481" lon="10.371482241487119"><ele>34.0</ele><time>2026-04-25T07:45:44Z</time></trkpt><trkpt lat="43.45735990688082" lon="10.371374762837306"><ele>34.0</ele><time>2026-04-25T07:45:46Z</time></trkpt><trkpt lat="43.45744941353644" lon="10.371264438430494"><ele>34.0</ele><time>2026-04-25T07:45:48Z</time></trkpt><trkpt lat="43.45754311992028" lon="10.371154682037108"><ele>34.0</ele><time>2026-04-25T07:45:50Z</time></trkpt><trkpt lat="43.45758537814015" lon="10.371090086506646"><ele>34.0</ele><time>2026-04-25T07:45:51Z</time></trkpt><trkpt lat="43.45767890221237" lon="10.371004550769937"><ele>32.2</ele><time>2026-04-25T07:45:53Z</time></trkpt><trkpt lat="43.457762013820734" lon="10.370897241039964"><ele>30.4</ele><time>2026-04-25T07:45:55Z</time></trkpt><trkpt lat="43.457835170887066" lon="10.370771826243493"><ele>28.6</ele><time>2026-04-25T07:45:57Z</time></trkpt><trkpt lat="43.457900922807546" lon="10.370634684634117"><ele>26.8</ele><time>2026-04-25T07:45:59Z</time></trkpt><trkpt lat="43.4579305857482" lon="10.370555813338182"><ele>25.0</ele><time>2026-04-25T07:46:00Z</time></trkpt><trkpt lat="43.4579600817166" lon="10.370477755247817"><ele>24.857142857142858</ele><time>2026-04-25T07:46:01Z</time></trkpt><trkpt lat="43.45799020659659" lon="10.370397194542356"><ele>24.714285714285715</ele><time>2026-04-25T07:46:02Z</time></trkpt><trkpt lat="43.45801647597645" lon="10.37031478307345"><ele>24.57142857142857</ele><time>2026-04-25T07:46:03Z</time></trkpt><trkpt lat="43.45804395589822" lon="10.370235231589394"><ele>24.42857142857143</ele><time>2026-04-25T07:46:04Z</time></trkpt><trkpt lat="43.45807476975716" lon="10.370147216225666"><ele>24.285714285714285</ele><time>2026-04-25T07:46:05Z</time></trkpt><trkpt lat="43.45810334719806" lon="10.370060276722741"><ele>24.142857142857142</ele><time>2026-04-25T07:46:06Z</time></trkpt><trkpt lat="43.458129595604376" lon="10.369972888193482"><ele>24.0</ele><time>2026-04-25T07:46:07Z</time></trkpt><trkpt lat="43.45815282108219" lon="10.369879689087282"><ele>23.999999999999996</ele><time>2026-04-25T07:46:08Z</time></trkpt><trkpt lat="43.4581764656106" lon="10.36978879624561"><ele>24.0</ele><time>2026-04-25T07:46:09Z</time></trkpt><trkpt lat="43.45820659277378" lon="10.369700394363974"><ele>24.0</ele><time>2026-04-25T07:46:10Z</time></trkpt><trkpt lat="43.458233085961396" lon="10.369604581484197"><ele>24.0</ele><time>2026-04-25T07:46:11Z</time></trkpt><trkpt lat="43.45826107325734" lon="10.369514259663648"><ele>24.0</ele><time>2026-04-25T07:46:12Z</time></trkpt><trkpt lat="43.45828593542652" lon="10.369421584475312"><ele>23.999999999999996</ele><time>2026-04-25T07:46:13Z</time></trkpt><trkpt lat="43.458314886918906" lon="10.36932776100385"><ele>24.0</ele><time>2026-04-25T07:46:14Z</time></trkpt><trkpt lat="43.45834260416744" lon="10.36923319012963"><ele>23.5</ele><time>2026-04-25T07:46:15Z</time></trkpt><trkpt lat="43.458371896562504" lon="10.369135836743846"><ele>23.0</ele><time>2026-04-25T07:46:16Z</time></trkpt><trkpt lat="43.45839916887472" lon="10.369039369194622"><ele>22.5</ele><time>2026-04-25T07:46:17Z</time></trkpt><trkpt lat="43.45842926430274" lon="10.368943302077858"><ele>22.0</ele><time>2026-04-25T07:46:18Z</time></trkpt><trkpt lat="43.45846588481325" lon="10.368853683645328"><ele>21.5</ele><time>2026-04-25T07:46:19Z</time></trkpt><trkpt lat="43.45850262060056" lon="10.368763636107694"><ele>21.0</ele><time>2026-04-25T07:46:20Z</time></trkpt><trkpt lat="43.45853891024818" lon="10.368676579436906"><ele>21.0</ele><time>2026-04-25T07:46:21Z</time></trkpt><trkpt lat="43.45857672848395" lon="10.368594707996166"><ele>21.0</ele><time>2026-04-25T07:46:22Z</time></trkpt><trkpt lat="43.458617423296886" lon="10.368518792377904"><ele>21.0</ele><time>2026-04-25T07:46:23Z</time></trkpt><trkpt lat="43.45866359996623" lon="10.368454561307303"><ele>21.0</ele><time>2026-04-25T07:46:24Z</time></trkpt><trkpt lat="43.45875616379995" lon="10.368348497099845"><ele>21.0</ele><time>2026-04-25T07:46:26Z</time></trkpt><trkpt lat="43.45884436301793" lon="10.368250315187717"><ele>21.0</ele><time>2026-04-25T07:46:28Z</time></trkpt><trkpt lat="43.4589330057491" lon="10.368151635607097"><ele>21.4</ele><time>2026-04-25T07:46:30Z</time></trkpt><trkpt lat="43.459026394110445" lon="10.368073836842514"><ele>21.8</ele><time>2026-04-25T07:46:32Z</time></trkpt><trkpt lat="43.45911740518059" lon="10.36798553822572"><ele>22.2</ele><time>2026-04-25T07:46:33.999Z</time></trkpt><trkpt lat="43.45920347694644" lon="10.367892144154597"><ele>22.599999999999998</ele><time>2026-04-25T07:46:35.999Z</time></trkpt><trkpt lat="43.45928685648459" lon="10.367812734366709"><ele>23.0</ele><time>2026-04-25T07:46:37.999Z</time></trkpt><trkpt lat="43.45937333944134" lon="10.367744791563215"><ele>23.0</ele><time>2026-04-25T07:46:39.999Z</time></trkpt><trkpt lat="43.45945790404812" lon="10.367670605546191"><ele>23.0</ele><time>2026-04-25T07:46:41.999Z</time></trkpt><trkpt lat="43.45954845398001" lon="10.367590808650517"><ele>23.0</ele><time>2026-04-25T07:46:43.999Z</time></trkpt><trkpt lat="43.45966445658211" lon="10.367549566692944"><ele>23.0</ele><time>2026-04-25T07:46:46Z</time></trkpt><trkpt lat="43.45978219092126" lon="10.36751216248209"><ele>23.0</ele><time>2026-04-25T07:46:48Z</time></trkpt><trkpt lat="43.45989562501548" lon="10.367467888900425"><ele>22.4</ele><time>2026-04-25T07:46:50Z</time></trkpt><trkpt lat="43.46000710378024" lon="10.367422186009561"><ele>21.799999999999997</ele><time>2026-04-25T07:46:52Z</time></trkpt><trkpt lat="43.46012076681238" lon="10.367371343708953"><ele>21.2</ele><time>2026-04-25T07:46:54Z</time></trkpt><trkpt lat="43.46023515847722" lon="10.367317806131005"><ele>20.6</ele><time>2026-04-25T07:46:56Z</time></trkpt><trkpt lat="43.460294890807475" lon="10.367285974419836"><ele>20.0</ele><time>2026-04-25T07:46:57Z</time></trkpt><trkpt lat="43.46040546047791" lon="10.367208773906134"><ele>18.8</ele><time>2026-04-25T07:46:59Z</time></trkpt><trkpt lat="43.460505244942844" lon="10.367127791821998"><ele>17.6</ele><time>2026-04-25T07:47:01Z</time></trkpt><trkpt lat="43.46058722563208" lon="10.36702381139242"><ele>16.4</ele><time>2026-04-25T07:47:03Z</time></trkpt><trkpt lat="43.46066481456185" lon="10.366915061427777"><ele>15.2</ele><time>2026-04-25T07:47:05Z</time></trkpt><trkpt lat="43.460728428769464" lon="10.366800204935538"><ele>14.0</ele><time>2026-04-25T07:47:07Z</time></trkpt><trkpt lat="43.4607793636132" lon="10.366685769240688"><ele>14.000000000000002</ele><time>2026-04-25T07:47:09Z</time></trkpt><trkpt lat="43.46083382585053" lon="10.366569892733164"><ele>14.0</ele><time>2026-04-25T07:47:11Z</time></trkpt><trkpt lat="43.46086691954772" lon="10.366456994003101"><ele>14.0</ele><time>2026-04-25T07:47:13Z</time></trkpt><trkpt lat="43.46089960501907" lon="10.366354750314313"><ele>14.0</ele><time>2026-04-25T07:47:15Z</time></trkpt><trkpt lat="43.460921031402414" lon="10.366262620234714"><ele>14.000000000000002</ele><time>2026-04-25T07:47:17Z</time></trkpt><trkpt lat="43.460933544685666" lon="10.36616342345713"><ele>14.0</ele><time>2026-04-25T07:47:19Z</time></trkpt><trkpt lat="43.460950927903674" lon="10.36605677128096"><ele>15.2</ele><time>2026-04-25T07:47:21Z</time></trkpt><trkpt lat="43.46097734366994" lon="10.365939457695065"><ele>16.4</ele><time>2026-04-25T07:47:23Z</time></trkpt><trkpt lat="43.4610024278649" lon="10.365817680160628"><ele>17.6</ele><time>2026-04-25T07:47:25Z</time></trkpt><trkpt lat="43.46103286623594" lon="10.36569051026625"><ele>18.8</ele><time>2026-04-25T07:47:27Z</time></trkpt><trkpt lat="43.46107343378744" lon="10.36556865670819"><ele>20.0</ele><time>2026-04-25T07:47:29Z</time></trkpt><trkpt lat="43.461122241572205" lon="10.365455635008674"><ele>20.5</ele><time>2026-04-25T07:47:31Z</time></trkpt><trkpt lat="43.461178967342875" lon="10.36535461974337"><ele>21.0</ele><time>2026-04-25T07:47:33Z</time></trkpt><trkpt lat="43.46124450817378" lon="10.36526914363858"><ele>21.5</ele><time>2026-04-25T07:47:35Z</time></trkpt><trkpt lat="43.46130838751411" lon="10.365188643929026"><ele>22.0</ele><time>2026-04-25T07:47:37Z</time></trkpt><trkpt lat="43.46137013304751" lon="10.365102675229553"><ele>22.5</ele><time>2026-04-25T07:47:39Z</time></trkpt><trkpt lat="43.46142971820213" lon="10.365029806053897"><ele>23.0</ele><time>2026-04-25T07:47:41Z</time></trkpt><trkpt lat="43.46148692743597" lon="10.364953259761283"><ele>23.571428571428573</ele><time>2026-04-25T07:47:43Z</time></trkpt><trkpt lat="43.46154899301724" lon="10.364875091434671"><ele>24.142857142857142</ele><time>2026-04-25T07:47:45Z</time></trkpt><trkpt lat="43.46160755251698" lon="10.364806854655782"><ele>24.714285714285715</ele><time>2026-04-25T07:47:47Z</time></trkpt><trkpt lat="43.4616591063508" lon="10.364739492027008"><ele>25.285714285714285</ele><time>2026-04-25T07:47:49Z</time></trkpt><trkpt lat="43.46170383893129" lon="10.364656415682294"><ele>25.857142857142854</ele><time>2026-04-25T07:47:51Z</time></trkpt><trkpt lat="43.46174530904257" lon="10.364577351559932"><ele>26.428571428571427</ele><time>2026-04-25T07:47:53Z</time></trkpt><trkpt lat="43.46177915255199" lon="10.364492436275238"><ele>27.0</ele><time>2026-04-25T07:47:55Z</time></trkpt><trkpt lat="43.461807746816866" lon="10.364407153866635"><ele>27.142857142857142</ele><time>2026-04-25T07:47:57Z</time></trkpt><trkpt lat="43.46183645835335" lon="10.364310821838261"><ele>27.285714285714285</ele><time>2026-04-25T07:47:59Z</time></trkpt><trkpt lat="43.46185748241511" lon="10.364219849168839"><ele>27.42857142857143</ele><time>2026-04-25T07:48:01Z</time></trkpt><trkpt lat="43.46188454770471" lon="10.364124141744949"><ele>27.57142857142857</ele><time>2026-04-25T07:48:03Z</time></trkpt><trkpt lat="43.46191488066799" lon="10.364035369023139"><ele>27.714285714285715</ele><time>2026-04-25T07:48:05Z</time></trkpt><trkpt lat="43.461939374489326" lon="10.363944725536848"><ele>27.857142857142858</ele><time>2026-04-25T07:48:07Z</time></trkpt><trkpt lat="43.461962829457974" lon="10.36384444389311"><ele>28.0</ele><time>2026-04-25T07:48:09Z</time></trkpt><trkpt lat="43.461982348894935" lon="10.363753107040813"><ele>28.666666666666668</ele><time>2026-04-25T07:48:11Z</time></trkpt><trkpt lat="43.462004652339004" lon="10.363660471359195"><ele>29.333333333333336</ele><time>2026-04-25T07:48:13Z</time></trkpt><trkpt lat="43.46202575221727" lon="10.363576838469715"><ele>30.0</ele><time>2026-04-25T07:48:15Z</time></trkpt><trkpt lat="43.462042617510185" lon="10.363490343850856"><ele>30.666666666666664</ele><time>2026-04-25T07:48:17Z</time></trkpt><trkpt lat="43.462070760333205" lon="10.36336459076446"><ele>31.333333333333332</ele><time>2026-04-25T07:48:20Z</time></trkpt><trkpt lat="43.462108689855825" lon="10.36325174050385"><ele>32.0</ele><time>2026-04-25T07:48:23Z</time></trkpt><trkpt lat="43.46214446994398" lon="10.363172514249309"><ele>34.166666666666664</ele><time>2026-04-25T07:48:25Z</time></trkpt><trkpt lat="43.46218092716962" lon="10.363097596102278"><ele>36.33333333333333</ele><time>2026-04-25T07:48:27Z</time></trkpt><trkpt lat="43.46223962563934" lon="10.362998877084982"><ele>38.5</ele><time>2026-04-25T07:48:30Z</time></trkpt><trkpt lat="43.462285048093726" lon="10.36293503873792"><ele>40.666666666666664</ele><time>2026-04-25T07:48:32Z</time></trkpt><trkpt lat="43.462358578140545" lon="10.36285386166149"><ele>42.833333333333336</ele><time>2026-04-25T07:48:35Z</time></trkpt><trkpt lat="43.46243370520743" lon="10.362777606949155"><ele>45.0</ele><time>2026-04-25T07:48:38Z</time></trkpt><trkpt lat="43.46248789541322" lon="10.362728650068025"><ele>45.0</ele><time>2026-04-25T07:48:40Z</time></trkpt><trkpt lat="43.46254178939498" lon="10.362680341137812"><ele>45.0</ele><time>2026-04-25T07:48:42Z</time></trkpt><trkpt lat="43.46260476916017" lon="10.362641072581324"><ele>45.0</ele><time>2026-04-25T07:48:44Z</time></trkpt><trkpt lat="43.46268623048352" lon="10.362595018156998"><ele>45.0</ele><time>2026-04-25T07:48:47Z</time></trkpt><trkpt lat="43.46277096267188" lon="10.362571263170286"><ele>45.0</ele><time>2026-04-25T07:48:50Z</time></trkpt><trkpt lat="43.462852081332095" lon="10.362545855629445"><ele>45.0</ele><time>2026-04-25T07:48:53Z</time></trkpt><trkpt lat="43.46291457617083" lon="10.36252382945882"><ele>47.0</ele><time>2026-04-25T07:48:55Z</time></trkpt><trkpt lat="43.462992905474096" lon="10.362487197333161"><ele>49.0</ele><time>2026-04-25T07:48:58Z</time></trkpt><trkpt lat="43.463074585889515" lon="10.362462163375039"><ele>51.0</ele><time>2026-04-25T07:49:01Z</time></trkpt><trkpt lat="43.463151097975405" lon="10.362426592306262"><ele>53.0</ele><time>2026-04-25T07:49:04Z</time></trkpt><trkpt lat="43.46323743976605" lon="10.362308638288562"><ele>55.0</ele><time>2026-04-25T07:49:07Z</time></trkpt><trkpt lat="43.46327774103968" lon="10.36219317815724"><ele>56.166666666666664</ele><time>2026-04-25T07:49:11Z</time></trkpt><trkpt lat="43.46330100915224" lon="10.362086269423703"><ele>57.33333333333333</ele><time>2026-04-25T07:49:14Z</time></trkpt><trkpt lat="43.463281679570436" lon="10.36196432471705"><ele>58.5</ele><time>2026-04-25T07:49:17Z</time></trkpt><trkpt lat="43.463233290285416" lon="10.361876692794484"><ele>59.66666666666667</ele><time>2026-04-25T07:49:20Z</time></trkpt><trkpt lat="43.46315941098137" lon="10.361813113841562"><ele>60.833333333333336</ele><time>2026-04-25T07:49:23Z</time></trkpt><trkpt lat="43.46309332040543" lon="10.361795799539044"><ele>62.0</ele><time>2026-04-25T07:49:25Z</time></trkpt><trkpt lat="43.462993067895084" lon="10.361787860568468"><ele>60.16666666666667</ele><time>2026-04-25T07:49:28Z</time></trkpt><trkpt lat="43.4629028124674" lon="10.361786881816228"><ele>58.333333333333336</ele><time>2026-04-25T07:49:31Z</time></trkpt><trkpt lat="43.462815692317164" lon="10.361775416799379"><ele>56.5</ele><time>2026-04-25T07:49:34Z</time></trkpt><trkpt lat="43.46272917173246" lon="10.361765739815784"><ele>54.66666666666667</ele><time>2026-04-25T07:49:37Z</time></trkpt><trkpt lat="43.46263762321745" lon="10.361752040896041"><ele>52.833333333333336</ele><time>2026-04-25T07:49:40Z</time></trkpt><trkpt lat="43.46255026284336" lon="10.361736714734539"><ele>51.0</ele><time>2026-04-25T07:49:43Z</time></trkpt><trkpt lat="43.462469413356956" lon="10.361679751809797"><ele>51.0</ele><time>2026-04-25T07:49:46Z</time></trkpt><trkpt lat="43.46241851742942" lon="10.361591046609833"><ele>51.0</ele><time>2026-04-25T07:49:49Z</time></trkpt><trkpt lat="43.46238960724458" lon="10.361476238425439"><ele>51.0</ele><time>2026-04-25T07:49:52Z</time></trkpt><trkpt lat="43.46238056761915" lon="10.361355629960695"><ele>51.0</ele><time>2026-04-25T07:49:55Z</time></trkpt><trkpt lat="43.46237395029778" lon="10.36123498148431"><ele>51.0</ele><time>2026-04-25T07:49:58Z</time></trkpt><trkpt lat="43.46236180491929" lon="10.361117361185958"><ele>51.0</ele><time>2026-04-25T07:50:01Z</time></trkpt><trkpt lat="43.462358296695456" lon="10.360999184480645"><ele>52.166666666666664</ele><time>2026-04-25T07:50:04Z</time></trkpt><trkpt lat="43.462351413537746" lon="10.360877806662213"><ele>53.33333333333333</ele><time>2026-04-25T07:50:07Z</time></trkpt><trkpt lat="43.462345737632866" lon="10.360759239044533"><ele>54.5</ele><time>2026-04-25T07:50:10Z</time></trkpt><trkpt lat="43.46233680447332" lon="10.360644834846635"><ele>55.666666666666664</ele><time>2026-04-25T07:50:13Z</time></trkpt><trkpt lat="43.462332310186405" lon="10.360527433971733"><ele>56.83333333333333</ele><time>2026-04-25T07:50:16Z</time></trkpt><trkpt lat="43.46234847846832" lon="10.360415670270212"><ele>58.0</ele><time>2026-04-25T07:50:19Z</time></trkpt><trkpt lat="43.4623859868784" lon="10.36030751771779"><ele>57.99999999999999</ele><time>2026-04-25T07:50:22Z</time></trkpt><trkpt lat="43.46242342034791" lon="10.360193951502719"><ele>58.0</ele><time>2026-04-25T07:50:25Z</time></trkpt><trkpt lat="43.46246497725077" lon="10.360086143447202"><ele>58.0</ele><time>2026-04-25T07:50:28Z</time></trkpt><trkpt lat="43.462502332728405" lon="10.359976763304225"><ele>58.0</ele><time>2026-04-25T07:50:31Z</time></trkpt><trkpt lat="43.462537838407506" lon="10.35986379863927"><ele>57.99999999999999</ele><time>2026-04-25T07:50:34Z</time></trkpt><trkpt lat="43.462579506441244" lon="10.359766167986544"><ele>58.0</ele><time>2026-04-25T07:50:37Z</time></trkpt><trkpt lat="43.462631922458634" lon="10.3596693007532"><ele>55.83333333333333</ele><time>2026-04-25T07:50:40Z</time></trkpt><trkpt lat="43.46269834080319" lon="10.359603518575247"><ele>53.666666666666664</ele><time>2026-04-25T07:50:43Z</time></trkpt><trkpt lat="43.4627686743988" lon="10.359540994973369"><ele>51.5</ele><time>2026-04-25T07:50:46Z</time></trkpt><trkpt lat="43.462839670132844" lon="10.359479323999258"><ele>49.33333333333333</ele><time>2026-04-25T07:50:49Z</time></trkpt><trkpt lat="43.46291086553139" lon="10.35942195010867"><ele>47.166666666666664</ele><time>2026-04-25T07:50:52Z</time></trkpt><trkpt lat="43.46298015310307" lon="10.359357351415674"><ele>45.0</ele><time>2026-04-25T07:50:55Z</time></trkpt><trkpt lat="43.46305288266123" lon="10.35929956340736"><ele>49.5</ele><time>2026-04-25T07:50:58Z</time></trkpt><trkpt lat="43.46312195862626" lon="10.359234512727403"><ele>54.0</ele><time>2026-04-25T07:51:01Z</time></trkpt><trkpt lat="43.46319376052093" lon="10.359174121209655"><ele>58.5</ele><time>2026-04-25T07:51:04Z</time></trkpt><trkpt lat="43.46326201524024" lon="10.359105315736903"><ele>63.0</ele><time>2026-04-25T07:51:07Z</time></trkpt><trkpt lat="43.463337195422106" lon="10.359072940083704"><ele>67.5</ele><time>2026-04-25T07:51:10Z</time></trkpt><trkpt lat="43.463403793610176" lon="10.359000077714121"><ele>72.0</ele><time>2026-04-25T07:51:13Z</time></trkpt><trkpt lat="43.46347611983652" lon="10.358944868830072"><ele>72.0</ele><time>2026-04-25T07:51:16Z</time></trkpt><trkpt lat="43.46354056557604" lon="10.358875212481708"><ele>72.0</ele><time>2026-04-25T07:51:19Z</time></trkpt><trkpt lat="43.463601345730396" lon="10.358807344432217"><ele>72.0</ele><time>2026-04-25T07:51:22Z</time></trkpt><trkpt lat="43.463647708405276" lon="10.358722017907711"><ele>72.0</ele><time>2026-04-25T07:51:25Z</time></trkpt><trkpt lat="43.46369076324865" lon="10.358627271746968"><ele>72.0</ele><time>2026-04-25T07:51:28Z</time></trkpt><trkpt lat="43.4637218020302" lon="10.358523272760856"><ele>72.0</ele><time>2026-04-25T07:51:31Z</time></trkpt><trkpt lat="43.463742636924025" lon="10.358406395876887"><ele>70.5</ele><time>2026-04-25T07:51:34Z</time></trkpt><trkpt lat="43.46376175603744" lon="10.358291401077398"><ele>69.0</ele><time>2026-04-25T07:51:37Z</time></trkpt><trkpt lat="43.46378530704451" lon="10.358191433160885"><ele>67.5</ele><time>2026-04-25T07:51:40Z</time></trkpt><trkpt lat="43.463802885749494" lon="10.35809229717239"><ele>66.0</ele><time>2026-04-25T07:51:43Z</time></trkpt><trkpt lat="43.46383699220417" lon="10.357997334026207"><ele>64.5</ele><time>2026-04-25T07:51:46Z</time></trkpt><trkpt lat="43.46386832138703" lon="10.358079646210573"><ele>63.0</ele><time>2026-04-25T07:51:49Z</time></trkpt><trkpt lat="43.46385546029547" lon="10.358180309974239"><ele>63.0</ele><time>2026-04-25T07:54:07Z</time></trkpt><trkpt lat="43.463834667952845" lon="10.358284868982796"><ele>63.0</ele><time>2026-04-25T07:54:11Z</time></trkpt><trkpt lat="43.463815370433565" lon="10.358377054744427"><ele>63.0</ele><time>2026-04-25T07:54:14Z</time></trkpt><trkpt lat="43.46379614043951" lon="10.358499836307042"><ele>63.0</ele><time>2026-04-25T07:54:17Z</time></trkpt><trkpt lat="43.46377329920542" lon="10.358623968740845"><ele>63.0</ele><time>2026-04-25T07:54:20Z</time></trkpt><trkpt lat="43.46374910364457" lon="10.358747304436472"><ele>63.0</ele><time>2026-04-25T07:54:23Z</time></trkpt><trkpt lat="43.463733287063945" lon="10.358834804612515"><ele>64.28571428571429</ele><time>2026-04-25T07:54:25Z</time></trkpt><trkpt lat="43.46371927463577" lon="10.358924180249968"><ele>65.57142857142857</ele><time>2026-04-25T07:54:27Z</time></trkpt><trkpt lat="43.463707029098416" lon="10.359016157441413"><ele>66.85714285714286</ele><time>2026-04-25T07:54:29Z</time></trkpt><trkpt lat="43.46369522931666" lon="10.359105306504617"><ele>68.14285714285714</ele><time>2026-04-25T07:54:31Z</time></trkpt><trkpt lat="43.46368724943189" lon="10.35919874114257"><ele>69.42857142857143</ele><time>2026-04-25T07:54:33Z</time></trkpt><trkpt lat="43.46367069413369" lon="10.359292807760328"><ele>70.71428571428572</ele><time>2026-04-25T07:54:35Z</time></trkpt><trkpt lat="43.46365362950399" lon="10.359384974242843"><ele>72.0</ele><time>2026-04-25T07:54:37Z</time></trkpt><trkpt lat="43.46362859956131" lon="10.35946824994856"><ele>72.00000000000001</ele><time>2026-04-25T07:54:39Z</time></trkpt><trkpt lat="43.463588993109084" lon="10.359551602950761"><ele>72.0</ele><time>2026-04-25T07:54:41Z</time></trkpt><trkpt lat="43.46354644399312" lon="10.359617287049016"><ele>72.0</ele><time>2026-04-25T07:54:43Z</time></trkpt><trkpt lat="43.463490365601935" lon="10.359678652882144"><ele>72.0</ele><time>2026-04-25T07:54:45Z</time></trkpt><trkpt lat="43.4634372997623" lon="10.359736025207019"><ele>72.0</ele><time>2026-04-25T07:54:47Z</time></trkpt><trkpt lat="43.46340030823888" lon="10.359819496979473"><ele>72.00000000000001</ele><time>2026-04-25T07:54:49Z</time></trkpt><trkpt lat="43.46335296687135" lon="10.359889228942391"><ele>72.0</ele><time>2026-04-25T07:54:51Z</time></trkpt><trkpt lat="43.46329640934974" lon="10.359990170724064"><ele>73.71428571428572</ele><time>2026-04-25T07:54:54Z</time></trkpt><trkpt lat="43.463250809901936" lon="10.360065453428701"><ele>75.42857142857143</ele><time>2026-04-25T07:54:56Z</time></trkpt><trkpt lat="43.46322132575624" lon="10.360151745823565"><ele>77.14285714285714</ele><time>2026-04-25T07:54:58Z</time></trkpt><trkpt lat="43.463216312096286" lon="10.360256166669217"><ele>78.85714285714286</ele><time>2026-04-25T07:54:59.999Z</time></trkpt><trkpt lat="43.4632327902109" lon="10.360345378570036"><ele>80.57142857142857</ele><time>2026-04-25T07:55:01.999Z</time></trkpt><trkpt lat="43.46327875387301" lon="10.360424588653283"><ele>82.28571428571429</ele><time>2026-04-25T07:55:03.999Z</time></trkpt><trkpt lat="43.46332902523036" lon="10.360486193638408"><ele>84.0</ele><time>2026-04-25T07:55:05.999Z</time></trkpt><trkpt lat="43.463388182189256" lon="10.360525267353056"><ele>84.0</ele><time>2026-04-25T07:55:07.999Z</time></trkpt><trkpt lat="43.4634580427596" lon="10.360539599995507"><ele>84.0</ele><time>2026-04-25T07:55:10Z</time></trkpt><trkpt lat="43.463523571747146" lon="10.360523971305508"><ele>84.0</ele><time>2026-04-25T07:55:12Z</time></trkpt><trkpt lat="43.463585766856056" lon="10.360471907315098"><ele>84.0</ele><time>2026-04-25T07:55:14Z</time></trkpt><trkpt lat="43.46363208114557" lon="10.360360534889832"><ele>84.0</ele><time>2026-04-25T07:55:17Z</time></trkpt><trkpt lat="43.46365109543372" lon="10.360266641376167"><ele>84.0</ele><time>2026-04-25T07:55:19Z</time></trkpt><trkpt lat="43.463660339646864" lon="10.360163061332633"><ele>84.0</ele><time>2026-04-25T07:55:21Z</time></trkpt><trkpt lat="43.4636876025516" lon="10.360071431564583"><ele>84.0</ele><time>2026-04-25T07:55:23Z</time></trkpt><trkpt lat="43.46372170499276" lon="10.359994264868462"><ele>84.0</ele><time>2026-04-25T07:55:25Z</time></trkpt><trkpt lat="43.463756987591196" lon="10.359918914779467"><ele>84.0</ele><time>2026-04-25T07:55:27Z</time></trkpt><trkpt lat="43.463805241102534" lon="10.359846029482018"><ele>84.0</ele><time>2026-04-25T07:55:29Z</time></trkpt><trkpt lat="43.46384879443427" lon="10.359776768229986"><ele>84.0</ele><time>2026-04-25T07:55:31Z</time></trkpt><trkpt lat="43.46388906985597" lon="10.35970575488253"><ele>84.0</ele><time>2026-04-25T07:55:33Z</time></trkpt><trkpt lat="43.463952858947806" lon="10.359597465952012"><ele>86.0</ele><time>2026-04-25T07:55:36Z</time></trkpt><trkpt lat="43.463990291680844" lon="10.35951937849242"><ele>88.0</ele><time>2026-04-25T07:55:38Z</time></trkpt><trkpt lat="43.46402402623465" lon="10.359437722907963"><ele>90.0</ele><time>2026-04-25T07:55:40Z</time></trkpt><trkpt lat="43.46405222757275" lon="10.359359644158292"><ele>92.0</ele><time>2026-04-25T07:55:42Z</time></trkpt><trkpt lat="43.46407761737964" lon="10.359274260013995"><ele>94.0</ele><time>2026-04-25T07:55:44Z</time></trkpt><trkpt lat="43.46410802200494" lon="10.359185678888386"><ele>96.0</ele><time>2026-04-25T07:55:46Z</time></trkpt><trkpt lat="43.46413381759938" lon="10.359102360100831"><ele>98.0</ele><time>2026-04-25T07:55:48Z</time></trkpt><trkpt lat="43.46416414512244" lon="10.358980356753678"><ele>96.71428571428571</ele><time>2026-04-25T07:55:51Z</time></trkpt><trkpt lat="43.46419764035118" lon="10.358863952929811"><ele>95.42857142857143</ele><time>2026-04-25T07:55:54Z</time></trkpt><trkpt lat="43.46421076029008" lon="10.35877429086387"><ele>94.14285714285714</ele><time>2026-04-25T07:55:56Z</time></trkpt><trkpt lat="43.46423936674413" lon="10.358646772451166"><ele>92.85714285714286</ele><time>2026-04-25T07:55:59Z</time></trkpt><trkpt lat="43.46426673311482" lon="10.358567546116218"><ele>91.57142857142857</ele><time>2026-04-25T07:56:01Z</time></trkpt><trkpt lat="43.46429200328631" lon="10.358481198490638"><ele>90.28571428571428</ele><time>2026-04-25T07:56:03Z</time></trkpt><trkpt lat="43.46431810902805" lon="10.3584008346994"><ele>89.0</ele><time>2026-04-25T07:56:05Z</time></trkpt><trkpt lat="43.464361076066574" lon="10.358275571699638"><ele>88.99999999999999</ele><time>2026-04-25T07:56:08Z</time></trkpt><trkpt lat="43.46439200919963" lon="10.358189442650353"><ele>89.0</ele><time>2026-04-25T07:56:10Z</time></trkpt><trkpt lat="43.46443903791528" lon="10.358081170316924"><ele>89.0</ele><time>2026-04-25T07:56:13Z</time></trkpt><trkpt lat="43.46447640825659" lon="10.35800610469485"><ele>89.0</ele><time>2026-04-25T07:56:15Z</time></trkpt><trkpt lat="43.46449542687393" lon="10.357922668472233"><ele>89.0</ele><time>2026-04-25T07:56:17Z</time></trkpt><trkpt lat="43.46453266479499" lon="10.357840484620418"><ele>88.99999999999999</ele><time>2026-04-25T07:56:19Z</time></trkpt><trkpt lat="43.46456815961103" lon="10.35776357506571"><ele>89.0</ele><time>2026-04-25T07:56:21Z</time></trkpt><trkpt lat="43.464612745625644" lon="10.357696540878969"><ele>91.83333333333334</ele><time>2026-04-25T07:56:23Z</time></trkpt><trkpt lat="43.464673362538626" lon="10.357663587744874"><ele>94.66666666666667</ele><time>2026-04-25T07:56:25Z</time></trkpt><trkpt lat="43.46476483566262" lon="10.357645245451103"><ele>97.5</ele><time>2026-04-25T07:56:28Z</time></trkpt><trkpt lat="43.464840065135846" lon="10.357698265284995"><ele>100.33333333333334</ele><time>2026-04-25T07:56:31Z</time></trkpt><trkpt lat="43.46488474640053" lon="10.35778996734782"><ele>103.16666666666667</ele><time>2026-04-25T07:56:34Z</time></trkpt><trkpt lat="43.46487685780597" lon="10.357897856382731"><ele>106.0</ele><time>2026-04-25T07:56:37Z</time></trkpt><trkpt lat="43.46482402563414" lon="10.357994291642427"><ele>108.16666666666667</ele><time>2026-04-25T07:56:40Z</time></trkpt><trkpt lat="43.46476619306863" lon="10.358079502623958"><ele>110.33333333333334</ele><time>2026-04-25T07:56:43Z</time></trkpt><trkpt lat="43.46471024955361" lon="10.358167998162417"><ele>112.5</ele><time>2026-04-25T07:56:46Z</time></trkpt><trkpt lat="43.46466873162112" lon="10.358234577038713"><ele>114.66666666666666</ele><time>2026-04-25T07:56:48Z</time></trkpt><trkpt lat="43.464619982740395" lon="10.35833736829828"><ele>116.83333333333333</ele><time>2026-04-25T07:56:51Z</time></trkpt><trkpt lat="43.46457659820605" lon="10.35844383823988"><ele>119.0</ele><time>2026-04-25T07:56:54Z</time></trkpt><trkpt lat="43.4645500770288" lon="10.358564238378"><ele>115.49999999999999</ele><time>2026-04-25T07:56:57Z</time></trkpt><trkpt lat="43.46453035135848" lon="10.358686627922497"><ele>112.0</ele><time>2026-04-25T07:57:00Z</time></trkpt><trkpt lat="43.464517553106944" lon="10.358799708966812"><ele>108.5</ele><time>2026-04-25T07:57:03Z</time></trkpt><trkpt lat="43.464497633700994" lon="10.358926531734179"><ele>105.0</ele><time>2026-04-25T07:57:06Z</time></trkpt><trkpt lat="43.464502444782184" lon="10.359041601923657"><ele>101.49999999999999</ele><time>2026-04-25T07:57:08.999Z</time></trkpt><trkpt lat="43.46450952607362" lon="10.359134414556422"><ele>98.0</ele><time>2026-04-25T07:57:10.999Z</time></trkpt><trkpt lat="43.46451909526546" lon="10.359220984984947"><ele>97.99999999999999</ele><time>2026-04-25T07:57:12.999Z</time></trkpt><trkpt lat="43.464509539372884" lon="10.359311108654147"><ele>98.0</ele><time>2026-04-25T07:57:14.999Z</time></trkpt><trkpt lat="43.46450445853632" lon="10.359402349603684"><ele>98.0</ele><time>2026-04-25T07:57:17Z</time></trkpt><trkpt lat="43.46451321439338" lon="10.359529368074991"><ele>98.0</ele><time>2026-04-25T07:57:20Z</time></trkpt><trkpt lat="43.46452654077843" lon="10.359618169067806"><ele>97.99999999999999</ele><time>2026-04-25T07:57:22Z</time></trkpt><trkpt lat="43.464575857529816" lon="10.359724730517401"><ele>98.0</ele><time>2026-04-25T07:57:25Z</time></trkpt><trkpt lat="43.4646383354489" lon="10.359817062920262"><ele>101.66666666666666</ele><time>2026-04-25T07:57:28Z</time></trkpt><trkpt lat="43.464705895030974" lon="10.359894647367152"><ele>105.33333333333333</ele><time>2026-04-25T07:57:31Z</time></trkpt><trkpt lat="43.464788661072" lon="10.359950165287255"><ele>109.0</ele><time>2026-04-25T07:57:34Z</time></trkpt><trkpt lat="43.4648792445347" lon="10.359988023004014"><ele>112.66666666666666</ele><time>2026-04-25T07:57:37Z</time></trkpt><trkpt lat="43.464963732001756" lon="10.360009908682022"><ele>116.33333333333333</ele><time>2026-04-25T07:57:40Z</time></trkpt><trkpt lat="43.46503137589549" lon="10.360019083837111"><ele>120.0</ele><time>2026-04-25T07:57:42Z</time></trkpt><trkpt lat="43.46512158539454" lon="10.360018509785505"><ele>120.0</ele><time>2026-04-25T07:57:45Z</time></trkpt><trkpt lat="43.46518601517978" lon="10.360006401425423"><ele>120.0</ele><time>2026-04-25T07:57:47Z</time></trkpt><trkpt lat="43.4652739968689" lon="10.359975534827932"><ele>120.0</ele><time>2026-04-25T07:57:50Z</time></trkpt><trkpt lat="43.46536250957333" lon="10.359933995731312"><ele>120.0</ele><time>2026-04-25T07:57:53Z</time></trkpt><trkpt lat="43.46544430756068" lon="10.35987556928039"><ele>120.0</ele><time>2026-04-25T07:57:56Z</time></trkpt><trkpt lat="43.46551618443964" lon="10.359813908796456"><ele>120.0</ele><time>2026-04-25T07:57:59Z</time></trkpt><trkpt lat="43.465573502366766" lon="10.359768502704627"><ele>120.66666666666667</ele><time>2026-04-25T07:58:01Z</time></trkpt><trkpt lat="43.465649332867734" lon="10.359704847080124"><ele>121.33333333333334</ele><time>2026-04-25T07:58:04Z</time></trkpt><trkpt lat="43.4657067048521" lon="10.359668505784844"><ele>122.0</ele><time>2026-04-25T07:58:06Z</time></trkpt><trkpt lat="43.46578796838789" lon="10.359632823717304"><ele>122.66666666666667</ele><time>2026-04-25T07:58:09Z</time></trkpt><trkpt lat="43.46587679909859" lon="10.359614806964391"><ele>123.33333333333334</ele><time>2026-04-25T07:58:12Z</time></trkpt><trkpt lat="43.46594195153125" lon="10.359611418190777"><ele>124.0</ele><time>2026-04-25T07:58:14Z</time></trkpt><trkpt lat="43.466023584566" lon="10.35956162447238"><ele>125.66666666666667</ele><time>2026-04-25T07:58:17Z</time></trkpt><trkpt lat="43.46610256849484" lon="10.359491952571275"><ele>127.33333333333334</ele><time>2026-04-25T07:58:20Z</time></trkpt><trkpt lat="43.46615862027419" lon="10.35941710175015"><ele>129.0</ele><time>2026-04-25T07:58:23Z</time></trkpt><trkpt lat="43.46621861531044" lon="10.359319180451818"><ele>130.66666666666666</ele><time>2026-04-25T07:58:26Z</time></trkpt><trkpt lat="43.4662764462687" lon="10.359219672672"><ele>132.33333333333331</ele><time>2026-04-25T07:58:29Z</time></trkpt><trkpt lat="43.46634086363349" lon="10.359139777402424"><ele>134.0</ele><time>2026-04-25T07:58:32Z</time></trkpt><trkpt lat="43.46640984336695" lon="10.359049030296493"><ele>134.0</ele><time>2026-04-25T07:58:35Z</time></trkpt><trkpt lat="43.4664822518104" lon="10.358979781948157"><ele>134.0</ele><time>2026-04-25T07:58:38Z</time></trkpt><trkpt lat="43.466571572109785" lon="10.358943363262458"><ele>134.0</ele><time>2026-04-25T07:58:41Z</time></trkpt><trkpt lat="43.46665965556769" lon="10.358944859057313"><ele>134.0</ele><time>2026-04-25T07:58:44Z</time></trkpt><trkpt lat="43.46674043323498" lon="10.35897676787128"><ele>134.0</ele><time>2026-04-25T07:58:47Z</time></trkpt><trkpt lat="43.46680868698472" lon="10.358984843150786"><ele>134.0</ele><time>2026-04-25T07:58:49Z</time></trkpt><trkpt lat="43.4668911232174" lon="10.35902528280402"><ele>134.0</ele><time>2026-04-25T07:58:52Z</time></trkpt><trkpt lat="43.4669860039444" lon="10.359042453878919"><ele>134.0</ele><time>2026-04-25T07:58:55Z</time></trkpt><trkpt lat="43.467062268003566" lon="10.359055312369458"><ele>134.0</ele><time>2026-04-25T07:58:57Z</time></trkpt><trkpt lat="43.46712509259898" lon="10.359092912235388"><ele>134.0</ele><time>2026-04-25T07:59:00Z</time></trkpt><trkpt lat="43.46718851170211" lon="10.359103444514071"><ele>134.0</ele><time>2026-04-25T07:59:02Z</time></trkpt><trkpt lat="43.467276343957586" lon="10.35909146084053"><ele>134.0</ele><time>2026-04-25T07:59:05Z</time></trkpt><trkpt lat="43.467336106536045" lon="10.359061214544903"><ele>135.33333333333331</ele><time>2026-04-25T07:59:07Z</time></trkpt><trkpt lat="43.46738849465368" lon="10.359011517238818"><ele>136.66666666666666</ele><time>2026-04-25T07:59:08.999Z</time></trkpt><trkpt lat="43.467462908945144" lon="10.35894678326915"><ele>138.0</ele><time>2026-04-25T07:59:11.999Z</time></trkpt><trkpt lat="43.46753918839717" lon="10.358877916425238"><ele>139.33333333333334</ele><time>2026-04-25T07:59:14.999Z</time></trkpt><trkpt lat="43.467622003395284" lon="10.358819776799635"><ele>140.66666666666669</ele><time>2026-04-25T07:59:17.999Z</time></trkpt><trkpt lat="43.46770811739041" lon="10.358799150459467"><ele>142.0</ele><time>2026-04-25T07:59:20.999Z</time></trkpt><trkpt lat="43.467785290042166" lon="10.35879648416239"><ele>141.83333333333334</ele><time>2026-04-25T07:59:24Z</time></trkpt><trkpt lat="43.46787345780246" lon="10.35881885547376"><ele>141.66666666666669</ele><time>2026-04-25T07:59:27Z</time></trkpt><trkpt lat="43.46794085813019" lon="10.358812866898527"><ele>141.5</ele><time>2026-04-25T07:59:29Z</time></trkpt><trkpt lat="43.4680239581572" lon="10.358853840710454"><ele>141.33333333333334</ele><time>2026-04-25T07:59:32Z</time></trkpt><trkpt lat="43.46810603216108" lon="10.358869297083341"><ele>141.16666666666666</ele><time>2026-04-25T07:59:35Z</time></trkpt><trkpt lat="43.46819324160285" lon="10.358862666574996"><ele>141.0</ele><time>2026-04-25T07:59:38Z</time></trkpt><trkpt lat="43.4682564718477" lon="10.358877238002865"><ele>141.0</ele><time>2026-04-25T07:59:40Z</time></trkpt><trkpt lat="43.46833746155788" lon="10.358896961139754"><ele>141.0</ele><time>2026-04-25T07:59:42Z</time></trkpt><trkpt lat="43.468399947192836" lon="10.35888117807348"><ele>141.0</ele><time>2026-04-25T07:59:44Z</time></trkpt><trkpt lat="43.46847702590519" lon="10.358830375279188"><ele>141.0</ele><time>2026-04-25T07:59:47Z</time></trkpt><trkpt lat="43.46853268991293" lon="10.35878981781942"><ele>141.0</ele><time>2026-04-25T07:59:49Z</time></trkpt><trkpt lat="43.46860534982225" lon="10.358708257765452"><ele>141.0</ele><time>2026-04-25T07:59:52Z</time></trkpt><trkpt lat="43.468678640505836" lon="10.358637769079005"><ele>142.66666666666666</ele><time>2026-04-25T07:59:55Z</time></trkpt><trkpt lat="43.46874812035507" lon="10.358559542790804"><ele>144.33333333333334</ele><time>2026-04-25T07:59:58Z</time></trkpt><trkpt lat="43.468815636452995" lon="10.358478993608019"><ele>146.0</ele><time>2026-04-25T08:00:01Z</time></trkpt><trkpt lat="43.46888169201013" lon="10.358390680972546"><ele>147.66666666666669</ele><time>2026-04-25T08:00:04Z</time></trkpt><trkpt lat="43.46894093089178" lon="10.358304884617676"><ele>149.33333333333334</ele><time>2026-04-25T08:00:07Z</time></trkpt><trkpt lat="43.469003576310016" lon="10.358213239212334"><ele>151.0</ele><time>2026-04-25T08:00:10Z</time></trkpt><trkpt lat="43.46905927491418" lon="10.358115397565635"><ele>153.33333333333334</ele><time>2026-04-25T08:00:13Z</time></trkpt><trkpt lat="43.46911485675686" lon="10.358015618644329"><ele>155.66666666666669</ele><time>2026-04-25T08:00:16Z</time></trkpt><trkpt lat="43.469164019026884" lon="10.357918683890317"><ele>158.0</ele><time>2026-04-25T08:00:19Z</time></trkpt><trkpt lat="43.469203106713195" lon="10.357847689135934"><ele>160.33333333333334</ele><time>2026-04-25T08:00:21Z</time></trkpt><trkpt lat="43.46925949576974" lon="10.357751003064726"><ele>162.66666666666666</ele><time>2026-04-25T08:00:24Z</time></trkpt><trkpt lat="43.46932840206491" lon="10.357667398071497"><ele>165.0</ele><time>2026-04-25T08:00:27Z</time></trkpt><trkpt lat="43.46938394839775" lon="10.357625991556647"><ele>165.0</ele><time>2026-04-25T08:00:29Z</time></trkpt><trkpt lat="43.469468651559346" lon="10.357591724813336"><ele>165.0</ele><time>2026-04-25T08:00:32Z</time></trkpt><trkpt lat="43.46955689897384" lon="10.35756772347811"><ele>165.0</ele><time>2026-04-25T08:00:35Z</time></trkpt><trkpt lat="43.46961759029078" lon="10.357542007840348"><ele>165.0</ele><time>2026-04-25T08:00:37Z</time></trkpt><trkpt lat="43.46970654114166" lon="10.35751016951432"><ele>165.0</ele><time>2026-04-25T08:00:40Z</time></trkpt><trkpt lat="43.46979469160037" lon="10.357487071152295"><ele>165.0</ele><time>2026-04-25T08:00:43Z</time></trkpt><trkpt lat="43.469883898911824" lon="10.357476806312246"><ele>164.16666666666666</ele><time>2026-04-25T08:00:46Z</time></trkpt><trkpt lat="43.46996915479187" lon="10.357463142388914"><ele>163.33333333333334</ele><time>2026-04-25T08:00:49Z</time></trkpt><trkpt lat="43.4700548897504" lon="10.35742929338549"><ele>162.5</ele><time>2026-04-25T08:00:52Z</time></trkpt><trkpt lat="43.47013809906935" lon="10.357440632529022"><ele>161.66666666666669</ele><time>2026-04-25T08:00:55Z</time></trkpt><trkpt lat="43.470205448053434" lon="10.35743389760999"><ele>160.83333333333334</ele><time>2026-04-25T08:00:57Z</time></trkpt><trkpt lat="43.47029670746706" lon="10.357431459225907"><ele>160.0</ele><time>2026-04-25T08:01:00Z</time></trkpt><trkpt lat="43.47035968863599" lon="10.357412889584198"><ele>160.33333333333334</ele><time>2026-04-25T08:01:02Z</time></trkpt><trkpt lat="43.470448659454256" lon="10.357431309062791"><ele>160.66666666666669</ele><time>2026-04-25T08:01:05Z</time></trkpt><trkpt lat="43.47051208734767" lon="10.357445197351574"><ele>161.0</ele><time>2026-04-25T08:01:07Z</time></trkpt><trkpt lat="43.47060074303832" lon="10.357469481518903"><ele>161.33333333333334</ele><time>2026-04-25T08:01:10Z</time></trkpt><trkpt lat="43.470684187550326" lon="10.357501489208646"><ele>161.66666666666666</ele><time>2026-04-25T08:01:13Z</time></trkpt><trkpt lat="43.470773965432834" lon="10.357523258527475"><ele>162.0</ele><time>2026-04-25T08:01:16Z</time></trkpt><trkpt lat="43.47085745558523" lon="10.357562323301087"><ele>162.0</ele><time>2026-04-25T08:01:19Z</time></trkpt><trkpt lat="43.47091634089679" lon="10.35759450109368"><ele>162.0</ele><time>2026-04-25T08:01:21Z</time></trkpt><trkpt lat="43.47099981447882" lon="10.357642960289068"><ele>162.0</ele><time>2026-04-25T08:01:24Z</time></trkpt><trkpt lat="43.47108122403825" lon="10.357704007399514"><ele>162.0</ele><time>2026-04-25T08:01:27Z</time></trkpt><trkpt lat="43.47116171319132" lon="10.357757520409836"><ele>162.0</ele><time>2026-04-25T08:01:30Z</time></trkpt><trkpt lat="43.471237639375175" lon="10.357804668849962"><ele>162.0</ele><time>2026-04-25T08:01:33Z</time></trkpt><trkpt lat="43.471314725745025" lon="10.35786896294916"><ele>161.83333333333334</ele><time>2026-04-25T08:01:36Z</time></trkpt><trkpt lat="43.471376147105076" lon="10.357906599754784"><ele>161.66666666666666</ele><time>2026-04-25T08:01:38Z</time></trkpt><trkpt lat="43.47145429036243" lon="10.357961196141517"><ele>161.5</ele><time>2026-04-25T08:01:41Z</time></trkpt><trkpt lat="43.47153918966448" lon="10.358002230465592"><ele>161.33333333333331</ele><time>2026-04-25T08:01:44Z</time></trkpt><trkpt lat="43.47163033783539" lon="10.35802561502289"><ele>161.16666666666666</ele><time>2026-04-25T08:01:47Z</time></trkpt><trkpt lat="43.471694069191656" lon="10.358041219707891"><ele>161.0</ele><time>2026-04-25T08:01:49Z</time></trkpt><trkpt lat="43.4717852665488" lon="10.35804068897469"><ele>161.0</ele><time>2026-04-25T08:01:52Z</time></trkpt><trkpt lat="43.47184890359008" lon="10.358027503195096"><ele>161.0</ele><time>2026-04-25T08:01:54Z</time></trkpt><trkpt lat="43.47194053952717" lon="10.358039289187234"><ele>161.0</ele><time>2026-04-25T08:01:57Z</time></trkpt><trkpt lat="43.47202546338012" lon="10.358086951855611"><ele>161.0</ele><time>2026-04-25T08:02:00Z</time></trkpt><trkpt lat="43.47210000264971" lon="10.358156717570699"><ele>161.0</ele><time>2026-04-25T08:02:03Z</time></trkpt><trkpt lat="43.47213366970776" lon="10.358234021198708"><ele>161.0</ele><time>2026-04-25T08:02:05Z</time></trkpt><trkpt lat="43.47217035421933" lon="10.358343727660785"><ele>163.0</ele><time>2026-04-25T08:02:08Z</time></trkpt><trkpt lat="43.47220192844422" lon="10.358426963891334"><ele>165.0</ele><time>2026-04-25T08:02:10Z</time></trkpt><trkpt lat="43.47223618227684" lon="10.35854020506039"><ele>167.0</ele><time>2026-04-25T08:02:13Z</time></trkpt><trkpt lat="43.47228832689183" lon="10.35864135696554"><ele>169.0</ele><time>2026-04-25T08:02:16Z</time></trkpt><trkpt lat="43.472351769945206" lon="10.358717753550813"><ele>171.0</ele><time>2026-04-25T08:02:19Z</time></trkpt><trkpt lat="43.47241871791213" lon="10.358786159456448"><ele>173.0</ele><time>2026-04-25T08:02:22Z</time></trkpt><trkpt lat="43.47248296125853" lon="10.358815690372682"><ele>173.0</ele><time>2026-04-25T08:02:24Z</time></trkpt><trkpt lat="43.47255105751577" lon="10.358833904160187"><ele>173.0</ele><time>2026-04-25T08:02:26Z</time></trkpt><trkpt lat="43.47261452335299" lon="10.358821854031717"><ele>173.0</ele><time>2026-04-25T08:02:28Z</time></trkpt><trkpt lat="43.47270485151735" lon="10.358800027443753"><ele>173.0</ele><time>2026-04-25T08:02:31Z</time></trkpt><trkpt lat="43.47277047301624" lon="10.358797179383227"><ele>173.0</ele><time>2026-04-25T08:02:33Z</time></trkpt><trkpt lat="43.472859934849865" lon="10.358744322414864"><ele>173.0</ele><time>2026-04-25T08:02:36Z</time></trkpt><trkpt lat="43.472951887652165" lon="10.358730621973521"><ele>172.5</ele><time>2026-04-25T08:02:39Z</time></trkpt><trkpt lat="43.47301494384496" lon="10.358728859257994"><ele>172.0</ele><time>2026-04-25T08:02:41Z</time></trkpt><trkpt lat="43.4731056352849" lon="10.35874058760371"><ele>171.5</ele><time>2026-04-25T08:02:44Z</time></trkpt><trkpt lat="43.47316775790818" lon="10.35876225264593"><ele>171.0</ele><time>2026-04-25T08:02:46Z</time></trkpt><trkpt lat="43.47325179007908" lon="10.358790417033582"><ele>170.5</ele><time>2026-04-25T08:02:49Z</time></trkpt><trkpt lat="43.473321643158286" lon="10.358804694640552"><ele>170.0</ele><time>2026-04-25T08:02:51Z</time></trkpt><trkpt lat="43.473414558966084" lon="10.358813464066875"><ele>170.0</ele><time>2026-04-25T08:02:54Z</time></trkpt><trkpt lat="43.473477663363866" lon="10.358807268396472"><ele>170.0</ele><time>2026-04-25T08:02:56Z</time></trkpt><trkpt lat="43.47354208674255" lon="10.358796701049853"><ele>170.0</ele><time>2026-04-25T08:02:58Z</time></trkpt><trkpt lat="43.47361056742764" lon="10.358781481763831"><ele>170.0</ele><time>2026-04-25T08:03:00Z</time></trkpt><trkpt lat="43.47368089918764" lon="10.358757192948865"><ele>170.0</ele><time>2026-04-25T08:03:02Z</time></trkpt><trkpt lat="43.4737503694916" lon="10.358721568940823"><ele>170.0</ele><time>2026-04-25T08:03:04Z</time></trkpt><trkpt lat="43.473820265776624" lon="10.35867552445119"><ele>170.0</ele><time>2026-04-25T08:03:06Z</time></trkpt><trkpt lat="43.47388966587384" lon="10.358621235349219"><ele>170.66666666666666</ele><time>2026-04-25T08:03:08Z</time></trkpt><trkpt lat="43.473959193258025" lon="10.358565121810894"><ele>171.33333333333331</ele><time>2026-04-25T08:03:10Z</time></trkpt><trkpt lat="43.47403846451323" lon="10.358523516163903"><ele>172.0</ele><time>2026-04-25T08:03:12Z</time></trkpt><trkpt lat="43.47411448976756" lon="10.35848880419944"><ele>172.66666666666666</ele><time>2026-04-25T08:03:14Z</time></trkpt><trkpt lat="43.47419108366992" lon="10.358467384818697"><ele>173.33333333333334</ele><time>2026-04-25T08:03:16Z</time></trkpt><trkpt lat="43.47426691156019" lon="10.3584589176326"><ele>174.0</ele><time>2026-04-25T08:03:18Z</time></trkpt><trkpt lat="43.47434142042769" lon="10.358443736848582"><ele>174.0</ele><time>2026-04-25T08:03:20Z</time></trkpt><trkpt lat="43.47441810485295" lon="10.358428139539775"><ele>174.0</ele><time>2026-04-25T08:03:22Z</time></trkpt><trkpt lat="43.47449560505887" lon="10.358416333636828"><ele>174.0</ele><time>2026-04-25T08:03:24Z</time></trkpt><trkpt lat="43.47457296489311" lon="10.358413875386686"><ele>174.0</ele><time>2026-04-25T08:03:26Z</time></trkpt><trkpt lat="43.474649235623055" lon="10.358424729382353"><ele>174.0</ele><time>2026-04-25T08:03:27.999Z</time></trkpt><trkpt lat="43.474721205343535" lon="10.35843839793396"><ele>174.0</ele><time>2026-04-25T08:03:29.999Z</time></trkpt><trkpt lat="43.47479199902696" lon="10.358478595955642"><ele>173.83333333333334</ele><time>2026-04-25T08:03:31.999Z</time></trkpt><trkpt lat="43.47485366706244" lon="10.35854324827488"><ele>173.66666666666666</ele><time>2026-04-25T08:03:34Z</time></trkpt><trkpt lat="43.47490059612997" lon="10.35862870101331"><ele>173.5</ele><time>2026-04-25T08:03:36Z</time></trkpt><trkpt lat="43.47494341042605" lon="10.358720637955559"><ele>173.33333333333331</ele><time>2026-04-25T08:03:38Z</time></trkpt><trkpt lat="43.47497678940296" lon="10.358816273903308"><ele>173.16666666666666</ele><time>2026-04-25T08:03:40Z</time></trkpt><trkpt lat="43.47501704183978" lon="10.358903531794402"><ele>173.0</ele><time>2026-04-25T08:03:42Z</time></trkpt><trkpt lat="43.47505284810165" lon="10.35899279292797"><ele>175.66666666666666</ele><time>2026-04-25T08:03:44Z</time></trkpt><trkpt lat="43.475090102325154" lon="10.359086949241519"><ele>178.33333333333331</ele><time>2026-04-25T08:03:46Z</time></trkpt><trkpt lat="43.47513274950024" lon="10.359180613680424"><ele>181.0</ele><time>2026-04-25T08:03:48Z</time></trkpt><trkpt lat="43.47516277527287" lon="10.359274349196932"><ele>183.66666666666666</ele><time>2026-04-25T08:03:50Z</time></trkpt><trkpt lat="43.47520365436769" lon="10.359354832961134"><ele>186.33333333333334</ele><time>2026-04-25T08:03:52Z</time></trkpt><trkpt lat="43.47523982621546" lon="10.359446059878074"><ele>189.0</ele><time>2026-04-25T08:03:54Z</time></trkpt><trkpt lat="43.4752725959978" lon="10.359532726390176"><ele>189.0</ele><time>2026-04-25T08:03:56Z</time></trkpt><trkpt lat="43.47530587648633" lon="10.359611876641221"><ele>189.0</ele><time>2026-04-25T08:03:58Z</time></trkpt><trkpt lat="43.47534378425789" lon="10.359702010884073"><ele>189.0</ele><time>2026-04-25T08:04:00Z</time></trkpt><trkpt lat="43.475378919854016" lon="10.359781086096117"><ele>189.0</ele><time>2026-04-25T08:04:02Z</time></trkpt><trkpt lat="43.47541747008936" lon="10.35985774134781"><ele>189.0</ele><time>2026-04-25T08:04:04Z</time></trkpt><trkpt lat="43.47546162264848" lon="10.35993198499392"><ele>189.0</ele><time>2026-04-25T08:04:06Z</time></trkpt><trkpt lat="43.475537570928275" lon="10.360010038682626"><ele>189.0</ele><time>2026-04-25T08:04:09Z</time></trkpt><trkpt lat="43.47562883048396" lon="10.360050713740424"><ele>189.33333333333334</ele><time>2026-04-25T08:04:12Z</time></trkpt><trkpt lat="43.475704256559325" lon="10.360086419951532"><ele>189.66666666666666</ele><time>2026-04-25T08:04:14Z</time></trkpt><trkpt lat="43.47576525452112" lon="10.360126017635617"><ele>190.0</ele><time>2026-04-25T08:04:16Z</time></trkpt><trkpt lat="43.47583283216915" lon="10.360174165024613"><ele>190.33333333333331</ele><time>2026-04-25T08:04:18Z</time></trkpt><trkpt lat="43.47588227341819" lon="10.360231754269918"><ele>190.66666666666666</ele><time>2026-04-25T08:04:20Z</time></trkpt><trkpt lat="43.47595721268744" lon="10.360284306315446"><ele>191.0</ele><time>2026-04-25T08:04:23Z</time></trkpt><trkpt lat="43.47598100194071" lon="10.36044123070255"><ele>191.0</ele><time>2026-04-25T08:04:25Z</time></trkpt><trkpt lat="43.476023086612685" lon="10.360524879120673"><ele>191.0</ele><time>2026-04-25T08:04:27Z</time></trkpt><trkpt lat="43.476070937415955" lon="10.360604709512119"><ele>191.0</ele><time>2026-04-25T08:04:29Z</time></trkpt><trkpt lat="43.47612126434036" lon="10.360681436102174"><ele>191.0</ele><time>2026-04-25T08:04:31Z</time></trkpt><trkpt lat="43.47617758707496" lon="10.360760056137018"><ele>191.0</ele><time>2026-04-25T08:04:33Z</time></trkpt><trkpt lat="43.47623478200873" lon="10.360829840939735"><ele>191.0</ele><time>2026-04-25T08:04:35Z</time></trkpt><trkpt lat="43.476289182096" lon="10.360898708967754"><ele>190.71428571428572</ele><time>2026-04-25T08:04:37Z</time></trkpt><trkpt lat="43.47633810226321" lon="10.360970416296396"><ele>190.42857142857142</ele><time>2026-04-25T08:04:39Z</time></trkpt><trkpt lat="43.476380490110095" lon="10.361050277433904"><ele>190.14285714285714</ele><time>2026-04-25T08:04:41Z</time></trkpt><trkpt lat="43.47642390607344" lon="10.361132747387801"><ele>189.85714285714286</ele><time>2026-04-25T08:04:43Z</time></trkpt><trkpt lat="43.47646640832765" lon="10.361211516752725"><ele>189.57142857142856</ele><time>2026-04-25T08:04:45Z</time></trkpt><trkpt lat="43.47648936044406" lon="10.361321980969349"><ele>189.28571428571428</ele><time>2026-04-25T08:04:47Z</time></trkpt><trkpt lat="43.476505193533505" lon="10.361422975752863"><ele>189.0</ele><time>2026-04-25T08:04:49Z</time></trkpt><trkpt lat="43.47653954815881" lon="10.361506999701982"><ele>189.85714285714286</ele><time>2026-04-25T08:04:51Z</time></trkpt><trkpt lat="43.47657202718484" lon="10.361592066962594"><ele>190.71428571428572</ele><time>2026-04-25T08:04:53Z</time></trkpt><trkpt lat="43.47659456951283" lon="10.361682356764911"><ele>191.57142857142856</ele><time>2026-04-25T08:04:55Z</time></trkpt><trkpt lat="43.47661165573407" lon="10.361778223168074"><ele>192.42857142857144</ele><time>2026-04-25T08:04:57Z</time></trkpt><trkpt lat="43.476615293810006" lon="10.361876063799135"><ele>193.28571428571428</ele><time>2026-04-25T08:04:59Z</time></trkpt><trkpt lat="43.476636004119484" lon="10.361968568981373"><ele>194.14285714285714</ele><time>2026-04-25T08:05:01Z</time></trkpt><trkpt lat="43.476655288892786" lon="10.362078133012837"><ele>195.0</ele><time>2026-04-25T08:05:03Z</time></trkpt><trkpt lat="43.47666766813626" lon="10.36217386816635"><ele>195.0</ele><time>2026-04-25T08:05:05Z</time></trkpt><trkpt lat="43.47668385645364" lon="10.362273965283915"><ele>195.0</ele><time>2026-04-25T08:05:07Z</time></trkpt><trkpt lat="43.47671892527279" lon="10.362350699069228"><ele>195.0</ele><time>2026-04-25T08:05:09Z</time></trkpt><trkpt lat="43.476766246680874" lon="10.362430565250001"><ele>195.0</ele><time>2026-04-25T08:05:11Z</time></trkpt><trkpt lat="43.47682584437128" lon="10.362536265300806"><ele>195.0</ele><time>2026-04-25T08:05:14Z</time></trkpt><trkpt lat="43.47688536213892" lon="10.362597901678658"><ele>195.0</ele><time>2026-04-25T08:05:16Z</time></trkpt><trkpt lat="43.476927083846874" lon="10.36266981892722"><ele>195.0</ele><time>2026-04-25T08:05:18Z</time></trkpt><trkpt lat="43.47698495352452" lon="10.362740014690493"><ele>195.0</ele><time>2026-04-25T08:05:20Z</time></trkpt><trkpt lat="43.47703260579624" lon="10.362804466963642"><ele>195.0</ele><time>2026-04-25T08:05:22Z</time></trkpt><trkpt lat="43.4770759425724" lon="10.362875067864158"><ele>195.0</ele><time>2026-04-25T08:05:24Z</time></trkpt><trkpt lat="43.477124409988676" lon="10.362942583958839"><ele>195.0</ele><time>2026-04-25T08:05:26Z</time></trkpt><trkpt lat="43.477176384192106" lon="10.363011268794203"><ele>195.0</ele><time>2026-04-25T08:05:27.999Z</time></trkpt><trkpt lat="43.477227940163594" lon="10.363077337085631"><ele>195.0</ele><time>2026-04-25T08:05:29.999Z</time></trkpt><trkpt lat="43.47727590282715" lon="10.363151518723267"><ele>195.42857142857142</ele><time>2026-04-25T08:05:31.999Z</time></trkpt><trkpt lat="43.477328086393925" lon="10.36321741491456"><ele>195.85714285714283</ele><time>2026-04-25T08:05:33.999Z</time></trkpt><trkpt lat="43.477385570188" lon="10.363283476894383"><ele>196.28571428571428</ele><time>2026-04-25T08:05:35.999Z</time></trkpt><trkpt lat="43.477423833467874" lon="10.363353856493152"><ele>196.71428571428572</ele><time>2026-04-25T08:05:37.999Z</time></trkpt><trkpt lat="43.47748213397538" lon="10.363423751035619"><ele>197.14285714285714</ele><time>2026-04-25T08:05:40Z</time></trkpt><trkpt lat="43.47752919952723" lon="10.363489274916416"><ele>197.57142857142858</ele><time>2026-04-25T08:05:42Z</time></trkpt><trkpt lat="43.477585281818584" lon="10.363551802226183"><ele>198.0</ele><time>2026-04-25T08:05:44Z</time></trkpt><trkpt lat="43.47763870401151" lon="10.363608943363916"><ele>198.0</ele><time>2026-04-25T08:05:46Z</time></trkpt><trkpt lat="43.477702840288536" lon="10.363656590212534"><ele>198.0</ele><time>2026-04-25T08:05:48Z</time></trkpt><trkpt lat="43.47777207359701" lon="10.363702020890823"><ele>198.0</ele><time>2026-04-25T08:05:50Z</time></trkpt><trkpt lat="43.477837424836395" lon="10.363737580363798"><ele>198.0</ele><time>2026-04-25T08:05:52Z</time></trkpt><trkpt lat="43.47789112293259" lon="10.363784812288973"><ele>198.0</ele><time>2026-04-25T08:05:54Z</time></trkpt><trkpt lat="43.477959070185044" lon="10.363823754534705"><ele>198.0</ele><time>2026-04-25T08:05:56Z</time></trkpt><trkpt lat="43.47801295797556" lon="10.363875900618003"><ele>198.0</ele><time>2026-04-25T08:05:58Z</time></trkpt><trkpt lat="43.478085336247425" lon="10.363903377830304"><ele>199.83333333333334</ele><time>2026-04-25T08:06:00Z</time></trkpt><trkpt lat="43.47816934761548" lon="10.363983128605987"><ele>201.66666666666669</ele><time>2026-04-25T08:06:03Z</time></trkpt><trkpt lat="43.478265842559196" lon="10.364041017860375"><ele>203.5</ele><time>2026-04-25T08:06:06Z</time></trkpt><trkpt lat="43.47833144914997" lon="10.364086696574123"><ele>205.33333333333334</ele><time>2026-04-25T08:06:08Z</time></trkpt><trkpt lat="43.47839754848547" lon="10.364124717900532"><ele>207.16666666666669</ele><time>2026-04-25T08:06:10Z</time></trkpt><trkpt lat="43.47845810164472" lon="10.364175207058954"><ele>209.0</ele><time>2026-04-25T08:06:12Z</time></trkpt><trkpt lat="43.478526204857594" lon="10.36421986775643"><ele>209.00000000000003</ele><time>2026-04-25T08:06:14Z</time></trkpt><trkpt lat="43.478583695389425" lon="10.364255304407667"><ele>209.0</ele><time>2026-04-25T08:06:16Z</time></trkpt><trkpt lat="43.478671725707386" lon="10.364300125390129"><ele>209.0</ele><time>2026-04-25T08:06:19Z</time></trkpt><trkpt lat="43.47875086017694" lon="10.364369612751924"><ele>209.0</ele><time>2026-04-25T08:06:21Z</time></trkpt><trkpt lat="43.47883536092768" lon="10.364429437627146"><ele>209.00000000000003</ele><time>2026-04-25T08:06:24Z</time></trkpt><trkpt lat="43.4788869457145" lon="10.364494978981666"><ele>209.0</ele><time>2026-04-25T08:06:26Z</time></trkpt><trkpt lat="43.47894836720398" lon="10.364545601116905"><ele>210.28571428571428</ele><time>2026-04-25T08:06:28Z</time></trkpt><trkpt lat="43.478968218496824" lon="10.36463609970222"><ele>211.57142857142856</ele><time>2026-04-25T08:06:30Z</time></trkpt><trkpt lat="43.47898607311385" lon="10.364743133874384"><ele>212.85714285714286</ele><time>2026-04-25T08:06:32Z</time></trkpt><trkpt lat="43.47898984847762" lon="10.364854617103877"><ele>214.14285714285714</ele><time>2026-04-25T08:06:34Z</time></trkpt><trkpt lat="43.47898549669246" lon="10.364951203890184"><ele>215.42857142857144</ele><time>2026-04-25T08:06:36Z</time></trkpt><trkpt lat="43.47898046881061" lon="10.365046990179115"><ele>216.71428571428572</ele><time>2026-04-25T08:06:38Z</time></trkpt><trkpt lat="43.47897771809281" lon="10.365136287596059"><ele>218.0</ele><time>2026-04-25T08:06:40Z</time></trkpt><trkpt lat="43.47899971084292" lon="10.365219042622687"><ele>218.0</ele><time>2026-04-25T08:06:42Z</time></trkpt><trkpt lat="43.479033775157575" lon="10.365300476548127"><ele>218.0</ele><time>2026-04-25T08:06:44Z</time></trkpt><trkpt lat="43.47907160806769" lon="10.36538593476726"><ele>218.0</ele><time>2026-04-25T08:06:46Z</time></trkpt><trkpt lat="43.47911050171605" lon="10.365458471804825"><ele>218.0</ele><time>2026-04-25T08:06:48Z</time></trkpt><trkpt lat="43.47915032922918" lon="10.365533893289788"><ele>218.0</ele><time>2026-04-25T08:06:50Z</time></trkpt><trkpt lat="43.47919089523645" lon="10.365610561455771"><ele>218.0</ele><time>2026-04-25T08:06:52Z</time></trkpt><trkpt lat="43.47923396926111" lon="10.365678532127111"><ele>218.0</ele><time>2026-04-25T08:06:54Z</time></trkpt><trkpt lat="43.47928371319261" lon="10.365789158477556"><ele>217.42857142857144</ele><time>2026-04-25T08:06:57Z</time></trkpt><trkpt lat="43.47932376437875" lon="10.365859382841338"><ele>216.85714285714286</ele><time>2026-04-25T08:06:59Z</time></trkpt><trkpt lat="43.479386730591294" lon="10.365952050947605"><ele>216.28571428571428</ele><time>2026-04-25T08:07:02Z</time></trkpt><trkpt lat="43.47942761695845" lon="10.366029053254058"><ele>215.71428571428572</ele><time>2026-04-25T08:07:04Z</time></trkpt><trkpt lat="43.47947335131949" lon="10.366093307268548"><ele>215.14285714285714</ele><time>2026-04-25T08:07:06Z</time></trkpt><trkpt lat="43.479523293518284" lon="10.366155181592"><ele>214.57142857142858</ele><time>2026-04-25T08:07:08Z</time></trkpt><trkpt lat="43.47957945763145" lon="10.366203509631436"><ele>214.0</ele><time>2026-04-25T08:07:10Z</time></trkpt><trkpt lat="43.47963220415062" lon="10.366253911804861"><ele>215.42857142857144</ele><time>2026-04-25T08:07:12Z</time></trkpt><trkpt lat="43.4796774566327" lon="10.366322400527665"><ele>216.85714285714286</ele><time>2026-04-25T08:07:14Z</time></trkpt><trkpt lat="43.47974213444935" lon="10.366364907033613"><ele>218.28571428571428</ele><time>2026-04-25T08:07:16Z</time></trkpt><trkpt lat="43.47978729353477" lon="10.366428412194658"><ele>219.71428571428572</ele><time>2026-04-25T08:07:18Z</time></trkpt><trkpt lat="43.47983485294849" lon="10.366492041154292"><ele>221.14285714285714</ele><time>2026-04-25T08:07:20Z</time></trkpt><trkpt lat="43.47987970854164" lon="10.366559848156788"><ele>222.57142857142858</ele><time>2026-04-25T08:07:22Z</time></trkpt><trkpt lat="43.47991386138143" lon="10.366634280342412"><ele>224.0</ele><time>2026-04-25T08:07:24Z</time></trkpt><trkpt lat="43.47994623969663" lon="10.366712569597643"><ele>224.0</ele><time>2026-04-25T08:07:26Z</time></trkpt><trkpt lat="43.47997026320934" lon="10.366800077698135"><ele>224.0</ele><time>2026-04-25T08:07:28Z</time></trkpt><trkpt lat="43.47999244541858" lon="10.366884570974134"><ele>224.0</ele><time>2026-04-25T08:07:30Z</time></trkpt><trkpt lat="43.48000197042616" lon="10.366972873705322"><ele>224.0</ele><time>2026-04-25T08:07:32Z</time></trkpt><trkpt lat="43.48001048024369" lon="10.367063073841878"><ele>224.0</ele><time>2026-04-25T08:07:34Z</time></trkpt><trkpt lat="43.480013744821555" lon="10.367156654947982"><ele>224.0</ele><time>2026-04-25T08:07:36Z</time></trkpt><trkpt lat="43.48000865718996" lon="10.367249164613982"><ele>224.0</ele><time>2026-04-25T08:07:38Z</time></trkpt><trkpt lat="43.480007588000184" lon="10.36734423334413"><ele>224.28571428571428</ele><time>2026-04-25T08:07:40Z</time></trkpt><trkpt lat="43.47999845481489" lon="10.367434279958456"><ele>224.57142857142856</ele><time>2026-04-25T08:07:42Z</time></trkpt><trkpt lat="43.47998922327612" lon="10.367524855224115"><ele>224.85714285714286</ele><time>2026-04-25T08:07:44Z</time></trkpt><trkpt lat="43.479982702772325" lon="10.367615472828584"><ele>225.14285714285714</ele><time>2026-04-25T08:07:46Z</time></trkpt><trkpt lat="43.47996334022082" lon="10.367702412744245"><ele>225.42857142857142</ele><time>2026-04-25T08:07:48Z</time></trkpt><trkpt lat="43.47995886369352" lon="10.367789985729333"><ele>225.71428571428572</ele><time>2026-04-25T08:07:50Z</time></trkpt><trkpt lat="43.479942136234925" lon="10.367920850314484"><ele>226.0</ele><time>2026-04-25T08:07:53Z</time></trkpt><trkpt lat="43.47992366607184" lon="10.368048907549744"><ele>226.83333333333331</ele><time>2026-04-25T08:07:56Z</time></trkpt><trkpt lat="43.479915887306795" lon="10.368136860441071"><ele>227.66666666666666</ele><time>2026-04-25T08:07:58Z</time></trkpt><trkpt lat="43.47991568071178" lon="10.368264563284555"><ele>228.5</ele><time>2026-04-25T08:08:01Z</time></trkpt><trkpt lat="43.47990637920305" lon="10.36835407639639"><ele>229.33333333333331</ele><time>2026-04-25T08:08:03Z</time></trkpt><trkpt lat="43.479890859194775" lon="10.368480779909056"><ele>230.16666666666666</ele><time>2026-04-25T08:08:06Z</time></trkpt><trkpt lat="43.47988010590598" lon="10.368611748926275"><ele>231.0</ele><time>2026-04-25T08:08:09Z</time></trkpt><trkpt lat="43.4798613523849" lon="10.368753541966003"><ele>231.0</ele><time>2026-04-25T08:08:13Z</time></trkpt><trkpt lat="43.479853075823385" lon="10.368844079598711"><ele>231.0</ele><time>2026-04-25T08:08:15Z</time></trkpt><trkpt lat="43.47984265312919" lon="10.36893329233432"><ele>231.0</ele><time>2026-04-25T08:08:17Z</time></trkpt><trkpt lat="43.47983900577961" lon="10.369063042087982"><ele>231.0</ele><time>2026-04-25T08:08:20Z</time></trkpt><trkpt lat="43.47984149934846" lon="10.369158322816398"><ele>231.0</ele><time>2026-04-25T08:08:22Z</time></trkpt><trkpt lat="43.479862729223434" lon="10.369250316831812"><ele>231.0</ele><time>2026-04-25T08:08:24Z</time></trkpt><trkpt lat="43.47991621555946" lon="10.369302395648546"><ele>231.0</ele><time>2026-04-25T08:08:26Z</time></trkpt><trkpt lat="43.48000306907708" lon="10.369306985628347"><ele>231.0</ele><time>2026-04-25T08:08:29Z</time></trkpt><trkpt lat="43.48006461163365" lon="10.369220696370743"><ele>231.0</ele><time>2026-04-25T08:08:31Z</time></trkpt><trkpt lat="43.48011673488659" lon="10.369148694661023"><ele>231.0</ele><time>2026-04-25T08:08:33Z</time></trkpt><trkpt lat="43.480167899657694" lon="10.369078075437233"><ele>231.0</ele><time>2026-04-25T08:08:35Z</time></trkpt><trkpt lat="43.480214467094754" lon="10.36900947357247"><ele>231.0</ele><time>2026-04-25T08:08:37Z</time></trkpt><trkpt lat="43.480268981204986" lon="10.368938594420335"><ele>231.0</ele><time>2026-04-25T08:08:39Z</time></trkpt><trkpt lat="43.480321582772035" lon="10.368873622090392"><ele>231.0</ele><time>2026-04-25T08:08:41Z</time></trkpt><trkpt lat="43.480371365984375" lon="10.368801700483488"><ele>231.0</ele><time>2026-04-25T08:08:43Z</time></trkpt><trkpt lat="43.48042331271577" lon="10.368732405993445"><ele>231.0</ele><time>2026-04-25T08:08:45Z</time></trkpt><trkpt lat="43.48047896677653" lon="10.368666352964945"><ele>231.0</ele><time>2026-04-25T08:08:47Z</time></trkpt><trkpt lat="43.48053333326137" lon="10.368599635013464"><ele>231.0</ele><time>2026-04-25T08:08:49Z</time></trkpt><trkpt lat="43.48058217386689" lon="10.36852360467731"><ele>231.0</ele><time>2026-04-25T08:08:51Z</time></trkpt><trkpt lat="43.48063439531125" lon="10.368463794854724"><ele>231.0</ele><time>2026-04-25T08:08:53Z</time></trkpt><trkpt lat="43.48068479882182" lon="10.368394238486754"><ele>231.0</ele><time>2026-04-25T08:08:55Z</time></trkpt><trkpt lat="43.48076137812184" lon="10.368318768156344"><ele>232.33333333333334</ele><time>2026-04-25T08:08:58Z</time></trkpt><trkpt lat="43.48082038801737" lon="10.36827135692284"><ele>233.66666666666669</ele><time>2026-04-25T08:09:00Z</time></trkpt><trkpt lat="43.480874666319586" lon="10.368222509651833"><ele>235.0</ele><time>2026-04-25T08:09:02Z</time></trkpt><trkpt lat="43.48093262390293" lon="10.36818270125709"><ele>236.33333333333334</ele><time>2026-04-25T08:09:04Z</time></trkpt><trkpt lat="43.48101958038514" lon="10.368131758221127"><ele>237.66666666666669</ele><time>2026-04-25T08:09:07Z</time></trkpt><trkpt lat="43.48110524451852" lon="10.368082011126875"><ele>239.0</ele><time>2026-04-25T08:09:10Z</time></trkpt><trkpt lat="43.48116867145075" lon="10.36805851067779"><ele>238.33333333333334</ele><time>2026-04-25T08:09:12Z</time></trkpt><trkpt lat="43.48125253439969" lon="10.368013164478581"><ele>237.66666666666669</ele><time>2026-04-25T08:09:15Z</time></trkpt><trkpt lat="43.48130926017822" lon="10.367973638974563"><ele>237.0</ele><time>2026-04-25T08:09:17Z</time></trkpt><trkpt lat="43.481366088638325" lon="10.367925737203372"><ele>236.33333333333331</ele><time>2026-04-25T08:09:19Z</time></trkpt><trkpt lat="43.48141922520952" lon="10.367873951460869"><ele>235.66666666666666</ele><time>2026-04-25T08:09:21Z</time></trkpt><trkpt lat="43.48147724725883" lon="10.367774560212403"><ele>235.0</ele><time>2026-04-25T08:09:24Z</time></trkpt><trkpt lat="43.481512963131465" lon="10.367654822887062"><ele>237.49999999999997</ele><time>2026-04-25T08:09:27Z</time></trkpt><trkpt lat="43.48152009768167" lon="10.367563512289289"><ele>240.0</ele><time>2026-04-25T08:09:29Z</time></trkpt><trkpt lat="43.481530473981564" lon="10.367435384220006"><ele>242.5</ele><time>2026-04-25T08:09:32Z</time></trkpt><trkpt lat="43.48153255971026" lon="10.367348236285387"><ele>245.0</ele><time>2026-04-25T08:09:34Z</time></trkpt><trkpt lat="43.48152718756115" lon="10.367223487612748"><ele>247.49999999999997</ele><time>2026-04-25T08:09:37Z</time></trkpt><trkpt lat="43.48153654875418" lon="10.367136210833047"><ele>250.0</ele><time>2026-04-25T08:09:39Z</time></trkpt><trkpt lat="43.48154725143503" lon="10.367004001378632"><ele>250.66666666666666</ele><time>2026-04-25T08:09:42Z</time></trkpt><trkpt lat="43.48155943250802" lon="10.36691862393255"><ele>251.33333333333331</ele><time>2026-04-25T08:09:44Z</time></trkpt><trkpt lat="43.48157187082656" lon="10.366790606745873"><ele>252.0</ele><time>2026-04-25T08:09:47Z</time></trkpt><trkpt lat="43.48158523224118" lon="10.366663580523666"><ele>252.66666666666669</ele><time>2026-04-25T08:09:50Z</time></trkpt><trkpt lat="43.481593431149186" lon="10.366570978867621"><ele>253.33333333333334</ele><time>2026-04-25T08:09:52Z</time></trkpt><trkpt lat="43.48159602054632" lon="10.366482983341273"><ele>254.0</ele><time>2026-04-25T08:09:54Z</time></trkpt><trkpt lat="43.481608673919474" lon="10.36635348438599"><ele>254.33333333333334</ele><time>2026-04-25T08:09:57Z</time></trkpt><trkpt lat="43.48161934540987" lon="10.36623157075079"><ele>254.66666666666669</ele><time>2026-04-25T08:10:00Z</time></trkpt><trkpt lat="43.48163026730266" lon="10.36614481162515"><ele>255.0</ele><time>2026-04-25T08:10:02Z</time></trkpt><trkpt lat="43.481635923590886" lon="10.366054159576944"><ele>255.33333333333331</ele><time>2026-04-25T08:10:04Z</time></trkpt><trkpt lat="43.4816366440069" lon="10.365965254456302"><ele>255.66666666666666</ele><time>2026-04-25T08:10:06Z</time></trkpt><trkpt lat="43.481644529987626" lon="10.365834094181187"><ele>256.0</ele><time>2026-04-25T08:10:09Z</time></trkpt><trkpt lat="43.48166421871405" lon="10.365709517394823"><ele>255.99999999999997</ele><time>2026-04-25T08:10:12Z</time></trkpt><trkpt lat="43.48169568201676" lon="10.365597799803496"><ele>256.0</ele><time>2026-04-25T08:10:15Z</time></trkpt><trkpt lat="43.4817268880876" lon="10.365520111224932"><ele>256.0</ele><time>2026-04-25T08:10:17Z</time></trkpt><trkpt lat="43.48177114712529" lon="10.3654083159402"><ele>256.0</ele><time>2026-04-25T08:10:20Z</time></trkpt><trkpt lat="43.48182225469782" lon="10.365310114389665"><ele>255.99999999999997</ele><time>2026-04-25T08:10:23Z</time></trkpt><trkpt lat="43.48187642161075" lon="10.365217548769788"><ele>256.0</ele><time>2026-04-25T08:10:26Z</time></trkpt><trkpt lat="43.48192084571792" lon="10.36515594194246"><ele>257.0</ele><time>2026-04-25T08:10:28Z</time></trkpt><trkpt lat="43.4819947835036" lon="10.36507984032352"><ele>258.0</ele><time>2026-04-25T08:10:31Z</time></trkpt><trkpt lat="43.48206963175054" lon="10.365005980281337"><ele>259.0</ele><time>2026-04-25T08:10:34Z</time></trkpt><trkpt lat="43.482148387832744" lon="10.364940599574446"><ele>260.0</ele><time>2026-04-25T08:10:37Z</time></trkpt><trkpt lat="43.482234456563425" lon="10.364894903443792"><ele>261.0</ele><time>2026-04-25T08:10:40Z</time></trkpt><trkpt lat="43.48232242534975" lon="10.364852560892878"><ele>262.1666666666667</ele><time>2026-04-25T08:10:43Z</time></trkpt><trkpt lat="43.48240481844808" lon="10.364803692457514"><ele>263.3333333333333</ele><time>2026-04-25T08:10:46Z</time></trkpt><trkpt lat="43.48248773530768" lon="10.36476074446863"><ele>264.5</ele><time>2026-04-25T08:10:49Z</time></trkpt><trkpt lat="43.48256670232437" lon="10.364711698288623"><ele>265.66666666666663</ele><time>2026-04-25T08:10:52Z</time></trkpt><trkpt lat="43.48265032143343" lon="10.364660100179561"><ele>266.8333333333333</ele><time>2026-04-25T08:10:55Z</time></trkpt><trkpt lat="43.482698159770536" lon="10.36459710594862"><ele>268.0</ele><time>2026-04-25T08:10:57Z</time></trkpt><trkpt lat="43.48276250999415" lon="10.364496891398474"><ele>268.3333333333333</ele><time>2026-04-25T08:11:00Z</time></trkpt><trkpt lat="43.48280393126396" lon="10.364406661691842"><ele>268.66666666666663</ele><time>2026-04-25T08:11:02Z</time></trkpt><trkpt lat="43.48286701196047" lon="10.364309366015647"><ele>269.0</ele><time>2026-04-25T08:11:04Z</time></trkpt><trkpt lat="43.48293189923396" lon="10.364223572355806"><ele>269.3333333333333</ele><time>2026-04-25T08:11:06Z</time></trkpt><trkpt lat="43.48300212621784" lon="10.364155099289755"><ele>269.6666666666667</ele><time>2026-04-25T08:11:08Z</time></trkpt><trkpt lat="43.483071549249786" lon="10.364095391158736"><ele>270.0</ele><time>2026-04-25T08:11:10Z</time></trkpt><trkpt lat="43.48314552539069" lon="10.364042165816032"><ele>270.0</ele><time>2026-04-25T08:11:12Z</time></trkpt><trkpt lat="43.483220115649516" lon="10.36400079249675"><ele>270.0</ele><time>2026-04-25T08:11:14Z</time></trkpt><trkpt lat="43.483294955226036" lon="10.363959805996886"><ele>270.0</ele><time>2026-04-25T08:11:16Z</time></trkpt><trkpt lat="43.48337053570265" lon="10.36392242722932"><ele>270.0</ele><time>2026-04-25T08:11:18Z</time></trkpt><trkpt lat="43.483440862516716" lon="10.363884265788643"><ele>270.0</ele><time>2026-04-25T08:11:20Z</time></trkpt><trkpt lat="43.48351365421277" lon="10.363851124714598"><ele>270.0</ele><time>2026-04-25T08:11:22Z</time></trkpt><trkpt lat="43.483580861961514" lon="10.363812394290232"><ele>271.2857142857143</ele><time>2026-04-25T08:11:24Z</time></trkpt><trkpt lat="43.4836489989926" lon="10.363774778493994"><ele>272.57142857142856</ele><time>2026-04-25T08:11:26Z</time></trkpt><trkpt lat="43.48371266549398" lon="10.363730078006192"><ele>273.85714285714283</ele><time>2026-04-25T08:11:28Z</time></trkpt><trkpt lat="43.483773007505945" lon="10.363675886601618"><ele>275.1428571428571</ele><time>2026-04-25T08:11:30Z</time></trkpt><trkpt lat="43.48383171854206" lon="10.363623570524197"><ele>276.42857142857144</ele><time>2026-04-25T08:11:32Z</time></trkpt><trkpt lat="43.48389766508137" lon="10.363563993902087"><ele>277.71428571428567</ele><time>2026-04-25T08:11:34Z</time></trkpt><trkpt lat="43.483962667018" lon="10.36350853496017"><ele>279.0</ele><time>2026-04-25T08:11:36Z</time></trkpt><trkpt lat="43.48402341091556" lon="10.363450354336889"><ele>279.0</ele><time>2026-04-25T08:11:38Z</time></trkpt><trkpt lat="43.48409030231478" lon="10.363398958511858"><ele>279.0</ele><time>2026-04-25T08:11:40Z</time></trkpt><trkpt lat="43.4841611457694" lon="10.363354953094154"><ele>279.0</ele><time>2026-04-25T08:11:42Z</time></trkpt><trkpt lat="43.4842290302287" lon="10.363313829390789"><ele>279.0</ele><time>2026-04-25T08:11:44Z</time></trkpt><trkpt lat="43.48430068281218" lon="10.363283096515527"><ele>279.0</ele><time>2026-04-25T08:11:45.999Z</time></trkpt><trkpt lat="43.48437389585567" lon="10.363245811947866"><ele>279.0</ele><time>2026-04-25T08:11:47.999Z</time></trkpt><trkpt lat="43.4844506480631" lon="10.363217869018738"><ele>279.0</ele><time>2026-04-25T08:11:49.999Z</time></trkpt><trkpt lat="43.48452924229522" lon="10.363188685726014"><ele>279.0</ele><time>2026-04-25T08:11:51.999Z</time></trkpt><trkpt lat="43.48461499759584" lon="10.363180170907874"><ele>279.0</ele><time>2026-04-25T08:11:53.999Z</time></trkpt><trkpt lat="43.48469152449008" lon="10.36317757209146"><ele>279.0</ele><time>2026-04-25T08:11:55.999Z</time></trkpt><trkpt lat="43.484765250674776" lon="10.363191420928093"><ele>279.0</ele><time>2026-04-25T08:11:58Z</time></trkpt><trkpt lat="43.484839717802956" lon="10.363205475289748"><ele>279.0</ele><time>2026-04-25T08:12:00Z</time></trkpt><trkpt lat="43.484913714385435" lon="10.363228022178754"><ele>278.8</ele><time>2026-04-25T08:12:02Z</time></trkpt><trkpt lat="43.48500822747886" lon="10.363230334062964"><ele>278.59999999999997</ele><time>2026-04-25T08:12:04Z</time></trkpt><trkpt lat="43.4851167457243" lon="10.363209702120223"><ele>278.4</ele><time>2026-04-25T08:12:06Z</time></trkpt><trkpt lat="43.485228864389924" lon="10.363160072166366"><ele>278.2</ele><time>2026-04-25T08:12:08Z</time></trkpt><trkpt lat="43.485345703272614" lon="10.363101798651568"><ele>278.0</ele><time>2026-04-25T08:12:10Z</time></trkpt><trkpt lat="43.485456556758095" lon="10.363055273852265"><ele>277.6</ele><time>2026-04-25T08:12:12Z</time></trkpt><trkpt lat="43.48557201681048" lon="10.363016914277187"><ele>277.20000000000005</ele><time>2026-04-25T08:12:14Z</time></trkpt><trkpt lat="43.48567986748358" lon="10.36296641671571"><ele>276.8</ele><time>2026-04-25T08:12:16Z</time></trkpt><trkpt lat="43.4857788352478" lon="10.362918931311563"><ele>276.40000000000003</ele><time>2026-04-25T08:12:18Z</time></trkpt><trkpt lat="43.48588346770261" lon="10.36289529003554"><ele>276.0</ele><time>2026-04-25T08:12:20Z</time></trkpt><trkpt lat="43.48598728778262" lon="10.362904743868212"><ele>276.0</ele><time>2026-04-25T08:12:22Z</time></trkpt><trkpt lat="43.48609040381943" lon="10.36293018757554"><ele>276.0</ele><time>2026-04-25T08:12:24Z</time></trkpt><trkpt lat="43.48619303253838" lon="10.362951478403598"><ele>276.0</ele><time>2026-04-25T08:12:26Z</time></trkpt><trkpt lat="43.48629224157685" lon="10.362981114063247"><ele>276.0</ele><time>2026-04-25T08:12:28Z</time></trkpt><trkpt lat="43.48638923401091" lon="10.363010684575688"><ele>276.0</ele><time>2026-04-25T08:12:30Z</time></trkpt><trkpt lat="43.486490572825616" lon="10.363041263132082"><ele>277.2</ele><time>2026-04-25T08:12:32Z</time></trkpt><trkpt lat="43.486583781531245" lon="10.363063727997812"><ele>278.40000000000003</ele><time>2026-04-25T08:12:34Z</time></trkpt><trkpt lat="43.48668034594756" lon="10.363094109530884"><ele>279.6</ele><time>2026-04-25T08:12:36Z</time></trkpt><trkpt lat="43.48677265620689" lon="10.363124250057535"><ele>280.8</ele><time>2026-04-25T08:12:38Z</time></trkpt><trkpt lat="43.48686293319215" lon="10.363150067561756"><ele>282.0</ele><time>2026-04-25T08:12:40Z</time></trkpt><trkpt lat="43.486950774856574" lon="10.363177784674132"><ele>282.0</ele><time>2026-04-25T08:12:42Z</time></trkpt><trkpt lat="43.487035139839826" lon="10.363206840746809"><ele>282.0</ele><time>2026-04-25T08:12:44Z</time></trkpt><trkpt lat="43.487124830383095" lon="10.363230463787271"><ele>282.0</ele><time>2026-04-25T08:12:46Z</time></trkpt><trkpt lat="43.48722430373297" lon="10.363258066506097"><ele>282.0</ele><time>2026-04-25T08:12:48Z</time></trkpt><trkpt lat="43.48732824209303" lon="10.363302060974457"><ele>282.0</ele><time>2026-04-25T08:12:50Z</time></trkpt><trkpt lat="43.48744117988788" lon="10.363346813677621"><ele>282.0</ele><time>2026-04-25T08:12:52Z</time></trkpt><trkpt lat="43.48750535099281" lon="10.36336359569704"><ele>282.0</ele><time>2026-04-25T08:12:53Z</time></trkpt><trkpt lat="43.48757524967818" lon="10.363377073433726"><ele>282.0</ele><time>2026-04-25T08:12:54Z</time></trkpt><trkpt lat="43.487646247211" lon="10.36338244943155"><ele>282.0</ele><time>2026-04-25T08:12:55Z</time></trkpt><trkpt lat="43.487721966434655" lon="10.36338882981918"><ele>282.0</ele><time>2026-04-25T08:12:56Z</time></trkpt><trkpt lat="43.4877986397971" lon="10.363393785597985"><ele>282.0</ele><time>2026-04-25T08:12:57Z</time></trkpt><trkpt lat="43.487876441464564" lon="10.363390404901956"><ele>282.0</ele><time>2026-04-25T08:12:58Z</time></trkpt><trkpt lat="43.48795374028503" lon="10.363384438409046"><ele>282.14285714285717</ele><time>2026-04-25T08:12:59Z</time></trkpt><trkpt lat="43.48803058397112" lon="10.363376168912563"><ele>282.2857142857143</ele><time>2026-04-25T08:13:00Z</time></trkpt><trkpt lat="43.48810601671542" lon="10.363367700473544"><ele>282.42857142857144</ele><time>2026-04-25T08:13:01Z</time></trkpt><trkpt lat="43.48817950386321" lon="10.363360738963065"><ele>282.57142857142856</ele><time>2026-04-25T08:13:02Z</time></trkpt><trkpt lat="43.48825017113057" lon="10.36334229805145"><ele>282.7142857142857</ele><time>2026-04-25T08:13:03Z</time></trkpt><trkpt lat="43.48831216686844" lon="10.363309455061424"><ele>282.8571428571429</ele><time>2026-04-25T08:13:04Z</time></trkpt><trkpt lat="43.48837273487945" lon="10.363280636221061"><ele>283.0</ele><time>2026-04-25T08:13:05Z</time></trkpt><trkpt lat="43.488471579020185" lon="10.363199050767209"><ele>283.0</ele><time>2026-04-25T08:13:07Z</time></trkpt><trkpt lat="43.48854081713323" lon="10.363098287870285"><ele>283.0</ele><time>2026-04-25T08:13:09Z</time></trkpt><trkpt lat="43.488601966211" lon="10.363006992825671"><ele>283.0</ele><time>2026-04-25T08:13:11Z</time></trkpt><trkpt lat="43.48865217304325" lon="10.362894916063153"><ele>283.0</ele><time>2026-04-25T08:13:13Z</time></trkpt><trkpt lat="43.48871102515476" lon="10.362780104978665"><ele>283.0</ele><time>2026-04-25T08:13:15Z</time></trkpt><trkpt lat="43.48876569233765" lon="10.362679021232385"><ele>283.66666666666663</ele><time>2026-04-25T08:13:17Z</time></trkpt><trkpt lat="43.488819179951086" lon="10.36257197268723"><ele>284.3333333333333</ele><time>2026-04-25T08:13:19Z</time></trkpt><trkpt lat="43.48887564191158" lon="10.362470964480277"><ele>285.0</ele><time>2026-04-25T08:13:21Z</time></trkpt><trkpt lat="43.48894438807307" lon="10.362401694804113"><ele>285.6666666666667</ele><time>2026-04-25T08:13:23Z</time></trkpt><trkpt lat="43.489011517381755" lon="10.362345472899074"><ele>286.33333333333337</ele><time>2026-04-25T08:13:25Z</time></trkpt><trkpt lat="43.48907932998433" lon="10.362293467360296"><ele>287.0</ele><time>2026-04-25T08:13:27Z</time></trkpt><trkpt lat="43.48914866495805" lon="10.362254798492712"><ele>287.0</ele><time>2026-04-25T08:13:29Z</time></trkpt><trkpt lat="43.48922528737265" lon="10.362226376252188"><ele>287.0</ele><time>2026-04-25T08:13:31Z</time></trkpt><trkpt lat="43.48930606808056" lon="10.362197211642993"><ele>287.0</ele><time>2026-04-25T08:13:33Z</time></trkpt><trkpt lat="43.48939299237743" lon="10.362186283814971"><ele>287.0</ele><time>2026-04-25T08:13:35Z</time></trkpt><trkpt lat="43.48948271790084" lon="10.362166588023488"><ele>287.0</ele><time>2026-04-25T08:13:37Z</time></trkpt><trkpt lat="43.489573366427415" lon="10.362132703481134"><ele>287.0</ele><time>2026-04-25T08:13:39Z</time></trkpt><trkpt lat="43.48965813676241" lon="10.36208940534152"><ele>287.2</ele><time>2026-04-25T08:13:41Z</time></trkpt><trkpt lat="43.48973191097211" lon="10.362009641452874"><ele>287.4</ele><time>2026-04-25T08:13:43Z</time></trkpt><trkpt lat="43.48979736605775" lon="10.361924825553949"><ele>287.6</ele><time>2026-04-25T08:13:45Z</time></trkpt><trkpt lat="43.48984692825959" lon="10.361820328159059"><ele>287.8</ele><time>2026-04-25T08:13:47Z</time></trkpt><trkpt lat="43.48988038466715" lon="10.361705585502294"><ele>288.0</ele><time>2026-04-25T08:13:49Z</time></trkpt><trkpt lat="43.48989715349946" lon="10.361582399255392"><ele>288.0</ele><time>2026-04-25T08:13:51Z</time></trkpt><trkpt lat="43.489899269836876" lon="10.361458109730254"><ele>288.0</ele><time>2026-04-25T08:13:53Z</time></trkpt><trkpt lat="43.48988162371097" lon="10.36134124855499"><ele>288.0</ele><time>2026-04-25T08:13:55Z</time></trkpt><trkpt lat="43.4898595288341" lon="10.361225756277015"><ele>288.0</ele><time>2026-04-25T08:13:57Z</time></trkpt><trkpt lat="43.4898277163258" lon="10.361115197071113"><ele>288.0</ele><time>2026-04-25T08:13:59Z</time></trkpt><trkpt lat="43.48980110521661" lon="10.361005259713227"><ele>288.0</ele><time>2026-04-25T08:14:00.999Z</time></trkpt><trkpt lat="43.48978279160882" lon="10.360886038641974"><ele>288.8</ele><time>2026-04-25T08:14:02.999Z</time></trkpt><trkpt lat="43.489754856652354" lon="10.360767196812649"><ele>289.6</ele><time>2026-04-25T08:14:05Z</time></trkpt><trkpt lat="43.48972279189663" lon="10.36065088812504"><ele>290.4</ele><time>2026-04-25T08:14:07Z</time></trkpt><trkpt lat="43.489693711202726" lon="10.360535193043917"><ele>291.2</ele><time>2026-04-25T08:14:09Z</time></trkpt><trkpt lat="43.48966540971239" lon="10.360415395301688"><ele>292.0</ele><time>2026-04-25T08:14:11Z</time></trkpt><trkpt lat="43.4896467171288" lon="10.360292988580955"><ele>292.5</ele><time>2026-04-25T08:14:13Z</time></trkpt><trkpt lat="43.48963745315539" lon="10.360167665484406"><ele>293.0</ele><time>2026-04-25T08:14:15Z</time></trkpt><trkpt lat="43.489640093591056" lon="10.360044941195278"><ele>293.5</ele><time>2026-04-25T08:14:17Z</time></trkpt><trkpt lat="43.48963567696626" lon="10.359922883289675"><ele>294.0</ele><time>2026-04-25T08:14:19Z</time></trkpt><trkpt lat="43.489643580422154" lon="10.359804165976229"><ele>294.5</ele><time>2026-04-25T08:14:21Z</time></trkpt><trkpt lat="43.48966087587865" lon="10.359688661024675"><ele>295.0</ele><time>2026-04-25T08:14:23Z</time></trkpt><trkpt lat="43.489698940450175" lon="10.35958316021655"><ele>293.8333333333333</ele><time>2026-04-25T08:14:25Z</time></trkpt><trkpt lat="43.48974602133271" lon="10.35948488444203"><ele>292.66666666666663</ele><time>2026-04-25T08:14:27Z</time></trkpt><trkpt lat="43.489804383746396" lon="10.359397146832459"><ele>291.5</ele><time>2026-04-25T08:14:29Z</time></trkpt><trkpt lat="43.48986562491743" lon="10.359308918445604"><ele>290.3333333333333</ele><time>2026-04-25T08:14:31Z</time></trkpt><trkpt lat="43.48992604232951" lon="10.359226770948412"><ele>289.1666666666667</ele><time>2026-04-25T08:14:33Z</time></trkpt><trkpt lat="43.489986910937205" lon="10.359135521903761"><ele>288.0</ele><time>2026-04-25T08:14:35Z</time></trkpt><trkpt lat="43.49004405877641" lon="10.359044340273755"><ele>288.0</ele><time>2026-04-25T08:14:37Z</time></trkpt><trkpt lat="43.4901086268229" lon="10.358956549087257"><ele>288.0</ele><time>2026-04-25T08:14:39Z</time></trkpt><trkpt lat="43.49016936227275" lon="10.358867438260713"><ele>288.0</ele><time>2026-04-25T08:14:41Z</time></trkpt><trkpt lat="43.49022894009029" lon="10.35878573289914"><ele>288.0</ele><time>2026-04-25T08:14:43Z</time></trkpt><trkpt lat="43.490294979260604" lon="10.358710422123972"><ele>288.0</ele><time>2026-04-25T08:14:45Z</time></trkpt><trkpt lat="43.49035764077428" lon="10.358634965990287"><ele>288.0</ele><time>2026-04-25T08:14:47Z</time></trkpt><trkpt lat="43.490442662605794" lon="10.358559519199316"><ele>288.00000000000006</ele><time>2026-04-25T08:14:49Z</time></trkpt><trkpt lat="43.490501481160585" lon="10.358527841031412"><ele>288.0</ele><time>2026-04-25T08:14:50Z</time></trkpt><trkpt lat="43.49056285718944" lon="10.358494868416697"><ele>288.0</ele><time>2026-04-25T08:14:51Z</time></trkpt><trkpt lat="43.49062862424328" lon="10.35845915907936"><ele>288.0</ele><time>2026-04-25T08:14:52Z</time></trkpt><trkpt lat="43.490700112266836" lon="10.358424677862054"><ele>288.0</ele><time>2026-04-25T08:14:53Z</time></trkpt><trkpt lat="43.49077323763791" lon="10.358387968205433"><ele>288.00000000000006</ele><time>2026-04-25T08:14:54Z</time></trkpt><trkpt lat="43.49084448856258" lon="10.35835544171629"><ele>288.0</ele><time>2026-04-25T08:14:55Z</time></trkpt><trkpt lat="43.49091397688588" lon="10.358344113364703"><ele>288.0</ele><time>2026-04-25T08:14:56Z</time></trkpt><trkpt lat="43.49098650676373" lon="10.358410309461792"><ele>288.0</ele><time>2026-04-25T08:14:57Z</time></trkpt><trkpt lat="43.49102205250943" lon="10.358536460206992"><ele>288.0</ele><time>2026-04-25T08:14:58Z</time></trkpt><trkpt lat="43.491080589777376" lon="10.358645252099482"><ele>288.0</ele><time>2026-04-25T08:14:59Z</time></trkpt><trkpt lat="43.491170472207436" lon="10.358852984341846"><ele>287.8333333333333</ele><time>2026-04-25T08:15:01Z</time></trkpt><trkpt lat="43.4912266698101" lon="10.358944610243869"><ele>287.6666666666667</ele><time>2026-04-25T08:15:02Z</time></trkpt><trkpt lat="43.49129865971727" lon="10.359019583640237"><ele>287.5</ele><time>2026-04-25T08:15:03Z</time></trkpt><trkpt lat="43.49137487197735" lon="10.359070204618405"><ele>287.33333333333337</ele><time>2026-04-25T08:15:04Z</time></trkpt><trkpt lat="43.491463394617206" lon="10.359094326391475"><ele>287.1666666666667</ele><time>2026-04-25T08:15:05Z</time></trkpt><trkpt lat="43.49155392533299" lon="10.359092580234252"><ele>287.0</ele><time>2026-04-25T08:15:06Z</time></trkpt><trkpt lat="43.49165447530193" lon="10.35910650401329"><ele>285.8</ele><time>2026-04-25T08:15:07Z</time></trkpt><trkpt lat="43.49174780432108" lon="10.359082980390117"><ele>284.6</ele><time>2026-04-25T08:15:08Z</time></trkpt><trkpt lat="43.49183599699922" lon="10.359069023104992"><ele>283.40000000000003</ele><time>2026-04-25T08:15:09Z</time></trkpt><trkpt lat="43.49194072850185" lon="10.359048068930425"><ele>282.2</ele><time>2026-04-25T08:15:10Z</time></trkpt><trkpt lat="43.49204177349431" lon="10.359012496392731"><ele>281.0</ele><time>2026-04-25T08:15:11Z</time></trkpt><trkpt lat="43.49213692154522" lon="10.358960792741584"><ele>280.2</ele><time>2026-04-25T08:15:12Z</time></trkpt><trkpt lat="43.49223417050338" lon="10.358910227221063"><ele>279.40000000000003</ele><time>2026-04-25T08:15:13Z</time></trkpt><trkpt lat="43.49233438276266" lon="10.358850820127511"><ele>278.6</ele><time>2026-04-25T08:15:14Z</time></trkpt><trkpt lat="43.49243770173496" lon="10.358804926324309"><ele>277.8</ele><time>2026-04-25T08:15:15Z</time></trkpt><trkpt lat="43.492540381506046" lon="10.358751452894815"><ele>277.0</ele><time>2026-04-25T08:15:16Z</time></trkpt><trkpt lat="43.492637618648885" lon="10.35871141145706"><ele>273.75</ele><time>2026-04-25T08:15:17Z</time></trkpt><trkpt lat="43.49275450740476" lon="10.358652725745845"><ele>270.5</ele><time>2026-04-25T08:15:18Z</time></trkpt><trkpt lat="43.4928689221916" lon="10.358585308352998"><ele>267.25</ele><time>2026-04-25T08:15:19Z</time></trkpt><trkpt lat="43.492977348906095" lon="10.358521699011849"><ele>264.0</ele><time>2026-04-25T08:15:20Z</time></trkpt><trkpt lat="43.493087909164885" lon="10.358505288113685"><ele>264.75</ele><time>2026-04-25T08:15:21Z</time></trkpt><trkpt lat="43.49319735342766" lon="10.358551974763976"><ele>265.5</ele><time>2026-04-25T08:15:22Z</time></trkpt><trkpt lat="43.49328704557551" lon="10.358646059024686"><ele>266.25</ele><time>2026-04-25T08:15:23Z</time></trkpt><trkpt lat="43.49336197221825" lon="10.358766482788813"><ele>267.0</ele><time>2026-04-25T08:15:24Z</time></trkpt><trkpt lat="43.493442456339544" lon="10.358884331945545"><ele>267.0</ele><time>2026-04-25T08:15:25Z</time></trkpt><trkpt lat="43.49351718781439" lon="10.359007064407633"><ele>267.0</ele><time>2026-04-25T08:15:26Z</time></trkpt><trkpt lat="43.49359095785869" lon="10.359137623364976"><ele>267.0</ele><time>2026-04-25T08:15:27Z</time></trkpt><trkpt lat="43.49364568081234" lon="10.359285401027552"><ele>267.0</ele><time>2026-04-25T08:15:28Z</time></trkpt><trkpt lat="43.493690741467944" lon="10.359442950929116"><ele>267.0</ele><time>2026-04-25T08:15:29Z</time></trkpt><trkpt lat="43.49372538266345" lon="10.359608099872249"><ele>267.0</ele><time>2026-04-25T08:15:30Z</time></trkpt><trkpt lat="43.49375059011064" lon="10.359777331662782"><ele>267.0</ele><time>2026-04-25T08:15:31Z</time></trkpt><trkpt lat="43.49377882712347" lon="10.359924600619378"><ele>267.0</ele><time>2026-04-25T08:15:32Z</time></trkpt><trkpt lat="43.493795144023466" lon="10.360038098969216"><ele>267.0</ele><time>2026-04-25T08:15:33Z</time></trkpt><trkpt lat="43.49380582083831" lon="10.360138515267984"><ele>263.8</ele><time>2026-04-25T08:15:34Z</time></trkpt><trkpt lat="43.49382666872478" lon="10.360248347623253"><ele>260.6</ele><time>2026-04-25T08:15:35Z</time></trkpt><trkpt lat="43.49385038737747" lon="10.360362485594106"><ele>257.40000000000003</ele><time>2026-04-25T08:15:36Z</time></trkpt><trkpt lat="43.49386091940268" lon="10.36048581861658"><ele>254.20000000000002</ele><time>2026-04-25T08:15:37Z</time></trkpt><trkpt lat="43.4939128321875" lon="10.36059728474796"><ele>251.0</ele><time>2026-04-25T08:15:38Z</time></trkpt><trkpt lat="43.49395732863618" lon="10.360715640471986"><ele>251.0</ele><time>2026-04-25T08:15:39Z</time></trkpt><trkpt lat="43.494016734998986" lon="10.360825298311589"><ele>251.00000000000003</ele><time>2026-04-25T08:15:40Z</time></trkpt><trkpt lat="43.494084235353" lon="10.360933401442074"><ele>251.00000000000003</ele><time>2026-04-25T08:15:41Z</time></trkpt><trkpt lat="43.49414980874415" lon="10.361045242327341"><ele>251.0</ele><time>2026-04-25T08:15:42Z</time></trkpt><trkpt lat="43.49421987800753" lon="10.36115265014832"><ele>251.0</ele><time>2026-04-25T08:15:43Z</time></trkpt><trkpt lat="43.49430321505719" lon="10.361243051901573"><ele>251.0</ele><time>2026-04-25T08:15:44Z</time></trkpt><trkpt lat="43.49440611805993" lon="10.361291440716524"><ele>251.00000000000003</ele><time>2026-04-25T08:15:45Z</time></trkpt><trkpt lat="43.49451390220696" lon="10.361288427652546"><ele>251.00000000000003</ele><time>2026-04-25T08:15:46Z</time></trkpt><trkpt lat="43.494618338846905" lon="10.36124007895201"><ele>251.0</ele><time>2026-04-25T08:15:47Z</time></trkpt><trkpt lat="43.49469986267066" lon="10.361140646654581"><ele>251.0</ele><time>2026-04-25T08:15:48Z</time></trkpt><trkpt lat="43.49474720777202" lon="10.36101015954374"><ele>249.20000000000002</ele><time>2026-04-25T08:15:49Z</time></trkpt><trkpt lat="43.49477093482269" lon="10.360867234495409"><ele>247.40000000000003</ele><time>2026-04-25T08:15:50Z</time></trkpt><trkpt lat="43.49476515119664" lon="10.360720533375169"><ele>245.6</ele><time>2026-04-25T08:15:51Z</time></trkpt><trkpt lat="43.49473633527961" lon="10.36057810442442"><ele>243.8</ele><time>2026-04-25T08:15:52Z</time></trkpt><trkpt lat="43.494711900794044" lon="10.360434049027157"><ele>242.0</ele><time>2026-04-25T08:15:53Z</time></trkpt><trkpt lat="43.49468736735058" lon="10.36029313556207"><ele>241.2</ele><time>2026-04-25T08:15:54Z</time></trkpt><trkpt lat="43.494699558995926" lon="10.360154376157274"><ele>240.39999999999998</ele><time>2026-04-25T08:15:55Z</time></trkpt><trkpt lat="43.494748497534054" lon="10.360023822076672"><ele>239.60000000000002</ele><time>2026-04-25T08:15:56Z</time></trkpt><trkpt lat="43.494824957714734" lon="10.359910826069088"><ele>238.8</ele><time>2026-04-25T08:15:57Z</time></trkpt><trkpt lat="43.4949203818338" lon="10.359846854242862"><ele>238.0</ele><time>2026-04-25T08:15:58Z</time></trkpt><trkpt lat="43.49501104288268" lon="10.359780572403949"><ele>238.0</ele><time>2026-04-25T08:15:59Z</time></trkpt><trkpt lat="43.49510749608313" lon="10.359710909110056"><ele>238.0</ele><time>2026-04-25T08:15:59.999Z</time></trkpt><trkpt lat="43.49520151165786" lon="10.359642206607944"><ele>238.0</ele><time>2026-04-25T08:16:00.999Z</time></trkpt><trkpt lat="43.49529204605731" lon="10.359578351944675"><ele>238.0</ele><time>2026-04-25T08:16:01.999Z</time></trkpt><trkpt lat="43.49538476524124" lon="10.359516192533873"><ele>238.0</ele><time>2026-04-25T08:16:02.999Z</time></trkpt><trkpt lat="43.495477385464916" lon="10.359446284860715"><ele>237.0</ele><time>2026-04-25T08:16:03.999Z</time></trkpt><trkpt lat="43.49556630043057" lon="10.359378281677083"><ele>236.0</ele><time>2026-04-25T08:16:04.999Z</time></trkpt><trkpt lat="43.49565349933814" lon="10.359310480372002"><ele>235.0</ele><time>2026-04-25T08:16:05.999Z</time></trkpt><trkpt lat="43.495741385471476" lon="10.359247506368833"><ele>234.0</ele><time>2026-04-25T08:16:06.999Z</time></trkpt><trkpt lat="43.49582803946923" lon="10.359182653680516"><ele>233.0</ele><time>2026-04-25T08:16:07.999Z</time></trkpt><trkpt lat="43.49591337996554" lon="10.35911698714115"><ele>233.0</ele><time>2026-04-25T08:16:08.999Z</time></trkpt><trkpt lat="43.49599857088732" lon="10.359050589490641"><ele>233.0</ele><time>2026-04-25T08:16:10Z</time></trkpt><trkpt lat="43.49608379807093" lon="10.358986565072263"><ele>233.0</ele><time>2026-04-25T08:16:11Z</time></trkpt><trkpt lat="43.49616948137134" lon="10.358922840716266"><ele>233.0</ele><time>2026-04-25T08:16:12Z</time></trkpt><trkpt lat="43.496254500867515" lon="10.358858840144629"><ele>233.0</ele><time>2026-04-25T08:16:13Z</time></trkpt><trkpt lat="43.496339812127474" lon="10.3587950353215"><ele>232.0</ele><time>2026-04-25T08:16:14Z</time></trkpt><trkpt lat="43.49642133396687" lon="10.358727458050813"><ele>231.0</ele><time>2026-04-25T08:16:15Z</time></trkpt><trkpt lat="43.49649679826081" lon="10.358649061013889"><ele>230.0</ele><time>2026-04-25T08:16:16Z</time></trkpt><trkpt lat="43.49655207047757" lon="10.358542380353777"><ele>229.0</ele><time>2026-04-25T08:16:17Z</time></trkpt><trkpt lat="43.49659063265024" lon="10.358424125611243"><ele>228.0</ele><time>2026-04-25T08:16:18Z</time></trkpt><trkpt lat="43.496607654123665" lon="10.358294074919348"><ele>228.0</ele><time>2026-04-25T08:16:19Z</time></trkpt><trkpt lat="43.496614835753554" lon="10.358158747162422"><ele>228.0</ele><time>2026-04-25T08:16:20Z</time></trkpt><trkpt lat="43.4966193892873" lon="10.358024331070554"><ele>228.0</ele><time>2026-04-25T08:16:21Z</time></trkpt><trkpt lat="43.49661476905692" lon="10.357889141145694"><ele>228.0</ele><time>2026-04-25T08:16:22Z</time></trkpt><trkpt lat="43.49659546973398" lon="10.35775737627824"><ele>228.0</ele><time>2026-04-25T08:16:23Z</time></trkpt><trkpt lat="43.4965551309689" lon="10.357632759588055"><ele>227.8</ele><time>2026-04-25T08:16:24Z</time></trkpt><trkpt lat="43.49648780899504" lon="10.3575327187618"><ele>227.60000000000002</ele><time>2026-04-25T08:16:25Z</time></trkpt><trkpt lat="43.49640898251001" lon="10.357460228135615"><ele>227.39999999999998</ele><time>2026-04-25T08:16:26Z</time></trkpt><trkpt lat="43.49631237999642" lon="10.357426154000144"><ele>227.2</ele><time>2026-04-25T08:16:27Z</time></trkpt><trkpt lat="43.49620947822339" lon="10.357425304133246"><ele>227.0</ele><time>2026-04-25T08:16:28Z</time></trkpt><trkpt lat="43.496111197638854" lon="10.35745864495291"><ele>226.2</ele><time>2026-04-25T08:16:29Z</time></trkpt><trkpt lat="43.496025873154885" lon="10.357525897540977"><ele>225.39999999999998</ele><time>2026-04-25T08:16:30Z</time></trkpt><trkpt lat="43.49594956370373" lon="10.357608975777929"><ele>224.60000000000002</ele><time>2026-04-25T08:16:31Z</time></trkpt><trkpt lat="43.49588239683898" lon="10.357709333851746"><ele>223.8</ele><time>2026-04-25T08:16:32Z</time></trkpt><trkpt lat="43.4958165560696" lon="10.357813391842123"><ele>223.0</ele><time>2026-04-25T08:16:33Z</time></trkpt><trkpt lat="43.495747542699235" lon="10.357917008791276"><ele>222.99999999999997</ele><time>2026-04-25T08:16:34Z</time></trkpt><trkpt lat="43.49567640171965" lon="10.358017152503287"><ele>223.0</ele><time>2026-04-25T08:16:35Z</time></trkpt><trkpt lat="43.49561822380103" lon="10.358100344638487"><ele>223.0</ele><time>2026-04-25T08:16:36Z</time></trkpt><trkpt lat="43.495513702517975" lon="10.358155744274681"><ele>223.0</ele><time>2026-04-25T08:16:38Z</time></trkpt><trkpt lat="43.49545487974438" lon="10.358120696827005"><ele>222.99999999999997</ele><time>2026-04-25T08:16:39Z</time></trkpt><trkpt lat="43.4954254818213" lon="10.358026722826823"><ele>223.0</ele><time>2026-04-25T08:16:40Z</time></trkpt><trkpt lat="43.495451773680315" lon="10.357918035775386"><ele>222.99999999999997</ele><time>2026-04-25T08:16:41Z</time></trkpt><trkpt lat="43.49549930807551" lon="10.357828052971847"><ele>223.0</ele><time>2026-04-25T08:16:42Z</time></trkpt><trkpt lat="43.49554048552949" lon="10.357737093594789"><ele>223.0</ele><time>2026-04-25T08:16:43Z</time></trkpt><trkpt lat="43.4955771180599" lon="10.357640868729032"><ele>223.0</ele><time>2026-04-25T08:16:44Z</time></trkpt><trkpt lat="43.495607950650985" lon="10.35753402631855"><ele>222.99999999999997</ele><time>2026-04-25T08:16:45Z</time></trkpt><trkpt lat="43.495634570758575" lon="10.357425946276178"><ele>223.0</ele><time>2026-04-25T08:16:46Z</time></trkpt><trkpt lat="43.49564821067302" lon="10.357305831261472"><ele>220.4</ele><time>2026-04-25T08:16:47Z</time></trkpt><trkpt lat="43.495670930732516" lon="10.357186053443831"><ele>217.8</ele><time>2026-04-25T08:16:48Z</time></trkpt><trkpt lat="43.49569984951787" lon="10.357063826789988"><ele>215.2</ele><time>2026-04-25T08:16:49Z</time></trkpt><trkpt lat="43.49574296545014" lon="10.356945905311735"><ele>212.6</ele><time>2026-04-25T08:16:50Z</time></trkpt><trkpt lat="43.495808937012406" lon="10.356839104352558"><ele>210.0</ele><time>2026-04-25T08:16:51Z</time></trkpt><trkpt lat="43.49590004848574" lon="10.356766611837267"><ele>210.0</ele><time>2026-04-25T08:16:52Z</time></trkpt><trkpt lat="43.49600263548584" lon="10.35672402416263"><ele>210.0</ele><time>2026-04-25T08:16:53Z</time></trkpt><trkpt lat="43.496106677074756" lon="10.356681656151357"><ele>210.0</ele><time>2026-04-25T08:16:54Z</time></trkpt><trkpt lat="43.49619860803887" lon="10.356592621984396"><ele>210.0</ele><time>2026-04-25T08:16:55Z</time></trkpt><trkpt lat="43.4962720181515" lon="10.356474629894048"><ele>210.0</ele><time>2026-04-25T08:16:56Z</time></trkpt><trkpt lat="43.496327468954924" lon="10.356335432872"><ele>208.4</ele><time>2026-04-25T08:16:57Z</time></trkpt><trkpt lat="43.49638907305993" lon="10.35620253140166"><ele>206.8</ele><time>2026-04-25T08:16:58Z</time></trkpt><trkpt lat="43.496453728419915" lon="10.356070395656076"><ele>205.2</ele><time>2026-04-25T08:16:59Z</time></trkpt><trkpt lat="43.49651108347651" lon="10.355938980272965"><ele>203.6</ele><time>2026-04-25T08:17:00Z</time></trkpt><trkpt lat="43.49658855685372" lon="10.35584082716452"><ele>202.0</ele><time>2026-04-25T08:17:01Z</time></trkpt><trkpt lat="43.496660306452036" lon="10.355735153974218"><ele>202.0</ele><time>2026-04-25T08:17:02Z</time></trkpt><trkpt lat="43.49675893323564" lon="10.355677781517093"><ele>202.0</ele><time>2026-04-25T08:17:03Z</time></trkpt><trkpt lat="43.49686240487239" lon="10.355633430441776"><ele>202.0</ele><time>2026-04-25T08:17:04Z</time></trkpt><trkpt lat="43.496973160121" lon="10.355618309418082"><ele>202.0</ele><time>2026-04-25T08:17:05Z</time></trkpt><trkpt lat="43.497084645168414" lon="10.355597466936148"><ele>202.0</ele><time>2026-04-25T08:17:06Z</time></trkpt><trkpt lat="43.49719603396042" lon="10.35555923869207"><ele>199.8</ele><time>2026-04-25T08:17:07Z</time></trkpt><trkpt lat="43.497299593887796" lon="10.355498362880017"><ele>197.6</ele><time>2026-04-25T08:17:08Z</time></trkpt><trkpt lat="43.497403672163884" lon="10.355427618736693"><ele>195.4</ele><time>2026-04-25T08:17:09Z</time></trkpt><trkpt lat="43.49749872688129" lon="10.355369836699465"><ele>193.20000000000002</ele><time>2026-04-25T08:17:10Z</time></trkpt><trkpt lat="43.49760371754278" lon="10.355327629578698"><ele>191.0</ele><time>2026-04-25T08:17:11Z</time></trkpt><trkpt lat="43.49771709289179" lon="10.355308088269647"><ele>191.0</ele><time>2026-04-25T08:17:12Z</time></trkpt><trkpt lat="43.49783158400607" lon="10.355270823546308"><ele>191.0</ele><time>2026-04-25T08:17:13Z</time></trkpt><trkpt lat="43.4979533387842" lon="10.355250308624948"><ele>191.0</ele><time>2026-04-25T08:17:14Z</time></trkpt><trkpt lat="43.49807798672682" lon="10.355250560867415"><ele>191.0</ele><time>2026-04-25T08:17:15Z</time></trkpt><trkpt lat="43.498190924896555" lon="10.355232007994388"><ele>190.25</ele><time>2026-04-25T08:17:16Z</time></trkpt><trkpt lat="43.49830226945771" lon="10.355202318879153"><ele>189.5</ele><time>2026-04-25T08:17:17Z</time></trkpt><trkpt lat="43.498412819120254" lon="10.355139423324248"><ele>188.75</ele><time>2026-04-25T08:17:18Z</time></trkpt><trkpt lat="43.49851513884765" lon="10.35505223451858"><ele>188.0</ele><time>2026-04-25T08:17:19Z</time></trkpt><trkpt lat="43.49859302004191" lon="10.35496340073819"><ele>188.0</ele><time>2026-04-25T08:17:20Z</time></trkpt><trkpt lat="43.498666964126706" lon="10.354845101734796"><ele>188.0</ele><time>2026-04-25T08:17:21Z</time></trkpt><trkpt lat="43.49874637021673" lon="10.35478276141547"><ele>188.0</ele><time>2026-04-25T08:17:22Z</time></trkpt><trkpt lat="43.498795424486076" lon="10.354714138539231"><ele>188.0</ele><time>2026-04-25T08:17:23Z</time></trkpt><trkpt lat="43.498907157951955" lon="10.354754838078549"><ele>188.0</ele><time>2026-04-25T08:17:25Z</time></trkpt><trkpt lat="43.49893895569649" lon="10.3548519231911"><ele>186.16666666666666</ele><time>2026-04-25T08:17:26Z</time></trkpt><trkpt lat="43.498935241210276" lon="10.354968649267548"><ele>184.33333333333331</ele><time>2026-04-25T08:17:27Z</time></trkpt><trkpt lat="43.49892302196227" lon="10.355076423648992"><ele>182.5</ele><time>2026-04-25T08:17:28Z</time></trkpt><trkpt lat="43.49892063447819" lon="10.35517305165402"><ele>180.66666666666666</ele><time>2026-04-25T08:17:29Z</time></trkpt><trkpt lat="43.49900729323267" lon="10.355279681602884"><ele>178.83333333333334</ele><time>2026-04-25T08:17:31Z</time></trkpt><trkpt lat="43.499070949957265" lon="10.355262934954894"><ele>177.0</ele><time>2026-04-25T08:17:32Z</time></trkpt><trkpt lat="43.49913022418201" lon="10.355211438047395"><ele>177.0</ele><time>2026-04-25T08:17:33Z</time></trkpt><trkpt lat="43.49912685106752" lon="10.35507204223285"><ele>177.0</ele><time>2026-04-25T08:17:34Z</time></trkpt><trkpt lat="43.49912995738269" lon="10.354966883728867"><ele>177.0</ele><time>2026-04-25T08:17:35Z</time></trkpt><trkpt lat="43.49912711735146" lon="10.354864425183484"><ele>177.0</ele><time>2026-04-25T08:17:36Z</time></trkpt><trkpt lat="43.499124129498796" lon="10.354756231687311"><ele>177.0</ele><time>2026-04-25T08:17:37Z</time></trkpt><trkpt lat="43.499109252322235" lon="10.354645465163037"><ele>177.0</ele><time>2026-04-25T08:17:38Z</time></trkpt><trkpt lat="43.499104847563586" lon="10.354531419586015"><ele>176.0</ele><time>2026-04-25T08:17:39Z</time></trkpt><trkpt lat="43.4990943555275" lon="10.354413251948888"><ele>175.0</ele><time>2026-04-25T08:17:40Z</time></trkpt><trkpt lat="43.49908312920319" lon="10.354304961417863"><ele>174.0</ele><time>2026-04-25T08:17:41Z</time></trkpt><trkpt lat="43.499086905169584" lon="10.354207687264436"><ele>173.0</ele><time>2026-04-25T08:17:42Z</time></trkpt><trkpt lat="43.49913840084618" lon="10.354080828626168"><ele>172.0</ele><time>2026-04-25T08:17:44Z</time></trkpt><trkpt lat="43.49920126801075" lon="10.35405681867276"><ele>171.0</ele><time>2026-04-25T08:17:45Z</time></trkpt><trkpt lat="43.49925972134757" lon="10.354106911541955"><ele>170.99999999999997</ele><time>2026-04-25T08:17:46Z</time></trkpt><trkpt lat="43.49928705328593" lon="10.354222788298518"><ele>171.0</ele><time>2026-04-25T08:17:47Z</time></trkpt><trkpt lat="43.49929819912242" lon="10.354309864527627"><ele>171.0</ele><time>2026-04-25T08:17:48Z</time></trkpt><trkpt lat="43.49929403115774" lon="10.354398757469387"><ele>171.0</ele><time>2026-04-25T08:17:49Z</time></trkpt><trkpt lat="43.49930788812669" lon="10.354489486499649"><ele>171.0</ele><time>2026-04-25T08:17:50Z</time></trkpt><trkpt lat="43.49932474775103" lon="10.354583581464876"><ele>170.99999999999997</ele><time>2026-04-25T08:17:51Z</time></trkpt><trkpt lat="43.49932782627831" lon="10.354676174361613"><ele>171.0</ele><time>2026-04-25T08:17:52Z</time></trkpt><trkpt lat="43.49932860415678" lon="10.354769011795634"><ele>171.85714285714283</ele><time>2026-04-25T08:17:53Z</time></trkpt><trkpt lat="43.4993269316193" lon="10.354864420618643"><ele>172.71428571428572</ele><time>2026-04-25T08:17:54Z</time></trkpt><trkpt lat="43.499324474391024" lon="10.354960414942228"><ele>173.57142857142856</ele><time>2026-04-25T08:17:55Z</time></trkpt><trkpt lat="43.49932282048295" lon="10.355058941888252"><ele>174.42857142857142</ele><time>2026-04-25T08:17:56Z</time></trkpt><trkpt lat="43.49932337628374" lon="10.355156768363607"><ele>175.28571428571428</ele><time>2026-04-25T08:17:57Z</time></trkpt><trkpt lat="43.49931971161975" lon="10.355255919710693"><ele>176.14285714285714</ele><time>2026-04-25T08:17:58Z</time></trkpt><trkpt lat="43.499313221164364" lon="10.35536002631164"><ele>177.0</ele><time>2026-04-25T08:17:59Z</time></trkpt><trkpt lat="43.499303511080534" lon="10.355464954918062"><ele>177.0</ele><time>2026-04-25T08:18:00Z</time></trkpt><trkpt lat="43.49932512224142" lon="10.355560586515606"><ele>177.0</ele><time>2026-04-25T08:18:01Z</time></trkpt><trkpt lat="43.49944689651692" lon="10.355599812587142"><ele>177.0</ele><time>2026-04-25T08:18:03Z</time></trkpt><trkpt lat="43.49951403168086" lon="10.35553549392479"><ele>177.0</ele><time>2026-04-25T08:18:04Z</time></trkpt><trkpt lat="43.49954126184547" lon="10.35544682107997"><ele>177.0</ele><time>2026-04-25T08:18:05Z</time></trkpt><trkpt lat="43.49954577472733" lon="10.355347470490932"><ele>177.0</ele><time>2026-04-25T08:18:06Z</time></trkpt><trkpt lat="43.49954769432273" lon="10.3552515159604"><ele>177.0</ele><time>2026-04-25T08:18:07Z</time></trkpt><trkpt lat="43.49955505170878" lon="10.355156615798304"><ele>177.0</ele><time>2026-04-25T08:18:08Z</time></trkpt><trkpt lat="43.49955819268412" lon="10.355059529812925"><ele>177.0</ele><time>2026-04-25T08:18:09Z</time></trkpt><trkpt lat="43.49956515337022" lon="10.354963311113762"><ele>177.0</ele><time>2026-04-25T08:18:10Z</time></trkpt><trkpt lat="43.4995685963056" lon="10.35486264708841"><ele>177.0</ele><time>2026-04-25T08:18:11Z</time></trkpt><trkpt lat="43.4995747113168" lon="10.354763502002507"><ele>177.0</ele><time>2026-04-25T08:18:12Z</time></trkpt><trkpt lat="43.49957729762454" lon="10.354658040367118"><ele>177.0</ele><time>2026-04-25T08:18:13Z</time></trkpt><trkpt lat="43.49957774221759" lon="10.354548839814557"><ele>173.16666666666666</ele><time>2026-04-25T08:18:14Z</time></trkpt><trkpt lat="43.49958649677295" lon="10.354438746976923"><ele>169.33333333333334</ele><time>2026-04-25T08:18:15Z</time></trkpt><trkpt lat="43.499596900275954" lon="10.354324242391874"><ele>165.5</ele><time>2026-04-25T08:18:16Z</time></trkpt><trkpt lat="43.49961264029174" lon="10.35421175171882"><ele>161.66666666666669</ele><time>2026-04-25T08:18:17Z</time></trkpt><trkpt lat="43.499664554155075" lon="10.354103972085825"><ele>157.83333333333334</ele><time>2026-04-25T08:18:18Z</time></trkpt><trkpt lat="43.499704208385886" lon="10.353979865701593"><ele>154.0</ele><time>2026-04-25T08:18:19Z</time></trkpt><trkpt lat="43.49976743970105" lon="10.353865438797238"><ele>152.83333333333334</ele><time>2026-04-25T08:18:20Z</time></trkpt><trkpt lat="43.49983563289624" lon="10.353756294729639"><ele>151.66666666666669</ele><time>2026-04-25T08:18:21Z</time></trkpt><trkpt lat="43.49988500593109" lon="10.353660309514236"><ele>150.5</ele><time>2026-04-25T08:18:22Z</time></trkpt><trkpt lat="43.49990290395336" lon="10.353575110266444"><ele>149.33333333333334</ele><time>2026-04-25T08:18:23Z</time></trkpt><trkpt lat="43.49990773778869" lon="10.353487878388178"><ele>148.16666666666666</ele><time>2026-04-25T08:18:24Z</time></trkpt><trkpt lat="43.49980808470075" lon="10.353426568194973"><ele>147.0</ele><time>2026-04-25T08:18:25Z</time></trkpt><trkpt lat="43.499730438724484" lon="10.353402465043398"><ele>147.0</ele><time>2026-04-25T08:18:26Z</time></trkpt><trkpt lat="43.4996543964925" lon="10.353387783857062"><ele>147.0</ele><time>2026-04-25T08:18:27Z</time></trkpt><trkpt lat="43.49958719788768" lon="10.353338371108425"><ele>147.0</ele><time>2026-04-25T08:18:28Z</time></trkpt><trkpt lat="43.49951900815616" lon="10.353309607673005"><ele>147.0</ele><time>2026-04-25T08:18:29Z</time></trkpt><trkpt lat="43.49944637536067" lon="10.353278970069999"><ele>147.0</ele><time>2026-04-25T08:18:30Z</time></trkpt><trkpt lat="43.49937471468558" lon="10.353270475911732"><ele>147.0</ele><time>2026-04-25T08:18:31Z</time></trkpt><trkpt lat="43.49930537812573" lon="10.35323232623138"><ele>147.0</ele><time>2026-04-25T08:18:32Z</time></trkpt><trkpt lat="43.499226026825276" lon="10.353214229861349"><ele>148.16666666666666</ele><time>2026-04-25T08:18:33Z</time></trkpt><trkpt lat="43.49915732808314" lon="10.353185250189634"><ele>149.33333333333334</ele><time>2026-04-25T08:18:34Z</time></trkpt><trkpt lat="43.49907380937233" lon="10.353188181793021"><ele>150.5</ele><time>2026-04-25T08:18:35Z</time></trkpt><trkpt lat="43.49900011940746" lon="10.353194539934456"><ele>151.66666666666669</ele><time>2026-04-25T08:18:36Z</time></trkpt><trkpt lat="43.49891404795709" lon="10.353202936946136"><ele>152.83333333333334</ele><time>2026-04-25T08:18:37Z</time></trkpt><trkpt lat="43.4988388716898" lon="10.353241442962632"><ele>154.0</ele><time>2026-04-25T08:18:38Z</time></trkpt><trkpt lat="43.498759564875144" lon="10.353280504949991"><ele>153.83333333333334</ele><time>2026-04-25T08:18:39Z</time></trkpt><trkpt lat="43.49868281549913" lon="10.353327627457052"><ele>153.66666666666669</ele><time>2026-04-25T08:18:40Z</time></trkpt><trkpt lat="43.49859833721938" lon="10.35337935145189"><ele>153.5</ele><time>2026-04-25T08:18:41Z</time></trkpt><trkpt lat="43.49852058908562" lon="10.35341325606415"><ele>153.33333333333334</ele><time>2026-04-25T08:18:42Z</time></trkpt><trkpt lat="43.49845043787263" lon="10.353401252602206"><ele>153.16666666666666</ele><time>2026-04-25T08:18:43Z</time></trkpt><trkpt lat="43.49833821928884" lon="10.353344785272341"><ele>153.0</ele><time>2026-04-25T08:18:45Z</time></trkpt><trkpt lat="43.49831953574238" lon="10.353238025340083"><ele>153.0</ele><time>2026-04-25T08:18:46Z</time></trkpt><trkpt lat="43.498284733942185" lon="10.353160715434667"><ele>153.0</ele><time>2026-04-25T08:18:47Z</time></trkpt><trkpt lat="43.49824561431514" lon="10.353076233407979"><ele>153.0</ele><time>2026-04-25T08:18:48Z</time></trkpt><trkpt lat="43.49819906224618" lon="10.35301213407235"><ele>153.0</ele><time>2026-04-25T08:18:49Z</time></trkpt><trkpt lat="43.49816335177765" lon="10.352931920934447"><ele>153.0</ele><time>2026-04-25T08:18:50Z</time></trkpt><trkpt lat="43.498118334749506" lon="10.352861933223261"><ele>153.0</ele><time>2026-04-25T08:18:51Z</time></trkpt><trkpt lat="43.49808278371546" lon="10.35278270463572"><ele>153.0</ele><time>2026-04-25T08:18:52Z</time></trkpt><trkpt lat="43.498049549077635" lon="10.352701695152453"><ele>151.66666666666666</ele><time>2026-04-25T08:18:53Z</time></trkpt><trkpt lat="43.497989843438624" lon="10.352658233509768"><ele>150.33333333333334</ele><time>2026-04-25T08:18:54Z</time></trkpt><trkpt lat="43.49791450268085" lon="10.35263228594093"><ele>149.0</ele><time>2026-04-25T08:18:55Z</time></trkpt><trkpt lat="43.49783015851222" lon="10.352622804322316"><ele>147.66666666666669</ele><time>2026-04-25T08:18:56Z</time></trkpt><trkpt lat="43.497742139481815" lon="10.352624024023493"><ele>146.33333333333334</ele><time>2026-04-25T08:18:57Z</time></trkpt><trkpt lat="43.49766209980854" lon="10.352606328117576"><ele>145.0</ele><time>2026-04-25T08:18:58Z</time></trkpt><trkpt lat="43.4975893629293" lon="10.352555992540525"><ele>145.0</ele><time>2026-04-25T08:18:59Z</time></trkpt><trkpt lat="43.49753574570232" lon="10.352480136163994"><ele>145.0</ele><time>2026-04-25T08:19:00Z</time></trkpt><trkpt lat="43.49751910702833" lon="10.352376254258926"><ele>145.0</ele><time>2026-04-25T08:19:01Z</time></trkpt><trkpt lat="43.49754094293652" lon="10.352265254968584"><ele>145.0</ele><time>2026-04-25T08:19:02Z</time></trkpt><trkpt lat="43.49756891499324" lon="10.35216023722693"><ele>145.0</ele><time>2026-04-25T08:19:03Z</time></trkpt><trkpt lat="43.49759168031944" lon="10.35206312464967"><ele>145.0</ele><time>2026-04-25T08:19:04Z</time></trkpt><trkpt lat="43.49760598666841" lon="10.351966263003533"><ele>145.0</ele><time>2026-04-25T08:19:05Z</time></trkpt><trkpt lat="43.49761602652029" lon="10.35187577785214"><ele>145.0</ele><time>2026-04-25T08:19:06Z</time></trkpt><trkpt lat="43.49763266269678" lon="10.351788846972314"><ele>145.0</ele><time>2026-04-25T08:19:07Z</time></trkpt><trkpt lat="43.497651253268536" lon="10.351702033414856"><ele>145.0</ele><time>2026-04-25T08:19:08Z</time></trkpt><trkpt lat="43.49767728643624" lon="10.35154363003197"><ele>145.0</ele><time>2026-04-25T08:19:10Z</time></trkpt><trkpt lat="43.4977086127385" lon="10.351392519717512"><ele>145.0</ele><time>2026-04-25T08:19:12Z</time></trkpt><trkpt lat="43.49772863956458" lon="10.351233145146008"><ele>144.33333333333334</ele><time>2026-04-25T08:19:14Z</time></trkpt><trkpt lat="43.49774601145856" lon="10.351148489680591"><ele>143.66666666666669</ele><time>2026-04-25T08:19:15Z</time></trkpt><trkpt lat="43.497758881092366" lon="10.351063351821633"><ele>143.0</ele><time>2026-04-25T08:19:16Z</time></trkpt><trkpt lat="43.49778396762036" lon="10.350892209073558"><ele>142.33333333333334</ele><time>2026-04-25T08:19:18Z</time></trkpt><trkpt lat="43.49778975549114" lon="10.350803210817606"><ele>141.66666666666666</ele><time>2026-04-25T08:19:19Z</time></trkpt><trkpt lat="43.49780325478583" lon="10.350713412446986"><ele>141.0</ele><time>2026-04-25T08:19:20Z</time></trkpt><trkpt lat="43.49782283705246" lon="10.350627791078217"><ele>140.0</ele><time>2026-04-25T08:19:21Z</time></trkpt><trkpt lat="43.49783599306588" lon="10.350538942352179"><ele>139.0</ele><time>2026-04-25T08:19:22Z</time></trkpt><trkpt lat="43.49784872904889" lon="10.350445873479105"><ele>138.0</ele><time>2026-04-25T08:19:23Z</time></trkpt><trkpt lat="43.49785769722853" lon="10.350351315540351"><ele>137.0</ele><time>2026-04-25T08:19:24Z</time></trkpt><trkpt lat="43.49786815671064" lon="10.350259149655761"><ele>136.0</ele><time>2026-04-25T08:19:25Z</time></trkpt><trkpt lat="43.49787789033968" lon="10.350164691795529"><ele>135.0</ele><time>2026-04-25T08:19:26Z</time></trkpt><trkpt lat="43.49789849143435" lon="10.350071909688788"><ele>134.0</ele><time>2026-04-25T08:19:27Z</time></trkpt><trkpt lat="43.49791851566668" lon="10.34997011711572"><ele>133.0</ele><time>2026-04-25T08:19:28Z</time></trkpt><trkpt lat="43.49794825954118" lon="10.349872843069486"><ele>132.0</ele><time>2026-04-25T08:19:29Z</time></trkpt><trkpt lat="43.4979903947028" lon="10.349782293391446"><ele>131.0</ele><time>2026-04-25T08:19:30Z</time></trkpt><trkpt lat="43.49804735976787" lon="10.349694902428894"><ele>130.0</ele><time>2026-04-25T08:19:31Z</time></trkpt><trkpt lat="43.49810885905581" lon="10.349608508011709"><ele>129.0</ele><time>2026-04-25T08:19:32Z</time></trkpt><trkpt lat="43.49817909704917" lon="10.349521647808013"><ele>128.0</ele><time>2026-04-25T08:19:33Z</time></trkpt><trkpt lat="43.49824713783103" lon="10.349429070874704"><ele>128.0</ele><time>2026-04-25T08:19:34Z</time></trkpt><trkpt lat="43.49831789424164" lon="10.349339422757774"><ele>128.0</ele><time>2026-04-25T08:19:35Z</time></trkpt><trkpt lat="43.49839509516882" lon="10.349251029407139"><ele>128.0</ele><time>2026-04-25T08:19:36Z</time></trkpt><trkpt lat="43.49847945509945" lon="10.34916307641019"><ele>128.0</ele><time>2026-04-25T08:19:37Z</time></trkpt><trkpt lat="43.49855907326081" lon="10.349065682511755"><ele>128.0</ele><time>2026-04-25T08:19:38Z</time></trkpt><trkpt lat="43.49863495187061" lon="10.348962189987963"><ele>126.83333333333333</ele><time>2026-04-25T08:19:39Z</time></trkpt><trkpt lat="43.49868771060378" lon="10.348851816264137"><ele>125.66666666666666</ele><time>2026-04-25T08:19:40Z</time></trkpt><trkpt lat="43.498745007178385" lon="10.34876855135769"><ele>124.5</ele><time>2026-04-25T08:19:41Z</time></trkpt><trkpt lat="43.49879854115378" lon="10.348682348180303"><ele>123.33333333333334</ele><time>2026-04-25T08:19:42Z</time></trkpt><trkpt lat="43.498853629800635" lon="10.348584525118442"><ele>122.16666666666667</ele><time>2026-04-25T08:19:43Z</time></trkpt><trkpt lat="43.49891555146328" lon="10.34848104459524"><ele>121.0</ele><time>2026-04-25T08:19:44Z</time></trkpt><trkpt lat="43.49897467697004" lon="10.348376939979087"><ele>121.0</ele><time>2026-04-25T08:19:45Z</time></trkpt><trkpt lat="43.49902353997991" lon="10.348270842488214"><ele>121.0</ele><time>2026-04-25T08:19:46Z</time></trkpt><trkpt lat="43.499077024244684" lon="10.348143524272565"><ele>121.0</ele><time>2026-04-25T08:19:47Z</time></trkpt><trkpt lat="43.49912486032391" lon="10.348006554939497"><ele>121.0</ele><time>2026-04-25T08:19:48Z</time></trkpt><trkpt lat="43.49916926866125" lon="10.347858249694765"><ele>121.0</ele><time>2026-04-25T08:19:49Z</time></trkpt><trkpt lat="43.49917828668989" lon="10.347727725281462"><ele>118.75</ele><time>2026-04-25T08:19:50Z</time></trkpt><trkpt lat="43.49917713427209" lon="10.347574453305542"><ele>116.5</ele><time>2026-04-25T08:19:51Z</time></trkpt><trkpt lat="43.499198940053475" lon="10.34741720859927"><ele>114.25</ele><time>2026-04-25T08:19:52Z</time></trkpt><trkpt lat="43.49920638398642" lon="10.347254878741762"><ele>112.0</ele><time>2026-04-25T08:19:53Z</time></trkpt><trkpt lat="43.4992125694672" lon="10.347087780599178"><ele>111.0</ele><time>2026-04-25T08:19:54Z</time></trkpt><trkpt lat="43.49921769204705" lon="10.346949396154114"><ele>109.99999999999999</ele><time>2026-04-25T08:19:55Z</time></trkpt><trkpt lat="43.49921731383846" lon="10.346820527398606"><ele>108.99999999999999</ele><time>2026-04-25T08:19:56Z</time></trkpt><trkpt lat="43.49917596130763" lon="10.346693398833779"><ele>108.0</ele><time>2026-04-25T08:19:57Z</time></trkpt><trkpt lat="43.49912322215214" lon="10.346575137303724"><ele>107.0</ele><time>2026-04-25T08:19:58Z</time></trkpt><trkpt lat="43.49904531947462" lon="10.3464786367239"><ele>107.0</ele><time>2026-04-25T08:19:59Z</time></trkpt><trkpt lat="43.49894581867414" lon="10.346410407592858"><ele>106.99999999999999</ele><time>2026-04-25T08:20:00Z</time></trkpt><trkpt lat="43.49884982826406" lon="10.346347290572906"><ele>106.99999999999999</ele><time>2026-04-25T08:20:01Z</time></trkpt><trkpt lat="43.498747374610346" lon="10.34630482516127"><ele>107.0</ele><time>2026-04-25T08:20:02Z</time></trkpt><trkpt lat="43.49865704989887" lon="10.346302720227161"><ele>107.0</ele><time>2026-04-25T08:20:03Z</time></trkpt><trkpt lat="43.49857699478432" lon="10.34633229141326"><ele>105.99999999999999</ele><time>2026-04-25T08:20:04Z</time></trkpt><trkpt lat="43.4985303702374" lon="10.34640503231915"><ele>105.0</ele><time>2026-04-25T08:20:05Z</time></trkpt><trkpt lat="43.49847532825485" lon="10.346507815444507"><ele>104.0</ele><time>2026-04-25T08:20:06Z</time></trkpt><trkpt lat="43.49843453574602" lon="10.34659334238953"><ele>103.0</ele><time>2026-04-25T08:20:07Z</time></trkpt><trkpt lat="43.49833724902719" lon="10.346670947317232"><ele>101.99999999999999</ele><time>2026-04-25T08:20:09Z</time></trkpt><trkpt lat="43.498260484639424" lon="10.346655751190488"><ele>101.0</ele><time>2026-04-25T08:20:10Z</time></trkpt><trkpt lat="43.49821019494015" lon="10.346582449466963"><ele>100.99999999999999</ele><time>2026-04-25T08:20:11Z</time></trkpt><trkpt lat="43.4982024591518" lon="10.346473030964853"><ele>101.0</ele><time>2026-04-25T08:20:12Z</time></trkpt><trkpt lat="43.49823778514855" lon="10.346369129502309"><ele>101.0</ele><time>2026-04-25T08:20:13Z</time></trkpt><trkpt lat="43.49829397637513" lon="10.34628387324947"><ele>101.0</ele><time>2026-04-25T08:20:14Z</time></trkpt><trkpt lat="43.498336847020916" lon="10.346199475926852"><ele>100.99999999999999</ele><time>2026-04-25T08:20:15Z</time></trkpt><trkpt lat="43.49837371538824" lon="10.346103798891864"><ele>101.0</ele><time>2026-04-25T08:20:16Z</time></trkpt><trkpt lat="43.49840699675593" lon="10.346000407693715"><ele>99.19999999999999</ele><time>2026-04-25T08:20:17Z</time></trkpt><trkpt lat="43.49843748735102" lon="10.34588958739198"><ele>97.39999999999999</ele><time>2026-04-25T08:20:17.999Z</time></trkpt><trkpt lat="43.49846049879987" lon="10.345767067174775"><ele>95.6</ele><time>2026-04-25T08:20:18.999Z</time></trkpt><trkpt lat="43.49847827026121" lon="10.345642882250841"><ele>93.8</ele><time>2026-04-25T08:20:19.999Z</time></trkpt><trkpt lat="43.498507720814814" lon="10.345508247983668"><ele>92.0</ele><time>2026-04-25T08:20:20.999Z</time></trkpt><trkpt lat="43.49855006557718" lon="10.345372786657919"><ele>89.75</ele><time>2026-04-25T08:20:22Z</time></trkpt><trkpt lat="43.49859603396865" lon="10.345237141433891"><ele>87.5</ele><time>2026-04-25T08:20:23Z</time></trkpt><trkpt lat="43.498640900499" lon="10.34509937944195"><ele>85.25</ele><time>2026-04-25T08:20:24Z</time></trkpt><trkpt lat="43.49868794298597" lon="10.344956750628096"><ele>83.0</ele><time>2026-04-25T08:20:25Z</time></trkpt><trkpt lat="43.49873565882029" lon="10.344807644774727"><ele>82.25</ele><time>2026-04-25T08:20:26Z</time></trkpt><trkpt lat="43.49879191109708" lon="10.344667378843779"><ele>81.5</ele><time>2026-04-25T08:20:27Z</time></trkpt><trkpt lat="43.49883811185784" lon="10.344518634756557"><ele>80.75</ele><time>2026-04-25T08:20:28Z</time></trkpt><trkpt lat="43.498879310166465" lon="10.344367054021"><ele>80.0</ele><time>2026-04-25T08:20:29Z</time></trkpt><trkpt lat="43.49893603359792" lon="10.34421291818804"><ele>80.0</ele><time>2026-04-25T08:20:30Z</time></trkpt><trkpt lat="43.498989098894384" lon="10.344063860952694"><ele>80.0</ele><time>2026-04-25T08:20:31Z</time></trkpt><trkpt lat="43.49904501249229" lon="10.34391225630383"><ele>80.0</ele><time>2026-04-25T08:20:32Z</time></trkpt><trkpt lat="43.49910156636118" lon="10.34375576995199"><ele>80.0</ele><time>2026-04-25T08:20:33Z</time></trkpt><trkpt lat="43.499149021117205" lon="10.343595472467257"><ele>78.75</ele><time>2026-04-25T08:20:34Z</time></trkpt><trkpt lat="43.49920216722298" lon="10.343443276971625"><ele>77.5</ele><time>2026-04-25T08:20:35Z</time></trkpt><trkpt lat="43.49926116757497" lon="10.343308950967195"><ele>76.25</ele><time>2026-04-25T08:20:36Z</time></trkpt><trkpt lat="43.49933649775762" lon="10.343175367366763"><ele>75.0</ele><time>2026-04-25T08:20:37Z</time></trkpt><trkpt lat="43.499419297505426" lon="10.34305647742564"><ele>74.2</ele><time>2026-04-25T08:20:38Z</time></trkpt><trkpt lat="43.49950541014159" lon="10.342964245285927"><ele>73.4</ele><time>2026-04-25T08:20:39Z</time></trkpt><trkpt lat="43.49958515839618" lon="10.342878949811343"><ele>72.6</ele><time>2026-04-25T08:20:40Z</time></trkpt><trkpt lat="43.49966660883833" lon="10.342782779458995"><ele>71.8</ele><time>2026-04-25T08:20:41Z</time></trkpt><trkpt lat="43.499743522931794" lon="10.342689521122182"><ele>71.0</ele><time>2026-04-25T08:20:42Z</time></trkpt><trkpt lat="43.499822312270204" lon="10.342604840946372"><ele>70.8</ele><time>2026-04-25T08:20:43Z</time></trkpt><trkpt lat="43.499917206957505" lon="10.342516447900426"><ele>70.6</ele><time>2026-04-25T08:20:44Z</time></trkpt><trkpt lat="43.49999333931897" lon="10.342440722018187"><ele>70.4</ele><time>2026-04-25T08:20:45Z</time></trkpt><trkpt lat="43.50006722632655" lon="10.34235345326257"><ele>70.2</ele><time>2026-04-25T08:20:46Z</time></trkpt><trkpt lat="43.50014177820661" lon="10.342265582422067"><ele>70.0</ele><time>2026-04-25T08:20:47Z</time></trkpt><trkpt lat="43.50021855201917" lon="10.342186397657393"><ele>69.6</ele><time>2026-04-25T08:20:48Z</time></trkpt><trkpt lat="43.500299128840446" lon="10.342116544607341"><ele>69.2</ele><time>2026-04-25T08:20:49Z</time></trkpt><trkpt lat="43.50038445740961" lon="10.342055275342348"><ele>68.8</ele><time>2026-04-25T08:20:50Z</time></trkpt><trkpt lat="43.50047019703925" lon="10.3420103165179"><ele>68.4</ele><time>2026-04-25T08:20:51Z</time></trkpt><trkpt lat="43.50056284808609" lon="10.34197383575228"><ele>68.0</ele><time>2026-04-25T08:20:52Z</time></trkpt><trkpt lat="43.50065110719719" lon="10.341943520364751"><ele>67.8</ele><time>2026-04-25T08:20:53Z</time></trkpt><trkpt lat="43.500738343712555" lon="10.341907531638256"><ele>67.6</ele><time>2026-04-25T08:20:54Z</time></trkpt><trkpt lat="43.500821494629804" lon="10.34185196635174"><ele>67.4</ele><time>2026-04-25T08:20:55Z</time></trkpt><trkpt lat="43.500901688629774" lon="10.341788369950379"><ele>67.2</ele><time>2026-04-25T08:20:56Z</time></trkpt><trkpt lat="43.500972007660884" lon="10.341708044706102"><ele>67.0</ele><time>2026-04-25T08:20:57Z</time></trkpt><trkpt lat="43.50103606270276" lon="10.341613446500094"><ele>67.0</ele><time>2026-04-25T08:20:58Z</time></trkpt><trkpt lat="43.50108707116" lon="10.34150229979334"><ele>67.0</ele><time>2026-04-25T08:20:59Z</time></trkpt><trkpt lat="43.50112990571935" lon="10.341383643304301"><ele>67.0</ele><time>2026-04-25T08:21:00Z</time></trkpt><trkpt lat="43.50117346577196" lon="10.341270026509877"><ele>67.0</ele><time>2026-04-25T08:21:01Z</time></trkpt><trkpt lat="43.50121799917473" lon="10.341161427232038"><ele>67.0</ele><time>2026-04-25T08:21:02Z</time></trkpt><trkpt lat="43.50128005903815" lon="10.341056958056727"><ele>66.0</ele><time>2026-04-25T08:21:03Z</time></trkpt><trkpt lat="43.50134760251167" lon="10.34096070434297"><ele>65.0</ele><time>2026-04-25T08:21:04Z</time></trkpt><trkpt lat="43.50141615014416" lon="10.34086475568008"><ele>64.0</ele><time>2026-04-25T08:21:05Z</time></trkpt><trkpt lat="43.50149001679763" lon="10.34076983539424"><ele>63.0</ele><time>2026-04-25T08:21:06Z</time></trkpt><trkpt lat="43.50156511688762" lon="10.340680752216768"><ele>62.0</ele><time>2026-04-25T08:21:07Z</time></trkpt><trkpt lat="43.50164435047057" lon="10.34060037293854"><ele>62.2</ele><time>2026-04-25T08:21:08Z</time></trkpt><trkpt lat="43.50172627267907" lon="10.340525441731371"><ele>62.400000000000006</ele><time>2026-04-25T08:21:09Z</time></trkpt><trkpt lat="43.50180613446837" lon="10.340445732351919"><ele>62.599999999999994</ele><time>2026-04-25T08:21:10Z</time></trkpt><trkpt lat="43.50187883356254" lon="10.34036165656264"><ele>62.8</ele><time>2026-04-25T08:21:11Z</time></trkpt><trkpt lat="43.50195902156791" lon="10.340277792823995"><ele>63.0</ele><time>2026-04-25T08:21:12Z</time></trkpt><trkpt lat="43.502037209484314" lon="10.340203700240028"><ele>61.599999999999994</ele><time>2026-04-25T08:21:13Z</time></trkpt><trkpt lat="43.502119217195855" lon="10.340126818278335"><ele>60.199999999999996</ele><time>2026-04-25T08:21:14Z</time></trkpt><trkpt lat="43.502198865757904" lon="10.340049223620769"><ele>58.8</ele><time>2026-04-25T08:21:15Z</time></trkpt><trkpt lat="43.502277571130946" lon="10.33996447817981"><ele>57.4</ele><time>2026-04-25T08:21:16Z</time></trkpt><trkpt lat="43.502357975948364" lon="10.339895289654336"><ele>56.0</ele><time>2026-04-25T08:21:17Z</time></trkpt><trkpt lat="43.50243883213152" lon="10.3398271421366"><ele>56.0</ele><time>2026-04-25T08:21:18Z</time></trkpt><trkpt lat="43.50251031270407" lon="10.33974247919924"><ele>55.99999999999999</ele><time>2026-04-25T08:21:19Z</time></trkpt><trkpt lat="43.50257897723189" lon="10.339662238387934"><ele>55.99999999999999</ele><time>2026-04-25T08:21:20Z</time></trkpt><trkpt lat="43.50264992823172" lon="10.339585236258522"><ele>56.0</ele><time>2026-04-25T08:21:21Z</time></trkpt><trkpt lat="43.50271735801695" lon="10.33950309013377"><ele>56.0</ele><time>2026-04-25T08:21:22Z</time></trkpt><trkpt lat="43.50277824383118" lon="10.339418623774055"><ele>55.833333333333336</ele><time>2026-04-25T08:21:23Z</time></trkpt><trkpt lat="43.50284297512419" lon="10.339342539487854"><ele>55.66666666666667</ele><time>2026-04-25T08:21:24Z</time></trkpt><trkpt lat="43.502905240155584" lon="10.33926481936771"><ele>55.5</ele><time>2026-04-25T08:21:25Z</time></trkpt><trkpt lat="43.5029640865466" lon="10.339186473628562"><ele>55.33333333333333</ele><time>2026-04-25T08:21:26Z</time></trkpt><trkpt lat="43.503024728371244" lon="10.339106666962032"><ele>55.166666666666664</ele><time>2026-04-25T08:21:27Z</time></trkpt><trkpt lat="43.50308381485467" lon="10.339034628414295"><ele>55.0</ele><time>2026-04-25T08:21:28Z</time></trkpt><trkpt lat="43.503137113376184" lon="10.33896050027265"><ele>54.99999999999999</ele><time>2026-04-25T08:21:29Z</time></trkpt><trkpt lat="43.50319947483329" lon="10.338899226297755"><ele>55.0</ele><time>2026-04-25T08:21:30Z</time></trkpt><trkpt lat="43.50326584174565" lon="10.338850902470101"><ele>55.0</ele><time>2026-04-25T08:21:31Z</time></trkpt><trkpt lat="43.50333095596323" lon="10.33880314432075"><ele>55.0</ele><time>2026-04-25T08:21:32Z</time></trkpt><trkpt lat="43.50339718145121" lon="10.338767103034305"><ele>55.0</ele><time>2026-04-25T08:21:33Z</time></trkpt><trkpt lat="43.5034650048824" lon="10.33873621609636"><ele>54.99999999999999</ele><time>2026-04-25T08:21:34Z</time></trkpt><trkpt lat="43.50352444247015" lon="10.338699715647444"><ele>55.0</ele><time>2026-04-25T08:21:35Z</time></trkpt><trkpt lat="43.50358712904049" lon="10.338661577521224"><ele>54.99999999999999</ele><time>2026-04-25T08:21:36Z</time></trkpt><trkpt lat="43.50364933736107" lon="10.338626778458757"><ele>55.0</ele><time>2026-04-25T08:21:37Z</time></trkpt><trkpt lat="43.50371035156062" lon="10.338590353595405"><ele>55.0</ele><time>2026-04-25T08:21:38Z</time></trkpt><trkpt lat="43.503769826328174" lon="10.338560124602301"><ele>55.0</ele><time>2026-04-25T08:21:39Z</time></trkpt><trkpt lat="43.50383226919761" lon="10.338528101640913"><ele>54.99999999999999</ele><time>2026-04-25T08:21:40Z</time></trkpt><trkpt lat="43.5039479960984" lon="10.338452729269909"><ele>55.0</ele><time>2026-04-25T08:21:42Z</time></trkpt><trkpt lat="43.50406365848053" lon="10.338390979484785"><ele>55.0</ele><time>2026-04-25T08:21:44Z</time></trkpt><trkpt lat="43.50417780765681" lon="10.33833245355488"><ele>55.0</ele><time>2026-04-25T08:21:46Z</time></trkpt><trkpt lat="43.504289233833376" lon="10.338263714113813"><ele>55.0</ele><time>2026-04-25T08:21:48Z</time></trkpt><trkpt lat="43.504348423674294" lon="10.338231914948395"><ele>55.0</ele><time>2026-04-25T08:21:49Z</time></trkpt><trkpt lat="43.5044615636768" lon="10.338169112059692"><ele>55.0</ele><time>2026-04-25T08:21:51Z</time></trkpt><trkpt lat="43.50457737073655" lon="10.33811855672234"><ele>54.57142857142857</ele><time>2026-04-25T08:21:53Z</time></trkpt><trkpt lat="43.504636578129116" lon="10.33808209698478"><ele>54.14285714285714</ele><time>2026-04-25T08:21:54Z</time></trkpt><trkpt lat="43.50469638463794" lon="10.338046459424637"><ele>53.71428571428571</ele><time>2026-04-25T08:21:55Z</time></trkpt><trkpt lat="43.50475784684394" lon="10.338006401495527"><ele>53.285714285714285</ele><time>2026-04-25T08:21:56Z</time></trkpt><trkpt lat="43.50482149712293" lon="10.33797265801776"><ele>52.85714285714286</ele><time>2026-04-25T08:21:57Z</time></trkpt><trkpt lat="43.50488496516102" lon="10.337945103777066"><ele>52.42857142857142</ele><time>2026-04-25T08:21:58Z</time></trkpt><trkpt lat="43.50495280052942" lon="10.33790657242074"><ele>52.0</ele><time>2026-04-25T08:21:59Z</time></trkpt><trkpt lat="43.5050192847333" lon="10.337868063261677"><ele>51.83333333333333</ele><time>2026-04-25T08:22:00Z</time></trkpt><trkpt lat="43.50508755129838" lon="10.337830935473262"><ele>51.666666666666664</ele><time>2026-04-25T08:22:01Z</time></trkpt><trkpt lat="43.505155981405224" lon="10.33779474272646"><ele>51.5</ele><time>2026-04-25T08:22:02Z</time></trkpt><trkpt lat="43.50522095565964" lon="10.337753543940648"><ele>51.33333333333333</ele><time>2026-04-25T08:22:03Z</time></trkpt><trkpt lat="43.505297768864374" lon="10.3377176289864"><ele>51.166666666666664</ele><time>2026-04-25T08:22:04Z</time></trkpt><trkpt lat="43.50537348203542" lon="10.337686312779137"><ele>51.0</ele><time>2026-04-25T08:22:05Z</time></trkpt><trkpt lat="43.50544293386581" lon="10.337632767826811"><ele>50.166666666666664</ele><time>2026-04-25T08:22:06Z</time></trkpt><trkpt lat="43.50550973274689" lon="10.337574185161117"><ele>49.333333333333336</ele><time>2026-04-25T08:22:07Z</time></trkpt><trkpt lat="43.505574652553946" lon="10.337495280914636"><ele>48.5</ele><time>2026-04-25T08:22:08Z</time></trkpt><trkpt lat="43.50563398599571" lon="10.337408984024295"><ele>47.66666666666667</ele><time>2026-04-25T08:22:09Z</time></trkpt><trkpt lat="43.5056887647617" lon="10.337314317146838"><ele>46.833333333333336</ele><time>2026-04-25T08:22:10Z</time></trkpt><trkpt lat="43.50574628753516" lon="10.337214267538599"><ele>46.0</ele><time>2026-04-25T08:22:11Z</time></trkpt><trkpt lat="43.505805726111184" lon="10.337129240786568"><ele>45.599999999999994</ele><time>2026-04-25T08:22:12Z</time></trkpt><trkpt lat="43.505865787494585" lon="10.337026957582689"><ele>45.2</ele><time>2026-04-25T08:22:13Z</time></trkpt><trkpt lat="43.50592684138522" lon="10.336928886566449"><ele>44.8</ele><time>2026-04-25T08:22:14Z</time></trkpt><trkpt lat="43.50599119180946" lon="10.336829269892934"><ele>44.400000000000006</ele><time>2026-04-25T08:22:15Z</time></trkpt><trkpt lat="43.50605786009226" lon="10.33673387364449"><ele>44.0</ele><time>2026-04-25T08:22:16Z</time></trkpt><trkpt lat="43.50613894148301" lon="10.336657084350993"><ele>44.0</ele><time>2026-04-25T08:22:17Z</time></trkpt><trkpt lat="43.506225768466166" lon="10.336589981524199"><ele>44.0</ele><time>2026-04-25T08:22:18Z</time></trkpt><trkpt lat="43.50631503370743" lon="10.33653058208227"><ele>44.0</ele><time>2026-04-25T08:22:19Z</time></trkpt><trkpt lat="43.50640833401042" lon="10.336496720028554"><ele>44.0</ele><time>2026-04-25T08:22:20Z</time></trkpt><trkpt lat="43.50650503314404" lon="10.336475175461802"><ele>44.0</ele><time>2026-04-25T08:22:21Z</time></trkpt><trkpt lat="43.50659678249909" lon="10.336463241937182"><ele>43.400000000000006</ele><time>2026-04-25T08:22:22Z</time></trkpt><trkpt lat="43.50668979435014" lon="10.336451702118639"><ele>42.8</ele><time>2026-04-25T08:22:23Z</time></trkpt><trkpt lat="43.50678227506528" lon="10.336444504302337"><ele>42.2</ele><time>2026-04-25T08:22:24Z</time></trkpt><trkpt lat="43.50687239614707" lon="10.33643749439362"><ele>41.599999999999994</ele><time>2026-04-25T08:22:25Z</time></trkpt><trkpt lat="43.50696188240754" lon="10.336435164294553"><ele>41.0</ele><time>2026-04-25T08:22:26Z</time></trkpt><trkpt lat="43.507047950747776" lon="10.336424541481557"><ele>40.83333333333333</ele><time>2026-04-25T08:22:27Z</time></trkpt><trkpt lat="43.50713349690142" lon="10.336399417520449"><ele>40.666666666666664</ele><time>2026-04-25T08:22:28Z</time></trkpt><trkpt lat="43.507220527502206" lon="10.336386427162477"><ele>40.5</ele><time>2026-04-25T08:22:29Z</time></trkpt><trkpt lat="43.50730458170111" lon="10.33636585248061"><ele>40.333333333333336</ele><time>2026-04-25T08:22:30Z</time></trkpt><trkpt lat="43.507389416425774" lon="10.336351608793114"><ele>40.16666666666667</ele><time>2026-04-25T08:22:31Z</time></trkpt><trkpt lat="43.50747412337391" lon="10.336334200998458"><ele>40.0</ele><time>2026-04-25T08:22:32Z</time></trkpt><trkpt lat="43.50755440183767" lon="10.33631686733846"><ele>40.0</ele><time>2026-04-25T08:22:33Z</time></trkpt><trkpt lat="43.507636101994635" lon="10.336281035089305"><ele>40.0</ele><time>2026-04-25T08:22:34Z</time></trkpt><trkpt lat="43.50771200932572" lon="10.336240357996992"><ele>40.0</ele><time>2026-04-25T08:22:35Z</time></trkpt><trkpt lat="43.507790209479374" lon="10.33619294900994"><ele>40.0</ele><time>2026-04-25T08:22:36Z</time></trkpt><trkpt lat="43.50786854200489" lon="10.336140512103885"><ele>40.0</ele><time>2026-04-25T08:22:37Z</time></trkpt><trkpt lat="43.50794716628409" lon="10.336086290553537"><ele>40.0</ele><time>2026-04-25T08:22:38Z</time></trkpt><trkpt lat="43.50802634520034" lon="10.336028651465375"><ele>39.6</ele><time>2026-04-25T08:22:39Z</time></trkpt><trkpt lat="43.50810576901958" lon="10.335978285383055"><ele>39.2</ele><time>2026-04-25T08:22:40Z</time></trkpt><trkpt lat="43.50818582628542" lon="10.335919774002988"><ele>38.8</ele><time>2026-04-25T08:22:41Z</time></trkpt><trkpt lat="43.50826230784414" lon="10.3358509491264"><ele>38.4</ele><time>2026-04-25T08:22:42Z</time></trkpt><trkpt lat="43.508342216452064" lon="10.33578335535999"><ele>38.0</ele><time>2026-04-25T08:22:43Z</time></trkpt><trkpt lat="43.50841936818487" lon="10.335710736596535"><ele>38.0</ele><time>2026-04-25T08:22:44Z</time></trkpt><trkpt lat="43.50849285159939" lon="10.335639346034785"><ele>38.0</ele><time>2026-04-25T08:22:45Z</time></trkpt><trkpt lat="43.508571927229575" lon="10.335565073345705"><ele>38.0</ele><time>2026-04-25T08:22:46Z</time></trkpt><trkpt lat="43.50864166486566" lon="10.335479537689876"><ele>38.0</ele><time>2026-04-25T08:22:47Z</time></trkpt><trkpt lat="43.508715492933405" lon="10.335397099370065"><ele>38.0</ele><time>2026-04-25T08:22:48Z</time></trkpt><trkpt lat="43.50878630257687" lon="10.3353076830421"><ele>35.8</ele><time>2026-04-25T08:22:49Z</time></trkpt><trkpt lat="43.508848821913006" lon="10.335206487527612"><ele>33.599999999999994</ele><time>2026-04-25T08:22:50Z</time></trkpt><trkpt lat="43.50890622713749" lon="10.335097708916827"><ele>31.400000000000002</ele><time>2026-04-25T08:22:51Z</time></trkpt><trkpt lat="43.5089585117038" lon="10.33498187249422"><ele>29.200000000000003</ele><time>2026-04-25T08:22:52Z</time></trkpt><trkpt lat="43.50900902516476" lon="10.334859223028833"><ele>27.0</ele><time>2026-04-25T08:22:53Z</time></trkpt><trkpt lat="43.50906413296949" lon="10.334740056889322"><ele>26.6</ele><time>2026-04-25T08:22:54Z</time></trkpt><trkpt lat="43.50912843699258" lon="10.334624326044393"><ele>26.200000000000003</ele><time>2026-04-25T08:22:55Z</time></trkpt><trkpt lat="43.50919643433417" lon="10.334514160668713"><ele>25.8</ele><time>2026-04-25T08:22:56Z</time></trkpt><trkpt lat="43.50926400090757" lon="10.334421686409637"><ele>25.4</ele><time>2026-04-25T08:22:57Z</time></trkpt><trkpt lat="43.509325615002005" lon="10.334345383087939"><ele>25.0</ele><time>2026-04-25T08:22:58Z</time></trkpt><trkpt lat="43.509384031003435" lon="10.33427892994403"><ele>25.0</ele><time>2026-04-25T08:22:59Z</time></trkpt><trkpt lat="43.5094674479723" lon="10.33421643721561"><ele>25.0</ele><time>2026-04-25T08:23:01Z</time></trkpt><trkpt lat="43.50956741553203" lon="10.334199386817335"><ele>25.0</ele><time>2026-04-25T08:23:03Z</time></trkpt><trkpt lat="43.509630066604565" lon="10.33421359842805"><ele>25.0</ele><time>2026-04-25T08:23:04Z</time></trkpt><trkpt lat="43.50973909441995" lon="10.334128698393394"><ele>25.0</ele><time>2026-04-25T08:23:06Z</time></trkpt><trkpt lat="43.50978475509655" lon="10.334051527474145"><ele>24.500000000000004</ele><time>2026-04-25T08:23:07Z</time></trkpt><trkpt lat="43.50982428378366" lon="10.333974600858053"><ele>24.0</ele><time>2026-04-25T08:23:08Z</time></trkpt><trkpt lat="43.50980570878862" lon="10.333865653950149"><ele>23.5</ele><time>2026-04-25T08:23:09Z</time></trkpt><trkpt lat="43.50978059393098" lon="10.333776799566369"><ele>23.0</ele><time>2026-04-25T08:23:10Z</time></trkpt><trkpt lat="43.50974096234654" lon="10.333705670160986"><ele>22.5</ele><time>2026-04-25T08:23:11Z</time></trkpt><trkpt lat="43.509646554321186" lon="10.333598714239104"><ele>22.0</ele><time>2026-04-25T08:23:13Z</time></trkpt><trkpt lat="43.50958072446655" lon="10.333470184658095"><ele>22.0</ele><time>2026-04-25T08:23:15Z</time></trkpt><trkpt lat="43.50957035288007" lon="10.333380323447587"><ele>22.0</ele><time>2026-04-25T08:23:16Z</time></trkpt><trkpt lat="43.50958336927538" lon="10.333290199081624"><ele>22.0</ele><time>2026-04-25T08:23:17Z</time></trkpt><trkpt lat="43.50961007507439" lon="10.333202400009363"><ele>22.0</ele><time>2026-04-25T08:23:18Z</time></trkpt><trkpt lat="43.509612884375436" lon="10.333107441698774"><ele>22.0</ele><time>2026-04-25T08:23:19Z</time></trkpt><trkpt lat="43.50965510380847" lon="10.333023573750665"><ele>22.0</ele><time>2026-04-25T08:23:20Z</time></trkpt><trkpt lat="43.5096795559385" lon="10.332931604599745"><ele>22.0</ele><time>2026-04-25T08:23:21Z</time></trkpt><trkpt lat="43.50970564511563" lon="10.332835174728809"><ele>21.833333333333332</ele><time>2026-04-25T08:23:22Z</time></trkpt><trkpt lat="43.509733481680534" lon="10.33273846191811"><ele>21.666666666666664</ele><time>2026-04-25T08:23:23Z</time></trkpt><trkpt lat="43.50976135940535" lon="10.33264124579181"><ele>21.5</ele><time>2026-04-25T08:23:24Z</time></trkpt><trkpt lat="43.50979316221425" lon="10.332544751431886"><ele>21.333333333333332</ele><time>2026-04-25T08:23:25Z</time></trkpt><trkpt lat="43.50982365298375" lon="10.332447148462636"><ele>21.166666666666668</ele><time>2026-04-25T08:23:26Z</time></trkpt><trkpt lat="43.50985209602859" lon="10.332349314748878"><ele>21.0</ele><time>2026-04-25T08:23:27Z</time></trkpt><trkpt lat="43.50988720631828" lon="10.332256852710238"><ele>21.142857142857142</ele><time>2026-04-25T08:23:28Z</time></trkpt><trkpt lat="43.509923352951155" lon="10.332164675801504"><ele>21.285714285714285</ele><time>2026-04-25T08:23:29Z</time></trkpt><trkpt lat="43.509965378905555" lon="10.332080724409527"><ele>21.42857142857143</ele><time>2026-04-25T08:23:30Z</time></trkpt><trkpt lat="43.51000394408433" lon="10.331991864359228"><ele>21.57142857142857</ele><time>2026-04-25T08:23:31Z</time></trkpt><trkpt lat="43.51003834169934" lon="10.33190312175679"><ele>21.714285714285715</ele><time>2026-04-25T08:23:32Z</time></trkpt><trkpt lat="43.510071427118184" lon="10.331813942488177"><ele>21.857142857142858</ele><time>2026-04-25T08:23:33Z</time></trkpt><trkpt lat="43.51010264283649" lon="10.33172188737708"><ele>22.0</ele><time>2026-04-25T08:23:34Z</time></trkpt><trkpt lat="43.51013583036673" lon="10.331633470250944"><ele>22.0</ele><time>2026-04-25T08:23:35Z</time></trkpt><trkpt lat="43.510171640926366" lon="10.331550524730389"><ele>22.0</ele><time>2026-04-25T08:23:36Z</time></trkpt><trkpt lat="43.51021056692391" lon="10.331472320366016"><ele>22.0</ele><time>2026-04-25T08:23:37Z</time></trkpt><trkpt lat="43.51024433859223" lon="10.331389102335976"><ele>22.0</ele><time>2026-04-25T08:23:38Z</time></trkpt><trkpt lat="43.510282512917" lon="10.331308079225545"><ele>22.0</ele><time>2026-04-25T08:23:39Z</time></trkpt><trkpt lat="43.51032230804846" lon="10.331231790506237"><ele>22.0</ele><time>2026-04-25T08:23:40Z</time></trkpt><trkpt lat="43.51036149095279" lon="10.331153076448125"><ele>22.0</ele><time>2026-04-25T08:23:41Z</time></trkpt><trkpt lat="43.51039916215631" lon="10.331075464527919"><ele>21.714285714285715</ele><time>2026-04-25T08:23:42Z</time></trkpt><trkpt lat="43.51043375882161" lon="10.330996558284212"><ele>21.428571428571427</ele><time>2026-04-25T08:23:43Z</time></trkpt><trkpt lat="43.51047986862821" lon="10.33092435950413"><ele>21.142857142857142</ele><time>2026-04-25T08:23:44Z</time></trkpt><trkpt lat="43.510516666313116" lon="10.330847645103088"><ele>20.857142857142858</ele><time>2026-04-25T08:23:45Z</time></trkpt><trkpt lat="43.51055698153564" lon="10.330765905591308"><ele>20.571428571428573</ele><time>2026-04-25T08:23:46Z</time></trkpt><trkpt lat="43.510594518653555" lon="10.330688366438546"><ele>20.285714285714285</ele><time>2026-04-25T08:23:47Z</time></trkpt><trkpt lat="43.510628748205235" lon="10.330610648695771"><ele>20.0</ele><time>2026-04-25T08:23:48Z</time></trkpt><trkpt lat="43.51066395137485" lon="10.330529599574716"><ele>20.0</ele><time>2026-04-25T08:23:49Z</time></trkpt><trkpt lat="43.5107005886651" lon="10.330454478027264"><ele>20.0</ele><time>2026-04-25T08:23:50Z</time></trkpt><trkpt lat="43.51077476716047" lon="10.330311088298854"><ele>20.0</ele><time>2026-04-25T08:23:52Z</time></trkpt><trkpt lat="43.51081629774286" lon="10.330245529604035"><ele>20.0</ele><time>2026-04-25T08:23:53Z</time></trkpt><trkpt lat="43.51088691042829" lon="10.330108008171916"><ele>20.0</ele><time>2026-04-25T08:23:55Z</time></trkpt><trkpt lat="43.51095299445336" lon="10.329977503091168"><ele>20.0</ele><time>2026-04-25T08:23:57Z</time></trkpt><trkpt lat="43.51102697571053" lon="10.329855349360223"><ele>20.0</ele><time>2026-04-25T08:23:59Z</time></trkpt><trkpt lat="43.51109408666575" lon="10.329728021461738"><ele>20.0</ele><time>2026-04-25T08:24:01Z</time></trkpt><trkpt lat="43.511160795462644" lon="10.329606093591812"><ele>20.0</ele><time>2026-04-25T08:24:03Z</time></trkpt><trkpt lat="43.511228250815904" lon="10.329476999007351"><ele>20.0</ele><time>2026-04-25T08:24:05Z</time></trkpt><trkpt lat="43.5113067509051" lon="10.329342296392875"><ele>20.0</ele><time>2026-04-25T08:24:07Z</time></trkpt><trkpt lat="43.51134311633324" lon="10.329269649056803"><ele>20.0</ele><time>2026-04-25T08:24:08Z</time></trkpt><trkpt lat="43.51138368162514" lon="10.32919883614366"><ele>20.0</ele><time>2026-04-25T08:24:09Z</time></trkpt><trkpt lat="43.51142204516813" lon="10.329126981589006"><ele>20.0</ele><time>2026-04-25T08:24:10Z</time></trkpt><trkpt lat="43.5114623966501" lon="10.329050997510656"><ele>20.0</ele><time>2026-04-25T08:24:11Z</time></trkpt><trkpt lat="43.51150161281663" lon="10.328975195414847"><ele>20.0</ele><time>2026-04-25T08:24:12Z</time></trkpt><trkpt lat="43.51154168805888" lon="10.328900090914024"><ele>20.0</ele><time>2026-04-25T08:24:13Z</time></trkpt><trkpt lat="43.51158200026748" lon="10.328833387191471"><ele>20.0</ele><time>2026-04-25T08:24:14Z</time></trkpt><trkpt lat="43.511625006649695" lon="10.328759432886244"><ele>20.0</ele><time>2026-04-25T08:24:15Z</time></trkpt><trkpt lat="43.51166617760026" lon="10.328680223642335"><ele>20.0</ele><time>2026-04-25T08:24:16Z</time></trkpt><trkpt lat="43.511705036731605" lon="10.328600681522543"><ele>20.0</ele><time>2026-04-25T08:24:17Z</time></trkpt><trkpt lat="43.511745983711975" lon="10.32852007277279"><ele>20.0</ele><time>2026-04-25T08:24:18Z</time></trkpt><trkpt lat="43.51179178868326" lon="10.328444837649863"><ele>19.428571428571427</ele><time>2026-04-25T08:24:19Z</time></trkpt><trkpt lat="43.51182986099672" lon="10.328367533883375"><ele>18.857142857142858</ele><time>2026-04-25T08:24:20Z</time></trkpt><trkpt lat="43.511873322975546" lon="10.328287470547215"><ele>18.285714285714285</ele><time>2026-04-25T08:24:21Z</time></trkpt><trkpt lat="43.51192486314201" lon="10.328204575290039"><ele>17.714285714285715</ele><time>2026-04-25T08:24:22Z</time></trkpt><trkpt lat="43.51196490944165" lon="10.328125989485214"><ele>17.142857142857142</ele><time>2026-04-25T08:24:23Z</time></trkpt><trkpt lat="43.51201124478826" lon="10.328042904917261"><ele>16.57142857142857</ele><time>2026-04-25T08:24:24Z</time></trkpt><trkpt lat="43.512055522961326" lon="10.32795697891688"><ele>16.0</ele><time>2026-04-25T08:24:25Z</time></trkpt><trkpt lat="43.51209728974555" lon="10.327877415056113"><ele>15.714285714285714</ele><time>2026-04-25T08:24:26Z</time></trkpt><trkpt lat="43.512147910188055" lon="10.327800277918964"><ele>15.428571428571427</ele><time>2026-04-25T08:24:26.999Z</time></trkpt><trkpt lat="43.51219996490846" lon="10.327728153971723"><ele>15.142857142857142</ele><time>2026-04-25T08:24:27.999Z</time></trkpt><trkpt lat="43.51224960625424" lon="10.327654217872004"><ele>14.857142857142858</ele><time>2026-04-25T08:24:28.999Z</time></trkpt><trkpt lat="43.512302501033304" lon="10.327569498372526"><ele>14.571428571428571</ele><time>2026-04-25T08:24:29.999Z</time></trkpt><trkpt lat="43.51235614668018" lon="10.327505893891322"><ele>14.285714285714285</ele><time>2026-04-25T08:24:30.999Z</time></trkpt><trkpt lat="43.51241214494716" lon="10.327455470362246"><ele>14.0</ele><time>2026-04-25T08:24:31.999Z</time></trkpt><trkpt lat="43.512497345227885" lon="10.327329227450365"><ele>14.000000000000002</ele><time>2026-04-25T08:24:34Z</time></trkpt><trkpt lat="43.51254887692895" lon="10.32726459910943"><ele>14.0</ele><time>2026-04-25T08:24:35Z</time></trkpt><trkpt lat="43.51260329423476" lon="10.327194888714489"><ele>14.0</ele><time>2026-04-25T08:24:36Z</time></trkpt><trkpt lat="43.51266643085239" lon="10.327129141634373"><ele>14.0</ele><time>2026-04-25T08:24:37Z</time></trkpt><trkpt lat="43.51273418023031" lon="10.327061551628622"><ele>14.000000000000002</ele><time>2026-04-25T08:24:38Z</time></trkpt><trkpt lat="43.51279744291077" lon="10.32699103200008"><ele>14.0</ele><time>2026-04-25T08:24:39Z</time></trkpt><trkpt lat="43.51286829890089" lon="10.326917937549608"><ele>12.6</ele><time>2026-04-25T08:24:40Z</time></trkpt><trkpt lat="43.51293693859961" lon="10.326837778193633"><ele>11.2</ele><time>2026-04-25T08:24:41Z</time></trkpt><trkpt lat="43.51301916495977" lon="10.326782322782657"><ele>9.799999999999999</ele><time>2026-04-25T08:24:42Z</time></trkpt><trkpt lat="43.51309493259211" lon="10.326708845638871"><ele>8.399999999999999</ele><time>2026-04-25T08:24:43Z</time></trkpt><trkpt lat="43.5131681759077" lon="10.326627183395184"><ele>7.0</ele><time>2026-04-25T08:24:44Z</time></trkpt><trkpt lat="43.51324145940425" lon="10.326550537303675"><ele>7.000000000000001</ele><time>2026-04-25T08:24:45Z</time></trkpt><trkpt lat="43.51331597804072" lon="10.326487812275772"><ele>7.0</ele><time>2026-04-25T08:24:46Z</time></trkpt><trkpt lat="43.51339221685728" lon="10.326432606817436"><ele>7.0</ele><time>2026-04-25T08:24:47Z</time></trkpt><trkpt lat="43.5134679913011" lon="10.326378653430593"><ele>7.0</ele><time>2026-04-25T08:24:48Z</time></trkpt><trkpt lat="43.51353920767899" lon="10.326323574652235"><ele>7.000000000000001</ele><time>2026-04-25T08:24:49Z</time></trkpt><trkpt lat="43.5136132621481" lon="10.326283955037926"><ele>7.0</ele><time>2026-04-25T08:24:50Z</time></trkpt><trkpt lat="43.51368430427828" lon="10.326236742008724"><ele>6.833333333333334</ele><time>2026-04-25T08:24:51Z</time></trkpt><trkpt lat="43.51375554073252" lon="10.326209443694145"><ele>6.666666666666667</ele><time>2026-04-25T08:24:52Z</time></trkpt><trkpt lat="43.513813020649366" lon="10.326146745902895"><ele>6.5</ele><time>2026-04-25T08:24:53Z</time></trkpt><trkpt lat="43.51388218589593" lon="10.326123044928554"><ele>6.333333333333334</ele><time>2026-04-25T08:24:54Z</time></trkpt><trkpt lat="43.51394389694477" lon="10.326079892813166"><ele>6.166666666666667</ele><time>2026-04-25T08:24:55Z</time></trkpt><trkpt lat="43.51405604827427" lon="10.326020258881616"><ele>6.0</ele><time>2026-04-25T08:24:57Z</time></trkpt><trkpt lat="43.51416280749344" lon="10.325962946968955"><ele>6.0</ele><time>2026-04-25T08:24:59Z</time></trkpt><trkpt lat="43.514267105297385" lon="10.325904106026499"><ele>6.0</ele><time>2026-04-25T08:25:01Z</time></trkpt><trkpt lat="43.514378503112304" lon="10.325839438381818"><ele>6.0</ele><time>2026-04-25T08:25:03Z</time></trkpt><trkpt lat="43.51449584575661" lon="10.325774897703603"><ele>6.0</ele><time>2026-04-25T08:25:05Z</time></trkpt><trkpt lat="43.51455430043661" lon="10.325742315421868"><ele>6.0</ele><time>2026-04-25T08:25:06Z</time></trkpt><trkpt lat="43.514666795316934" lon="10.325682737573821"><ele>6.4</ele><time>2026-04-25T08:25:08Z</time></trkpt><trkpt lat="43.51477656168971" lon="10.32562096166993"><ele>6.8</ele><time>2026-04-25T08:25:10Z</time></trkpt><trkpt lat="43.51488109341679" lon="10.32554855980976"><ele>7.200000000000001</ele><time>2026-04-25T08:25:12Z</time></trkpt><trkpt lat="43.514968337935" lon="10.325494095444107"><ele>7.6000000000000005</ele><time>2026-04-25T08:25:14Z</time></trkpt><trkpt lat="43.51506792607913" lon="10.325435768569438"><ele>8.0</ele><time>2026-04-25T08:25:16Z</time></trkpt><trkpt lat="43.515182011984884" lon="10.325360334129233"><ele>8.0</ele><time>2026-04-25T08:25:18Z</time></trkpt><trkpt lat="43.51529376818415" lon="10.325312838771636"><ele>8.0</ele><time>2026-04-25T08:25:20Z</time></trkpt><trkpt lat="43.51539748536963" lon="10.325248060292136"><ele>8.0</ele><time>2026-04-25T08:25:22Z</time></trkpt><trkpt lat="43.515498962468236" lon="10.325180004770038"><ele>8.0</ele><time>2026-04-25T08:25:24Z</time></trkpt><trkpt lat="43.515600532676906" lon="10.325132655180171"><ele>9.0</ele><time>2026-04-25T08:25:26Z</time></trkpt><trkpt lat="43.515708631409275" lon="10.325102400255204"><ele>10.0</ele><time>2026-04-25T08:25:28Z</time></trkpt><trkpt lat="43.51581366686996" lon="10.325094524777638"><ele>11.0</ele><time>2026-04-25T08:25:30Z</time></trkpt><trkpt lat="43.51592281662273" lon="10.325078271682175"><ele>12.0</ele><time>2026-04-25T08:25:32Z</time></trkpt><trkpt lat="43.51603433800612" lon="10.325067807097437"><ele>13.0</ele><time>2026-04-25T08:25:34Z</time></trkpt><trkpt lat="43.5161469114931" lon="10.325043150644184"><ele>13.0</ele><time>2026-04-25T08:25:36Z</time></trkpt><trkpt lat="43.516257497359625" lon="10.32502980481757"><ele>13.0</ele><time>2026-04-25T08:25:38Z</time></trkpt><trkpt lat="43.516375087588365" lon="10.325020253053927"><ele>13.0</ele><time>2026-04-25T08:25:40Z</time></trkpt><trkpt lat="43.51649328326994" lon="10.325007744160448"><ele>13.0</ele><time>2026-04-25T08:25:42Z</time></trkpt><trkpt lat="43.51660463702999" lon="10.324988261408562"><ele>13.0</ele><time>2026-04-25T08:25:44Z</time></trkpt><trkpt lat="43.51672257390988" lon="10.324965512110968"><ele>13.0</ele><time>2026-04-25T08:25:46Z</time></trkpt><trkpt lat="43.51684034233697" lon="10.32494438715577"><ele>13.0</ele><time>2026-04-25T08:25:48Z</time></trkpt><trkpt lat="43.51695536578879" lon="10.324934913428734"><ele>13.0</ele><time>2026-04-25T08:25:50Z</time></trkpt><trkpt lat="43.517073393485695" lon="10.324909331552956"><ele>13.5</ele><time>2026-04-25T08:25:52Z</time></trkpt><trkpt lat="43.51719212400789" lon="10.324891174586622"><ele>14.0</ele><time>2026-04-25T08:25:54Z</time></trkpt><trkpt lat="43.517310353043705" lon="10.324881566276357"><ele>14.5</ele><time>2026-04-25T08:25:56Z</time></trkpt><trkpt lat="43.51743296290613" lon="10.324851132721347"><ele>15.0</ele><time>2026-04-25T08:25:58Z</time></trkpt><trkpt lat="43.51754631790415" lon="10.324794112837372"><ele>14.6</ele><time>2026-04-25T08:26:00Z</time></trkpt><trkpt lat="43.51765096055934" lon="10.324727951236342"><ele>14.2</ele><time>2026-04-25T08:26:02Z</time></trkpt><trkpt lat="43.51775968799272" lon="10.324690057679684"><ele>13.8</ele><time>2026-04-25T08:26:04Z</time></trkpt><trkpt lat="43.51786393128393" lon="10.324644322644197"><ele>13.4</ele><time>2026-04-25T08:26:06Z</time></trkpt><trkpt lat="43.51796946138486" lon="10.324598024835444"><ele>13.0</ele><time>2026-04-25T08:26:08Z</time></trkpt><trkpt lat="43.51807585929246" lon="10.32455140321641"><ele>12.600000000000001</ele><time>2026-04-25T08:26:10Z</time></trkpt><trkpt lat="43.518183370261426" lon="10.324486248400184"><ele>12.200000000000001</ele><time>2026-04-25T08:26:12Z</time></trkpt><trkpt lat="43.51829672486915" lon="10.324442906965965"><ele>11.8</ele><time>2026-04-25T08:26:14Z</time></trkpt><trkpt lat="43.51841237750038" lon="10.324393678741451"><ele>11.4</ele><time>2026-04-25T08:26:16Z</time></trkpt><trkpt lat="43.51847426849128" lon="10.324372619321833"><ele>11.0</ele><time>2026-04-25T08:26:17Z</time></trkpt><trkpt lat="43.5185906935297" lon="10.324326126056967"><ele>11.0</ele><time>2026-04-25T08:26:19Z</time></trkpt><trkpt lat="43.51865122293235" lon="10.324300570119094"><ele>11.0</ele><time>2026-04-25T08:26:20Z</time></trkpt><trkpt lat="43.5187172486654" lon="10.324274386496144"><ele>11.0</ele><time>2026-04-25T08:26:21Z</time></trkpt><trkpt lat="43.51878041125838" lon="10.324251396730432"><ele>11.0</ele><time>2026-04-25T08:26:22Z</time></trkpt><trkpt lat="43.5188438376043" lon="10.32422584435379"><ele>11.0</ele><time>2026-04-25T08:26:23Z</time></trkpt><trkpt lat="43.518965265680656" lon="10.32419056378006"><ele>11.0</ele><time>2026-04-25T08:26:25Z</time></trkpt><trkpt lat="43.51902821743412" lon="10.324166487317255"><ele>11.0</ele><time>2026-04-25T08:26:26Z</time></trkpt><trkpt lat="43.5190909785896" lon="10.324144798820713"><ele>11.0</ele><time>2026-04-25T08:26:27Z</time></trkpt><trkpt lat="43.51915352787057" lon="10.32412164107741"><ele>11.0</ele><time>2026-04-25T08:26:28Z</time></trkpt><trkpt lat="43.51921693809123" lon="10.32410617502358"><ele>11.0</ele><time>2026-04-25T08:26:29Z</time></trkpt><trkpt lat="43.519280771627244" lon="10.324102619823671"><ele>11.0</ele><time>2026-04-25T08:26:30Z</time></trkpt><trkpt lat="43.51934374105779" lon="10.324103445781834"><ele>11.0</ele><time>2026-04-25T08:26:30.999Z</time></trkpt><trkpt lat="43.51946530459947" lon="10.324133323585567"><ele>11.0</ele><time>2026-04-25T08:26:32.999Z</time></trkpt><trkpt lat="43.519590217230366" lon="10.324179958627715"><ele>11.0</ele><time>2026-04-25T08:26:34.999Z</time></trkpt><trkpt lat="43.51965095892828" lon="10.324214314161066"><ele>11.0</ele><time>2026-04-25T08:26:35.999Z</time></trkpt><trkpt lat="43.51971572620771" lon="10.324239854021332"><ele>11.0</ele><time>2026-04-25T08:26:36.999Z</time></trkpt><trkpt lat="43.51983390923102" lon="10.324293821390542"><ele>11.0</ele><time>2026-04-25T08:26:38.999Z</time></trkpt><trkpt lat="43.5199455492894" lon="10.324350163957698"><ele>11.0</ele><time>2026-04-25T08:26:41Z</time></trkpt><trkpt lat="43.52005735681074" lon="10.324399550211414"><ele>11.0</ele><time>2026-04-25T08:26:43Z</time></trkpt><trkpt lat="43.52017777981715" lon="10.324444387983045"><ele>11.0</ele><time>2026-04-25T08:26:45Z</time></trkpt><trkpt lat="43.520300829302805" lon="10.32447965401553"><ele>11.0</ele><time>2026-04-25T08:26:47Z</time></trkpt><trkpt lat="43.52042805745423" lon="10.324472746250308"><ele>11.0</ele><time>2026-04-25T08:26:49Z</time></trkpt><trkpt lat="43.5204925752296" lon="10.324455992197985"><ele>11.0</ele><time>2026-04-25T08:26:50Z</time></trkpt><trkpt lat="43.52055530687091" lon="10.324436849406837"><ele>11.428571428571429</ele><time>2026-04-25T08:26:51Z</time></trkpt><trkpt lat="43.520618303209936" lon="10.324419127073975"><ele>11.857142857142858</ele><time>2026-04-25T08:26:52Z</time></trkpt><trkpt lat="43.520682303461314" lon="10.324398658681984"><ele>12.285714285714285</ele><time>2026-04-25T08:26:53Z</time></trkpt><trkpt lat="43.52080327214879" lon="10.324353805185206"><ele>12.714285714285715</ele><time>2026-04-25T08:26:55Z</time></trkpt><trkpt lat="43.52086695666879" lon="10.324330382184918"><ele>13.142857142857142</ele><time>2026-04-25T08:26:56Z</time></trkpt><trkpt lat="43.52092786285655" lon="10.324308265932851"><ele>13.571428571428571</ele><time>2026-04-25T08:26:57Z</time></trkpt><trkpt lat="43.52098961867293" lon="10.32428547683222"><ele>14.0</ele><time>2026-04-25T08:26:58Z</time></trkpt><trkpt lat="43.52111206815996" lon="10.324232966513517"><ele>13.5</ele><time>2026-04-25T08:27:00Z</time></trkpt><trkpt lat="43.52123269853849" lon="10.324193892256163"><ele>13.0</ele><time>2026-04-25T08:27:02Z</time></trkpt><trkpt lat="43.52133481464326" lon="10.32411044639056"><ele>12.5</ele><time>2026-04-25T08:27:04Z</time></trkpt><trkpt lat="43.52143487132935" lon="10.324072788581452"><ele>12.0</ele><time>2026-04-25T08:27:06Z</time></trkpt><trkpt lat="43.5215534081112" lon="10.324036260369239"><ele>12.0</ele><time>2026-04-25T08:27:08Z</time></trkpt><trkpt lat="43.52166767077496" lon="10.3239634681966"><ele>12.0</ele><time>2026-04-25T08:27:10Z</time></trkpt><trkpt lat="43.52172600817517" lon="10.32392838167929"><ele>12.0</ele><time>2026-04-25T08:27:11Z</time></trkpt><trkpt lat="43.52183981185067" lon="10.32386721346079"><ele>12.0</ele><time>2026-04-25T08:27:13Z</time></trkpt><trkpt lat="43.52195309065248" lon="10.323802135648195"><ele>12.0</ele><time>2026-04-25T08:27:15Z</time></trkpt><trkpt lat="43.522066240410986" lon="10.323735418019197"><ele>12.399999999999999</ele><time>2026-04-25T08:27:17Z</time></trkpt><trkpt lat="43.522178383375326" lon="10.323678796295827"><ele>12.799999999999999</ele><time>2026-04-25T08:27:19Z</time></trkpt><trkpt lat="43.52229138036359" lon="10.323614746609989"><ele>13.2</ele><time>2026-04-25T08:27:21Z</time></trkpt><trkpt lat="43.5223492700536" lon="10.323579738167124"><ele>13.6</ele><time>2026-04-25T08:27:22Z</time></trkpt><trkpt lat="43.522465693235404" lon="10.323516567819237"><ele>14.0</ele><time>2026-04-25T08:27:24Z</time></trkpt><trkpt lat="43.52257797579783" lon="10.323449415100468"><ele>14.0</ele><time>2026-04-25T08:27:26Z</time></trkpt><trkpt lat="43.522636832547406" lon="10.323413144008764"><ele>13.999999999999998</ele><time>2026-04-25T08:27:27Z</time></trkpt><trkpt lat="43.52275146627785" lon="10.32334818274939"><ele>13.999999999999998</ele><time>2026-04-25T08:27:29Z</time></trkpt><trkpt lat="43.52286664485237" lon="10.32327868957768"><ele>14.0</ele><time>2026-04-25T08:27:31Z</time></trkpt><trkpt lat="43.52298122216767" lon="10.323216476521102"><ele>14.0</ele><time>2026-04-25T08:27:33Z</time></trkpt><trkpt lat="43.523038055119834" lon="10.32317224059973"><ele>13.833333333333334</ele><time>2026-04-25T08:27:34Z</time></trkpt><trkpt lat="43.523153280416935" lon="10.323120229779011"><ele>13.666666666666668</ele><time>2026-04-25T08:27:36Z</time></trkpt><trkpt lat="43.52321477423515" lon="10.323098514148095"><ele>13.5</ele><time>2026-04-25T08:27:37Z</time></trkpt><trkpt lat="43.52327522540803" lon="10.323073387728453"><ele>13.333333333333332</ele><time>2026-04-25T08:27:38Z</time></trkpt><trkpt lat="43.52339680831613" lon="10.323041612413945"><ele>13.166666666666666</ele><time>2026-04-25T08:27:40Z</time></trkpt><trkpt lat="43.52345913771245" lon="10.323023138977792"><ele>13.0</ele><time>2026-04-25T08:27:41Z</time></trkpt><trkpt lat="43.52351968180979" lon="10.322995808237845"><ele>13.0</ele><time>2026-04-25T08:27:42Z</time></trkpt><trkpt lat="43.52364189266792" lon="10.323006980156089"><ele>13.0</ele><time>2026-04-25T08:27:44Z</time></trkpt><trkpt lat="43.52376439276149" lon="10.322982600320609"><ele>13.0</ele><time>2026-04-25T08:27:46Z</time></trkpt><trkpt lat="43.52388394396721" lon="10.322974748910681"><ele>13.0</ele><time>2026-04-25T08:27:48Z</time></trkpt><trkpt lat="43.52397658189507" lon="10.322979544243097"><ele>13.166666666666666</ele><time>2026-04-25T08:27:50Z</time></trkpt><trkpt lat="43.52405426192778" lon="10.323002563980296"><ele>13.333333333333332</ele><time>2026-04-25T08:27:51Z</time></trkpt><trkpt lat="43.524152285261486" lon="10.322994219037646"><ele>13.5</ele><time>2026-04-25T08:27:53Z</time></trkpt><trkpt lat="43.52421476729484" lon="10.323025893181658"><ele>13.666666666666668</ele><time>2026-04-25T08:27:55Z</time></trkpt><trkpt lat="43.52428312798658" lon="10.323026704975078"><ele>13.833333333333334</ele><time>2026-04-25T08:27:57Z</time></trkpt><trkpt lat="43.52438154008481" lon="10.32306629847495"><ele>14.0</ele><time>2026-04-25T08:28:26Z</time></trkpt><trkpt lat="43.524476774791715" lon="10.323080909648073"><ele>14.0</ele><time>2026-04-25T08:28:29Z</time></trkpt><trkpt lat="43.52455720719181" lon="10.323085360369692"><ele>13.999999999999998</ele><time>2026-04-25T08:28:31Z</time></trkpt><trkpt lat="43.52465470718206" lon="10.323059612277307"><ele>13.999999999999998</ele><time>2026-04-25T08:28:33Z</time></trkpt><trkpt lat="43.5247594717424" lon="10.323035349844114"><ele>14.0</ele><time>2026-04-25T08:28:35Z</time></trkpt><trkpt lat="43.52486952182361" lon="10.323005677481937"><ele>14.0</ele><time>2026-04-25T08:28:37Z</time></trkpt><trkpt lat="43.52499283839049" lon="10.322972162004234"><ele>14.399999999999999</ele><time>2026-04-25T08:28:39Z</time></trkpt><trkpt lat="43.525105912639305" lon="10.322937512875498"><ele>14.799999999999999</ele><time>2026-04-25T08:28:41Z</time></trkpt><trkpt lat="43.525228555593884" lon="10.322905154045289"><ele>15.200000000000001</ele><time>2026-04-25T08:28:42.999Z</time></trkpt><trkpt lat="43.52529552619048" lon="10.3228868525751"><ele>15.600000000000001</ele><time>2026-04-25T08:28:43.999Z</time></trkpt><trkpt lat="43.52541120938409" lon="10.322848810273916"><ele>16.0</ele><time>2026-04-25T08:28:46Z</time></trkpt><trkpt lat="43.52552651097883" lon="10.322800936506301"><ele>16.0</ele><time>2026-04-25T08:28:48Z</time></trkpt><trkpt lat="43.52564066475494" lon="10.322755645652652"><ele>16.0</ele><time>2026-04-25T08:28:50Z</time></trkpt><trkpt lat="43.525751554672425" lon="10.322712254782084"><ele>16.0</ele><time>2026-04-25T08:28:52Z</time></trkpt><trkpt lat="43.52586906160312" lon="10.322688480388596"><ele>16.0</ele><time>2026-04-25T08:28:54Z</time></trkpt><trkpt lat="43.525983954890464" lon="10.322633955873508"><ele>16.0</ele><time>2026-04-25T08:28:56Z</time></trkpt><trkpt lat="43.52609555927297" lon="10.322589726658688"><ele>16.0</ele><time>2026-04-25T08:28:58Z</time></trkpt><trkpt lat="43.52620920847151" lon="10.322535273159868"><ele>16.0</ele><time>2026-04-25T08:29:00Z</time></trkpt><trkpt lat="43.526323041567466" lon="10.32246742421514"><ele>16.0</ele><time>2026-04-25T08:29:02Z</time></trkpt><trkpt lat="43.52643749624861" lon="10.322390326826167"><ele>15.666666666666666</ele><time>2026-04-25T08:29:04Z</time></trkpt><trkpt lat="43.52655006094205" lon="10.32232804253985"><ele>15.333333333333332</ele><time>2026-04-25T08:29:06Z</time></trkpt><trkpt lat="43.52660749508612" lon="10.32229032592909"><ele>15.0</ele><time>2026-04-25T08:29:07Z</time></trkpt><trkpt lat="43.52666579916203" lon="10.322254298207225"><ele>14.666666666666668</ele><time>2026-04-25T08:29:08Z</time></trkpt><trkpt lat="43.52677306696815" lon="10.322184407551893"><ele>14.333333333333334</ele><time>2026-04-25T08:29:10Z</time></trkpt><trkpt lat="43.52683451002723" lon="10.322144703859172"><ele>14.0</ele><time>2026-04-25T08:29:11Z</time></trkpt><trkpt lat="43.52694085141973" lon="10.322070007479432"><ele>14.000000000000002</ele><time>2026-04-25T08:29:13Z</time></trkpt><trkpt lat="43.527057550552804" lon="10.322016457870365"><ele>14.0</ele><time>2026-04-25T08:29:15Z</time></trkpt><trkpt lat="43.52711843761243" lon="10.321989791497778"><ele>14.0</ele><time>2026-04-25T08:29:16Z</time></trkpt><trkpt lat="43.52723204725394" lon="10.321917425556991"><ele>14.0</ele><time>2026-04-25T08:29:18Z</time></trkpt><trkpt lat="43.5272931423125" lon="10.321891679843878"><ele>14.000000000000002</ele><time>2026-04-25T08:29:19Z</time></trkpt><trkpt lat="43.52735396732266" lon="10.321864405309778"><ele>14.0</ele><time>2026-04-25T08:29:20Z</time></trkpt><trkpt lat="43.52741605965059" lon="10.321847241302939"><ele>13.571428571428571</ele><time>2026-04-25T08:29:21Z</time></trkpt><trkpt lat="43.5274848118298" lon="10.32181915605508"><ele>13.142857142857142</ele><time>2026-04-25T08:29:22Z</time></trkpt><trkpt lat="43.52754999571445" lon="10.321798618535285"><ele>12.714285714285715</ele><time>2026-04-25T08:29:23Z</time></trkpt><trkpt lat="43.52761675882146" lon="10.321783375438205"><ele>12.285714285714285</ele><time>2026-04-25T08:29:24Z</time></trkpt><trkpt lat="43.52768186426895" lon="10.321760901531407"><ele>11.857142857142858</ele><time>2026-04-25T08:29:25Z</time></trkpt><trkpt lat="43.527747350367854" lon="10.32173358846884"><ele>11.428571428571429</ele><time>2026-04-25T08:29:26Z</time></trkpt><trkpt lat="43.527811451215854" lon="10.321710123936954"><ele>11.0</ele><time>2026-04-25T08:29:27Z</time></trkpt><trkpt lat="43.52787745861373" lon="10.321689054176714"><ele>11.0</ele><time>2026-04-25T08:29:28Z</time></trkpt><trkpt lat="43.527942646110226" lon="10.321670544003736"><ele>11.0</ele><time>2026-04-25T08:29:29Z</time></trkpt><trkpt lat="43.52800907978947" lon="10.321649649123838"><ele>11.0</ele><time>2026-04-25T08:29:30Z</time></trkpt><trkpt lat="43.52813359695059" lon="10.32160035585549"><ele>11.0</ele><time>2026-04-25T08:29:32Z</time></trkpt><trkpt lat="43.52826878290142" lon="10.321560731927143"><ele>11.0</ele><time>2026-04-25T08:29:34Z</time></trkpt><trkpt lat="43.52833101623725" lon="10.3215351383589"><ele>11.0</ele><time>2026-04-25T08:29:35Z</time></trkpt><trkpt lat="43.5283938401644" lon="10.321514336924894"><ele>11.0</ele><time>2026-04-25T08:29:36Z</time></trkpt><trkpt lat="43.52845835934424" lon="10.321492758670866"><ele>11.0</ele><time>2026-04-25T08:29:37Z</time></trkpt><trkpt lat="43.52852229608807" lon="10.321469790004945"><ele>11.0</ele><time>2026-04-25T08:29:38Z</time></trkpt><trkpt lat="43.52858730594748" lon="10.32144468671461"><ele>11.0</ele><time>2026-04-25T08:29:39Z</time></trkpt><trkpt lat="43.52865392509132" lon="10.321422084847217"><ele>11.0</ele><time>2026-04-25T08:29:40Z</time></trkpt><trkpt lat="43.52871821583227" lon="10.321398401718822"><ele>11.0</ele><time>2026-04-25T08:29:41Z</time></trkpt><trkpt lat="43.52878236060404" lon="10.321373312451684"><ele>10.714285714285715</ele><time>2026-04-25T08:29:42Z</time></trkpt><trkpt lat="43.528850545640644" lon="10.321345283280008"><ele>10.428571428571429</ele><time>2026-04-25T08:29:43Z</time></trkpt><trkpt lat="43.528919716969455" lon="10.321312802853585"><ele>10.142857142857142</ele><time>2026-04-25T08:29:44Z</time></trkpt><trkpt lat="43.52898378101519" lon="10.32129165942692"><ele>9.857142857142858</ele><time>2026-04-25T08:29:45Z</time></trkpt><trkpt lat="43.52905142379007" lon="10.321270656842112"><ele>9.571428571428571</ele><time>2026-04-25T08:29:46Z</time></trkpt><trkpt lat="43.52912271402094" lon="10.321245808956277"><ele>9.285714285714286</ele><time>2026-04-25T08:29:47Z</time></trkpt><trkpt lat="43.52918790732467" lon="10.321218447602359"><ele>9.0</ele><time>2026-04-25T08:29:48Z</time></trkpt><trkpt lat="43.529255930149006" lon="10.321190168090883"><ele>9.000000000000002</ele><time>2026-04-25T08:29:49Z</time></trkpt><trkpt lat="43.529322261175444" lon="10.32116954367703"><ele>9.0</ele><time>2026-04-25T08:29:50Z</time></trkpt><trkpt lat="43.52939178076789" lon="10.321144104838298"><ele>9.0</ele><time>2026-04-25T08:29:51Z</time></trkpt><trkpt lat="43.529456792157205" lon="10.321113510929193"><ele>9.0</ele><time>2026-04-25T08:29:52Z</time></trkpt><trkpt lat="43.52952473903851" lon="10.321090783214796"><ele>9.0</ele><time>2026-04-25T08:29:53Z</time></trkpt><trkpt lat="43.52959587438568" lon="10.321066243696185"><ele>9.000000000000002</ele><time>2026-04-25T08:29:54Z</time></trkpt><trkpt lat="43.529659357973784" lon="10.321047965302288"><ele>9.0</ele><time>2026-04-25T08:29:55Z</time></trkpt><trkpt lat="43.529725445359404" lon="10.321024657216169"><ele>9.166666666666666</ele><time>2026-04-25T08:29:56Z</time></trkpt><trkpt lat="43.529842995118486" lon="10.320970772365369"><ele>9.333333333333334</ele><time>2026-04-25T08:29:58Z</time></trkpt><trkpt lat="43.52995535542737" lon="10.320899165256241"><ele>9.5</ele><time>2026-04-25T08:30:00Z</time></trkpt><trkpt lat="43.53001305825117" lon="10.320853758441475"><ele>9.666666666666668</ele><time>2026-04-25T08:30:01Z</time></trkpt><trkpt lat="43.53007069081457" lon="10.320807642697664"><ele>9.833333333333334</ele><time>2026-04-25T08:30:02Z</time></trkpt><trkpt lat="43.53013035854034" lon="10.320765303620554"><ele>10.0</ele><time>2026-04-25T08:30:03Z</time></trkpt><trkpt lat="43.53018794889367" lon="10.320719929834764"><ele>10.0</ele><time>2026-04-25T08:30:04Z</time></trkpt><trkpt lat="43.53024746965807" lon="10.320676640703374"><ele>10.0</ele><time>2026-04-25T08:30:05Z</time></trkpt><trkpt lat="43.53030766839485" lon="10.320633412798632"><ele>10.0</ele><time>2026-04-25T08:30:06Z</time></trkpt><trkpt lat="43.53036497913505" lon="10.320588200882868"><ele>10.0</ele><time>2026-04-25T08:30:07Z</time></trkpt><trkpt lat="43.5304222851944" lon="10.320543305863971"><ele>10.0</ele><time>2026-04-25T08:30:08Z</time></trkpt><trkpt lat="43.530478950320656" lon="10.320499395329149"><ele>10.0</ele><time>2026-04-25T08:30:09Z</time></trkpt><trkpt lat="43.530534846562944" lon="10.320455839538266"><ele>10.0</ele><time>2026-04-25T08:30:10Z</time></trkpt><trkpt lat="43.53059136662958" lon="10.320412416958883"><ele>10.333333333333334</ele><time>2026-04-25T08:30:11Z</time></trkpt><trkpt lat="43.53070368922173" lon="10.32033023713786"><ele>10.666666666666668</ele><time>2026-04-25T08:30:13Z</time></trkpt><trkpt lat="43.53076030844993" lon="10.320286845194795"><ele>11.0</ele><time>2026-04-25T08:30:14Z</time></trkpt><trkpt lat="43.530874278927904" lon="10.320204822021195"><ele>11.333333333333334</ele><time>2026-04-25T08:30:16Z</time></trkpt><trkpt lat="43.53092956756196" lon="10.320160322708304"><ele>11.666666666666666</ele><time>2026-04-25T08:30:17Z</time></trkpt><trkpt lat="43.53098434208278" lon="10.320114188881401"><ele>12.0</ele><time>2026-04-25T08:30:18Z</time></trkpt><trkpt lat="43.53104084095714" lon="10.320070952401272"><ele>12.0</ele><time>2026-04-25T08:30:19Z</time></trkpt><trkpt lat="43.53109544063924" lon="10.320026837866154"><ele>12.0</ele><time>2026-04-25T08:30:20Z</time></trkpt><trkpt lat="43.5311526112271" lon="10.31998608160225"><ele>12.0</ele><time>2026-04-25T08:30:21Z</time></trkpt><trkpt lat="43.531262898140525" lon="10.319908312209034"><ele>12.0</ele><time>2026-04-25T08:30:23Z</time></trkpt><trkpt lat="43.531316733916164" lon="10.319862091543465"><ele>12.0</ele><time>2026-04-25T08:30:24Z</time></trkpt><trkpt lat="43.53142704055433" lon="10.31977389913856"><ele>12.0</ele><time>2026-04-25T08:30:26Z</time></trkpt><trkpt lat="43.53152890601335" lon="10.319691566591553"><ele>12.0</ele><time>2026-04-25T08:30:28Z</time></trkpt><trkpt lat="43.531623371479036" lon="10.319606812376046"><ele>12.0</ele><time>2026-04-25T08:30:30Z</time></trkpt><trkpt lat="43.531713190615065" lon="10.319535263548975"><ele>12.0</ele><time>2026-04-25T08:30:32Z</time></trkpt><trkpt lat="43.53179358535822" lon="10.319492404973047"><ele>12.0</ele><time>2026-04-25T08:30:34Z</time></trkpt><trkpt lat="43.53185727907311" lon="10.319493363321474"><ele>12.0</ele><time>2026-04-25T08:30:38Z</time></trkpt><trkpt lat="43.53193886105582" lon="10.319476306101226"><ele>12.0</ele><time>2026-04-25T08:31:13Z</time></trkpt><trkpt lat="43.53202694324007" lon="10.31947596167167"><ele>12.0</ele><time>2026-04-25T08:31:16Z</time></trkpt><trkpt lat="43.53208467941701" lon="10.319417380398802"><ele>12.0</ele><time>2026-04-25T08:31:18Z</time></trkpt><trkpt lat="43.532161633517894" lon="10.319400611856743"><ele>12.0</ele><time>2026-04-25T08:31:20Z</time></trkpt><trkpt lat="43.532263191299066" lon="10.319403681014816"><ele>12.0</ele><time>2026-04-25T08:31:22Z</time></trkpt><trkpt lat="43.53236632146614" lon="10.319440027293426"><ele>12.0</ele><time>2026-04-25T08:31:24Z</time></trkpt><trkpt lat="43.53247728723535" lon="10.319471899204387"><ele>12.0</ele><time>2026-04-25T08:31:26Z</time></trkpt><trkpt lat="43.532570380672055" lon="10.319555289508573"><ele>12.0</ele><time>2026-04-25T08:31:28Z</time></trkpt><trkpt lat="43.53266819034677" lon="10.319632831385317"><ele>12.0</ele><time>2026-04-25T08:31:30Z</time></trkpt><trkpt lat="43.532762752769116" lon="10.319713567948474"><ele>12.0</ele><time>2026-04-25T08:31:32Z</time></trkpt><trkpt lat="43.53285476673882" lon="10.319793538857851"><ele>12.0</ele><time>2026-04-25T08:31:34Z</time></trkpt><trkpt lat="43.53295249683131" lon="10.319883058742162"><ele>12.5</ele><time>2026-04-25T08:31:36Z</time></trkpt><trkpt lat="43.53304851476188" lon="10.319980826185262"><ele>13.0</ele><time>2026-04-25T08:31:38Z</time></trkpt><trkpt lat="43.53313987481388" lon="10.32009099713995"><ele>13.5</ele><time>2026-04-25T08:31:40Z</time></trkpt><trkpt lat="43.533230307289216" lon="10.32019812785741"><ele>14.0</ele><time>2026-04-25T08:31:42Z</time></trkpt><trkpt lat="43.53331384345185" lon="10.32031771745647"><ele>14.0</ele><time>2026-04-25T08:31:44Z</time></trkpt><trkpt lat="43.533394116176005" lon="10.320442530768071"><ele>14.0</ele><time>2026-04-25T08:31:46Z</time></trkpt><trkpt lat="43.53347026300533" lon="10.32056667175367"><ele>14.0</ele><time>2026-04-25T08:31:48Z</time></trkpt><trkpt lat="43.53356465735565" lon="10.320661917533581"><ele>14.0</ele><time>2026-04-25T08:31:50Z</time></trkpt><trkpt lat="43.53368227492002" lon="10.320703968084581"><ele>13.666666666666668</ele><time>2026-04-25T08:31:52Z</time></trkpt><trkpt lat="43.53380453320312" lon="10.320686640448901"><ele>13.333333333333334</ele><time>2026-04-25T08:31:54Z</time></trkpt><trkpt lat="43.53392142309297" lon="10.320636557042716"><ele>13.0</ele><time>2026-04-25T08:31:56Z</time></trkpt><trkpt lat="43.53397722822882" lon="10.320594760579407"><ele>12.666666666666668</ele><time>2026-04-25T08:31:57Z</time></trkpt><trkpt lat="43.53403433594507" lon="10.320555439133953"><ele>12.333333333333334</ele><time>2026-04-25T08:31:58Z</time></trkpt><trkpt lat="43.534090523283" lon="10.320511781413206"><ele>12.0</ele><time>2026-04-25T08:31:59Z</time></trkpt><trkpt lat="43.534198563780635" lon="10.320431840407526"><ele>12.666666666666666</ele><time>2026-04-25T08:32:01Z</time></trkpt><trkpt lat="43.53431284690307" lon="10.320365944386937"><ele>13.333333333333332</ele><time>2026-04-25T08:32:03Z</time></trkpt><trkpt lat="43.53437086833959" lon="10.320326836600247"><ele>14.0</ele><time>2026-04-25T08:32:04Z</time></trkpt><trkpt lat="43.53442633170092" lon="10.32028513140553"><ele>14.666666666666666</ele><time>2026-04-25T08:32:05Z</time></trkpt><trkpt lat="43.53453732277041" lon="10.320202559831321"><ele>15.333333333333332</ele><time>2026-04-25T08:32:07Z</time></trkpt><trkpt lat="43.53459523235996" lon="10.320162371331152"><ele>16.0</ele><time>2026-04-25T08:32:08Z</time></trkpt><trkpt lat="43.53470652315317" lon="10.320088796942175"><ele>16.5</ele><time>2026-04-25T08:32:10Z</time></trkpt><trkpt lat="43.53481703921871" lon="10.320012986824858"><ele>17.0</ele><time>2026-04-25T08:32:12Z</time></trkpt><trkpt lat="43.53487267226967" lon="10.31997155187638"><ele>17.5</ele><time>2026-04-25T08:32:13Z</time></trkpt><trkpt lat="43.534982745390636" lon="10.319892638049588"><ele>18.0</ele><time>2026-04-25T08:32:15Z</time></trkpt><trkpt lat="43.535040805936625" lon="10.31985274300006"><ele>18.5</ele><time>2026-04-25T08:32:16Z</time></trkpt><trkpt lat="43.53509371612545" lon="10.319805088250076"><ele>19.0</ele><time>2026-04-25T08:32:17Z</time></trkpt><trkpt lat="43.53515152707472" lon="10.319765966364384"><ele>18.8</ele><time>2026-04-25T08:32:18Z</time></trkpt><trkpt lat="43.53526838868235" lon="10.319699107583483"><ele>18.599999999999998</ele><time>2026-04-25T08:32:20Z</time></trkpt><trkpt lat="43.5353823042426" lon="10.31962052976334"><ele>18.4</ele><time>2026-04-25T08:32:22Z</time></trkpt><trkpt lat="43.53543646900445" lon="10.31957457519867"><ele>18.2</ele><time>2026-04-25T08:32:23Z</time></trkpt><trkpt lat="43.535552643361676" lon="10.31950444898542"><ele>18.0</ele><time>2026-04-25T08:32:25Z</time></trkpt><trkpt lat="43.535609977380524" lon="10.319459132459762"><ele>18.28571428571429</ele><time>2026-04-25T08:32:26Z</time></trkpt><trkpt lat="43.535670330552946" lon="10.319415493562966"><ele>18.571428571428573</ele><time>2026-04-25T08:32:27Z</time></trkpt><trkpt lat="43.53572732497348" lon="10.319374277800955"><ele>18.857142857142858</ele><time>2026-04-25T08:32:28Z</time></trkpt><trkpt lat="43.535782397535044" lon="10.319328577646331"><ele>19.142857142857146</ele><time>2026-04-25T08:32:29Z</time></trkpt><trkpt lat="43.53584538940563" lon="10.319295563283779"><ele>19.42857142857143</ele><time>2026-04-25T08:32:30Z</time></trkpt><trkpt lat="43.535904350100296" lon="10.3192613821418"><ele>19.714285714285715</ele><time>2026-04-25T08:32:31Z</time></trkpt><trkpt lat="43.53596083504407" lon="10.319218741163825"><ele>20.0</ele><time>2026-04-25T08:32:32Z</time></trkpt><trkpt lat="43.536019524591055" lon="10.319179183455661"><ele>20.0</ele><time>2026-04-25T08:32:33Z</time></trkpt><trkpt lat="43.53607304470116" lon="10.319128725721049"><ele>20.0</ele><time>2026-04-25T08:32:34Z</time></trkpt><trkpt lat="43.53619040853809" lon="10.31906234500471"><ele>20.0</ele><time>2026-04-25T08:32:36Z</time></trkpt><trkpt lat="43.536248938256115" lon="10.319024611492829"><ele>20.0</ele><time>2026-04-25T08:32:37Z</time></trkpt><trkpt lat="43.53630461586395" lon="10.318983332069106"><ele>20.0</ele><time>2026-04-25T08:32:38Z</time></trkpt><trkpt lat="43.53636197685034" lon="10.318940451453344"><ele>20.0</ele><time>2026-04-25T08:32:39Z</time></trkpt><trkpt lat="43.5364722802631" lon="10.318869147996319"><ele>19.333333333333336</ele><time>2026-04-25T08:32:41Z</time></trkpt><trkpt lat="43.53658505164405" lon="10.318795418750685"><ele>18.666666666666668</ele><time>2026-04-25T08:32:43Z</time></trkpt><trkpt lat="43.53664165710039" lon="10.318755840099959"><ele>18.0</ele><time>2026-04-25T08:32:44Z</time></trkpt><trkpt lat="43.53669874433834" lon="10.31871388157818"><ele>17.333333333333332</ele><time>2026-04-25T08:32:45Z</time></trkpt><trkpt lat="43.53675645493026" lon="10.318677332735582"><ele>16.666666666666664</ele><time>2026-04-25T08:32:46Z</time></trkpt><trkpt lat="43.53687218983319" lon="10.31860791751633"><ele>16.0</ele><time>2026-04-25T08:32:47.999Z</time></trkpt><trkpt lat="43.536929862605916" lon="10.318571816896428"><ele>15.999999999999998</ele><time>2026-04-25T08:32:48.999Z</time></trkpt><trkpt lat="43.536986947978434" lon="10.318533391799365"><ele>16.0</ele><time>2026-04-25T08:32:49.999Z</time></trkpt><trkpt lat="43.53704000973856" lon="10.318486368220436"><ele>16.0</ele><time>2026-04-25T08:32:50.999Z</time></trkpt><trkpt lat="43.53709694611259" lon="10.31844724659606"><ele>16.0</ele><time>2026-04-25T08:32:51.999Z</time></trkpt><trkpt lat="43.537203744488984" lon="10.318374585714324"><ele>15.999999999999998</ele><time>2026-04-25T08:32:53.999Z</time></trkpt><trkpt lat="43.537262897592974" lon="10.318340383458915"><ele>16.0</ele><time>2026-04-25T08:32:54.999Z</time></trkpt><trkpt lat="43.53737489197185" lon="10.318270030737638"><ele>16.0</ele><time>2026-04-25T08:32:56.999Z</time></trkpt><trkpt lat="43.537483760148156" lon="10.318190021676104"><ele>16.0</ele><time>2026-04-25T08:32:59Z</time></trkpt><trkpt lat="43.537543135129006" lon="10.31815691160025"><ele>16.0</ele><time>2026-04-25T08:33:00Z</time></trkpt><trkpt lat="43.53765409995073" lon="10.318084654373529"><ele>16.0</ele><time>2026-04-25T08:33:02Z</time></trkpt><trkpt lat="43.5377123589927" lon="10.318045864746997"><ele>16.0</ele><time>2026-04-25T08:33:03Z</time></trkpt><trkpt lat="43.53782330158545" lon="10.317971752067038"><ele>15.8</ele><time>2026-04-25T08:33:05Z</time></trkpt><trkpt lat="43.537933315614865" lon="10.317901381905385"><ele>15.600000000000001</ele><time>2026-04-25T08:33:07Z</time></trkpt><trkpt lat="43.53798842337386" lon="10.317856329682241"><ele>15.4</ele><time>2026-04-25T08:33:08Z</time></trkpt><trkpt lat="43.53810191882089" lon="10.31777516838857"><ele>15.2</ele><time>2026-04-25T08:33:10Z</time></trkpt><trkpt lat="43.53821682696079" lon="10.31769989770384"><ele>15.0</ele><time>2026-04-25T08:33:12Z</time></trkpt><trkpt lat="43.53827548306452" lon="10.317658290501813"><ele>15.0</ele><time>2026-04-25T08:33:13Z</time></trkpt><trkpt lat="43.53838053113555" lon="10.317575087162508"><ele>15.0</ele><time>2026-04-25T08:33:15Z</time></trkpt><trkpt lat="43.538437838023654" lon="10.317533453153546"><ele>15.0</ele><time>2026-04-25T08:33:16Z</time></trkpt><trkpt lat="43.53849262426121" lon="10.31748580431363"><ele>15.0</ele><time>2026-04-25T08:33:17Z</time></trkpt><trkpt lat="43.53855057554924" lon="10.317450341561463"><ele>15.0</ele><time>2026-04-25T08:33:18Z</time></trkpt><trkpt lat="43.538659820662986" lon="10.317367348684014"><ele>15.0</ele><time>2026-04-25T08:33:20Z</time></trkpt><trkpt lat="43.53871665156319" lon="10.317326348044999"><ele>15.166666666666666</ele><time>2026-04-25T08:33:21Z</time></trkpt><trkpt lat="43.5387741930513" lon="10.317286522499698"><ele>15.333333333333332</ele><time>2026-04-25T08:33:22Z</time></trkpt><trkpt lat="43.53883384686571" lon="10.317246395742067"><ele>15.5</ele><time>2026-04-25T08:33:23Z</time></trkpt><trkpt lat="43.538947263402754" lon="10.317167023846306"><ele>15.666666666666666</ele><time>2026-04-25T08:33:25Z</time></trkpt><trkpt lat="43.53900762390228" lon="10.31712856367907"><ele>15.833333333333332</ele><time>2026-04-25T08:33:26Z</time></trkpt><trkpt lat="43.53906619583315" lon="10.317085923251344"><ele>16.0</ele><time>2026-04-25T08:33:27Z</time></trkpt><trkpt lat="43.53912329575332" lon="10.317045361203784"><ele>16.0</ele><time>2026-04-25T08:33:28Z</time></trkpt><trkpt lat="43.539227906724776" lon="10.316952738593793"><ele>16.0</ele><time>2026-04-25T08:33:30Z</time></trkpt><trkpt lat="43.53929034482372" lon="10.316934368726983"><ele>16.0</ele><time>2026-04-25T08:33:31Z</time></trkpt><trkpt lat="43.53939055561212" lon="10.316846803570458"><ele>16.0</ele><time>2026-04-25T08:33:33Z</time></trkpt><trkpt lat="43.53950060229013" lon="10.316775222131339"><ele>16.0</ele><time>2026-04-25T08:33:35Z</time></trkpt><trkpt lat="43.5395602206877" lon="10.316745312507253"><ele>16.0</ele><time>2026-04-25T08:33:36Z</time></trkpt><trkpt lat="43.53961882976432" lon="10.316704353627484"><ele>15.999999999999998</ele><time>2026-04-25T08:33:37Z</time></trkpt><trkpt lat="43.53967846877949" lon="10.316668019010542"><ele>16.0</ele><time>2026-04-25T08:33:38Z</time></trkpt><trkpt lat="43.53973958610666" lon="10.316634771053803"><ele>16.0</ele><time>2026-04-25T08:33:39Z</time></trkpt><trkpt lat="43.53980530947139" lon="10.316603795522843"><ele>15.999999999999998</ele><time>2026-04-25T08:33:40Z</time></trkpt><trkpt lat="43.53986542117973" lon="10.316572552353188"><ele>16.0</ele><time>2026-04-25T08:33:41Z</time></trkpt><trkpt lat="43.53993168544693" lon="10.316519529866547"><ele>16.0</ele><time>2026-04-25T08:33:42Z</time></trkpt><trkpt lat="43.540036888993264" lon="10.316420749753977"><ele>15.8</ele><time>2026-04-25T08:33:44Z</time></trkpt><trkpt lat="43.54009108542636" lon="10.316368347995496"><ele>15.600000000000001</ele><time>2026-04-25T08:33:45Z</time></trkpt><trkpt lat="43.54015557782601" lon="10.316342257285227"><ele>15.4</ele><time>2026-04-25T08:33:46Z</time></trkpt><trkpt lat="43.540263888311586" lon="10.316257518402303"><ele>15.2</ele><time>2026-04-25T08:33:48Z</time></trkpt><trkpt lat="43.5403670902512" lon="10.316177446098232"><ele>15.0</ele><time>2026-04-25T08:33:50Z</time></trkpt><trkpt lat="43.54047821730025" lon="10.316126330285643"><ele>15.0</ele><time>2026-04-25T08:33:52Z</time></trkpt><trkpt lat="43.54058944533011" lon="10.316050384874083"><ele>15.0</ele><time>2026-04-25T08:33:54Z</time></trkpt><trkpt lat="43.54064699744974" lon="10.316010705901883"><ele>15.0</ele><time>2026-04-25T08:33:55Z</time></trkpt><trkpt lat="43.540751584497045" lon="10.315922954098243"><ele>15.0</ele><time>2026-04-25T08:33:57Z</time></trkpt><trkpt lat="43.54080907065545" lon="10.31588008010623"><ele>15.0</ele><time>2026-04-25T08:33:58Z</time></trkpt><trkpt lat="43.540871886131555" lon="10.315844478143498"><ele>15.0</ele><time>2026-04-25T08:33:59Z</time></trkpt><trkpt lat="43.54098489872581" lon="10.315778294901293"><ele>15.0</ele><time>2026-04-25T08:34:01Z</time></trkpt><trkpt lat="43.541046506801926" lon="10.315735023121826"><ele>15.0</ele><time>2026-04-25T08:34:02Z</time></trkpt><trkpt lat="43.54110359836431" lon="10.315694520201161"><ele>15.0</ele><time>2026-04-25T08:34:03Z</time></trkpt><trkpt lat="43.54116052819821" lon="10.315652266578057"><ele>15.0</ele><time>2026-04-25T08:34:04Z</time></trkpt><trkpt lat="43.541222803122785" lon="10.315623812899997"><ele>15.0</ele><time>2026-04-25T08:34:05Z</time></trkpt><trkpt lat="43.54127902506687" lon="10.315577446319088"><ele>15.0</ele><time>2026-04-25T08:34:06Z</time></trkpt><trkpt lat="43.54139262651555" lon="10.315503983715375"><ele>14.5</ele><time>2026-04-25T08:34:08Z</time></trkpt><trkpt lat="43.541501393521656" lon="10.315420433445116"><ele>14.0</ele><time>2026-04-25T08:34:10Z</time></trkpt><trkpt lat="43.541608924413126" lon="10.315339974062427"><ele>13.5</ele><time>2026-04-25T08:34:12Z</time></trkpt><trkpt lat="43.54171898658636" lon="10.31526007920305"><ele>13.0</ele><time>2026-04-25T08:34:14Z</time></trkpt><trkpt lat="43.541831119837234" lon="10.3151853485269"><ele>13.0</ele><time>2026-04-25T08:34:16Z</time></trkpt><trkpt lat="43.54194389770214" lon="10.315111918437564"><ele>13.0</ele><time>2026-04-25T08:34:18Z</time></trkpt><trkpt lat="43.542057076874315" lon="10.315026517722094"><ele>13.0</ele><time>2026-04-25T08:34:20Z</time></trkpt><trkpt lat="43.54217036588181" lon="10.314960765932712"><ele>13.0</ele><time>2026-04-25T08:34:22Z</time></trkpt><trkpt lat="43.54228068694638" lon="10.314883651872615"><ele>13.5</ele><time>2026-04-25T08:34:24Z</time></trkpt><trkpt lat="43.54239067458105" lon="10.314798650112099"><ele>14.0</ele><time>2026-04-25T08:34:26Z</time></trkpt><trkpt lat="43.542500256374495" lon="10.314719384594765"><ele>14.5</ele><time>2026-04-25T08:34:28Z</time></trkpt><trkpt lat="43.54260875668691" lon="10.314639953586283"><ele>15.0</ele><time>2026-04-25T08:34:30Z</time></trkpt><trkpt lat="43.54272713567135" lon="10.314576242281962"><ele>15.0</ele><time>2026-04-25T08:34:32Z</time></trkpt><trkpt lat="43.54283569785852" lon="10.314500769139656"><ele>15.0</ele><time>2026-04-25T08:34:34Z</time></trkpt><trkpt lat="43.54294453257347" lon="10.314411549415476"><ele>15.0</ele><time>2026-04-25T08:34:36Z</time></trkpt><trkpt lat="43.54300039638782" lon="10.314371355909964"><ele>15.0</ele><time>2026-04-25T08:34:37Z</time></trkpt><trkpt lat="43.54311364589717" lon="10.314306238556188"><ele>15.0</ele><time>2026-04-25T08:34:39Z</time></trkpt><trkpt lat="43.54322721155628" lon="10.314233569872638"><ele>15.333333333333334</ele><time>2026-04-25T08:34:41Z</time></trkpt><trkpt lat="43.54328315279768" lon="10.314191066147634"><ele>15.666666666666668</ele><time>2026-04-25T08:34:42Z</time></trkpt><trkpt lat="43.54334140150925" lon="10.31414634590494"><ele>16.0</ele><time>2026-04-25T08:34:43Z</time></trkpt><trkpt lat="43.54339159793218" lon="10.314092811480426"><ele>16.333333333333336</ele><time>2026-04-25T08:34:44Z</time></trkpt><trkpt lat="43.5434564888279" lon="10.314071460560912"><ele>16.666666666666668</ele><time>2026-04-25T08:34:45Z</time></trkpt><trkpt lat="43.543515747329536" lon="10.314030181231638"><ele>17.0</ele><time>2026-04-25T08:34:46Z</time></trkpt><trkpt lat="43.5436261168833" lon="10.31395329848283"><ele>16.4</ele><time>2026-04-25T08:34:48Z</time></trkpt><trkpt lat="43.54373638979547" lon="10.313877993309868"><ele>15.799999999999999</ele><time>2026-04-25T08:34:50Z</time></trkpt><trkpt lat="43.54384344393804" lon="10.31380433984876"><ele>15.2</ele><time>2026-04-25T08:34:52Z</time></trkpt><trkpt lat="43.543935294596295" lon="10.313741146400593"><ele>14.6</ele><time>2026-04-25T08:34:54Z</time></trkpt><trkpt lat="43.544028035530246" lon="10.313677858807594"><ele>14.0</ele><time>2026-04-25T08:34:56Z</time></trkpt><trkpt lat="43.544127584767544" lon="10.31360917500973"><ele>14.0</ele><time>2026-04-25T08:34:58Z</time></trkpt><trkpt lat="43.544233025079734" lon="10.313536423288417"><ele>13.999999999999998</ele><time>2026-04-25T08:34:59.999Z</time></trkpt><trkpt lat="43.54433056992829" lon="10.313471470282025"><ele>13.999999999999998</ele><time>2026-04-25T08:35:01.999Z</time></trkpt><trkpt lat="43.54441265697408" lon="10.313403966124534"><ele>14.0</ele><time>2026-04-25T08:35:04Z</time></trkpt><trkpt lat="43.54448060250753" lon="10.313371566791636"><ele>14.0</ele><time>2026-04-25T08:35:07Z</time></trkpt><trkpt lat="43.54440646468378" lon="10.313312581719298"><ele>14.0</ele><time>2026-04-25T08:35:16Z</time></trkpt><trkpt lat="43.544249556445116" lon="10.313443957766413"><ele>14.0</ele><time>2026-04-25T08:35:18Z</time></trkpt><trkpt lat="43.54414750965573" lon="10.313502586440713"><ele>14.0</ele><time>2026-04-25T08:35:20Z</time></trkpt><trkpt lat="43.54405363424443" lon="10.313567617480858"><ele>14.0</ele><time>2026-04-25T08:35:22Z</time></trkpt><trkpt lat="43.54395844817794" lon="10.313653222610302"><ele>14.0</ele><time>2026-04-25T08:35:24Z</time></trkpt><trkpt lat="43.543855073252324" lon="10.313734800468984"><ele>13.999999999999998</ele><time>2026-04-25T08:35:26Z</time></trkpt><trkpt lat="43.543798849606475" lon="10.313776934871223"><ele>13.999999999999998</ele><time>2026-04-25T08:35:27Z</time></trkpt><trkpt lat="43.543744233726024" lon="10.313822969901867"><ele>14.0</ele><time>2026-04-25T08:35:28Z</time></trkpt><trkpt lat="43.54363579961782" lon="10.31389488713488"><ele>14.0</ele><time>2026-04-25T08:35:30Z</time></trkpt><trkpt lat="43.5435285162717" lon="10.313978531799425"><ele>14.6</ele><time>2026-04-25T08:35:32Z</time></trkpt><trkpt lat="43.54341920115526" lon="10.314060628388956"><ele>15.2</ele><time>2026-04-25T08:35:34Z</time></trkpt><trkpt lat="43.543307748947356" lon="10.314136438251754"><ele>15.799999999999999</ele><time>2026-04-25T08:35:36Z</time></trkpt><trkpt lat="43.54325186394787" lon="10.314179487700748"><ele>16.4</ele><time>2026-04-25T08:35:37Z</time></trkpt><trkpt lat="43.54313612293716" lon="10.314252266449033"><ele>17.0</ele><time>2026-04-25T08:35:39Z</time></trkpt><trkpt lat="43.543034374157315" lon="10.314334417420778"><ele>17.0</ele><time>2026-04-25T08:35:41Z</time></trkpt><trkpt lat="43.54297743931225" lon="10.314373315109368"><ele>17.0</ele><time>2026-04-25T08:35:42Z</time></trkpt><trkpt lat="43.54286774513368" lon="10.31446250896308"><ele>17.0</ele><time>2026-04-25T08:35:44Z</time></trkpt><trkpt lat="43.54281412010377" lon="10.314508726309947"><ele>17.0</ele><time>2026-04-25T08:35:45Z</time></trkpt><trkpt lat="43.54270808249637" lon="10.314592444558171"><ele>17.0</ele><time>2026-04-25T08:35:47Z</time></trkpt><trkpt lat="43.54260442789725" lon="10.31467283765945"><ele>16.6</ele><time>2026-04-25T08:35:49Z</time></trkpt><trkpt lat="43.54252898447261" lon="10.314660005948213"><ele>16.2</ele><time>2026-04-25T08:35:50Z</time></trkpt><trkpt lat="43.54242074301536" lon="10.314734678426554"><ele>15.8</ele><time>2026-04-25T08:35:52Z</time></trkpt><trkpt lat="43.54231326669708" lon="10.314809519651885"><ele>15.4</ele><time>2026-04-25T08:35:54Z</time></trkpt><trkpt lat="43.54225669575348" lon="10.314849062566319"><ele>15.0</ele><time>2026-04-25T08:35:55Z</time></trkpt><trkpt lat="43.54214689193973" lon="10.314925815064807"><ele>14.666666666666666</ele><time>2026-04-25T08:35:57Z</time></trkpt><trkpt lat="43.542040023562876" lon="10.315000515699786"><ele>14.333333333333332</ele><time>2026-04-25T08:35:59Z</time></trkpt><trkpt lat="43.54198167309039" lon="10.315041302157924"><ele>14.0</ele><time>2026-04-25T08:36:00Z</time></trkpt><trkpt lat="43.54192170665178" lon="10.31508611991085"><ele>13.666666666666666</ele><time>2026-04-25T08:36:01Z</time></trkpt><trkpt lat="43.54185813131278" lon="10.315128808514062"><ele>13.333333333333332</ele><time>2026-04-25T08:36:02Z</time></trkpt><trkpt lat="43.54175299217599" lon="10.315200894532728"><ele>13.0</ele><time>2026-04-25T08:36:04Z</time></trkpt><trkpt lat="43.54164510464208" lon="10.315274975748268"><ele>12.999999999999998</ele><time>2026-04-25T08:36:06Z</time></trkpt><trkpt lat="43.54153531174874" lon="10.315350715599912"><ele>13.0</ele><time>2026-04-25T08:36:08Z</time></trkpt><trkpt lat="43.54147825741602" lon="10.315390081312392"><ele>13.0</ele><time>2026-04-25T08:36:09Z</time></trkpt><trkpt lat="43.54141513736666" lon="10.315433632172162"><ele>13.0</ele><time>2026-04-25T08:36:10Z</time></trkpt><trkpt lat="43.54135564015304" lon="10.31547468339556"><ele>12.999999999999998</ele><time>2026-04-25T08:36:11Z</time></trkpt><trkpt lat="43.54129679949206" lon="10.315515281614825"><ele>13.0</ele><time>2026-04-25T08:36:12Z</time></trkpt><trkpt lat="43.54123466020282" lon="10.315557994715503"><ele>13.285714285714285</ele><time>2026-04-25T08:36:13Z</time></trkpt><trkpt lat="43.54117778561792" lon="10.315597031357521"><ele>13.571428571428573</ele><time>2026-04-25T08:36:14Z</time></trkpt><trkpt lat="43.541121310131835" lon="10.315635794086216"><ele>13.857142857142858</ele><time>2026-04-25T08:36:15Z</time></trkpt><trkpt lat="43.54106216234753" lon="10.315676076764392"><ele>14.142857142857142</ele><time>2026-04-25T08:36:16Z</time></trkpt><trkpt lat="43.541005401275726" lon="10.31571434031013"><ele>14.428571428571427</ele><time>2026-04-25T08:36:17Z</time></trkpt><trkpt lat="43.540947500814596" lon="10.315753371880112"><ele>14.714285714285715</ele><time>2026-04-25T08:36:18Z</time></trkpt><trkpt lat="43.540838965152005" lon="10.315827070730586"><ele>15.0</ele><time>2026-04-25T08:36:20Z</time></trkpt><trkpt lat="43.54078727191064" lon="10.315878455625501"><ele>15.0</ele><time>2026-04-25T08:36:21Z</time></trkpt><trkpt lat="43.54072788619129" lon="10.31591752412254"><ele>15.0</ele><time>2026-04-25T08:36:22Z</time></trkpt><trkpt lat="43.54066808653942" lon="10.315957909582142"><ele>15.0</ele><time>2026-04-25T08:36:23Z</time></trkpt><trkpt lat="43.540558768664795" lon="10.31604186734667"><ele>15.0</ele><time>2026-04-25T08:36:25Z</time></trkpt><trkpt lat="43.540442805264" lon="10.316102260272782"><ele>15.0</ele><time>2026-04-25T08:36:27Z</time></trkpt><trkpt lat="43.54034243837114" lon="10.316187196864375"><ele>15.0</ele><time>2026-04-25T08:36:29Z</time></trkpt><trkpt lat="43.54028559151096" lon="10.31622459577385"><ele>15.0</ele><time>2026-04-25T08:36:30Z</time></trkpt><trkpt lat="43.54018073212357" lon="10.316296561253083"><ele>15.0</ele><time>2026-04-25T08:36:32Z</time></trkpt><trkpt lat="43.54011877270881" lon="10.31631998067875"><ele>15.0</ele><time>2026-04-25T08:36:33Z</time></trkpt><trkpt lat="43.540018627305216" lon="10.316411683338268"><ele>15.0</ele><time>2026-04-25T08:36:35Z</time></trkpt><trkpt lat="43.5399559569752" lon="10.31644162717553"><ele>15.0</ele><time>2026-04-25T08:36:36Z</time></trkpt><trkpt lat="43.53984377934617" lon="10.316526886781514"><ele>15.25</ele><time>2026-04-25T08:36:38Z</time></trkpt><trkpt lat="43.53973939620094" lon="10.316593592908026"><ele>15.5</ele><time>2026-04-25T08:36:40Z</time></trkpt><trkpt lat="43.539677592710234" lon="10.316625304099743"><ele>15.75</ele><time>2026-04-25T08:36:41Z</time></trkpt><trkpt lat="43.53957930160737" lon="10.316675029418557"><ele>16.0</ele><time>2026-04-25T08:36:43Z</time></trkpt><trkpt lat="43.53949578579198" lon="10.316418606024357"><ele>16.142857142857142</ele><time>2026-04-25T08:36:46Z</time></trkpt><trkpt lat="43.53944244309932" lon="10.316264870731384"><ele>16.285714285714285</ele><time>2026-04-25T08:36:48Z</time></trkpt><trkpt lat="43.5394211287978" lon="10.316181656584618"><ele>16.428571428571427</ele><time>2026-04-25T08:36:49Z</time></trkpt><trkpt lat="43.539396679565044" lon="10.316100025488499"><ele>16.57142857142857</ele><time>2026-04-25T08:36:50Z</time></trkpt><trkpt lat="43.53937792593388" lon="10.316017010439621"><ele>16.714285714285715</ele><time>2026-04-25T08:36:51Z</time></trkpt><trkpt lat="43.539354727724906" lon="10.315935484971082"><ele>16.857142857142854</ele><time>2026-04-25T08:36:52Z</time></trkpt><trkpt lat="43.53932041537539" lon="10.315861479056226"><ele>17.0</ele><time>2026-04-25T08:36:53Z</time></trkpt><trkpt lat="43.5392894624043" lon="10.315784999288587"><ele>17.0</ele><time>2026-04-25T08:36:54Z</time></trkpt><trkpt lat="43.53924253774858" lon="10.31561758688842"><ele>17.0</ele><time>2026-04-25T08:36:56Z</time></trkpt><trkpt lat="43.539200855801916" lon="10.315461712421847"><ele>17.0</ele><time>2026-04-25T08:36:58Z</time></trkpt><trkpt lat="43.53915233535945" lon="10.315309471941474"><ele>17.0</ele><time>2026-04-25T08:37:00Z</time></trkpt><trkpt lat="43.539111302633444" lon="10.315153731779894"><ele>17.0</ele><time>2026-04-25T08:37:02Z</time></trkpt><trkpt lat="43.53908294761259" lon="10.315007772510326"><ele>17.0</ele><time>2026-04-25T08:37:04Z</time></trkpt><trkpt lat="43.53904114823074" lon="10.314854924373604"><ele>17.0</ele><time>2026-04-25T08:37:06Z</time></trkpt><trkpt lat="43.53900697276029" lon="10.314690980175234"><ele>17.0</ele><time>2026-04-25T08:37:08Z</time></trkpt><trkpt lat="43.53898371897269" lon="10.314609177575177"><ele>17.0</ele><time>2026-04-25T08:37:09Z</time></trkpt><trkpt lat="43.53896065799764" lon="10.314525593009195"><ele>16.333333333333336</ele><time>2026-04-25T08:37:10Z</time></trkpt><trkpt lat="43.53893658064513" lon="10.31444333384409"><ele>15.666666666666668</ele><time>2026-04-25T08:37:11Z</time></trkpt><trkpt lat="43.538912691499014" lon="10.314362671472765"><ele>15.0</ele><time>2026-04-25T08:37:12Z</time></trkpt><trkpt lat="43.53889413850252" lon="10.31427912940184"><ele>14.333333333333332</ele><time>2026-04-25T08:37:13Z</time></trkpt><trkpt lat="43.538855691549244" lon="10.314111351680802"><ele>13.666666666666666</ele><time>2026-04-25T08:37:15Z</time></trkpt><trkpt lat="43.538823925037654" lon="10.31403476000392"><ele>13.0</ele><time>2026-04-25T08:37:16Z</time></trkpt><trkpt lat="43.53879644955186" lon="10.313863035062443"><ele>13.0</ele><time>2026-04-25T08:37:18Z</time></trkpt><trkpt lat="43.53876684202986" lon="10.313783357327734"><ele>13.0</ele><time>2026-04-25T08:37:19Z</time></trkpt><trkpt lat="43.5387533495668" lon="10.31369175748358"><ele>13.0</ele><time>2026-04-25T08:37:20Z</time></trkpt><trkpt lat="43.53871987389127" lon="10.313539916967146"><ele>13.0</ele><time>2026-04-25T08:37:22Z</time></trkpt><trkpt lat="43.5386700727681" lon="10.31339273962906"><ele>13.0</ele><time>2026-04-25T08:37:24Z</time></trkpt><trkpt lat="43.538634494866265" lon="10.31324905078161"><ele>12.999999999999998</ele><time>2026-04-25T08:37:26Z</time></trkpt><trkpt lat="43.53860695323279" lon="10.31311663718953"><ele>13.0</ele><time>2026-04-25T08:37:28Z</time></trkpt><trkpt lat="43.53860857490422" lon="10.313020299507711"><ele>13.0</ele><time>2026-04-25T08:37:32Z</time></trkpt><trkpt lat="43.538525372468044" lon="10.312965935852123"><ele>13.0</ele><time>2026-04-25T08:37:42Z</time></trkpt><trkpt lat="43.5384344563752" lon="10.313001960969034"><ele>12.999999999999998</ele><time>2026-04-25T08:37:44Z</time></trkpt><trkpt lat="43.53843339514049" lon="10.31289740222005"><ele>13.0</ele><time>2026-04-25T08:37:47Z</time></trkpt><trkpt lat="43.53833948465642" lon="10.312854790806"><ele>13.0</ele><time>2026-04-25T08:37:48Z</time></trkpt><trkpt lat="43.53826763291682" lon="10.312817798777928"><ele>13.0</ele><time>2026-04-25T08:37:51Z</time></trkpt><trkpt lat="43.5381571375454" lon="10.313132556884558"><ele>13.0</ele><time>2026-04-25T08:37:53Z</time></trkpt><trkpt lat="43.53808871120958" lon="10.313166227867221"><ele>13.0</ele><time>2026-04-25T08:37:58Z</time></trkpt><trkpt lat="43.538012732262594" lon="10.313011094789825"><ele>13.8</ele><time>2026-04-25T08:38:02Z</time></trkpt><trkpt lat="43.5379794604245" lon="10.312922095433796"><ele>14.600000000000001</ele><time>2026-04-25T08:38:05Z</time></trkpt><trkpt lat="43.53789947130069" lon="10.312761180951771"><ele>15.399999999999999</ele><time>2026-04-25T08:38:07Z</time></trkpt><trkpt lat="43.537827889756954" lon="10.3128274502831"><ele>16.2</ele><time>2026-04-25T08:38:10Z</time></trkpt><trkpt lat="43.53773595145098" lon="10.312884135029318"><ele>17.0</ele><time>2026-04-25T08:38:12Z</time></trkpt><trkpt lat="43.53766299149818" lon="10.312982273097667"><ele>16.6</ele><time>2026-04-25T08:38:14Z</time></trkpt><trkpt lat="43.53762994256169" lon="10.313070745686359"><ele>16.2</ele><time>2026-04-25T08:38:15Z</time></trkpt><trkpt lat="43.53760683529376" lon="10.313164386975492"><ele>15.8</ele><time>2026-04-25T08:38:16Z</time></trkpt><trkpt lat="43.53761927607726" lon="10.313297768893019"><ele>15.4</ele><time>2026-04-25T08:38:18Z</time></trkpt><trkpt lat="43.537642287106344" lon="10.313385600770626"><ele>15.0</ele><time>2026-04-25T08:38:23Z</time></trkpt><trkpt lat="43.537496680673094" lon="10.313496724371593"><ele>15.0</ele><time>2026-04-25T08:38:28Z</time></trkpt><trkpt lat="43.53743894171245" lon="10.313531369377305"><ele>15.0</ele><time>2026-04-25T08:38:30Z</time></trkpt><trkpt lat="43.537351015732085" lon="10.313549500106408"><ele>15.0</ele><time>2026-04-25T08:38:32Z</time></trkpt><trkpt lat="43.53725136655452" lon="10.313548830310957"><ele>15.0</ele><time>2026-04-25T08:38:34Z</time></trkpt><trkpt lat="43.537168226379045" lon="10.31355300169373"><ele>15.0</ele><time>2026-04-25T08:38:36Z</time></trkpt><trkpt lat="43.53708741666184" lon="10.313579082528799"><ele>15.0</ele><time>2026-04-25T08:38:39Z</time></trkpt><trkpt lat="43.537012885280255" lon="10.313586141945365"><ele>14.4</ele><time>2026-04-25T08:39:10Z</time></trkpt><trkpt lat="43.53694011756448" lon="10.313577160764778"><ele>13.8</ele><time>2026-04-25T08:39:12Z</time></trkpt><trkpt lat="43.53685077206301" lon="10.313601796118387"><ele>13.2</ele><time>2026-04-25T08:39:14Z</time></trkpt><trkpt lat="43.53674171865779" lon="10.313624119043817"><ele>12.6</ele><time>2026-04-25T08:39:16Z</time></trkpt><trkpt lat="43.53663183243093" lon="10.313669090697346"><ele>12.0</ele><time>2026-04-25T08:39:18Z</time></trkpt><trkpt lat="43.536516300874645" lon="10.31372804510819"><ele>12.0</ele><time>2026-04-25T08:39:20Z</time></trkpt><trkpt lat="43.53645407686349" lon="10.313753247284843"><ele>12.0</ele><time>2026-04-25T08:39:21Z</time></trkpt><trkpt lat="43.53633918813015" lon="10.31380248556201"><ele>12.0</ele><time>2026-04-25T08:39:23Z</time></trkpt><trkpt lat="43.53621948272918" lon="10.313856363873963"><ele>12.0</ele><time>2026-04-25T08:39:25Z</time></trkpt><trkpt lat="43.5361040567713" lon="10.31391089995148"><ele>12.0</ele><time>2026-04-25T08:39:27Z</time></trkpt><trkpt lat="43.53600152509711" lon="10.313986615439216"><ele>12.5</ele><time>2026-04-25T08:39:29Z</time></trkpt><trkpt lat="43.535912227634505" lon="10.314092315822801"><ele>13.0</ele><time>2026-04-25T08:39:31Z</time></trkpt><trkpt lat="43.535823020891954" lon="10.314198065900165"><ele>13.5</ele><time>2026-04-25T08:39:33Z</time></trkpt><trkpt lat="43.5357352468813" lon="10.314299622321078"><ele>14.0</ele><time>2026-04-25T08:39:35Z</time></trkpt><trkpt lat="43.53565027760737" lon="10.314415878901798"><ele>14.0</ele><time>2026-04-25T08:39:37Z</time></trkpt><trkpt lat="43.53555620566441" lon="10.314515053224184"><ele>13.999999999999998</ele><time>2026-04-25T08:39:39Z</time></trkpt><trkpt lat="43.53546337674471" lon="10.314618810881054"><ele>13.999999999999998</ele><time>2026-04-25T08:39:41Z</time></trkpt><trkpt lat="43.53542149784896" lon="10.314684810650245"><ele>14.0</ele><time>2026-04-25T08:39:42Z</time></trkpt><trkpt lat="43.53532584686027" lon="10.314771464561185"><ele>14.0</ele><time>2026-04-25T08:39:44Z</time></trkpt><trkpt lat="43.53523147309498" lon="10.314885547254196"><ele>14.5</ele><time>2026-04-25T08:39:46Z</time></trkpt><trkpt lat="43.53513668476766" lon="10.314986822875309"><ele>15.0</ele><time>2026-04-25T08:39:48Z</time></trkpt><trkpt lat="43.535034473050835" lon="10.315081712524748"><ele>15.5</ele><time>2026-04-25T08:39:50Z</time></trkpt><trkpt lat="43.53492672194192" lon="10.315162338026823"><ele>16.0</ele><time>2026-04-25T08:39:52Z</time></trkpt><trkpt lat="43.53482687392962" lon="10.315269001478198"><ele>16.0</ele><time>2026-04-25T08:39:54Z</time></trkpt><trkpt lat="43.534734445303336" lon="10.315379431085553"><ele>16.0</ele><time>2026-04-25T08:39:56Z</time></trkpt><trkpt lat="43.53463483762496" lon="10.315487614704963"><ele>16.0</ele><time>2026-04-25T08:39:58Z</time></trkpt><trkpt lat="43.53458679108863" lon="10.315550283935444"><ele>16.0</ele><time>2026-04-25T08:39:59Z</time></trkpt><trkpt lat="43.53448457248625" lon="10.315654648785074"><ele>16.0</ele><time>2026-04-25T08:40:01Z</time></trkpt><trkpt lat="43.53438086124554" lon="10.315756304219999"><ele>15.4</ele><time>2026-04-25T08:40:03Z</time></trkpt><trkpt lat="43.53427528979475" lon="10.31585699179225"><ele>14.8</ele><time>2026-04-25T08:40:05Z</time></trkpt><trkpt lat="43.53416467060293" lon="10.31593769705542"><ele>14.200000000000001</ele><time>2026-04-25T08:40:07Z</time></trkpt><trkpt lat="43.53411095743303" lon="10.31598511103553"><ele>13.600000000000001</ele><time>2026-04-25T08:40:08Z</time></trkpt><trkpt lat="43.53401944131284" lon="10.316081143162823"><ele>13.0</ele><time>2026-04-25T08:40:10Z</time></trkpt><trkpt lat="43.53391120872949" lon="10.31616670339915"><ele>13.0</ele><time>2026-04-25T08:40:12Z</time></trkpt><trkpt lat="43.53380579614307" lon="10.31624972299193"><ele>13.0</ele><time>2026-04-25T08:40:14Z</time></trkpt><trkpt lat="43.5337472951515" lon="10.316289644300891"><ele>13.0</ele><time>2026-04-25T08:40:15Z</time></trkpt><trkpt lat="43.53368859895154" lon="10.316322566347699"><ele>13.0</ele><time>2026-04-25T08:40:16Z</time></trkpt><trkpt lat="43.53363212936403" lon="10.31636130061209"><ele>13.0</ele><time>2026-04-25T08:40:17Z</time></trkpt><trkpt lat="43.53357611148179" lon="10.316402717989115"><ele>13.0</ele><time>2026-04-25T08:40:18Z</time></trkpt><trkpt lat="43.533521332835136" lon="10.31644620729957"><ele>13.0</ele><time>2026-04-25T08:40:19Z</time></trkpt><trkpt lat="43.53340764364178" lon="10.316518220747056"><ele>13.25</ele><time>2026-04-25T08:40:21Z</time></trkpt><trkpt lat="43.5332949876445" lon="10.316593335400462"><ele>13.5</ele><time>2026-04-25T08:40:23Z</time></trkpt><trkpt lat="43.533191843901136" lon="10.316686650000936"><ele>13.75</ele><time>2026-04-25T08:40:25Z</time></trkpt><trkpt lat="43.53308219183646" lon="10.316752868052573"><ele>14.0</ele><time>2026-04-25T08:40:27Z</time></trkpt><trkpt lat="43.53296574103587" lon="10.316826926171744"><ele>14.000000000000002</ele><time>2026-04-25T08:40:29Z</time></trkpt><trkpt lat="43.53291002767587" lon="10.31687652895478"><ele>14.0</ele><time>2026-04-25T08:40:30Z</time></trkpt><trkpt lat="43.53279955606178" lon="10.316952843844124"><ele>14.0</ele><time>2026-04-25T08:40:32Z</time></trkpt><trkpt lat="43.53274329606263" lon="10.316992720752921"><ele>14.0</ele><time>2026-04-25T08:40:33Z</time></trkpt><trkpt lat="43.5326842058419" lon="10.31702883571634"><ele>14.000000000000002</ele><time>2026-04-25T08:40:34Z</time></trkpt><trkpt lat="43.53262199501599" lon="10.31706214841258"><ele>14.0</ele><time>2026-04-25T08:40:35Z</time></trkpt><trkpt lat="43.532509607578234" lon="10.31714464072658"><ele>14.000000000000002</ele><time>2026-04-25T08:40:37Z</time></trkpt><trkpt lat="43.53245247421097" lon="10.317186233317354"><ele>14.0</ele><time>2026-04-25T08:40:38Z</time></trkpt><trkpt lat="43.532394988156284" lon="10.317224851875002"><ele>14.0</ele><time>2026-04-25T08:40:39Z</time></trkpt><trkpt lat="43.53228645116294" lon="10.317295988794667"><ele>14.0</ele><time>2026-04-25T08:40:41Z</time></trkpt><trkpt lat="43.53222764786356" lon="10.317329399658778"><ele>14.000000000000002</ele><time>2026-04-25T08:40:42Z</time></trkpt><trkpt lat="43.53211610360535" lon="10.317403307298946"><ele>14.0</ele><time>2026-04-25T08:40:44Z</time></trkpt><trkpt lat="43.53201748609369" lon="10.317487078969576"><ele>13.333333333333334</ele><time>2026-04-25T08:40:46Z</time></trkpt><trkpt lat="43.53193207920238" lon="10.317555859942624"><ele>12.666666666666668</ele><time>2026-04-25T08:40:48Z</time></trkpt><trkpt lat="43.53187272102242" lon="10.317609196935875"><ele>12.0</ele><time>2026-04-25T08:40:51Z</time></trkpt><trkpt lat="43.5318101141553" lon="10.317630085418983"><ele>11.333333333333334</ele><time>2026-04-25T08:40:54Z</time></trkpt><trkpt lat="43.5317517975376" lon="10.317669415232583"><ele>10.666666666666668</ele><time>2026-04-25T08:40:57Z</time></trkpt><trkpt lat="43.53167766381024" lon="10.317683700095433"><ele>10.0</ele><time>2026-04-25T08:41:00Z</time></trkpt><trkpt lat="43.53162490337772" lon="10.317576940420105"><ele>10.0</ele><time>2026-04-25T08:41:02Z</time></trkpt><trkpt lat="43.53159974291552" lon="10.31743627779509"><ele>10.0</ele><time>2026-04-25T08:41:04Z</time></trkpt><trkpt lat="43.53154987382747" lon="10.317288327955199"><ele>10.0</ele><time>2026-04-25T08:41:06Z</time></trkpt><trkpt lat="43.53150263289994" lon="10.317137977639574"><ele>10.0</ele><time>2026-04-25T08:41:08Z</time></trkpt><trkpt lat="43.53147913774887" lon="10.317057072294263"><ele>10.0</ele><time>2026-04-25T08:41:09Z</time></trkpt><trkpt lat="43.531435589873695" lon="10.316896124141016"><ele>10.833333333333334</ele><time>2026-04-25T08:41:11Z</time></trkpt><trkpt lat="43.53140816409121" lon="10.316816124798384"><ele>11.666666666666668</ele><time>2026-04-25T08:41:12Z</time></trkpt><trkpt lat="43.53135762827345" lon="10.316665288753168"><ele>12.5</ele><time>2026-04-25T08:41:14Z</time></trkpt><trkpt lat="43.531334287792994" lon="10.31658355868175"><ele>13.333333333333334</ele><time>2026-04-25T08:41:15Z</time></trkpt><trkpt lat="43.53131228759552" lon="10.316499160889938"><ele>14.166666666666666</ele><time>2026-04-25T08:41:16Z</time></trkpt><trkpt lat="43.53128331954109" lon="10.316421717032664"><ele>15.0</ele><time>2026-04-25T08:41:17Z</time></trkpt><trkpt lat="43.53121916147174" lon="10.316276733668037"><ele>15.0</ele><time>2026-04-25T08:41:19Z</time></trkpt><trkpt lat="43.53117498575805" lon="10.316213666947695"><ele>15.0</ele><time>2026-04-25T08:41:20Z</time></trkpt><trkpt lat="43.53109415308111" lon="10.316084059971718"><ele>15.0</ele><time>2026-04-25T08:41:22Z</time></trkpt><trkpt lat="43.53101907712183" lon="10.315943568332552"><ele>15.0</ele><time>2026-04-25T08:41:24Z</time></trkpt><trkpt lat="43.530983899551515" lon="10.315868872045241"><ele>15.0</ele><time>2026-04-25T08:41:25Z</time></trkpt><trkpt lat="43.53093940533959" lon="10.315709525936766"><ele>15.0</ele><time>2026-04-25T08:41:27Z</time></trkpt><trkpt lat="43.530932743886154" lon="10.315622404678379"><ele>15.0</ele><time>2026-04-25T08:41:28Z</time></trkpt><trkpt lat="43.530890471027824" lon="10.31555012876165"><ele>15.0</ele><time>2026-04-25T08:41:29Z</time></trkpt><trkpt lat="43.53083523016694" lon="10.315502639166453"><ele>15.0</ele><time>2026-04-25T08:41:30Z</time></trkpt><trkpt lat="43.53073685378235" lon="10.315408903919185"><ele>15.0</ele><time>2026-04-25T08:41:32Z</time></trkpt><trkpt lat="43.530661303465074" lon="10.315271500621018"><ele>15.0</ele><time>2026-04-25T08:41:34Z</time></trkpt><trkpt lat="43.530624848448994" lon="10.315200289807063"><ele>14.6</ele><time>2026-04-25T08:41:35Z</time></trkpt><trkpt lat="43.530554701414545" lon="10.315060047107028"><ele>14.2</ele><time>2026-04-25T08:41:37Z</time></trkpt><trkpt lat="43.53048211381605" lon="10.314919856029867"><ele>13.8</ele><time>2026-04-25T08:41:39Z</time></trkpt><trkpt lat="43.530445772650076" lon="10.314848790337475"><ele>13.4</ele><time>2026-04-25T08:41:40Z</time></trkpt><trkpt lat="43.530409563255986" lon="10.314776368783194"><ele>13.0</ele><time>2026-04-25T08:41:41Z</time></trkpt><trkpt lat="43.530332240322025" lon="10.314641490902822"><ele>12.833333333333332</ele><time>2026-04-25T08:41:43Z</time></trkpt><trkpt lat="43.530292932163555" lon="10.314570361508322"><ele>12.666666666666666</ele><time>2026-04-25T08:41:44Z</time></trkpt><trkpt lat="43.530252747928515" lon="10.314500398016257"><ele>12.5</ele><time>2026-04-25T08:41:45Z</time></trkpt><trkpt lat="43.53021230545983" lon="10.31443058611078"><ele>12.333333333333332</ele><time>2026-04-25T08:41:46Z</time></trkpt><trkpt lat="43.53013495706445" lon="10.314287874758568"><ele>12.166666666666666</ele><time>2026-04-25T08:41:48Z</time></trkpt><trkpt lat="43.530092368092916" lon="10.314219739228724"><ele>12.0</ele><time>2026-04-25T08:41:49Z</time></trkpt><trkpt lat="43.53005731684812" lon="10.314144051467512"><ele>12.0</ele><time>2026-04-25T08:41:50Z</time></trkpt><trkpt lat="43.53002476491535" lon="10.314060817801591"><ele>12.0</ele><time>2026-04-25T08:41:51Z</time></trkpt><trkpt lat="43.52998741974154" lon="10.313988089454652"><ele>12.0</ele><time>2026-04-25T08:41:52Z</time></trkpt><trkpt lat="43.52990561747223" lon="10.313852160560119"><ele>12.0</ele><time>2026-04-25T08:41:54Z</time></trkpt><trkpt lat="43.52986761752589" lon="10.313777133400638"><ele>12.0</ele><time>2026-04-25T08:41:55Z</time></trkpt><trkpt lat="43.529830674802724" lon="10.31370117858065"><ele>12.0</ele><time>2026-04-25T08:41:56Z</time></trkpt><trkpt lat="43.5297934311996" lon="10.313625817524533"><ele>12.0</ele><time>2026-04-25T08:41:57Z</time></trkpt><trkpt lat="43.529760192971416" lon="10.313548293794318"><ele>12.0</ele><time>2026-04-25T08:41:58Z</time></trkpt><trkpt lat="43.529696908858625" lon="10.313395853233695"><ele>12.0</ele><time>2026-04-25T08:42:00Z</time></trkpt><trkpt lat="43.52966530331209" lon="10.313317037433674"><ele>12.0</ele><time>2026-04-25T08:42:01Z</time></trkpt><trkpt lat="43.52963343073962" lon="10.313239116402043"><ele>12.0</ele><time>2026-04-25T08:42:02Z</time></trkpt><trkpt lat="43.52959920153125" lon="10.313158925066697"><ele>12.0</ele><time>2026-04-25T08:42:03Z</time></trkpt><trkpt lat="43.52953065573816" lon="10.313012524645327"><ele>11.6</ele><time>2026-04-25T08:42:05Z</time></trkpt><trkpt lat="43.52949336995946" lon="10.31294183824695"><ele>11.2</ele><time>2026-04-25T08:42:06Z</time></trkpt><trkpt lat="43.529420595693345" lon="10.312801957609242"><ele>10.8</ele><time>2026-04-25T08:42:08Z</time></trkpt><trkpt lat="43.52934748459097" lon="10.31265832406463"><ele>10.4</ele><time>2026-04-25T08:42:10Z</time></trkpt><trkpt lat="43.5292701310316" lon="10.312520376450728"><ele>10.0</ele><time>2026-04-25T08:42:12Z</time></trkpt><trkpt lat="43.52920686300713" lon="10.31237438193546"><ele>10.0</ele><time>2026-04-25T08:42:14Z</time></trkpt><trkpt lat="43.52917042060758" lon="10.312300324275489"><ele>10.0</ele><time>2026-04-25T08:42:15Z</time></trkpt><trkpt lat="43.52909435767753" lon="10.312163996132798"><ele>10.0</ele><time>2026-04-25T08:42:17Z</time></trkpt><trkpt lat="43.52902332837928" lon="10.312017993128139"><ele>10.0</ele><time>2026-04-25T08:42:19Z</time></trkpt><trkpt lat="43.528988154358416" lon="10.311945799865198"><ele>10.0</ele><time>2026-04-25T08:42:20Z</time></trkpt><trkpt lat="43.52891895087004" lon="10.31180460955313"><ele>9.857142857142858</ele><time>2026-04-25T08:42:22Z</time></trkpt><trkpt lat="43.528878835736194" lon="10.311736291977633"><ele>9.714285714285715</ele><time>2026-04-25T08:42:23Z</time></trkpt><trkpt lat="43.52883937524336" lon="10.311664084512122"><ele>9.571428571428573</ele><time>2026-04-25T08:42:24Z</time></trkpt><trkpt lat="43.5287998241783" lon="10.311591462650266"><ele>9.428571428571429</ele><time>2026-04-25T08:42:25Z</time></trkpt><trkpt lat="43.52875800306712" lon="10.311520417404813"><ele>9.285714285714286</ele><time>2026-04-25T08:42:26Z</time></trkpt><trkpt lat="43.528718478418746" lon="10.311446850008313"><ele>9.142857142857144</ele><time>2026-04-25T08:42:27Z</time></trkpt><trkpt lat="43.52867924584585" lon="10.311372463936053"><ele>9.0</ele><time>2026-04-25T08:42:28Z</time></trkpt><trkpt lat="43.52864177945109" lon="10.311293868433813"><ele>8.833333333333334</ele><time>2026-04-25T08:42:29Z</time></trkpt><trkpt lat="43.528604171407345" lon="10.31121931947951"><ele>8.666666666666666</ele><time>2026-04-25T08:42:30Z</time></trkpt><trkpt lat="43.528566090246436" lon="10.311149482909384"><ele>8.5</ele><time>2026-04-25T08:42:31Z</time></trkpt><trkpt lat="43.52852607109797" lon="10.311076579634566"><ele>8.333333333333332</ele><time>2026-04-25T08:42:32Z</time></trkpt><trkpt lat="43.528488149658436" lon="10.31100174007183"><ele>8.166666666666666</ele><time>2026-04-25T08:42:33Z</time></trkpt><trkpt lat="43.52845626220539" lon="10.310922613543173"><ele>8.0</ele><time>2026-04-25T08:42:34Z</time></trkpt><trkpt lat="43.52839051761927" lon="10.310776934115188"><ele>8.0</ele><time>2026-04-25T08:42:36Z</time></trkpt><trkpt lat="43.52833005851175" lon="10.310628867481743"><ele>8.0</ele><time>2026-04-25T08:42:38Z</time></trkpt><trkpt lat="43.528303510411845" lon="10.31046408959026"><ele>8.0</ele><time>2026-04-25T08:42:40Z</time></trkpt><trkpt lat="43.52830464679472" lon="10.310313963695046"><ele>8.0</ele><time>2026-04-25T08:42:42Z</time></trkpt><trkpt lat="43.528288351180436" lon="10.310177066276921"><ele>8.0</ele><time>2026-04-25T08:42:44Z</time></trkpt><trkpt lat="43.52834442214181" lon="10.310086678376337"><ele>8.0</ele><time>2026-04-25T08:42:46Z</time></trkpt><trkpt lat="43.528378679519555" lon="10.309985977501071"><ele>8.0</ele><time>2026-04-25T08:42:48Z</time></trkpt><trkpt lat="43.5283739363427" lon="10.30986515778294"><ele>8.0</ele><time>2026-04-25T08:42:50Z</time></trkpt><trkpt lat="43.528290995614356" lon="10.309791475350991"><ele>8.0</ele><time>2026-04-25T08:42:52Z</time></trkpt><trkpt lat="43.52817244493416" lon="10.309811557787382"><ele>8.0</ele><time>2026-04-25T08:42:54Z</time></trkpt><trkpt lat="43.528065925361965" lon="10.309875620436257"><ele>8.0</ele><time>2026-04-25T08:42:56Z</time></trkpt><trkpt lat="43.527950837516975" lon="10.309916687766266"><ele>8.0</ele><time>2026-04-25T08:42:58Z</time></trkpt><trkpt lat="43.5278360420444" lon="10.309949899153782"><ele>8.0</ele><time>2026-04-25T08:43:00Z</time></trkpt><trkpt lat="43.52771612715327" lon="10.309957010457074"><ele>7.4</ele><time>2026-04-25T08:43:02Z</time></trkpt><trkpt lat="43.52760140661742" lon="10.310011959083514"><ele>6.800000000000001</ele><time>2026-04-25T08:43:04Z</time></trkpt><trkpt lat="43.5274811900678" lon="10.31005336740149"><ele>6.2</ele><time>2026-04-25T08:43:06Z</time></trkpt><trkpt lat="43.52736238971563" lon="10.310076755966012"><ele>5.6</ele><time>2026-04-25T08:43:08Z</time></trkpt><trkpt lat="43.52730013560443" lon="10.310099936920425"><ele>5.0</ele><time>2026-04-25T08:43:09Z</time></trkpt><trkpt lat="43.52718249719412" lon="10.310136878244318"><ele>5.0</ele><time>2026-04-25T08:43:11Z</time></trkpt><trkpt lat="43.527066772319635" lon="10.310175116763181"><ele>5.0</ele><time>2026-04-25T08:43:13Z</time></trkpt><trkpt lat="43.526947722348176" lon="10.310210400937612"><ele>5.0</ele><time>2026-04-25T08:43:15Z</time></trkpt><trkpt lat="43.526829642472535" lon="10.310243088077502"><ele>5.0</ele><time>2026-04-25T08:43:17Z</time></trkpt><trkpt lat="43.526712423344335" lon="10.310275990966014"><ele>5.75</ele><time>2026-04-25T08:43:19Z</time></trkpt><trkpt lat="43.5265924371705" lon="10.310302759992611"><ele>6.5</ele><time>2026-04-25T08:43:20.999Z</time></trkpt><trkpt lat="43.526474013286276" lon="10.310332527302418"><ele>7.25</ele><time>2026-04-25T08:43:22.999Z</time></trkpt><trkpt lat="43.52635566929011" lon="10.310360048837037"><ele>8.0</ele><time>2026-04-25T08:43:24.999Z</time></trkpt><trkpt lat="43.52623356583869" lon="10.310387044071977"><ele>7.75</ele><time>2026-04-25T08:43:26.999Z</time></trkpt><trkpt lat="43.52611046671018" lon="10.31041436254039"><ele>7.5</ele><time>2026-04-25T08:43:29Z</time></trkpt><trkpt lat="43.525991294866046" lon="10.310448483429452"><ele>7.25</ele><time>2026-04-25T08:43:31Z</time></trkpt><trkpt lat="43.52586819650836" lon="10.310477975254084"><ele>7.0</ele><time>2026-04-25T08:43:33Z</time></trkpt><trkpt lat="43.52574300554561" lon="10.3105075634307"><ele>7.0</ele><time>2026-04-25T08:43:35Z</time></trkpt><trkpt lat="43.52562071752246" lon="10.310543517414077"><ele>7.0</ele><time>2026-04-25T08:43:37Z</time></trkpt><trkpt lat="43.525499336050274" lon="10.310571217260108"><ele>7.0</ele><time>2026-04-25T08:43:39Z</time></trkpt><trkpt lat="43.5253722910978" lon="10.31060231077253"><ele>7.0</ele><time>2026-04-25T08:43:41Z</time></trkpt><trkpt lat="43.52525039702421" lon="10.310618656389236"><ele>7.25</ele><time>2026-04-25T08:43:43Z</time></trkpt><trkpt lat="43.52512858793072" lon="10.310651259639014"><ele>7.5</ele><time>2026-04-25T08:43:45Z</time></trkpt><trkpt lat="43.525006425509666" lon="10.310688963760706"><ele>7.75</ele><time>2026-04-25T08:43:47Z</time></trkpt><trkpt lat="43.52488343500312" lon="10.310718449554834"><ele>8.0</ele><time>2026-04-25T08:43:49Z</time></trkpt><trkpt lat="43.524762413162875" lon="10.310747042280179"><ele>8.0</ele><time>2026-04-25T08:43:51Z</time></trkpt><trkpt lat="43.52464302468332" lon="10.310782216564519"><ele>8.0</ele><time>2026-04-25T08:43:53Z</time></trkpt><trkpt lat="43.52452394673346" lon="10.310799155776596"><ele>8.0</ele><time>2026-04-25T08:43:55Z</time></trkpt><trkpt lat="43.52440296546797" lon="10.310815463234919"><ele>8.0</ele><time>2026-04-25T08:43:57Z</time></trkpt><trkpt lat="43.52428331465607" lon="10.310848986228512"><ele>7.666666666666666</ele><time>2026-04-25T08:43:59Z</time></trkpt><trkpt lat="43.52422102356326" lon="10.310875291139308"><ele>7.333333333333333</ele><time>2026-04-25T08:44:00Z</time></trkpt><trkpt lat="43.52415930533808" lon="10.310892807988338"><ele>7.0</ele><time>2026-04-25T08:44:01Z</time></trkpt><trkpt lat="43.52403786760218" lon="10.310917869853062"><ele>6.666666666666666</ele><time>2026-04-25T08:44:03Z</time></trkpt><trkpt lat="43.52391455293955" lon="10.310947788894476"><ele>6.333333333333333</ele><time>2026-04-25T08:44:05Z</time></trkpt><trkpt lat="43.523849343348786" lon="10.310962434295398"><ele>6.0</ele><time>2026-04-25T08:44:06Z</time></trkpt><trkpt lat="43.52378538988064" lon="10.310975934661439"><ele>5.666666666666667</ele><time>2026-04-25T08:44:07Z</time></trkpt><trkpt lat="43.52372088403354" lon="10.310994807902109"><ele>5.333333333333333</ele><time>2026-04-25T08:44:08Z</time></trkpt><trkpt lat="43.52365665035119" lon="10.311012209538777"><ele>5.0</ele><time>2026-04-25T08:44:09Z</time></trkpt><trkpt lat="43.52359151912444" lon="10.311022465401681"><ele>4.666666666666666</ele><time>2026-04-25T08:44:10Z</time></trkpt><trkpt lat="43.52346156797234" lon="10.31105414437807"><ele>4.333333333333333</ele><time>2026-04-25T08:44:12Z</time></trkpt><trkpt lat="43.52339832492462" lon="10.311068476087438"><ele>4.0</ele><time>2026-04-25T08:44:13Z</time></trkpt><trkpt lat="43.52333084336091" lon="10.31108415964893"><ele>4.0</ele><time>2026-04-25T08:44:14Z</time></trkpt><trkpt lat="43.5232649909147" lon="10.311102826385607"><ele>4.0</ele><time>2026-04-25T08:44:15Z</time></trkpt><trkpt lat="43.52313920960152" lon="10.311130301801912"><ele>4.0</ele><time>2026-04-25T08:44:17Z</time></trkpt><trkpt lat="43.52307511975313" lon="10.31114534089548"><ele>4.0</ele><time>2026-04-25T08:44:18Z</time></trkpt><trkpt lat="43.523010584369715" lon="10.311161924716124"><ele>4.0</ele><time>2026-04-25T08:44:19Z</time></trkpt><trkpt lat="43.5228854908641" lon="10.311191598086916"><ele>3.6666666666666665</ele><time>2026-04-25T08:44:21Z</time></trkpt><trkpt lat="43.522819373809206" lon="10.311208411360216"><ele>3.333333333333333</ele><time>2026-04-25T08:44:22Z</time></trkpt><trkpt lat="43.5227549064629" lon="10.311221193825268"><ele>3.0</ele><time>2026-04-25T08:44:23Z</time></trkpt><trkpt lat="43.52269174674745" lon="10.31123607597648"><ele>2.6666666666666665</ele><time>2026-04-25T08:44:24Z</time></trkpt><trkpt lat="43.52262891580344" lon="10.311256048100324"><ele>2.333333333333333</ele><time>2026-04-25T08:44:25Z</time></trkpt><trkpt lat="43.522500739284446" lon="10.311289423010258"><ele>2.0</ele><time>2026-04-25T08:44:27Z</time></trkpt><trkpt lat="43.52243796212919" lon="10.311307506670568"><ele>2.0</ele><time>2026-04-25T08:44:28Z</time></trkpt><trkpt lat="43.52237337464475" lon="10.311319102255704"><ele>1.9999999999999998</ele><time>2026-04-25T08:44:29Z</time></trkpt><trkpt lat="43.52230860032214" lon="10.311330646699378"><ele>2.0</ele><time>2026-04-25T08:44:30Z</time></trkpt><trkpt lat="43.522245742081175" lon="10.311347078123912"><ele>2.0</ele><time>2026-04-25T08:44:31Z</time></trkpt><trkpt lat="43.522183329745914" lon="10.311369724589978"><ele>1.9999999999999998</ele><time>2026-04-25T08:44:32Z</time></trkpt><trkpt lat="43.522118601162994" lon="10.31139975172055"><ele>2.0</ele><time>2026-04-25T08:44:33Z</time></trkpt><trkpt lat="43.522054670711974" lon="10.311423742007614"><ele>2.0</ele><time>2026-04-25T08:44:34Z</time></trkpt><trkpt lat="43.52199162168559" lon="10.311444054570249"><ele>2.2</ele><time>2026-04-25T08:44:35Z</time></trkpt><trkpt lat="43.52192798695551" lon="10.31146389549321"><ele>2.4000000000000004</ele><time>2026-04-25T08:44:36Z</time></trkpt><trkpt lat="43.52186618543477" lon="10.311483901985648"><ele>2.5999999999999996</ele><time>2026-04-25T08:44:37Z</time></trkpt><trkpt lat="43.52174946817628" lon="10.3115400881353"><ele>2.8</ele><time>2026-04-25T08:44:39Z</time></trkpt><trkpt lat="43.52163706540902" lon="10.311589677584795"><ele>3.0</ele><time>2026-04-25T08:44:41Z</time></trkpt><trkpt lat="43.52152916094533" lon="10.311649047472244"><ele>3.0</ele><time>2026-04-25T08:44:43Z</time></trkpt><trkpt lat="43.52142307193031" lon="10.31171310413781"><ele>3.0</ele><time>2026-04-25T08:44:45Z</time></trkpt><trkpt lat="43.521323998479666" lon="10.311789068152711"><ele>3.0</ele><time>2026-04-25T08:44:47Z</time></trkpt><trkpt lat="43.521227386731134" lon="10.311871812245418"><ele>3.0</ele><time>2026-04-25T08:44:49Z</time></trkpt><trkpt lat="43.52113568638548" lon="10.311960175112596"><ele>2.8333333333333335</ele><time>2026-04-25T08:44:51Z</time></trkpt><trkpt lat="43.521039791506965" lon="10.31206229202917"><ele>2.6666666666666665</ele><time>2026-04-25T08:44:53Z</time></trkpt><trkpt lat="43.5209460784446" lon="10.312173510985769"><ele>2.5</ele><time>2026-04-25T08:44:55Z</time></trkpt><trkpt lat="43.52089840166635" lon="10.31223168738695"><ele>2.333333333333333</ele><time>2026-04-25T08:44:56Z</time></trkpt><trkpt lat="43.52085148799865" lon="10.312291620451894"><ele>2.1666666666666665</ele><time>2026-04-25T08:44:57Z</time></trkpt><trkpt lat="43.520807648563526" lon="10.31235658538233"><ele>2.0</ele><time>2026-04-25T08:44:58Z</time></trkpt><trkpt lat="43.5207644057232" lon="10.312424136487971"><ele>1.9999999999999998</ele><time>2026-04-25T08:44:59Z</time></trkpt><trkpt lat="43.520722619929046" lon="10.312492165711713"><ele>2.0</ele><time>2026-04-25T08:45:00Z</time></trkpt><trkpt lat="43.52068224300199" lon="10.312563109136326"><ele>2.0</ele><time>2026-04-25T08:45:01Z</time></trkpt><trkpt lat="43.52064200606803" lon="10.31263143015575"><ele>2.0</ele><time>2026-04-25T08:45:02Z</time></trkpt><trkpt lat="43.52060050589117" lon="10.312706421503385"><ele>1.9999999999999998</ele><time>2026-04-25T08:45:03Z</time></trkpt><trkpt lat="43.5205229253143" lon="10.312847211877394"><ele>2.0</ele><time>2026-04-25T08:45:05Z</time></trkpt><trkpt lat="43.52048174183078" lon="10.312914013201212"><ele>2.0</ele><time>2026-04-25T08:45:06Z</time></trkpt><trkpt lat="43.5204429724083" lon="10.31298631787582"><ele>1.9999999999999998</ele><time>2026-04-25T08:45:07Z</time></trkpt><trkpt lat="43.52040520303028" lon="10.313058238774317"><ele>2.0</ele><time>2026-04-25T08:45:08Z</time></trkpt><trkpt lat="43.520366036052856" lon="10.313128410737505"><ele>2.0</ele><time>2026-04-25T08:45:09Z</time></trkpt><trkpt lat="43.520325784301356" lon="10.31319688134058"><ele>1.9999999999999998</ele><time>2026-04-25T08:45:10Z</time></trkpt><trkpt lat="43.52028739172234" lon="10.313269872435662"><ele>2.0</ele><time>2026-04-25T08:45:11Z</time></trkpt><trkpt lat="43.5202486154261" lon="10.313338834909532"><ele>2.0</ele><time>2026-04-25T08:45:12Z</time></trkpt><trkpt lat="43.520204190256294" lon="10.313406935783592"><ele>2.0</ele><time>2026-04-25T08:45:13Z</time></trkpt><trkpt lat="43.52012703667905" lon="10.313541597477196"><ele>2.0</ele><time>2026-04-25T08:45:15Z</time></trkpt><trkpt lat="43.52005082669373" lon="10.313682060764041"><ele>2.0</ele><time>2026-04-25T08:45:17Z</time></trkpt><trkpt lat="43.51997695912159" lon="10.31382417378581"><ele>2.0</ele><time>2026-04-25T08:45:19Z</time></trkpt><trkpt lat="43.51990038242758" lon="10.31396066154288"><ele>2.8</ele><time>2026-04-25T08:45:21Z</time></trkpt><trkpt lat="43.51982735809306" lon="10.31409037272998"><ele>3.6</ele><time>2026-04-25T08:45:23Z</time></trkpt><trkpt lat="43.51975497655796" lon="10.314221006131273"><ele>4.3999999999999995</ele><time>2026-04-25T08:45:25Z</time></trkpt><trkpt lat="43.51968394820672" lon="10.31434906363442"><ele>5.2</ele><time>2026-04-25T08:45:27Z</time></trkpt><trkpt lat="43.51964702349148" lon="10.314425778868314"><ele>6.0</ele><time>2026-04-25T08:45:28Z</time></trkpt><trkpt lat="43.51960371027175" lon="10.314497932005162"><ele>5.571428571428571</ele><time>2026-04-25T08:45:29Z</time></trkpt><trkpt lat="43.51956584024765" lon="10.314567380349331"><ele>5.142857142857142</ele><time>2026-04-25T08:45:30Z</time></trkpt><trkpt lat="43.519525068313435" lon="10.314634141134537"><ele>4.7142857142857135</ele><time>2026-04-25T08:45:31Z</time></trkpt><trkpt lat="43.51945392878791" lon="10.314772955026152"><ele>4.285714285714286</ele><time>2026-04-25T08:45:33Z</time></trkpt><trkpt lat="43.51941279254899" lon="10.31484261015024"><ele>3.8571428571428568</ele><time>2026-04-25T08:45:34Z</time></trkpt><trkpt lat="43.51937195613439" lon="10.314914957602593"><ele>3.4285714285714284</ele><time>2026-04-25T08:45:35Z</time></trkpt><trkpt lat="43.519332628052425" lon="10.314984579701475"><ele>3.0</ele><time>2026-04-25T08:45:36Z</time></trkpt><trkpt lat="43.51929155369046" lon="10.315055027244396"><ele>3.0</ele><time>2026-04-25T08:45:37Z</time></trkpt><trkpt lat="43.519215165343205" lon="10.315198415777463"><ele>3.0</ele><time>2026-04-25T08:45:39Z</time></trkpt><trkpt lat="43.51917909450047" lon="10.315279232473397"><ele>3.0</ele><time>2026-04-25T08:45:40Z</time></trkpt><trkpt lat="43.5191022883705" lon="10.315409613747375"><ele>3.0</ele><time>2026-04-25T08:45:42Z</time></trkpt><trkpt lat="43.51901687739142" lon="10.315536718683177"><ele>3.0</ele><time>2026-04-25T08:45:44Z</time></trkpt><trkpt lat="43.51893195713606" lon="10.315665572933403"><ele>2.6</ele><time>2026-04-25T08:45:46Z</time></trkpt><trkpt lat="43.518856426656555" lon="10.315809201812371"><ele>2.1999999999999997</ele><time>2026-04-25T08:45:48Z</time></trkpt><trkpt lat="43.51882277326589" lon="10.315884982754818"><ele>1.8</ele><time>2026-04-25T08:45:49Z</time></trkpt><trkpt lat="43.51874644915569" lon="10.31601677198042"><ele>1.4</ele><time>2026-04-25T08:45:51Z</time></trkpt><trkpt lat="43.51866396981191" lon="10.316148564849133"><ele>1.0</ele><time>2026-04-25T08:45:53Z</time></trkpt><trkpt lat="43.518618976024634" lon="10.3162156463849"><ele>1.0</ele><time>2026-04-25T08:45:54Z</time></trkpt><trkpt lat="43.51856812748574" lon="10.316279611598196"><ele>0.9999999999999999</ele><time>2026-04-25T08:45:55Z</time></trkpt><trkpt lat="43.51851091577717" lon="10.31632505658371"><ele>1.0</ele><time>2026-04-25T08:45:56Z</time></trkpt><trkpt lat="43.518450660100754" lon="10.316364052538978"><ele>1.0</ele><time>2026-04-25T08:45:57Z</time></trkpt><trkpt lat="43.5183922490105" lon="10.316404488319767"><ele>0.9999999999999999</ele><time>2026-04-25T08:45:58Z</time></trkpt><trkpt lat="43.51832968115419" lon="10.31643360303779"><ele>1.0</ele><time>2026-04-25T08:45:59Z</time></trkpt><trkpt lat="43.5182671341195" lon="10.316450067277644"><ele>1.0</ele><time>2026-04-25T08:46:00Z</time></trkpt><trkpt lat="43.51820137298363" lon="10.316469161615853"><ele>1.2000000000000002</ele><time>2026-04-25T08:46:01Z</time></trkpt><trkpt lat="43.51807752471746" lon="10.316493554413569"><ele>1.4000000000000001</ele><time>2026-04-25T08:46:03Z</time></trkpt><trkpt lat="43.51801501142975" lon="10.316506045248559"><ele>1.6</ele><time>2026-04-25T08:46:04Z</time></trkpt><trkpt lat="43.517893349350565" lon="10.316534582688359"><ele>1.8</ele><time>2026-04-25T08:46:06Z</time></trkpt><trkpt lat="43.51777167553109" lon="10.316558006457115"><ele>2.0</ele><time>2026-04-25T08:46:08Z</time></trkpt><trkpt lat="43.51764734177251" lon="10.316586214070002"><ele>1.9999999999999998</ele><time>2026-04-25T08:46:10Z</time></trkpt><trkpt lat="43.51758470802231" lon="10.31660263995243"><ele>2.0</ele><time>2026-04-25T08:46:11Z</time></trkpt><trkpt lat="43.517463149641955" lon="10.316642348845733"><ele>2.0</ele><time>2026-04-25T08:46:13Z</time></trkpt><trkpt lat="43.517399590980865" lon="10.31665775214854"><ele>2.0</ele><time>2026-04-25T08:46:14Z</time></trkpt><trkpt lat="43.51733137894769" lon="10.316650608173864"><ele>1.9999999999999998</ele><time>2026-04-25T08:46:15Z</time></trkpt><trkpt lat="43.51726665461931" lon="10.31666236230218"><ele>2.0</ele><time>2026-04-25T08:46:16Z</time></trkpt><trkpt lat="43.51720147887695" lon="10.316689852039275"><ele>2.0</ele><time>2026-04-25T08:46:17Z</time></trkpt><trkpt lat="43.51713262605996" lon="10.316694800766266"><ele>1.9999999999999998</ele><time>2026-04-25T08:46:18Z</time></trkpt><trkpt lat="43.51706441598575" lon="10.316695104834038"><ele>2.0</ele><time>2026-04-25T08:46:19Z</time></trkpt><trkpt lat="43.516997136949044" lon="10.316698476317722"><ele>2.0</ele><time>2026-04-25T08:46:20Z</time></trkpt><trkpt lat="43.516928836686596" lon="10.316712731039646"><ele>1.9999999999999998</ele><time>2026-04-25T08:46:21Z</time></trkpt><trkpt lat="43.51686206705304" lon="10.316729028664035"><ele>2.0</ele><time>2026-04-25T08:46:22Z</time></trkpt><trkpt lat="43.51679278104818" lon="10.316742834755605"><ele>2.0</ele><time>2026-04-25T08:46:23Z</time></trkpt><trkpt lat="43.516725318238734" lon="10.316756869723905"><ele>2.142857142857143</ele><time>2026-04-25T08:46:24Z</time></trkpt><trkpt lat="43.51665657464431" lon="10.316774718651775"><ele>2.2857142857142856</ele><time>2026-04-25T08:46:25Z</time></trkpt><trkpt lat="43.51658985847898" lon="10.316791166190589"><ele>2.4285714285714284</ele><time>2026-04-25T08:46:26Z</time></trkpt><trkpt lat="43.51652123849763" lon="10.316803732811115"><ele>2.571428571428571</ele><time>2026-04-25T08:46:27Z</time></trkpt><trkpt lat="43.516455229394474" lon="10.316814996849764"><ele>2.7142857142857144</ele><time>2026-04-25T08:46:28Z</time></trkpt><trkpt lat="43.516388327828984" lon="10.316828323071132"><ele>2.8571428571428568</ele><time>2026-04-25T08:46:29Z</time></trkpt><trkpt lat="43.51632237472631" lon="10.316843621893552"><ele>3.0</ele><time>2026-04-25T08:46:30Z</time></trkpt><trkpt lat="43.51625595941496" lon="10.316854347597108"><ele>2.8571428571428568</ele><time>2026-04-25T08:46:31Z</time></trkpt><trkpt lat="43.51619031197856" lon="10.31686553119774"><ele>2.7142857142857144</ele><time>2026-04-25T08:46:32Z</time></trkpt><trkpt lat="43.516125467092635" lon="10.316880592546111"><ele>2.571428571428571</ele><time>2026-04-25T08:46:33Z</time></trkpt><trkpt lat="43.51606188907247" lon="10.316892551744079"><ele>2.4285714285714284</ele><time>2026-04-25T08:46:34Z</time></trkpt><trkpt lat="43.51599728787132" lon="10.316908977715755"><ele>2.2857142857142856</ele><time>2026-04-25T08:46:35Z</time></trkpt><trkpt lat="43.51593476216928" lon="10.316919425319396"><ele>2.142857142857143</ele><time>2026-04-25T08:46:36Z</time></trkpt><trkpt lat="43.515871401461204" lon="10.316929527289215"><ele>2.0</ele><time>2026-04-25T08:46:37Z</time></trkpt><trkpt lat="43.515807630797276" lon="10.316938408458551"><ele>1.9999999999999998</ele><time>2026-04-25T08:46:38Z</time></trkpt><trkpt lat="43.51574393267648" lon="10.316948162910869"><ele>2.0</ele><time>2026-04-25T08:46:39Z</time></trkpt><trkpt lat="43.515680200498196" lon="10.316961535555501"><ele>2.0</ele><time>2026-04-25T08:46:40Z</time></trkpt><trkpt lat="43.51555407420885" lon="10.316975990015022"><ele>2.0</ele><time>2026-04-25T08:46:42Z</time></trkpt><trkpt lat="43.51548992491916" lon="10.316983029074155"><ele>1.9999999999999998</ele><time>2026-04-25T08:46:43Z</time></trkpt><trkpt lat="43.515365646013585" lon="10.317012880025532"><ele>2.0</ele><time>2026-04-25T08:46:45Z</time></trkpt><trkpt lat="43.5153022017073" lon="10.317028307837715"><ele>2.0</ele><time>2026-04-25T08:46:46Z</time></trkpt><trkpt lat="43.51517869410777" lon="10.31705245509979"><ele>2.0</ele><time>2026-04-25T08:46:48Z</time></trkpt><trkpt lat="43.51505997633626" lon="10.317076733167944"><ele>2.0</ele><time>2026-04-25T08:46:50Z</time></trkpt><trkpt lat="43.51494112433986" lon="10.317138701557381"><ele>2.0</ele><time>2026-04-25T08:46:52Z</time></trkpt><trkpt lat="43.51483623728087" lon="10.317234668236809"><ele>2.6666666666666665</ele><time>2026-04-25T08:46:54Z</time></trkpt><trkpt lat="43.51473707381458" lon="10.317339575789036"><ele>3.333333333333333</ele><time>2026-04-25T08:46:56Z</time></trkpt><trkpt lat="43.514689495249385" lon="10.317397817859105"><ele>4.0</ele><time>2026-04-25T08:46:57Z</time></trkpt><trkpt lat="43.51464106781781" lon="10.317453802221303"><ele>4.666666666666667</ele><time>2026-04-25T08:46:58Z</time></trkpt><trkpt lat="43.514555979026156" lon="10.317579498155096"><ele>5.333333333333333</ele><time>2026-04-25T08:47:00Z</time></trkpt><trkpt lat="43.514509544860815" lon="10.317639403369352"><ele>6.0</ele><time>2026-04-25T08:47:01Z</time></trkpt><trkpt lat="43.51446392482653" lon="10.317701148102005"><ele>6.0</ele><time>2026-04-25T08:47:02Z</time></trkpt><trkpt lat="43.51437237159422" lon="10.317822007432422"><ele>6.0</ele><time>2026-04-25T08:47:04Z</time></trkpt><trkpt lat="43.51432455227652" lon="10.317884045130421"><ele>6.0</ele><time>2026-04-25T08:47:05Z</time></trkpt><trkpt lat="43.514230530968284" lon="10.318002068438329"><ele>6.0</ele><time>2026-04-25T08:47:07Z</time></trkpt><trkpt lat="43.51418214118107" lon="10.318059804989028"><ele>6.0</ele><time>2026-04-25T08:47:08Z</time></trkpt><trkpt lat="43.51413491716668" lon="10.318118562082264"><ele>6.0</ele><time>2026-04-25T08:47:09Z</time></trkpt><trkpt lat="43.51408571536633" lon="10.3181784073779"><ele>6.0</ele><time>2026-04-25T08:47:10Z</time></trkpt><trkpt lat="43.51398319259056" lon="10.31828213162382"><ele>6.0</ele><time>2026-04-25T08:47:12Z</time></trkpt><trkpt lat="43.51392711635455" lon="10.318330305053152"><ele>6.0</ele><time>2026-04-25T08:47:13Z</time></trkpt><trkpt lat="43.51386913942005" lon="10.318369157589036"><ele>6.0</ele><time>2026-04-25T08:47:14Z</time></trkpt><trkpt lat="43.513808966309504" lon="10.318398945352799"><ele>6.0</ele><time>2026-04-25T08:47:15Z</time></trkpt><trkpt lat="43.51374630143239" lon="10.318417420848634"><ele>6.0</ele><time>2026-04-25T08:47:16Z</time></trkpt><trkpt lat="43.513683873452976" lon="10.31843681665887"><ele>6.0</ele><time>2026-04-25T08:47:17Z</time></trkpt><trkpt lat="43.513556950874985" lon="10.318456819296614"><ele>6.0</ele><time>2026-04-25T08:47:19Z</time></trkpt><trkpt lat="43.51349348927322" lon="10.318455605629032"><ele>6.0</ele><time>2026-04-25T08:47:20Z</time></trkpt><trkpt lat="43.5133690643762" lon="10.318434573214192"><ele>6.0</ele><time>2026-04-25T08:47:22Z</time></trkpt><trkpt lat="43.51324254149724" lon="10.31840184894705"><ele>6.0</ele><time>2026-04-25T08:47:24Z</time></trkpt><trkpt lat="43.513180917521574" lon="10.318381627874649"><ele>5.999999999999999</ele><time>2026-04-25T08:47:25Z</time></trkpt><trkpt lat="43.51311943132304" lon="10.318356050590726"><ele>6.0</ele><time>2026-04-25T08:47:26Z</time></trkpt><trkpt lat="43.51305494845769" lon="10.318332791049594"><ele>6.0</ele><time>2026-04-25T08:47:27Z</time></trkpt><trkpt lat="43.512990821217976" lon="10.318306599298618"><ele>6.0</ele><time>2026-04-25T08:47:28Z</time></trkpt><trkpt lat="43.51293073954604" lon="10.318272013284313"><ele>6.0</ele><time>2026-04-25T08:47:29Z</time></trkpt><trkpt lat="43.51286879244713" lon="10.318241495114554"><ele>5.999999999999999</ele><time>2026-04-25T08:47:30Z</time></trkpt><trkpt lat="43.51280672276993" lon="10.318210250899236"><ele>6.0</ele><time>2026-04-25T08:47:31Z</time></trkpt><trkpt lat="43.512746000759826" lon="10.318183403601193"><ele>6.0</ele><time>2026-04-25T08:47:32Z</time></trkpt><trkpt lat="43.51268455302915" lon="10.31815843248181"><ele>6.0</ele><time>2026-04-25T08:47:33Z</time></trkpt><trkpt lat="43.51262220057084" lon="10.31813829833644"><ele>6.0</ele><time>2026-04-25T08:47:34Z</time></trkpt><trkpt lat="43.512495092485345" lon="10.318146806800964"><ele>6.0</ele><time>2026-04-25T08:47:36Z</time></trkpt><trkpt lat="43.512440989584135" lon="10.318193195834114"><ele>6.0</ele><time>2026-04-25T08:47:37Z</time></trkpt><trkpt lat="43.512396924492855" lon="10.318267008360971"><ele>6.0</ele><time>2026-04-25T08:47:38Z</time></trkpt><trkpt lat="43.512360790478645" lon="10.31834787155959"><ele>5.999999999999999</ele><time>2026-04-25T08:47:39Z</time></trkpt><trkpt lat="43.512323296365736" lon="10.318418194409803"><ele>6.0</ele><time>2026-04-25T08:47:40Z</time></trkpt><trkpt lat="43.512284683662514" lon="10.318493095485334"><ele>6.0</ele><time>2026-04-25T08:47:41Z</time></trkpt><trkpt lat="43.512248160936636" lon="10.31856965443787"><ele>6.0</ele><time>2026-04-25T08:47:42Z</time></trkpt><trkpt lat="43.512200395545" lon="10.318636579801888"><ele>6.0</ele><time>2026-04-25T08:47:43Z</time></trkpt><trkpt lat="43.51215252222372" lon="10.318703002619912"><ele>5.999999999999999</ele><time>2026-04-25T08:47:44Z</time></trkpt><trkpt lat="43.51210397526169" lon="10.318767519193264"><ele>6.0</ele><time>2026-04-25T08:47:45Z</time></trkpt><trkpt lat="43.51205846406587" lon="10.318827631649919"><ele>5.2</ele><time>2026-04-25T08:47:46Z</time></trkpt><trkpt lat="43.5120144857852" lon="10.318892238972554"><ele>4.3999999999999995</ele><time>2026-04-25T08:47:47Z</time></trkpt><trkpt lat="43.511918214250386" lon="10.319002618234412"><ele>3.6</ele><time>2026-04-25T08:47:49Z</time></trkpt><trkpt lat="43.511841309702845" lon="10.319123873639866"><ele>2.8</ele><time>2026-04-25T08:47:51Z</time></trkpt><trkpt lat="43.511759489775635" lon="10.319232197788736"><ele>2.0</ele><time>2026-04-25T08:47:53Z</time></trkpt><trkpt lat="43.51167719765721" lon="10.319339844950285"><ele>1.75</ele><time>2026-04-25T08:47:55Z</time></trkpt><trkpt lat="43.5115938280654" lon="10.319438452054932"><ele>1.5</ele><time>2026-04-25T08:47:57Z</time></trkpt><trkpt lat="43.51148311314557" lon="10.319503751240385"><ele>1.25</ele><time>2026-04-25T08:47:59Z</time></trkpt><trkpt lat="43.511362728337424" lon="10.319533561831753"><ele>1.0</ele><time>2026-04-25T08:48:01Z</time></trkpt><trkpt lat="43.51123681601856" lon="10.319513501434058"><ele>1.0</ele><time>2026-04-25T08:48:03Z</time></trkpt><trkpt lat="43.51111692905242" lon="10.319463552127953"><ele>1.0</ele><time>2026-04-25T08:48:05Z</time></trkpt><trkpt lat="43.51105767769674" lon="10.319434210398736"><ele>1.0</ele><time>2026-04-25T08:48:06Z</time></trkpt><trkpt lat="43.51094263329675" lon="10.319378773728022"><ele>1.0</ele><time>2026-04-25T08:48:08Z</time></trkpt><trkpt lat="43.51088314648747" lon="10.319347256279586"><ele>1.0</ele><time>2026-04-25T08:48:09Z</time></trkpt><trkpt lat="43.51076703380001" lon="10.319291448018642"><ele>1.0</ele><time>2026-04-25T08:48:11Z</time></trkpt><trkpt lat="43.510707910244086" lon="10.31925954906941"><ele>1.0</ele><time>2026-04-25T08:48:12Z</time></trkpt><trkpt lat="43.51059264226089" lon="10.319199085292722"><ele>1.0</ele><time>2026-04-25T08:48:14Z</time></trkpt><trkpt lat="43.51048385903579" lon="10.319145244280694"><ele>1.0</ele><time>2026-04-25T08:48:16Z</time></trkpt><trkpt lat="43.51039599544994" lon="10.3191137881994"><ele>1.0</ele><time>2026-04-25T08:48:18Z</time></trkpt><trkpt lat="43.51033278549742" lon="10.319096649678784"><ele>1.3333333333333333</ele><time>2026-04-25T08:48:21Z</time></trkpt><trkpt lat="43.51025396123332" lon="10.319130789532107"><ele>1.6666666666666665</ele><time>2026-04-25T08:49:36Z</time></trkpt><trkpt lat="43.51019056649639" lon="10.31915199721493"><ele>2.0</ele><time>2026-04-25T08:49:38Z</time></trkpt><trkpt lat="43.510123004673225" lon="10.319153531855637"><ele>2.3333333333333335</ele><time>2026-04-25T08:49:40Z</time></trkpt><trkpt lat="43.51005048326675" lon="10.319154847556458"><ele>2.6666666666666665</ele><time>2026-04-25T08:49:42Z</time></trkpt><trkpt lat="43.50996942438469" lon="10.319177238831859"><ele>3.0</ele><time>2026-04-25T08:49:44Z</time></trkpt><trkpt lat="43.50986986584891" lon="10.319173256038223"><ele>3.0</ele><time>2026-04-25T08:49:46Z</time></trkpt><trkpt lat="43.50976209870133" lon="10.31919089894397"><ele>3.0</ele><time>2026-04-25T08:49:48Z</time></trkpt><trkpt lat="43.50965357810452" lon="10.31921122199211"><ele>3.0</ele><time>2026-04-25T08:49:50Z</time></trkpt><trkpt lat="43.509540408127116" lon="10.319241975223644"><ele>3.0</ele><time>2026-04-25T08:49:52Z</time></trkpt><trkpt lat="43.50942562399784" lon="10.319269681982709"><ele>3.4</ele><time>2026-04-25T08:49:54Z</time></trkpt><trkpt lat="43.50930759080458" lon="10.319292616494664"><ele>3.8</ele><time>2026-04-25T08:49:56Z</time></trkpt><trkpt lat="43.50924402171002" lon="10.31929859387842"><ele>4.2</ele><time>2026-04-25T08:49:57Z</time></trkpt><trkpt lat="43.50912775529872" lon="10.319316724181451"><ele>4.6</ele><time>2026-04-25T08:49:59Z</time></trkpt><trkpt lat="43.509064828671434" lon="10.319335522609661"><ele>5.0</ele><time>2026-04-25T08:50:00Z</time></trkpt><trkpt lat="43.508945864783364" lon="10.319376974659951"><ele>5.0</ele><time>2026-04-25T08:50:02Z</time></trkpt><trkpt lat="43.50882523538565" lon="10.319405752445462"><ele>5.0</ele><time>2026-04-25T08:50:04Z</time></trkpt><trkpt lat="43.50870067273929" lon="10.319437792182212"><ele>5.0</ele><time>2026-04-25T08:50:06Z</time></trkpt><trkpt lat="43.50857629161383" lon="10.319463633328162"><ele>5.0</ele><time>2026-04-25T08:50:08Z</time></trkpt><trkpt lat="43.50851287484527" lon="10.31948024809706"><ele>5.0</ele><time>2026-04-25T08:50:09Z</time></trkpt><trkpt lat="43.508451058275305" lon="10.319497070724372"><ele>4.833333333333334</ele><time>2026-04-25T08:50:10Z</time></trkpt><trkpt lat="43.508325577160484" lon="10.319526346869191"><ele>4.666666666666667</ele><time>2026-04-25T08:50:12Z</time></trkpt><trkpt lat="43.508263090163254" lon="10.319539459647965"><ele>4.5</ele><time>2026-04-25T08:50:13Z</time></trkpt><trkpt lat="43.50819963894265" lon="10.319556715514217"><ele>4.333333333333333</ele><time>2026-04-25T08:50:14Z</time></trkpt><trkpt lat="43.508136823419136" lon="10.319569417802757"><ele>4.166666666666666</ele><time>2026-04-25T08:50:15Z</time></trkpt><trkpt lat="43.508074531779585" lon="10.31958583443818"><ele>4.0</ele><time>2026-04-25T08:50:16Z</time></trkpt><trkpt lat="43.507953153778494" lon="10.31961197067422"><ele>3.25</ele><time>2026-04-25T08:50:18Z</time></trkpt><trkpt lat="43.507828222484584" lon="10.319647537925537"><ele>2.5</ele><time>2026-04-25T08:50:20Z</time></trkpt><trkpt lat="43.50770724380632" lon="10.319670036359406"><ele>1.75</ele><time>2026-04-25T08:50:22Z</time></trkpt><trkpt lat="43.507587497055255" lon="10.319698176472171"><ele>1.0</ele><time>2026-04-25T08:50:24Z</time></trkpt><trkpt lat="43.5074674824514" lon="10.31973054434941"><ele>2.0</ele><time>2026-04-25T08:50:26Z</time></trkpt><trkpt lat="43.50734744171851" lon="10.319756842418379"><ele>3.0</ele><time>2026-04-25T08:50:28Z</time></trkpt><trkpt lat="43.507229408519066" lon="10.319782081828059"><ele>4.0</ele><time>2026-04-25T08:50:30Z</time></trkpt><trkpt lat="43.507113579777496" lon="10.319806801707141"><ele>5.0</ele><time>2026-04-25T08:50:32Z</time></trkpt><trkpt lat="43.506994120860774" lon="10.319830449865663"><ele>5.25</ele><time>2026-04-25T08:50:34Z</time></trkpt><trkpt lat="43.50687939176363" lon="10.319861378740075"><ele>5.5</ele><time>2026-04-25T08:50:36Z</time></trkpt><trkpt lat="43.50676134627215" lon="10.31989051784389"><ele>5.75</ele><time>2026-04-25T08:50:38Z</time></trkpt><trkpt lat="43.506647187048635" lon="10.31991327301753"><ele>6.0</ele><time>2026-04-25T08:50:40Z</time></trkpt><trkpt lat="43.50653440142867" lon="10.319941238412946"><ele>6.0</ele><time>2026-04-25T08:50:42Z</time></trkpt><trkpt lat="43.50641679381254" lon="10.31995069166377"><ele>6.0</ele><time>2026-04-25T08:50:44Z</time></trkpt><trkpt lat="43.50630000183713" lon="10.319976783356852"><ele>6.0</ele><time>2026-04-25T08:50:46Z</time></trkpt><trkpt lat="43.50618205114073" lon="10.320005600511715"><ele>6.0</ele><time>2026-04-25T08:50:48Z</time></trkpt><trkpt lat="43.506067537586674" lon="10.320042580675425"><ele>5.25</ele><time>2026-04-25T08:50:50Z</time></trkpt><trkpt lat="43.50595121582755" lon="10.320074423255813"><ele>4.5</ele><time>2026-04-25T08:50:52Z</time></trkpt><trkpt lat="43.50583662800074" lon="10.320110158593527"><ele>3.75</ele><time>2026-04-25T08:50:54Z</time></trkpt><trkpt lat="43.50572298641297" lon="10.320137709716901"><ele>3.0</ele><time>2026-04-25T08:50:56Z</time></trkpt><trkpt lat="43.50560905510826" lon="10.32015960654627"><ele>3.0</ele><time>2026-04-25T08:50:58Z</time></trkpt><trkpt lat="43.50549301684703" lon="10.320192839828563"><ele>3.0</ele><time>2026-04-25T08:51:00Z</time></trkpt><trkpt lat="43.505378458515665" lon="10.32021924737501"><ele>3.0</ele><time>2026-04-25T08:51:02Z</time></trkpt><trkpt lat="43.50526341544304" lon="10.320248756918776"><ele>3.0</ele><time>2026-04-25T08:51:04Z</time></trkpt><trkpt lat="43.5051521267713" lon="10.32027071727576"><ele>2.75</ele><time>2026-04-25T08:51:06Z</time></trkpt><trkpt lat="43.50503496532304" lon="10.320304323335565"><ele>2.5</ele><time>2026-04-25T08:51:08Z</time></trkpt><trkpt lat="43.50491763257509" lon="10.320328240079046"><ele>2.25</ele><time>2026-04-25T08:51:10Z</time></trkpt><trkpt lat="43.5048007235971" lon="10.320354876122812"><ele>2.0</ele><time>2026-04-25T08:51:12Z</time></trkpt><trkpt lat="43.50468743758451" lon="10.320383586311355"><ele>2.25</ele><time>2026-04-25T08:51:14Z</time></trkpt><trkpt lat="43.504573951220586" lon="10.320407366574265"><ele>2.5</ele><time>2026-04-25T08:51:16Z</time></trkpt><trkpt lat="43.504460717428515" lon="10.320426936335075"><ele>2.75</ele><time>2026-04-25T08:51:18Z</time></trkpt><trkpt lat="43.50434367908016" lon="10.320462053175335"><ele>3.0</ele><time>2026-04-25T08:51:20Z</time></trkpt><trkpt lat="43.50422712428602" lon="10.32048903323927"><ele>3.0</ele><time>2026-04-25T08:51:22Z</time></trkpt><trkpt lat="43.50410873119155" lon="10.320511118594215"><ele>3.0</ele><time>2026-04-25T08:51:24Z</time></trkpt><trkpt lat="43.503991899029316" lon="10.32054186671261"><ele>3.0</ele><time>2026-04-25T08:51:26Z</time></trkpt><trkpt lat="43.50387721136185" lon="10.320573829780985"><ele>3.0</ele><time>2026-04-25T08:51:28Z</time></trkpt><trkpt lat="43.5037608869538" lon="10.320599299507188"><ele>4.2</ele><time>2026-04-25T08:51:30Z</time></trkpt><trkpt lat="43.503650092289405" lon="10.320632315047328"><ele>5.4</ele><time>2026-04-25T08:51:32Z</time></trkpt><trkpt lat="43.50353404572441" lon="10.32066178854287"><ele>6.6000000000000005</ele><time>2026-04-25T08:51:34Z</time></trkpt><trkpt lat="43.50341809948907" lon="10.320692557290458"><ele>7.8</ele><time>2026-04-25T08:51:36Z</time></trkpt><trkpt lat="43.50334946586412" lon="10.320714140006611"><ele>9.0</ele><time>2026-04-25T08:51:37Z</time></trkpt><trkpt lat="43.50323935865816" lon="10.320737612125846"><ele>9.0</ele><time>2026-04-25T08:51:39Z</time></trkpt><trkpt lat="43.50312597486636" lon="10.320771431159281"><ele>9.0</ele><time>2026-04-25T08:51:41Z</time></trkpt><trkpt lat="43.503012323989566" lon="10.320800470775117"><ele>9.0</ele><time>2026-04-25T08:51:43Z</time></trkpt><trkpt lat="43.50289257831437" lon="10.320823828884008"><ele>9.0</ele><time>2026-04-25T08:51:45Z</time></trkpt><trkpt lat="43.502777059991466" lon="10.320853577186359"><ele>8.6</ele><time>2026-04-25T08:51:47Z</time></trkpt><trkpt lat="43.50271500377626" lon="10.320873294179314"><ele>8.2</ele><time>2026-04-25T08:51:48Z</time></trkpt><trkpt lat="43.5026068003764" lon="10.32087296651328"><ele>7.799999999999999</ele><time>2026-04-25T08:51:50Z</time></trkpt><trkpt lat="43.50254256056981" lon="10.320902209809088"><ele>7.3999999999999995</ele><time>2026-04-25T08:51:51Z</time></trkpt><trkpt lat="43.50242622844914" lon="10.320933070464294"><ele>7.0</ele><time>2026-04-25T08:51:53Z</time></trkpt><trkpt lat="43.502308726170675" lon="10.320961728397686"><ele>7.0</ele><time>2026-04-25T08:51:55Z</time></trkpt><trkpt lat="43.50219245981654" lon="10.320988065440448"><ele>7.0</ele><time>2026-04-25T08:51:57Z</time></trkpt><trkpt lat="43.5020755021055" lon="10.321018755674553"><ele>7.0</ele><time>2026-04-25T08:51:59Z</time></trkpt><trkpt lat="43.501959760250905" lon="10.321042031517493"><ele>7.0</ele><time>2026-04-25T08:52:01Z</time></trkpt><trkpt lat="43.50184162693918" lon="10.32107227298743"><ele>7.0</ele><time>2026-04-25T08:52:03Z</time></trkpt><trkpt lat="43.50172456865584" lon="10.321096090162541"><ele>7.0</ele><time>2026-04-25T08:52:05Z</time></trkpt><trkpt lat="43.50160869488769" lon="10.32111976208103"><ele>7.0</ele><time>2026-04-25T08:52:07Z</time></trkpt><trkpt lat="43.501492712826455" lon="10.321143240869148"><ele>7.0</ele><time>2026-04-25T08:52:09Z</time></trkpt><trkpt lat="43.50137655485147" lon="10.32117900038354"><ele>7.0</ele><time>2026-04-25T08:52:11Z</time></trkpt><trkpt lat="43.501255567720676" lon="10.321194492106288"><ele>6.999999999999999</ele><time>2026-04-25T08:52:13Z</time></trkpt><trkpt lat="43.50119254508286" lon="10.321201722357248"><ele>6.999999999999999</ele><time>2026-04-25T08:52:14Z</time></trkpt><trkpt lat="43.50107730097149" lon="10.321222184388429"><ele>7.0</ele><time>2026-04-25T08:52:16Z</time></trkpt><trkpt lat="43.500956850467375" lon="10.321248653516527"><ele>7.0</ele><time>2026-04-25T08:52:18Z</time></trkpt><trkpt lat="43.500842017363254" lon="10.32128409385083"><ele>7.5</ele><time>2026-04-25T08:52:20Z</time></trkpt><trkpt lat="43.50072734278193" lon="10.32132409367102"><ele>8.0</ele><time>2026-04-25T08:52:22Z</time></trkpt><trkpt lat="43.50061044918434" lon="10.321365031992805"><ele>8.5</ele><time>2026-04-25T08:52:24Z</time></trkpt><trkpt lat="43.50049484194165" lon="10.321414171602235"><ele>9.0</ele><time>2026-04-25T08:52:26Z</time></trkpt><trkpt lat="43.50037434615081" lon="10.321460659727597"><ele>9.25</ele><time>2026-04-25T08:52:28Z</time></trkpt><trkpt lat="43.500254425975726" lon="10.321508523352337"><ele>9.5</ele><time>2026-04-25T08:52:30Z</time></trkpt><trkpt lat="43.500141140239776" lon="10.321553871313043"><ele>9.75</ele><time>2026-04-25T08:52:32Z</time></trkpt><trkpt lat="43.50002464514044" lon="10.321586713144688"><ele>10.0</ele><time>2026-04-25T08:52:34Z</time></trkpt><trkpt lat="43.499905992998016" lon="10.321628704630223"><ele>10.0</ele><time>2026-04-25T08:52:36Z</time></trkpt><trkpt lat="43.499843754855355" lon="10.321644683607737"><ele>10.0</ele><time>2026-04-25T08:52:37Z</time></trkpt><trkpt lat="43.49972035830781" lon="10.321677616133996"><ele>10.0</ele><time>2026-04-25T08:52:39Z</time></trkpt><trkpt lat="43.49965519998756" lon="10.321701125309362"><ele>10.0</ele><time>2026-04-25T08:52:40Z</time></trkpt><trkpt lat="43.4995919140485" lon="10.321725475851297"><ele>10.0</ele><time>2026-04-25T08:52:41Z</time></trkpt><trkpt lat="43.49952746858331" lon="10.321743468505828"><ele>10.0</ele><time>2026-04-25T08:52:42Z</time></trkpt><trkpt lat="43.49946373206773" lon="10.321766082829496"><ele>9.833333333333334</ele><time>2026-04-25T08:52:43Z</time></trkpt><trkpt lat="43.499399731420866" lon="10.321783818502446"><ele>9.666666666666668</ele><time>2026-04-25T08:52:44Z</time></trkpt><trkpt lat="43.49933958812101" lon="10.321820992467263"><ele>9.5</ele><time>2026-04-25T08:52:45Z</time></trkpt><trkpt lat="43.49926669491529" lon="10.321823038158238"><ele>9.333333333333334</ele><time>2026-04-25T08:52:46Z</time></trkpt><trkpt lat="43.49914566249889" lon="10.32186234933987"><ele>9.166666666666666</ele><time>2026-04-25T08:52:48Z</time></trkpt><trkpt lat="43.49908733363843" lon="10.321895719125811"><ele>9.0</ele><time>2026-04-25T08:52:49Z</time></trkpt><trkpt lat="43.49900698976889" lon="10.321928496044508"><ele>9.0</ele><time>2026-04-25T08:52:50Z</time></trkpt><trkpt lat="43.49889564075799" lon="10.321947973897624"><ele>9.0</ele><time>2026-04-25T08:52:52Z</time></trkpt><trkpt lat="43.49883059585691" lon="10.321970408062782"><ele>9.0</ele><time>2026-04-25T08:52:53Z</time></trkpt><trkpt lat="43.49876962275597" lon="10.321993279960529"><ele>9.0</ele><time>2026-04-25T08:52:54Z</time></trkpt><trkpt lat="43.49870758146302" lon="10.322016153470294"><ele>9.0</ele><time>2026-04-25T08:52:55Z</time></trkpt><trkpt lat="43.49864120964248" lon="10.322034654982739"><ele>9.0</ele><time>2026-04-25T08:52:56Z</time></trkpt><trkpt lat="43.498518853035456" lon="10.32207731372042"><ele>8.166666666666666</ele><time>2026-04-25T08:52:58Z</time></trkpt><trkpt lat="43.498456532664996" lon="10.322099444124127"><ele>7.333333333333333</ele><time>2026-04-25T08:52:59Z</time></trkpt><trkpt lat="43.498392527718515" lon="10.322118960552116"><ele>6.5</ele><time>2026-04-25T08:53:00Z</time></trkpt><trkpt lat="43.49832766742496" lon="10.322141319904958"><ele>5.666666666666666</ele><time>2026-04-25T08:53:01Z</time></trkpt><trkpt lat="43.49821472871086" lon="10.32217806355553"><ele>4.833333333333333</ele><time>2026-04-25T08:53:03Z</time></trkpt><trkpt lat="43.498152921342154" lon="10.322195750918448"><ele>4.0</ele><time>2026-04-25T08:53:04Z</time></trkpt><trkpt lat="43.49803103239358" lon="10.322227650335636"><ele>5.25</ele><time>2026-04-25T08:53:06Z</time></trkpt><trkpt lat="43.49790790444642" lon="10.322266209981734"><ele>6.5</ele><time>2026-04-25T08:53:08Z</time></trkpt><trkpt lat="43.4977875414103" lon="10.322301272163207"><ele>7.75</ele><time>2026-04-25T08:53:10Z</time></trkpt><trkpt lat="43.497672113810836" lon="10.322333033700682"><ele>9.0</ele><time>2026-04-25T08:53:12Z</time></trkpt><trkpt lat="43.49755581705254" lon="10.322373666209925"><ele>9.0</ele><time>2026-04-25T08:53:14Z</time></trkpt><trkpt lat="43.49743626565983" lon="10.322410591407428"><ele>9.0</ele><time>2026-04-25T08:53:16Z</time></trkpt><trkpt lat="43.497321247306715" lon="10.322450344532047"><ele>9.0</ele><time>2026-04-25T08:53:18Z</time></trkpt><trkpt lat="43.49720553323372" lon="10.32250837582309"><ele>9.0</ele><time>2026-04-25T08:53:20Z</time></trkpt><trkpt lat="43.49714707899141" lon="10.322546490421947"><ele>9.0</ele><time>2026-04-25T08:53:21Z</time></trkpt><trkpt lat="43.49708851789601" lon="10.32258613986026"><ele>8.142857142857144</ele><time>2026-04-25T08:53:22Z</time></trkpt><trkpt lat="43.49702835611831" lon="10.322626050972307"><ele>7.285714285714286</ele><time>2026-04-25T08:53:23Z</time></trkpt><trkpt lat="43.49697060758079" lon="10.32267000354287"><ele>6.428571428571429</ele><time>2026-04-25T08:53:24Z</time></trkpt><trkpt lat="43.49691109207738" lon="10.322716515301057"><ele>5.571428571428572</ele><time>2026-04-25T08:53:25Z</time></trkpt><trkpt lat="43.49685425531742" lon="10.322765412744484"><ele>4.714285714285714</ele><time>2026-04-25T08:53:26Z</time></trkpt><trkpt lat="43.49680300593475" lon="10.322820069778231"><ele>3.8571428571428568</ele><time>2026-04-25T08:53:27Z</time></trkpt><trkpt lat="43.496746179179326" lon="10.322872669484617"><ele>3.0</ele><time>2026-04-25T08:53:28Z</time></trkpt><trkpt lat="43.496687459720334" lon="10.32292586005781"><ele>2.9999999999999996</ele><time>2026-04-25T08:53:29Z</time></trkpt><trkpt lat="43.4966269005893" lon="10.322970458086763"><ele>3.0</ele><time>2026-04-25T08:53:30Z</time></trkpt><trkpt lat="43.496568890767755" lon="10.323016828598991"><ele>3.0</ele><time>2026-04-25T08:53:31Z</time></trkpt><trkpt lat="43.496511444346076" lon="10.323069755219844"><ele>3.0</ele><time>2026-04-25T08:53:32Z</time></trkpt><trkpt lat="43.49645392992161" lon="10.323121500887705"><ele>3.0</ele><time>2026-04-25T08:53:33Z</time></trkpt><trkpt lat="43.49639775219839" lon="10.323168638203486"><ele>2.9999999999999996</ele><time>2026-04-25T08:53:34Z</time></trkpt><trkpt lat="43.49634163968064" lon="10.32321525953101"><ele>3.0</ele><time>2026-04-25T08:53:35Z</time></trkpt><trkpt lat="43.496284959163965" lon="10.323264930185355"><ele>3.666666666666667</ele><time>2026-04-25T08:53:36Z</time></trkpt><trkpt lat="43.49622902033066" lon="10.323306303069927"><ele>4.333333333333334</ele><time>2026-04-25T08:53:37Z</time></trkpt><trkpt lat="43.496171669854554" lon="10.323348640521417"><ele>5.0</ele><time>2026-04-25T08:53:38Z</time></trkpt><trkpt lat="43.496111257757335" lon="10.323390581209525"><ele>5.666666666666667</ele><time>2026-04-25T08:53:39Z</time></trkpt><trkpt lat="43.49599090380665" lon="10.323443993459408"><ele>6.333333333333334</ele><time>2026-04-25T08:53:41Z</time></trkpt><trkpt lat="43.49587086403623" lon="10.323467542739088"><ele>7.0</ele><time>2026-04-25T08:53:43Z</time></trkpt><trkpt lat="43.495805477310206" lon="10.323481561782707"><ele>7.0</ele><time>2026-04-25T08:53:44Z</time></trkpt><trkpt lat="43.49574227416111" lon="10.323486408276619"><ele>6.999999999999999</ele><time>2026-04-25T08:53:45Z</time></trkpt><trkpt lat="43.49561426286726" lon="10.323496659761064"><ele>6.999999999999999</ele><time>2026-04-25T08:53:47Z</time></trkpt><trkpt lat="43.49549061334612" lon="10.323504597749913"><ele>7.0</ele><time>2026-04-25T08:53:49Z</time></trkpt><trkpt lat="43.49536636650453" lon="10.323511911606449"><ele>7.0</ele><time>2026-04-25T08:53:51Z</time></trkpt><trkpt lat="43.49524649090481" lon="10.323514519404203"><ele>6.199999999999999</ele><time>2026-04-25T08:53:53Z</time></trkpt><trkpt lat="43.49512504349955" lon="10.323534976934665"><ele>5.3999999999999995</ele><time>2026-04-25T08:53:55Z</time></trkpt><trkpt lat="43.49500628690733" lon="10.323557798728054"><ele>4.6</ele><time>2026-04-25T08:53:56.999Z</time></trkpt><trkpt lat="43.4948904796508" lon="10.323599663978992"><ele>3.8</ele><time>2026-04-25T08:53:59Z</time></trkpt><trkpt lat="43.49482628539219" lon="10.32362103504818"><ele>3.0</ele><time>2026-04-25T08:54:00Z</time></trkpt><trkpt lat="43.49470267497712" lon="10.323665037300048"><ele>3.0</ele><time>2026-04-25T08:54:02Z</time></trkpt><trkpt lat="43.49463636870823" lon="10.323687433441112"><ele>3.0</ele><time>2026-04-25T08:54:03Z</time></trkpt><trkpt lat="43.494516502174854" lon="10.323729861374256"><ele>3.0</ele><time>2026-04-25T08:54:05Z</time></trkpt><trkpt lat="43.49439476295084" lon="10.3237806201266"><ele>3.0</ele><time>2026-04-25T08:54:07Z</time></trkpt><trkpt lat="43.49428169852228" lon="10.323842313257224"><ele>3.0</ele><time>2026-04-25T08:54:09Z</time></trkpt><trkpt lat="43.494176587053786" lon="10.323920956097314"><ele>5.0</ele><time>2026-04-25T08:54:11Z</time></trkpt><trkpt lat="43.494077072796145" lon="10.324009586937716"><ele>7.0</ele><time>2026-04-25T08:54:13Z</time></trkpt><trkpt lat="43.49397471066844" lon="10.324101904086895"><ele>9.0</ele><time>2026-04-25T08:54:15Z</time></trkpt><trkpt lat="43.493874331011014" lon="10.32419778535469"><ele>11.0</ele><time>2026-04-25T08:54:17Z</time></trkpt><trkpt lat="43.49377313690836" lon="10.324286447148172"><ele>9.25</ele><time>2026-04-25T08:54:19Z</time></trkpt><trkpt lat="43.49367716195801" lon="10.324386767025937"><ele>7.5</ele><time>2026-04-25T08:54:21Z</time></trkpt><trkpt lat="43.49357156042693" lon="10.324477796466866"><ele>5.75</ele><time>2026-04-25T08:54:23Z</time></trkpt><trkpt lat="43.493475521889195" lon="10.324571690915745"><ele>4.0</ele><time>2026-04-25T08:54:25Z</time></trkpt><trkpt lat="43.493377396260875" lon="10.3246605077922"><ele>5.5</ele><time>2026-04-25T08:54:27Z</time></trkpt><trkpt lat="43.49327847213111" lon="10.324752290826586"><ele>7.0</ele><time>2026-04-25T08:54:29Z</time></trkpt><trkpt lat="43.493175758334296" lon="10.324839307820419"><ele>8.5</ele><time>2026-04-25T08:54:31Z</time></trkpt><trkpt lat="43.49307122991755" lon="10.324903264545636"><ele>10.0</ele><time>2026-04-25T08:54:33Z</time></trkpt><trkpt lat="43.492960468124835" lon="10.32496093855914"><ele>9.0</ele><time>2026-04-25T08:54:35Z</time></trkpt><trkpt lat="43.49284542117586" lon="10.325006838497108"><ele>8.0</ele><time>2026-04-25T08:54:37Z</time></trkpt><trkpt lat="43.49272648466554" lon="10.325042141829478"><ele>7.0</ele><time>2026-04-25T08:54:39Z</time></trkpt><trkpt lat="43.49260847008013" lon="10.325079449223766"><ele>6.0</ele><time>2026-04-25T08:54:41Z</time></trkpt><trkpt lat="43.4924909288887" lon="10.325121119742619"><ele>6.0</ele><time>2026-04-25T08:54:43Z</time></trkpt><trkpt lat="43.49237154982284" lon="10.325165092515874"><ele>6.0</ele><time>2026-04-25T08:54:45Z</time></trkpt><trkpt lat="43.49225324617745" lon="10.32520813950981"><ele>6.0</ele><time>2026-04-25T08:54:47Z</time></trkpt><trkpt lat="43.4921306239463" lon="10.325242856170277"><ele>6.0</ele><time>2026-04-25T08:54:49Z</time></trkpt><trkpt lat="43.492068672740885" lon="10.325268986246547"><ele>6.0</ele><time>2026-04-25T08:54:50Z</time></trkpt><trkpt lat="43.491949010921054" lon="10.325303545516089"><ele>6.6</ele><time>2026-04-25T08:54:52Z</time></trkpt><trkpt lat="43.49183151140248" lon="10.325344326733559"><ele>7.199999999999999</ele><time>2026-04-25T08:54:54Z</time></trkpt><trkpt lat="43.49170731169372" lon="10.325384115504166"><ele>7.800000000000001</ele><time>2026-04-25T08:54:56Z</time></trkpt><trkpt lat="43.49158427737906" lon="10.325429222053684"><ele>8.4</ele><time>2026-04-25T08:54:58Z</time></trkpt><trkpt lat="43.49152070318841" lon="10.325449549319275"><ele>9.0</ele><time>2026-04-25T08:54:59Z</time></trkpt><trkpt lat="43.491399460945026" lon="10.325491554099708"><ele>9.0</ele><time>2026-04-25T08:55:01Z</time></trkpt><trkpt lat="43.49133712711927" lon="10.325512528356988"><ele>9.0</ele><time>2026-04-25T08:55:02Z</time></trkpt><trkpt lat="43.49121608148835" lon="10.325569746756388"><ele>9.0</ele><time>2026-04-25T08:55:04Z</time></trkpt><trkpt lat="43.491157529982154" lon="10.325605653199352"><ele>9.0</ele><time>2026-04-25T08:55:05Z</time></trkpt><trkpt lat="43.49110198874562" lon="10.325650178834094"><ele>9.0</ele><time>2026-04-25T08:55:06Z</time></trkpt><trkpt lat="43.490992708841105" lon="10.325737244142765"><ele>9.0</ele><time>2026-04-25T08:55:08Z</time></trkpt><trkpt lat="43.49089047483349" lon="10.325841078862476"><ele>8.833333333333334</ele><time>2026-04-25T08:55:10Z</time></trkpt><trkpt lat="43.4908420018409" lon="10.325896787758607"><ele>8.666666666666666</ele><time>2026-04-25T08:55:11Z</time></trkpt><trkpt lat="43.49074838990627" lon="10.326007298505433"><ele>8.5</ele><time>2026-04-25T08:55:13Z</time></trkpt><trkpt lat="43.490701110625864" lon="10.326069955154813"><ele>8.333333333333332</ele><time>2026-04-25T08:55:14Z</time></trkpt><trkpt lat="43.490618096424306" lon="10.32619752541459"><ele>8.166666666666666</ele><time>2026-04-25T08:55:16Z</time></trkpt><trkpt lat="43.49058100795049" lon="10.32626943937084"><ele>8.0</ele><time>2026-04-25T08:55:17Z</time></trkpt><trkpt lat="43.490521759841975" lon="10.326420234731255"><ele>8.5</ele><time>2026-04-25T08:55:19Z</time></trkpt><trkpt lat="43.49046554839371" lon="10.32656398191629"><ele>9.0</ele><time>2026-04-25T08:55:21Z</time></trkpt><trkpt lat="43.490412989876376" lon="10.326712931588403"><ele>9.5</ele><time>2026-04-25T08:55:23Z</time></trkpt><trkpt lat="43.490356786906275" lon="10.326857481733493"><ele>10.0</ele><time>2026-04-25T08:55:25Z</time></trkpt><trkpt lat="43.49030192749001" lon="10.327003629186999"><ele>10.0</ele><time>2026-04-25T08:55:27Z</time></trkpt><trkpt lat="43.49024409691373" lon="10.327148109565883"><ele>10.0</ele><time>2026-04-25T08:55:29Z</time></trkpt><trkpt lat="43.49018982078163" lon="10.327290784981983"><ele>10.0</ele><time>2026-04-25T08:55:31Z</time></trkpt><trkpt lat="43.49013447725185" lon="10.327435507299992"><ele>10.0</ele><time>2026-04-25T08:55:33Z</time></trkpt><trkpt lat="43.49008203029738" lon="10.327580872790124"><ele>11.0</ele><time>2026-04-25T08:55:35Z</time></trkpt><trkpt lat="43.49002595578776" lon="10.32772622684346"><ele>12.0</ele><time>2026-04-25T08:55:37Z</time></trkpt><trkpt lat="43.48996632148207" lon="10.327869927697213"><ele>13.0</ele><time>2026-04-25T08:55:39Z</time></trkpt><trkpt lat="43.48991641976221" lon="10.32801809541987"><ele>14.0</ele><time>2026-04-25T08:55:41Z</time></trkpt><trkpt lat="43.489864358801185" lon="10.328168876864986"><ele>14.75</ele><time>2026-04-25T08:55:43Z</time></trkpt><trkpt lat="43.489798641971625" lon="10.328301423294644"><ele>15.5</ele><time>2026-04-25T08:55:45Z</time></trkpt><trkpt lat="43.489737566564436" lon="10.328447334667207"><ele>16.25</ele><time>2026-04-25T08:55:47Z</time></trkpt><trkpt lat="43.489690498476385" lon="10.328598245740466"><ele>17.0</ele><time>2026-04-25T08:55:49Z</time></trkpt><trkpt lat="43.489637942995195" lon="10.328743332275517"><ele>16.5</ele><time>2026-04-25T08:55:51Z</time></trkpt><trkpt lat="43.489581493521186" lon="10.328883260062074"><ele>16.0</ele><time>2026-04-25T08:55:53Z</time></trkpt><trkpt lat="43.48951941905483" lon="10.329027742119218"><ele>15.5</ele><time>2026-04-25T08:55:55Z</time></trkpt><trkpt lat="43.48945196952177" lon="10.329156270321002"><ele>15.0</ele><time>2026-04-25T08:55:57Z</time></trkpt><trkpt lat="43.489390342865974" lon="10.329283053771444"><ele>15.0</ele><time>2026-04-25T08:55:59Z</time></trkpt><trkpt lat="43.4892738844057" lon="10.329384648869215"><ele>15.0</ele><time>2026-04-25T08:56:01Z</time></trkpt><trkpt lat="43.489169522269016" lon="10.329459260061778"><ele>15.0</ele><time>2026-04-25T08:56:03Z</time></trkpt><trkpt lat="43.48905506231224" lon="10.329517981896345"><ele>15.0</ele><time>2026-04-25T08:56:05Z</time></trkpt><trkpt lat="43.48893635259674" lon="10.329577955628716"><ele>15.0</ele><time>2026-04-25T08:56:07Z</time></trkpt><trkpt lat="43.48887710441887" lon="10.329613323044875"><ele>15.0</ele><time>2026-04-25T08:56:08Z</time></trkpt><trkpt lat="43.48876221550944" lon="10.329672611195452"><ele>15.0</ele><time>2026-04-25T08:56:10Z</time></trkpt><trkpt lat="43.48865154347498" lon="10.329735879747233"><ele>15.0</ele><time>2026-04-25T08:56:12Z</time></trkpt><trkpt lat="43.4885397609138" lon="10.32979284566951"><ele>15.0</ele><time>2026-04-25T08:56:14Z</time></trkpt><trkpt lat="43.48843214435731" lon="10.329854006702977"><ele>15.75</ele><time>2026-04-25T08:56:16Z</time></trkpt><trkpt lat="43.4883226554164" lon="10.329915669965821"><ele>16.5</ele><time>2026-04-25T08:56:18Z</time></trkpt><trkpt lat="43.488210491183985" lon="10.32996929087419"><ele>17.25</ele><time>2026-04-25T08:56:20Z</time></trkpt><trkpt lat="43.48810100160601" lon="10.330032158946711"><ele>18.0</ele><time>2026-04-25T08:56:22Z</time></trkpt><trkpt lat="43.487991488980825" lon="10.330095617848285"><ele>17.25</ele><time>2026-04-25T08:56:24Z</time></trkpt><trkpt lat="43.487878707561215" lon="10.33014334509825"><ele>16.5</ele><time>2026-04-25T08:56:26Z</time></trkpt><trkpt lat="43.48776961664957" lon="10.330201574090179"><ele>15.75</ele><time>2026-04-25T08:56:28Z</time></trkpt><trkpt lat="43.48765841675578" lon="10.330263948533418"><ele>15.0</ele><time>2026-04-25T08:56:30Z</time></trkpt><trkpt lat="43.48755123405284" lon="10.330332761821058"><ele>15.0</ele><time>2026-04-25T08:56:32Z</time></trkpt><trkpt lat="43.4874378467498" lon="10.330383272481825"><ele>15.0</ele><time>2026-04-25T08:56:34Z</time></trkpt><trkpt lat="43.487327580681885" lon="10.330449524381306"><ele>15.0</ele><time>2026-04-25T08:56:36Z</time></trkpt><trkpt lat="43.48721912659843" lon="10.33052161374787"><ele>15.0</ele><time>2026-04-25T08:56:38Z</time></trkpt><trkpt lat="43.487106616532294" lon="10.330562370129467"><ele>16.0</ele><time>2026-04-25T08:56:40Z</time></trkpt><trkpt lat="43.48698865926041" lon="10.330620296701191"><ele>17.0</ele><time>2026-04-25T08:56:42Z</time></trkpt><trkpt lat="43.486875631114714" lon="10.330678522140373"><ele>18.0</ele><time>2026-04-25T08:56:44Z</time></trkpt><trkpt lat="43.4867634879009" lon="10.330741306395948"><ele>19.0</ele><time>2026-04-25T08:56:46Z</time></trkpt><trkpt lat="43.486652257947725" lon="10.330804884534235"><ele>19.0</ele><time>2026-04-25T08:56:48Z</time></trkpt><trkpt lat="43.48654089649247" lon="10.330863668237143"><ele>19.0</ele><time>2026-04-25T08:56:50Z</time></trkpt><trkpt lat="43.486428522952735" lon="10.33092461905527"><ele>19.0</ele><time>2026-04-25T08:56:52Z</time></trkpt><trkpt lat="43.486315779481465" lon="10.33098421899601"><ele>19.0</ele><time>2026-04-25T08:56:54Z</time></trkpt><trkpt lat="43.486204771819274" lon="10.331044409640855"><ele>18.599999999999998</ele><time>2026-04-25T08:56:56Z</time></trkpt><trkpt lat="43.48608892784545" lon="10.331109078147543"><ele>18.2</ele><time>2026-04-25T08:56:58Z</time></trkpt><trkpt lat="43.48602970663106" lon="10.331138902010048"><ele>17.799999999999997</ele><time>2026-04-25T08:56:59Z</time></trkpt><trkpt lat="43.48591773213802" lon="10.331201231351155"><ele>17.4</ele><time>2026-04-25T08:57:01Z</time></trkpt><trkpt lat="43.48580141255487" lon="10.331264102535394"><ele>17.0</ele><time>2026-04-25T08:57:03Z</time></trkpt><trkpt lat="43.48568546667459" lon="10.331328456464655"><ele>17.0</ele><time>2026-04-25T08:57:05Z</time></trkpt><trkpt lat="43.485626329466626" lon="10.331363345020893"><ele>17.0</ele><time>2026-04-25T08:57:06Z</time></trkpt><trkpt lat="43.48551336933005" lon="10.331427787178619"><ele>17.0</ele><time>2026-04-25T08:57:08Z</time></trkpt><trkpt lat="43.48539437264734" lon="10.331492649211361"><ele>17.0</ele><time>2026-04-25T08:57:10Z</time></trkpt><trkpt lat="43.48527445326468" lon="10.331555215882071"><ele>17.0</ele><time>2026-04-25T08:57:12Z</time></trkpt><trkpt lat="43.485159564428464" lon="10.33161651282065"><ele>17.2</ele><time>2026-04-25T08:57:14Z</time></trkpt><trkpt lat="43.48509953622356" lon="10.331650322848356"><ele>17.4</ele><time>2026-04-25T08:57:15Z</time></trkpt><trkpt lat="43.485039814832426" lon="10.331685971862168"><ele>17.6</ele><time>2026-04-25T08:57:16Z</time></trkpt><trkpt lat="43.48491650840418" lon="10.33174448622698"><ele>17.8</ele><time>2026-04-25T08:57:18Z</time></trkpt><trkpt lat="43.48480212011626" lon="10.331816188748896"><ele>18.0</ele><time>2026-04-25T08:57:20Z</time></trkpt><trkpt lat="43.48473943326155" lon="10.331844913916463"><ele>18.0</ele><time>2026-04-25T08:57:21Z</time></trkpt><trkpt lat="43.484677397560276" lon="10.33187539849512"><ele>18.0</ele><time>2026-04-25T08:57:22Z</time></trkpt><trkpt lat="43.48461720679144" lon="10.331909808274016"><ele>18.0</ele><time>2026-04-25T08:57:23Z</time></trkpt><trkpt lat="43.48455557945195" lon="10.331943576803166"><ele>18.0</ele><time>2026-04-25T08:57:24Z</time></trkpt><trkpt lat="43.4844361168473" lon="10.332007093129"><ele>18.0</ele><time>2026-04-25T08:57:26Z</time></trkpt><trkpt lat="43.48437608717467" lon="10.332039334862706"><ele>18.0</ele><time>2026-04-25T08:57:27Z</time></trkpt><trkpt lat="43.48431498959746" lon="10.332074147786818"><ele>17.5</ele><time>2026-04-25T08:57:28Z</time></trkpt><trkpt lat="43.48425571388397" lon="10.332116126851881"><ele>17.0</ele><time>2026-04-25T08:57:29Z</time></trkpt><trkpt lat="43.484130926454306" lon="10.332180369753146"><ele>16.5</ele><time>2026-04-25T08:57:31Z</time></trkpt><trkpt lat="43.48406867554903" lon="10.332218839966274"><ele>16.0</ele><time>2026-04-25T08:57:32Z</time></trkpt><trkpt lat="43.48400835364554" lon="10.332257202873269"><ele>15.5</ele><time>2026-04-25T08:57:33Z</time></trkpt><trkpt lat="43.48394811891478" lon="10.33230273808567"><ele>15.0</ele><time>2026-04-25T08:57:34Z</time></trkpt><trkpt lat="43.483889557528535" lon="10.332346467231186"><ele>15.0</ele><time>2026-04-25T08:57:35Z</time></trkpt><trkpt lat="43.483826127379004" lon="10.332390572030409"><ele>15.0</ele><time>2026-04-25T08:57:36Z</time></trkpt><trkpt lat="43.48376294085292" lon="10.33243842032272"><ele>15.0</ele><time>2026-04-25T08:57:37Z</time></trkpt><trkpt lat="43.48370168318779" lon="10.332484428922578"><ele>15.0</ele><time>2026-04-25T08:57:38Z</time></trkpt><trkpt lat="43.483638742119254" lon="10.332530788756031"><ele>15.0</ele><time>2026-04-25T08:57:39Z</time></trkpt><trkpt lat="43.48357742345764" lon="10.332575567733038"><ele>15.0</ele><time>2026-04-25T08:57:40Z</time></trkpt><trkpt lat="43.48351416518405" lon="10.332620116564813"><ele>15.0</ele><time>2026-04-25T08:57:41Z</time></trkpt><trkpt lat="43.483449532759685" lon="10.332665139062321"><ele>14.142857142857144</ele><time>2026-04-25T08:57:42Z</time></trkpt><trkpt lat="43.483386527408186" lon="10.332710043220324"><ele>13.285714285714285</ele><time>2026-04-25T08:57:43Z</time></trkpt><trkpt lat="43.483322869620736" lon="10.332752831574709"><ele>12.428571428571429</ele><time>2026-04-25T08:57:44Z</time></trkpt><trkpt lat="43.483260512778976" lon="10.33279471298996"><ele>11.571428571428573</ele><time>2026-04-25T08:57:45Z</time></trkpt><trkpt lat="43.48319895679353" lon="10.332840585519964"><ele>10.714285714285715</ele><time>2026-04-25T08:57:46Z</time></trkpt><trkpt lat="43.483135027073075" lon="10.332883001737756"><ele>9.857142857142858</ele><time>2026-04-25T08:57:47Z</time></trkpt><trkpt lat="43.483069752099546" lon="10.332918685174276"><ele>9.0</ele><time>2026-04-25T08:57:48Z</time></trkpt><trkpt lat="43.483004556958285" lon="10.332949800745771"><ele>9.000000000000002</ele><time>2026-04-25T08:57:49Z</time></trkpt><trkpt lat="43.48294137992214" lon="10.332978346521656"><ele>9.0</ele><time>2026-04-25T08:57:50Z</time></trkpt><trkpt lat="43.48287737251713" lon="10.333009134372737"><ele>9.0</ele><time>2026-04-25T08:57:51Z</time></trkpt><trkpt lat="43.48281451558746" lon="10.333038583089987"><ele>9.0</ele><time>2026-04-25T08:57:52Z</time></trkpt><trkpt lat="43.48275018839729" lon="10.333061660522215"><ele>9.0</ele><time>2026-04-25T08:57:53Z</time></trkpt><trkpt lat="43.48268548524987" lon="10.333085002845529"><ele>9.000000000000002</ele><time>2026-04-25T08:57:54Z</time></trkpt><trkpt lat="43.482620180861176" lon="10.333113556768732"><ele>9.0</ele><time>2026-04-25T08:57:55Z</time></trkpt><trkpt lat="43.482554845059646" lon="10.33313636657503"><ele>10.142857142857144</ele><time>2026-04-25T08:57:56Z</time></trkpt><trkpt lat="43.48248951139848" lon="10.333170833401523"><ele>11.285714285714285</ele><time>2026-04-25T08:57:57Z</time></trkpt><trkpt lat="43.48242338005889" lon="10.333189480199529"><ele>12.428571428571427</ele><time>2026-04-25T08:57:58Z</time></trkpt><trkpt lat="43.482359464462775" lon="10.33320821275362"><ele>13.571428571428571</ele><time>2026-04-25T08:57:59Z</time></trkpt><trkpt lat="43.48229357483617" lon="10.333223854885922"><ele>14.714285714285714</ele><time>2026-04-25T08:58:00Z</time></trkpt><trkpt lat="43.482230112367844" lon="10.333238527378349"><ele>15.857142857142856</ele><time>2026-04-25T08:58:01Z</time></trkpt><trkpt lat="43.48216395122743" lon="10.333255892966477"><ele>17.0</ele><time>2026-04-25T08:58:02Z</time></trkpt><trkpt lat="43.48209643575879" lon="10.333272347038365"><ele>16.999999999999996</ele><time>2026-04-25T08:58:03Z</time></trkpt><trkpt lat="43.482029734775836" lon="10.333288257544027"><ele>17.0</ele><time>2026-04-25T08:58:04Z</time></trkpt><trkpt lat="43.48196089997222" lon="10.333293765228783"><ele>17.0</ele><time>2026-04-25T08:58:05Z</time></trkpt><trkpt lat="43.481890950086765" lon="10.333297373575462"><ele>17.0</ele><time>2026-04-25T08:58:06Z</time></trkpt><trkpt lat="43.48182296534526" lon="10.333300868372596"><ele>17.0</ele><time>2026-04-25T08:58:07Z</time></trkpt><trkpt lat="43.4817509685266" lon="10.333305030039009"><ele>16.999999999999996</ele><time>2026-04-25T08:58:08Z</time></trkpt><trkpt lat="43.48167727457206" lon="10.33330412803383"><ele>17.0</ele><time>2026-04-25T08:58:09Z</time></trkpt><trkpt lat="43.48160657861602" lon="10.333305874142399"><ele>16.999999999999996</ele><time>2026-04-25T08:58:10Z</time></trkpt><trkpt lat="43.48153409510206" lon="10.333311134281619"><ele>17.0</ele><time>2026-04-25T08:58:11Z</time></trkpt><trkpt lat="43.48146004608445" lon="10.333309901779245"><ele>17.0</ele><time>2026-04-25T08:58:12Z</time></trkpt><trkpt lat="43.48138689832137" lon="10.333316779282335"><ele>17.0</ele><time>2026-04-25T08:58:13Z</time></trkpt><trkpt lat="43.481313807420015" lon="10.333320995263398"><ele>17.0</ele><time>2026-04-25T08:58:14Z</time></trkpt><trkpt lat="43.48123721239905" lon="10.333323617803151"><ele>16.999999999999996</ele><time>2026-04-25T08:58:15Z</time></trkpt><trkpt lat="43.48116387817249" lon="10.333324836447392"><ele>17.0</ele><time>2026-04-25T08:58:16Z</time></trkpt><trkpt lat="43.48109357822408" lon="10.333324792044653"><ele>17.0</ele><time>2026-04-25T08:58:17Z</time></trkpt><trkpt lat="43.48101968876913" lon="10.333323999553313"><ele>17.0</ele><time>2026-04-25T08:58:18Z</time></trkpt><trkpt lat="43.48094021980753" lon="10.333329974929715"><ele>17.0</ele><time>2026-04-25T08:58:19Z</time></trkpt><trkpt lat="43.4808647581296" lon="10.33334152259953"><ele>17.0</ele><time>2026-04-25T08:58:20Z</time></trkpt><trkpt lat="43.48078907593897" lon="10.33334731346659"><ele>17.0</ele><time>2026-04-25T08:58:21Z</time></trkpt><trkpt lat="43.48071260561982" lon="10.333336547205567"><ele>17.0</ele><time>2026-04-25T08:58:22Z</time></trkpt><trkpt lat="43.48063433347034" lon="10.33333361296333"><ele>17.0</ele><time>2026-04-25T08:58:23Z</time></trkpt><trkpt lat="43.48055252324443" lon="10.333334771266152"><ele>17.0</ele><time>2026-04-25T08:58:24Z</time></trkpt><trkpt lat="43.4804700234296" lon="10.333332678460625"><ele>17.0</ele><time>2026-04-25T08:58:25Z</time></trkpt><trkpt lat="43.48038531231618" lon="10.333339672596068"><ele>17.0</ele><time>2026-04-25T08:58:26Z</time></trkpt><trkpt lat="43.4802976901426" lon="10.333335002057682"><ele>17.0</ele><time>2026-04-25T08:58:27Z</time></trkpt><trkpt lat="43.480208461957965" lon="10.333335905562155"><ele>17.0</ele><time>2026-04-25T08:58:28Z</time></trkpt><trkpt lat="43.48011837731368" lon="10.333337095309387"><ele>16.5</ele><time>2026-04-25T08:58:29Z</time></trkpt><trkpt lat="43.480030355156785" lon="10.33332938261859"><ele>16.0</ele><time>2026-04-25T08:58:30Z</time></trkpt><trkpt lat="43.47994655821688" lon="10.333308655220822"><ele>15.5</ele><time>2026-04-25T08:58:31Z</time></trkpt><trkpt lat="43.47986350286428" lon="10.333292607936466"><ele>15.0</ele><time>2026-04-25T08:58:32Z</time></trkpt><trkpt lat="43.479784218911355" lon="10.333264274018836"><ele>14.500000000000002</ele><time>2026-04-25T08:58:33Z</time></trkpt><trkpt lat="43.47970497761975" lon="10.333237102527368"><ele>14.0</ele><time>2026-04-25T08:58:34Z</time></trkpt><trkpt lat="43.479625748693316" lon="10.333207940664863"><ele>14.666666666666668</ele><time>2026-04-25T08:58:35Z</time></trkpt><trkpt lat="43.47954788975964" lon="10.333174760125782"><ele>15.333333333333334</ele><time>2026-04-25T08:58:36Z</time></trkpt><trkpt lat="43.479474244760056" lon="10.333139264186652"><ele>16.0</ele><time>2026-04-25T08:58:37Z</time></trkpt><trkpt lat="43.47939930483447" lon="10.333107435467836"><ele>16.666666666666668</ele><time>2026-04-25T08:58:38Z</time></trkpt><trkpt lat="43.47932508919137" lon="10.333070889515499"><ele>17.333333333333332</ele><time>2026-04-25T08:58:39Z</time></trkpt><trkpt lat="43.47925496238599" lon="10.333029917466275"><ele>18.0</ele><time>2026-04-25T08:58:40Z</time></trkpt><trkpt lat="43.47918362569886" lon="10.332991259641474"><ele>18.28571428571429</ele><time>2026-04-25T08:58:41Z</time></trkpt><trkpt lat="43.47911342179984" lon="10.332953478065713"><ele>18.571428571428573</ele><time>2026-04-25T08:58:42Z</time></trkpt><trkpt lat="43.47904628743242" lon="10.332907327402046"><ele>18.857142857142858</ele><time>2026-04-25T08:58:43Z</time></trkpt><trkpt lat="43.47898232916836" lon="10.332856333730122"><ele>19.142857142857146</ele><time>2026-04-25T08:58:44Z</time></trkpt><trkpt lat="43.47891633211273" lon="10.332809514425515"><ele>19.42857142857143</ele><time>2026-04-25T08:58:45Z</time></trkpt><trkpt lat="43.47885405124747" lon="10.332760931944712"><ele>19.714285714285715</ele><time>2026-04-25T08:58:46Z</time></trkpt><trkpt lat="43.478788657352126" lon="10.33270600178967"><ele>20.0</ele><time>2026-04-25T08:58:47Z</time></trkpt><trkpt lat="43.47868170815071" lon="10.332580855274992"><ele>20.0</ele><time>2026-04-25T08:58:49Z</time></trkpt><trkpt lat="43.4786333414413" lon="10.332508099534971"><ele>20.0</ele><time>2026-04-25T08:58:50Z</time></trkpt><trkpt lat="43.47859090240309" lon="10.33243265802404"><ele>20.0</ele><time>2026-04-25T08:58:51Z</time></trkpt><trkpt lat="43.47854928868586" lon="10.332351962175547"><ele>20.0</ele><time>2026-04-25T08:58:52Z</time></trkpt><trkpt lat="43.478509861256704" lon="10.332272123944962"><ele>20.0</ele><time>2026-04-25T08:58:53Z</time></trkpt><trkpt lat="43.478467967864226" lon="10.33219501029586"><ele>20.0</ele><time>2026-04-25T08:58:54Z</time></trkpt><trkpt lat="43.478423780483716" lon="10.332123932687246"><ele>20.0</ele><time>2026-04-25T08:58:55Z</time></trkpt><trkpt lat="43.47838621999461" lon="10.332038538477281"><ele>18.285714285714285</ele><time>2026-04-25T08:58:56Z</time></trkpt><trkpt lat="43.47834244231712" lon="10.331970642248256"><ele>16.571428571428573</ele><time>2026-04-25T08:58:57Z</time></trkpt><trkpt lat="43.47829449779409" lon="10.331895334688712"><ele>14.857142857142858</ele><time>2026-04-25T08:58:58Z</time></trkpt><trkpt lat="43.478251181767575" lon="10.331821233698172"><ele>13.142857142857142</ele><time>2026-04-25T08:58:59Z</time></trkpt><trkpt lat="43.47820420507059" lon="10.331749909191487"><ele>11.428571428571427</ele><time>2026-04-25T08:59:00Z</time></trkpt><trkpt lat="43.47815311927314" lon="10.331686777431198"><ele>9.714285714285714</ele><time>2026-04-25T08:59:01Z</time></trkpt><trkpt lat="43.478102885575765" lon="10.331619205446517"><ele>8.0</ele><time>2026-04-25T08:59:02Z</time></trkpt><trkpt lat="43.478052939497104" lon="10.331557323704716"><ele>8.0</ele><time>2026-04-25T08:59:03Z</time></trkpt><trkpt lat="43.47800139607879" lon="10.331497470353646"><ele>7.999999999999999</ele><time>2026-04-25T08:59:04Z</time></trkpt><trkpt lat="43.47795273293167" lon="10.331431429538434"><ele>8.0</ele><time>2026-04-25T08:59:05Z</time></trkpt><trkpt lat="43.477900677020884" lon="10.331370157852712"><ele>8.0</ele><time>2026-04-25T08:59:06Z</time></trkpt><trkpt lat="43.47785046941444" lon="10.331309882575896"><ele>7.999999999999999</ele><time>2026-04-25T08:59:07Z</time></trkpt><trkpt lat="43.47779994190342" lon="10.33124909383647"><ele>8.0</ele><time>2026-04-25T08:59:08Z</time></trkpt><trkpt lat="43.47775000540073" lon="10.331188586618573"><ele>8.0</ele><time>2026-04-25T08:59:09Z</time></trkpt><trkpt lat="43.47769759856646" lon="10.331130447173287"><ele>8.333333333333332</ele><time>2026-04-25T08:59:10Z</time></trkpt><trkpt lat="43.47764585774035" lon="10.331072978440046"><ele>8.666666666666666</ele><time>2026-04-25T08:59:11Z</time></trkpt><trkpt lat="43.47759561513219" lon="10.331017156526952"><ele>9.0</ele><time>2026-04-25T08:59:12Z</time></trkpt><trkpt lat="43.477541765894145" lon="10.330959066043691"><ele>9.333333333333334</ele><time>2026-04-25T08:59:13Z</time></trkpt><trkpt lat="43.477438553787195" lon="10.33085085788979"><ele>9.666666666666668</ele><time>2026-04-25T08:59:15Z</time></trkpt><trkpt lat="43.47738499771166" lon="10.330801560087787"><ele>10.0</ele><time>2026-04-25T08:59:16Z</time></trkpt><trkpt lat="43.477324306780254" lon="10.330760066776008"><ele>10.0</ele><time>2026-04-25T08:59:17Z</time></trkpt><trkpt lat="43.47726365909546" lon="10.330721018876284"><ele>10.0</ele><time>2026-04-25T08:59:18Z</time></trkpt><trkpt lat="43.47720307076504" lon="10.330681006890854"><ele>10.0</ele><time>2026-04-25T08:59:19Z</time></trkpt><trkpt lat="43.47714679790908" lon="10.330640402587521"><ele>10.0</ele><time>2026-04-25T08:59:20Z</time></trkpt><trkpt lat="43.47708421825756" lon="10.33061003801809"><ele>10.0</ele><time>2026-04-25T08:59:21Z</time></trkpt><trkpt lat="43.47702317977449" lon="10.33057149637807"><ele>10.0</ele><time>2026-04-25T08:59:22Z</time></trkpt><trkpt lat="43.47693938320094" lon="10.330539451345835"><ele>10.0</ele><time>2026-04-25T08:59:23Z</time></trkpt><trkpt lat="43.47684188488409" lon="10.33047074502039"><ele>9.4</ele><time>2026-04-25T08:59:25Z</time></trkpt><trkpt lat="43.47678094194323" lon="10.330443124951413"><ele>8.8</ele><time>2026-04-25T08:59:26Z</time></trkpt><trkpt lat="43.47666546355647" lon="10.330379809516879"><ele>8.2</ele><time>2026-04-25T08:59:28Z</time></trkpt><trkpt lat="43.47660310396136" lon="10.330349518620817"><ele>7.6</ele><time>2026-04-25T08:59:29Z</time></trkpt><trkpt lat="43.47648195862679" lon="10.330306519818935"><ele>7.0</ele><time>2026-04-25T08:59:31Z</time></trkpt><trkpt lat="43.47635961894021" lon="10.330286652643936"><ele>7.0</ele><time>2026-04-25T08:59:33Z</time></trkpt><trkpt lat="43.47629385504073" lon="10.330288048619414"><ele>7.0</ele><time>2026-04-25T08:59:34Z</time></trkpt><trkpt lat="43.47623001834931" lon="10.330302344863979"><ele>7.0</ele><time>2026-04-25T08:59:35Z</time></trkpt><trkpt lat="43.47616404497397" lon="10.330323058158905"><ele>7.0</ele><time>2026-04-25T08:59:36Z</time></trkpt><trkpt lat="43.47610046096428" lon="10.330348667714064"><ele>7.0</ele><time>2026-04-25T08:59:37Z</time></trkpt><trkpt lat="43.476041108527674" lon="10.330386912824268"><ele>7.0</ele><time>2026-04-25T08:59:38Z</time></trkpt><trkpt lat="43.4759822870696" lon="10.330425173583025"><ele>7.0</ele><time>2026-04-25T08:59:39Z</time></trkpt><trkpt lat="43.475924019853665" lon="10.330465950705515"><ele>6.714285714285714</ele><time>2026-04-25T08:59:40Z</time></trkpt><trkpt lat="43.475868156530886" lon="10.330512111387357"><ele>6.428571428571429</ele><time>2026-04-25T08:59:41Z</time></trkpt><trkpt lat="43.4758165006255" lon="10.330567190404228"><ele>6.142857142857142</ele><time>2026-04-25T08:59:42Z</time></trkpt><trkpt lat="43.47576398786188" lon="10.330621753289421"><ele>5.857142857142858</ele><time>2026-04-25T08:59:43Z</time></trkpt><trkpt lat="43.47571565068349" lon="10.330678446746234"><ele>5.571428571428571</ele><time>2026-04-25T08:59:44Z</time></trkpt><trkpt lat="43.47566518382361" lon="10.330739079776688"><ele>5.285714285714286</ele><time>2026-04-25T08:59:45Z</time></trkpt><trkpt lat="43.475618231624445" lon="10.330798507861154"><ele>5.0</ele><time>2026-04-25T08:59:46Z</time></trkpt><trkpt lat="43.47556905614747" lon="10.330861736948842"><ele>5.666666666666667</ele><time>2026-04-25T08:59:47Z</time></trkpt><trkpt lat="43.47552680707039" lon="10.330929548315153"><ele>6.333333333333334</ele><time>2026-04-25T08:59:48Z</time></trkpt><trkpt lat="43.47547574490646" lon="10.330995982720948"><ele>7.0</ele><time>2026-04-25T08:59:49Z</time></trkpt><trkpt lat="43.47536012492311" lon="10.331084970048595"><ele>7.666666666666667</ele><time>2026-04-25T08:59:51Z</time></trkpt><trkpt lat="43.47529367780673" lon="10.33111393924702"><ele>8.333333333333334</ele><time>2026-04-25T08:59:52Z</time></trkpt><trkpt lat="43.47522739096057" lon="10.331134243220228"><ele>9.0</ele><time>2026-04-25T08:59:53Z</time></trkpt><trkpt lat="43.47515993444936" lon="10.331145431363112"><ele>9.000000000000002</ele><time>2026-04-25T08:59:54Z</time></trkpt><trkpt lat="43.475090934194284" lon="10.331144360549992"><ele>9.0</ele><time>2026-04-25T08:59:55Z</time></trkpt><trkpt lat="43.47502291180104" lon="10.33113547239191"><ele>9.0</ele><time>2026-04-25T08:59:56Z</time></trkpt><trkpt lat="43.47495509019942" lon="10.331118473914312"><ele>9.0</ele><time>2026-04-25T08:59:57Z</time></trkpt><trkpt lat="43.47488866293028" lon="10.331104262587427"><ele>9.0</ele><time>2026-04-25T08:59:58Z</time></trkpt><trkpt lat="43.47482178279058" lon="10.331095970370589"><ele>9.000000000000002</ele><time>2026-04-25T08:59:59Z</time></trkpt><trkpt lat="43.474751049306725" lon="10.331084595083722"><ele>9.0</ele><time>2026-04-25T09:00:00Z</time></trkpt><trkpt lat="43.474687455626736" lon="10.3310710111291"><ele>9.0</ele><time>2026-04-25T09:00:01Z</time></trkpt><trkpt lat="43.474619374736896" lon="10.331065649424636"><ele>9.0</ele><time>2026-04-25T09:00:02Z</time></trkpt><trkpt lat="43.47455315562208" lon="10.33105992270896"><ele>9.0</ele><time>2026-04-25T09:00:03Z</time></trkpt><trkpt lat="43.47448665040942" lon="10.331053766913993"><ele>9.0</ele><time>2026-04-25T09:00:04Z</time></trkpt><trkpt lat="43.47442006737595" lon="10.331042333670633"><ele>9.0</ele><time>2026-04-25T09:00:05Z</time></trkpt><trkpt lat="43.4742888974705" lon="10.331028221223532"><ele>9.0</ele><time>2026-04-25T09:00:07Z</time></trkpt><trkpt lat="43.474222665549874" lon="10.331030669321432"><ele>8.833333333333334</ele><time>2026-04-25T09:00:08Z</time></trkpt><trkpt lat="43.47415949017811" lon="10.331035130157417"><ele>8.666666666666666</ele><time>2026-04-25T09:00:09Z</time></trkpt><trkpt lat="43.474092643969136" lon="10.331062664622438"><ele>8.5</ele><time>2026-04-25T09:00:10Z</time></trkpt><trkpt lat="43.47398040650806" lon="10.33112417049059"><ele>8.333333333333332</ele><time>2026-04-25T09:00:12Z</time></trkpt><trkpt lat="43.47392592847114" lon="10.331177753910152"><ele>8.166666666666666</ele><time>2026-04-25T09:00:13Z</time></trkpt><trkpt lat="43.47382310230352" lon="10.33126983489892"><ele>8.0</ele><time>2026-04-25T09:00:15Z</time></trkpt><trkpt lat="43.473716893958226" lon="10.331354847010898"><ele>9.0</ele><time>2026-04-25T09:00:17Z</time></trkpt><trkpt lat="43.473621452049066" lon="10.331436150557224"><ele>10.0</ele><time>2026-04-25T09:00:19Z</time></trkpt><trkpt lat="43.473529651102275" lon="10.331510002865812"><ele>11.0</ele><time>2026-04-25T09:00:21Z</time></trkpt><trkpt lat="43.473439282280594" lon="10.331581347622107"><ele>12.0</ele><time>2026-04-25T09:00:23Z</time></trkpt><trkpt lat="43.47335632140798" lon="10.33165349001813"><ele>13.0</ele><time>2026-04-25T09:00:25Z</time></trkpt><trkpt lat="43.47328115757188" lon="10.331759278857861"><ele>13.0</ele><time>2026-04-25T09:00:27Z</time></trkpt><trkpt lat="43.47322413219443" lon="10.33179969192379"><ele>13.0</ele><time>2026-04-25T09:00:28Z</time></trkpt><trkpt lat="43.473190386103056" lon="10.331874367967847"><ele>13.0</ele><time>2026-04-25T09:00:29Z</time></trkpt><trkpt lat="43.47313340876014" lon="10.331926297435755"><ele>13.0</ele><time>2026-04-25T09:00:30Z</time></trkpt><trkpt lat="43.47309337826521" lon="10.331998242621365"><ele>13.0</ele><time>2026-04-25T09:00:31Z</time></trkpt><trkpt lat="43.47305565623236" lon="10.332074274321224"><ele>13.0</ele><time>2026-04-25T09:00:32Z</time></trkpt><trkpt lat="43.47303519315562" lon="10.332162785479099"><ele>13.0</ele><time>2026-04-25T09:00:33Z</time></trkpt><trkpt lat="43.47299864797739" lon="10.332243737374425"><ele>12.285714285714285</ele><time>2026-04-25T09:00:34Z</time></trkpt><trkpt lat="43.47295057770016" lon="10.332314119550299"><ele>11.571428571428573</ele><time>2026-04-25T09:00:35Z</time></trkpt><trkpt lat="43.472915725827434" lon="10.332394591508292"><ele>10.857142857142858</ele><time>2026-04-25T09:00:36Z</time></trkpt><trkpt lat="43.47287960552266" lon="10.332477992015699"><ele>10.142857142857142</ele><time>2026-04-25T09:00:37Z</time></trkpt><trkpt lat="43.47284445533439" lon="10.33255915307491"><ele>9.428571428571427</ele><time>2026-04-25T09:00:38Z</time></trkpt><trkpt lat="43.472810661146006" lon="10.33263718283019"><ele>8.714285714285714</ele><time>2026-04-25T09:00:39Z</time></trkpt><trkpt lat="43.47277694554216" lon="10.332713405480908"><ele>8.0</ele><time>2026-04-25T09:00:40Z</time></trkpt><trkpt lat="43.47271057392042" lon="10.33285336936664"><ele>8.0</ele><time>2026-04-25T09:00:42Z</time></trkpt><trkpt lat="43.47264150176736" lon="10.332987838720761"><ele>8.0</ele><time>2026-04-25T09:00:44Z</time></trkpt><trkpt lat="43.472542212149236" lon="10.33309643530938"><ele>8.0</ele><time>2026-04-25T09:00:46Z</time></trkpt><trkpt lat="43.4724957634135" lon="10.333163667809325"><ele>8.0</ele><time>2026-04-25T09:00:47Z</time></trkpt><trkpt lat="43.472407751120826" lon="10.33327664252373"><ele>8.0</ele><time>2026-04-25T09:00:49Z</time></trkpt><trkpt lat="43.4723568264521" lon="10.33333241364106"><ele>8.714285714285714</ele><time>2026-04-25T09:00:50Z</time></trkpt><trkpt lat="43.472311697011754" lon="10.333404052215906"><ele>9.428571428571427</ele><time>2026-04-25T09:00:51Z</time></trkpt><trkpt lat="43.47226406806018" lon="10.33346825816774"><ele>10.142857142857142</ele><time>2026-04-25T09:00:52Z</time></trkpt><trkpt lat="43.47221711086735" lon="10.33353406932029"><ele>10.857142857142858</ele><time>2026-04-25T09:00:53Z</time></trkpt><trkpt lat="43.47217147027103" lon="10.333596806678214"><ele>11.571428571428573</ele><time>2026-04-25T09:00:54Z</time></trkpt><trkpt lat="43.4721252386613" lon="10.333657979861512"><ele>12.285714285714285</ele><time>2026-04-25T09:00:55Z</time></trkpt><trkpt lat="43.472079141748075" lon="10.333720883061593"><ele>13.0</ele><time>2026-04-25T09:00:56Z</time></trkpt><trkpt lat="43.47203597582162" lon="10.33378462965051"><ele>12.0</ele><time>2026-04-25T09:00:57Z</time></trkpt><trkpt lat="43.47198889338576" lon="10.33384438989747"><ele>11.0</ele><time>2026-04-25T09:00:58Z</time></trkpt><trkpt lat="43.47194349326249" lon="10.333909228838527"><ele>10.0</ele><time>2026-04-25T09:00:59Z</time></trkpt><trkpt lat="43.47189627036911" lon="10.33397310486222"><ele>9.0</ele><time>2026-04-25T09:01:00Z</time></trkpt><trkpt lat="43.4718501455186" lon="10.334037605153034"><ele>8.0</ele><time>2026-04-25T09:01:01Z</time></trkpt><trkpt lat="43.47180410226912" lon="10.334101611335136"><ele>7.0</ele><time>2026-04-25T09:01:02Z</time></trkpt><trkpt lat="43.471756572584766" lon="10.334167702953579"><ele>6.0</ele><time>2026-04-25T09:01:03Z</time></trkpt><trkpt lat="43.47170667417454" lon="10.334230007273165"><ele>5.999999999999999</ele><time>2026-04-25T09:01:04Z</time></trkpt><trkpt lat="43.471659332569494" lon="10.334298209358058"><ele>6.0</ele><time>2026-04-25T09:01:05Z</time></trkpt><trkpt lat="43.47161416795656" lon="10.334366761113388"><ele>6.0</ele><time>2026-04-25T09:01:06Z</time></trkpt><trkpt lat="43.471564311414205" lon="10.334429012285533"><ele>6.0</ele><time>2026-04-25T09:01:07Z</time></trkpt><trkpt lat="43.47151714823585" lon="10.334497424332445"><ele>6.0</ele><time>2026-04-25T09:01:08Z</time></trkpt><trkpt lat="43.47146766507712" lon="10.33456509977223"><ele>5.999999999999999</ele><time>2026-04-25T09:01:09Z</time></trkpt><trkpt lat="43.471418927780256" lon="10.334629723705984"><ele>6.0</ele><time>2026-04-25T09:01:10Z</time></trkpt><trkpt lat="43.47136896182306" lon="10.334695786904282"><ele>6.285714285714285</ele><time>2026-04-25T09:01:11Z</time></trkpt><trkpt lat="43.471322497659784" lon="10.334767667207709"><ele>6.571428571428571</ele><time>2026-04-25T09:01:12Z</time></trkpt><trkpt lat="43.47127299428178" lon="10.334831062842689"><ele>6.857142857142857</ele><time>2026-04-25T09:01:13Z</time></trkpt><trkpt lat="43.471225320652145" lon="10.334895642465467"><ele>7.142857142857142</ele><time>2026-04-25T09:01:14Z</time></trkpt><trkpt lat="43.471178366885944" lon="10.334962238094839"><ele>7.428571428571428</ele><time>2026-04-25T09:01:15Z</time></trkpt><trkpt lat="43.471132699523295" lon="10.335031551730784"><ele>7.7142857142857135</ele><time>2026-04-25T09:01:16Z</time></trkpt><trkpt lat="43.47109324713087" lon="10.335104052310598"><ele>8.0</ele><time>2026-04-25T09:01:17Z</time></trkpt><trkpt lat="43.47104645182718" lon="10.335168658546268"><ele>7.999999999999999</ele><time>2026-04-25T09:01:18Z</time></trkpt><trkpt lat="43.47100144346952" lon="10.335233182095946"><ele>8.0</ele><time>2026-04-25T09:01:19Z</time></trkpt><trkpt lat="43.47095303737881" lon="10.335291743256064"><ele>8.0</ele><time>2026-04-25T09:01:20Z</time></trkpt><trkpt lat="43.47091172375138" lon="10.335357625597508"><ele>8.0</ele><time>2026-04-25T09:01:21Z</time></trkpt><trkpt lat="43.4708158962634" lon="10.335469089890118"><ele>7.999999999999999</ele><time>2026-04-25T09:01:23Z</time></trkpt><trkpt lat="43.47071524117276" lon="10.335569289918169"><ele>8.0</ele><time>2026-04-25T09:01:25Z</time></trkpt><trkpt lat="43.47061034037555" lon="10.33565673505378"><ele>9.0</ele><time>2026-04-25T09:01:27Z</time></trkpt><trkpt lat="43.47050199673627" lon="10.335736153161024"><ele>10.0</ele><time>2026-04-25T09:01:29Z</time></trkpt><trkpt lat="43.47038850021131" lon="10.33580569220192"><ele>11.0</ele><time>2026-04-25T09:01:31Z</time></trkpt><trkpt lat="43.47027661364056" lon="10.335865158250247"><ele>12.0</ele><time>2026-04-25T09:01:33Z</time></trkpt><trkpt lat="43.47016664670629" lon="10.335926088755679"><ele>12.0</ele><time>2026-04-25T09:01:35Z</time></trkpt><trkpt lat="43.47006463277683" lon="10.335984098808614"><ele>12.0</ele><time>2026-04-25T09:01:37Z</time></trkpt><trkpt lat="43.469968235408686" lon="10.336049861066163"><ele>12.0</ele><time>2026-04-25T09:01:39Z</time></trkpt><trkpt lat="43.46988017505227" lon="10.336134349459648"><ele>12.0</ele><time>2026-04-25T09:01:41Z</time></trkpt><trkpt lat="43.46979626177022" lon="10.336222491128227"><ele>12.0</ele><time>2026-04-25T09:01:43Z</time></trkpt><trkpt lat="43.46971759230061" lon="10.336302859110297"><ele>11.8</ele><time>2026-04-25T09:01:45Z</time></trkpt><trkpt lat="43.469637811072" lon="10.336395226805347"><ele>11.6</ele><time>2026-04-25T09:01:47Z</time></trkpt><trkpt lat="43.46955424087159" lon="10.336478724274475"><ele>11.4</ele><time>2026-04-25T09:01:49Z</time></trkpt><trkpt lat="43.46947693630582" lon="10.33656103702895"><ele>11.200000000000001</ele><time>2026-04-25T09:01:51Z</time></trkpt><trkpt lat="43.46940598134974" lon="10.33665640355768"><ele>11.0</ele><time>2026-04-25T09:01:53Z</time></trkpt><trkpt lat="43.46934091659068" lon="10.336762078311947"><ele>11.0</ele><time>2026-04-25T09:01:55Z</time></trkpt><trkpt lat="43.46928794505907" lon="10.33687189702123"><ele>11.0</ele><time>2026-04-25T09:01:57Z</time></trkpt><trkpt lat="43.469234345578194" lon="10.336995774034428"><ele>11.0</ele><time>2026-04-25T09:01:59Z</time></trkpt><trkpt lat="43.469182353621534" lon="10.337108292693825"><ele>11.0</ele><time>2026-04-25T09:02:01Z</time></trkpt><trkpt lat="43.46912909524007" lon="10.33722363983991"><ele>11.0</ele><time>2026-04-25T09:02:03Z</time></trkpt><trkpt lat="43.46906938850582" lon="10.337337282622824"><ele>10.8</ele><time>2026-04-25T09:02:05Z</time></trkpt><trkpt lat="43.46899511106777" lon="10.337430392309075"><ele>10.600000000000001</ele><time>2026-04-25T09:02:07Z</time></trkpt><trkpt lat="43.468916638781295" lon="10.337513544666198"><ele>10.4</ele><time>2026-04-25T09:02:09Z</time></trkpt><trkpt lat="43.468836617257985" lon="10.337591075673874"><ele>10.2</ele><time>2026-04-25T09:02:11Z</time></trkpt><trkpt lat="43.4687565199298" lon="10.337666766134628"><ele>10.0</ele><time>2026-04-25T09:02:13Z</time></trkpt><trkpt lat="43.468678776354295" lon="10.33775376392042"><ele>10.0</ele><time>2026-04-25T09:02:15Z</time></trkpt><trkpt lat="43.46861344050382" lon="10.337852731801613"><ele>10.0</ele><time>2026-04-25T09:02:17Z</time></trkpt><trkpt lat="43.468544080018276" lon="10.337950622415514"><ele>10.0</ele><time>2026-04-25T09:02:19Z</time></trkpt><trkpt lat="43.468481168243144" lon="10.338050973488691"><ele>10.0</ele><time>2026-04-25T09:02:21Z</time></trkpt><trkpt lat="43.46840971783308" lon="10.338148281999615"><ele>10.0</ele><time>2026-04-25T09:02:23Z</time></trkpt><trkpt lat="43.46834426066899" lon="10.338247238695661"><ele>12.6</ele><time>2026-04-25T09:02:25Z</time></trkpt><trkpt lat="43.46827560212291" lon="10.338344048116598"><ele>15.2</ele><time>2026-04-25T09:02:27Z</time></trkpt><trkpt lat="43.46820763987863" lon="10.338445990962274"><ele>17.799999999999997</ele><time>2026-04-25T09:02:29Z</time></trkpt><trkpt lat="43.468138582344245" lon="10.338547969528701"><ele>20.4</ele><time>2026-04-25T09:02:31Z</time></trkpt><trkpt lat="43.46806832915822" lon="10.338649903202707"><ele>23.0</ele><time>2026-04-25T09:02:33Z</time></trkpt><trkpt lat="43.46799818539391" lon="10.338758550312875"><ele>22.2</ele><time>2026-04-25T09:02:35Z</time></trkpt><trkpt lat="43.46792526017983" lon="10.338862329528082"><ele>21.4</ele><time>2026-04-25T09:02:37Z</time></trkpt><trkpt lat="43.46785176084972" lon="10.338967558518515"><ele>20.599999999999998</ele><time>2026-04-25T09:02:39Z</time></trkpt><trkpt lat="43.46777978066858" lon="10.339076315173262"><ele>19.799999999999997</ele><time>2026-04-25T09:02:41Z</time></trkpt><trkpt lat="43.46770690700428" lon="10.339177590533074"><ele>19.0</ele><time>2026-04-25T09:02:43Z</time></trkpt><trkpt lat="43.467635394241846" lon="10.339278327089275"><ele>19.0</ele><time>2026-04-25T09:02:45Z</time></trkpt><trkpt lat="43.46756064010984" lon="10.339374516632171"><ele>19.0</ele><time>2026-04-25T09:02:47Z</time></trkpt><trkpt lat="43.46748485349345" lon="10.339470943076805"><ele>19.0</ele><time>2026-04-25T09:02:49Z</time></trkpt><trkpt lat="43.467408679542025" lon="10.339560997240044"><ele>19.0</ele><time>2026-04-25T09:02:51Z</time></trkpt><trkpt lat="43.46733381725559" lon="10.33965607114111"><ele>19.0</ele><time>2026-04-25T09:02:53Z</time></trkpt><trkpt lat="43.46725547300983" lon="10.3397487856234"><ele>17.8</ele><time>2026-04-25T09:02:55Z</time></trkpt><trkpt lat="43.46718491922425" lon="10.339846409957218"><ele>16.599999999999998</ele><time>2026-04-25T09:02:57Z</time></trkpt><trkpt lat="43.46712068117995" lon="10.339953993475694"><ele>15.4</ele><time>2026-04-25T09:02:59Z</time></trkpt><trkpt lat="43.46706044579091" lon="10.340064181486023"><ele>14.2</ele><time>2026-04-25T09:03:01Z</time></trkpt><trkpt lat="43.467004965681056" lon="10.340180470188319"><ele>13.0</ele><time>2026-04-25T09:03:03Z</time></trkpt><trkpt lat="43.46695026082603" lon="10.340302846198458"><ele>13.0</ele><time>2026-04-25T09:03:05Z</time></trkpt><trkpt lat="43.46689234619123" lon="10.340423931658242"><ele>13.0</ele><time>2026-04-25T09:03:07Z</time></trkpt><trkpt lat="43.46682501037768" lon="10.34053860481079"><ele>13.0</ele><time>2026-04-25T09:03:09Z</time></trkpt><trkpt lat="43.46674938582692" lon="10.34064230026743"><ele>13.0</ele><time>2026-04-25T09:03:11Z</time></trkpt><trkpt lat="43.4666610760674" lon="10.340720698421968"><ele>13.0</ele><time>2026-04-25T09:03:13Z</time></trkpt><trkpt lat="43.46657173452138" lon="10.340796555655428"><ele>13.4</ele><time>2026-04-25T09:03:15Z</time></trkpt><trkpt lat="43.46649124875772" lon="10.340880579728058"><ele>13.8</ele><time>2026-04-25T09:03:17Z</time></trkpt><trkpt lat="43.46641372544877" lon="10.340971412138488"><ele>14.2</ele><time>2026-04-25T09:03:19Z</time></trkpt><trkpt lat="43.46633629770028" lon="10.341069747530277"><ele>14.6</ele><time>2026-04-25T09:03:21Z</time></trkpt><trkpt lat="43.466263560748594" lon="10.341170504378237"><ele>15.0</ele><time>2026-04-25T09:03:23Z</time></trkpt><trkpt lat="43.46619058984354" lon="10.341270908136819"><ele>15.0</ele><time>2026-04-25T09:03:25Z</time></trkpt><trkpt lat="43.46611526856427" lon="10.341367453523127"><ele>15.0</ele><time>2026-04-25T09:03:27Z</time></trkpt><trkpt lat="43.466039256214266" lon="10.341459983310468"><ele>15.0</ele><time>2026-04-25T09:03:29Z</time></trkpt><trkpt lat="43.46596369701198" lon="10.341550960622858"><ele>15.0</ele><time>2026-04-25T09:03:31Z</time></trkpt><trkpt lat="43.4658917780493" lon="10.341651864267774"><ele>15.0</ele><time>2026-04-25T09:03:33Z</time></trkpt><trkpt lat="43.46581661077498" lon="10.341747925025174"><ele>15.6</ele><time>2026-04-25T09:03:35Z</time></trkpt><trkpt lat="43.46574188461989" lon="10.341852034731321"><ele>16.2</ele><time>2026-04-25T09:03:37Z</time></trkpt><trkpt lat="43.46566756117005" lon="10.341951980919333"><ele>16.8</ele><time>2026-04-25T09:03:39Z</time></trkpt><trkpt lat="43.465587541192406" lon="10.342059823555791"><ele>17.4</ele><time>2026-04-25T09:03:41Z</time></trkpt><trkpt lat="43.4654955105537" lon="10.34216531696717"><ele>18.0</ele><time>2026-04-25T09:03:43Z</time></trkpt><trkpt lat="43.46542563460275" lon="10.342285619190081"><ele>18.0</ele><time>2026-04-25T09:03:45Z</time></trkpt><trkpt lat="43.46535250757888" lon="10.342395657847693"><ele>18.0</ele><time>2026-04-25T09:03:47Z</time></trkpt><trkpt lat="43.46528061369282" lon="10.342510905847245"><ele>18.0</ele><time>2026-04-25T09:03:49Z</time></trkpt><trkpt lat="43.46520810804284" lon="10.342631174091656"><ele>18.0</ele><time>2026-04-25T09:03:51Z</time></trkpt><trkpt lat="43.46515584489227" lon="10.34276214409534"><ele>18.0</ele><time>2026-04-25T09:03:53Z</time></trkpt><trkpt lat="43.46511820072625" lon="10.34289971516298"><ele>18.0</ele><time>2026-04-25T09:03:55Z</time></trkpt><trkpt lat="43.465096536852556" lon="10.34303821031388"><ele>18.0</ele><time>2026-04-25T09:03:57Z</time></trkpt><trkpt lat="43.46508408807136" lon="10.343184970492088"><ele>18.0</ele><time>2026-04-25T09:03:59Z</time></trkpt><trkpt lat="43.465090620726365" lon="10.343332868611952"><ele>18.0</ele><time>2026-04-25T09:04:01Z</time></trkpt><trkpt lat="43.46510297111635" lon="10.343484082346436"><ele>18.0</ele><time>2026-04-25T09:04:03Z</time></trkpt><trkpt lat="43.465120264194624" lon="10.343641808848073"><ele>19.333333333333332</ele><time>2026-04-25T09:04:05Z</time></trkpt><trkpt lat="43.4651279758222" lon="10.343813965364124"><ele>20.666666666666664</ele><time>2026-04-25T09:04:07Z</time></trkpt><trkpt lat="43.46512021494407" lon="10.343905613058272"><ele>22.0</ele><time>2026-04-25T09:04:08Z</time></trkpt><trkpt lat="43.465108639858435" lon="10.343996456523374"><ele>23.333333333333332</ele><time>2026-04-25T09:04:09Z</time></trkpt><trkpt lat="43.46508772752009" lon="10.344090906787152"><ele>24.666666666666664</ele><time>2026-04-25T09:04:10Z</time></trkpt><trkpt lat="43.46506678687087" lon="10.344185462598345"><ele>26.0</ele><time>2026-04-25T09:04:11Z</time></trkpt><trkpt lat="43.465042545380136" lon="10.344286674035816"><ele>27.666666666666664</ele><time>2026-04-25T09:04:12Z</time></trkpt><trkpt lat="43.46501772313272" lon="10.344387677493115"><ele>29.333333333333332</ele><time>2026-04-25T09:04:13Z</time></trkpt><trkpt lat="43.46499130455099" lon="10.344494625072462"><ele>31.0</ele><time>2026-04-25T09:04:14Z</time></trkpt><trkpt lat="43.464970498221874" lon="10.344607050320503"><ele>32.666666666666664</ele><time>2026-04-25T09:04:15Z</time></trkpt><trkpt lat="43.46495364005356" lon="10.344720530205095"><ele>34.333333333333336</ele><time>2026-04-25T09:04:16Z</time></trkpt><trkpt lat="43.46493913896491" lon="10.344838096732113"><ele>36.0</ele><time>2026-04-25T09:04:17Z</time></trkpt><trkpt lat="43.46492518863216" lon="10.344963496932566"><ele>36.6</ele><time>2026-04-25T09:04:18Z</time></trkpt><trkpt lat="43.46491159121242" lon="10.34509179008499"><ele>37.2</ele><time>2026-04-25T09:04:19Z</time></trkpt><trkpt lat="43.464898354341294" lon="10.345219348130962"><ele>37.8</ele><time>2026-04-25T09:04:20Z</time></trkpt><trkpt lat="43.46488698661126" lon="10.345354076220374"><ele>38.4</ele><time>2026-04-25T09:04:21Z</time></trkpt><trkpt lat="43.46487718028175" lon="10.345489311468397"><ele>39.0</ele><time>2026-04-25T09:04:22Z</time></trkpt><trkpt lat="43.46487237057432" lon="10.3456268897848"><ele>39.0</ele><time>2026-04-25T09:04:23Z</time></trkpt><trkpt lat="43.46487388856441" lon="10.345769134155033"><ele>39.0</ele><time>2026-04-25T09:04:24Z</time></trkpt><trkpt lat="43.46488347733961" lon="10.345909561674352"><ele>39.0</ele><time>2026-04-25T09:04:25Z</time></trkpt><trkpt lat="43.46489470811325" lon="10.3460474905729"><ele>39.0</ele><time>2026-04-25T09:04:26Z</time></trkpt><trkpt lat="43.46490943773767" lon="10.346185630320864"><ele>39.0</ele><time>2026-04-25T09:04:27Z</time></trkpt><trkpt lat="43.464922861732006" lon="10.346321481612193"><ele>38.4</ele><time>2026-04-25T09:04:28Z</time></trkpt><trkpt lat="43.464947788842906" lon="10.3464550003266"><ele>37.8</ele><time>2026-04-25T09:04:29Z</time></trkpt><trkpt lat="43.46496901335494" lon="10.346586964007752"><ele>37.2</ele><time>2026-04-25T09:04:30Z</time></trkpt><trkpt lat="43.464993515913" lon="10.346716034435746"><ele>36.6</ele><time>2026-04-25T09:04:31Z</time></trkpt><trkpt lat="43.46501546756318" lon="10.346840454154714"><ele>36.0</ele><time>2026-04-25T09:04:32Z</time></trkpt><trkpt lat="43.46503472193758" lon="10.346961554398758"><ele>36.0</ele><time>2026-04-25T09:04:33Z</time></trkpt><trkpt lat="43.465058815400155" lon="10.347084843675397"><ele>36.0</ele><time>2026-04-25T09:04:34Z</time></trkpt><trkpt lat="43.465075444467296" lon="10.347202869943056"><ele>36.0</ele><time>2026-04-25T09:04:35Z</time></trkpt><trkpt lat="43.46509110025136" lon="10.34732736944053"><ele>36.0</ele><time>2026-04-25T09:04:36Z</time></trkpt><trkpt lat="43.46509820764061" lon="10.347457911464765"><ele>36.0</ele><time>2026-04-25T09:04:37Z</time></trkpt><trkpt lat="43.46510723582536" lon="10.347581072593844"><ele>33.0</ele><time>2026-04-25T09:04:38Z</time></trkpt><trkpt lat="43.46511159408514" lon="10.347708371262486"><ele>30.0</ele><time>2026-04-25T09:04:39Z</time></trkpt><trkpt lat="43.46511391136189" lon="10.34783630635714"><ele>27.0</ele><time>2026-04-25T09:04:40Z</time></trkpt><trkpt lat="43.46511831913651" lon="10.347962995712225"><ele>24.0</ele><time>2026-04-25T09:04:41Z</time></trkpt><trkpt lat="43.4651191550385" lon="10.348089450212111"><ele>21.0</ele><time>2026-04-25T09:04:42Z</time></trkpt><trkpt lat="43.46512263103005" lon="10.348214866176331"><ele>19.166666666666668</ele><time>2026-04-25T09:04:43Z</time></trkpt><trkpt lat="43.465125989691714" lon="10.348335915340055"><ele>17.333333333333332</ele><time>2026-04-25T09:04:44Z</time></trkpt><trkpt lat="43.465127820120856" lon="10.348457864419672"><ele>15.5</ele><time>2026-04-25T09:04:45Z</time></trkpt><trkpt lat="43.46513229731982" lon="10.348578618583351"><ele>13.666666666666668</ele><time>2026-04-25T09:04:46Z</time></trkpt><trkpt lat="43.46513613684697" lon="10.34869398331338"><ele>11.833333333333334</ele><time>2026-04-25T09:04:47Z</time></trkpt><trkpt lat="43.46514033263567" lon="10.3488117430407"><ele>10.0</ele><time>2026-04-25T09:04:48Z</time></trkpt><trkpt lat="43.46514491915497" lon="10.348927339853269"><ele>9.833333333333334</ele><time>2026-04-25T09:04:49Z</time></trkpt><trkpt lat="43.4651479811169" lon="10.34904267993505"><ele>9.666666666666668</ele><time>2026-04-25T09:04:50Z</time></trkpt><trkpt lat="43.465149902633655" lon="10.349156781591706"><ele>9.5</ele><time>2026-04-25T09:04:51Z</time></trkpt><trkpt lat="43.46514635025483" lon="10.349272761013552"><ele>9.333333333333334</ele><time>2026-04-25T09:04:52Z</time></trkpt><trkpt lat="43.46513766080652" lon="10.3493885899813"><ele>9.166666666666666</ele><time>2026-04-25T09:04:53Z</time></trkpt><trkpt lat="43.46513258189157" lon="10.34950031139007"><ele>9.0</ele><time>2026-04-25T09:04:54Z</time></trkpt><trkpt lat="43.465131046655515" lon="10.349609261590249"><ele>11.285714285714286</ele><time>2026-04-25T09:04:55Z</time></trkpt><trkpt lat="43.46512779978823" lon="10.349715503657768"><ele>13.571428571428573</ele><time>2026-04-25T09:04:56Z</time></trkpt><trkpt lat="43.46512345350521" lon="10.349820475227942"><ele>15.857142857142858</ele><time>2026-04-25T09:04:57Z</time></trkpt><trkpt lat="43.46511670874522" lon="10.349920368469453"><ele>18.142857142857146</ele><time>2026-04-25T09:04:58Z</time></trkpt><trkpt lat="43.46511370694709" lon="10.350019017053327"><ele>20.42857142857143</ele><time>2026-04-25T09:04:59Z</time></trkpt><trkpt lat="43.46510933761429" lon="10.35011007602627"><ele>22.714285714285715</ele><time>2026-04-25T09:05:00Z</time></trkpt><trkpt lat="43.46510671845888" lon="10.350200249199558"><ele>25.0</ele><time>2026-04-25T09:05:01Z</time></trkpt><trkpt lat="43.46510388330318" lon="10.350287355210146"><ele>25.0</ele><time>2026-04-25T09:05:02Z</time></trkpt><trkpt lat="43.46509949958896" lon="10.350458957522125"><ele>25.0</ele><time>2026-04-25T09:05:04Z</time></trkpt><trkpt lat="43.46508854116301" lon="10.35061953584927"><ele>25.0</ele><time>2026-04-25T09:05:06Z</time></trkpt><trkpt lat="43.46505880948023" lon="10.35077469524281"><ele>25.0</ele><time>2026-04-25T09:05:08Z</time></trkpt><trkpt lat="43.46501015151255" lon="10.350917662631247"><ele>27.8</ele><time>2026-04-25T09:05:10Z</time></trkpt><trkpt lat="43.46493914699882" lon="10.351031379906017"><ele>30.6</ele><time>2026-04-25T09:05:12Z</time></trkpt><trkpt lat="43.46485852395347" lon="10.351126409229574"><ele>33.4</ele><time>2026-04-25T09:05:14Z</time></trkpt><trkpt lat="43.46478160479868" lon="10.351226306925527"><ele>36.2</ele><time>2026-04-25T09:05:16Z</time></trkpt><trkpt lat="43.46471532013666" lon="10.351337286845022"><ele>39.0</ele><time>2026-04-25T09:05:18Z</time></trkpt><trkpt lat="43.46466803900665" lon="10.351459899904484"><ele>41.8</ele><time>2026-04-25T09:05:20Z</time></trkpt><trkpt lat="43.46462218140849" lon="10.351584193606318"><ele>44.599999999999994</ele><time>2026-04-25T09:05:22Z</time></trkpt><trkpt lat="43.46458312504549" lon="10.351706936883469"><ele>47.4</ele><time>2026-04-25T09:05:24Z</time></trkpt><trkpt lat="43.46454246631468" lon="10.351828241233736"><ele>50.199999999999996</ele><time>2026-04-25T09:05:26Z</time></trkpt><trkpt lat="43.46451121777828" lon="10.351954920653988"><ele>53.0</ele><time>2026-04-25T09:05:28Z</time></trkpt><trkpt lat="43.46448302116262" lon="10.35207773329349"><ele>48.00000000000001</ele><time>2026-04-25T09:05:30Z</time></trkpt><trkpt lat="43.464468902360856" lon="10.352206238574547"><ele>43.0</ele><time>2026-04-25T09:05:32Z</time></trkpt><trkpt lat="43.46446438043529" lon="10.352331744273021"><ele>38.0</ele><time>2026-04-25T09:05:34Z</time></trkpt><trkpt lat="43.46447052550273" lon="10.352450782109637"><ele>33.0</ele><time>2026-04-25T09:05:36Z</time></trkpt><trkpt lat="43.46448663495669" lon="10.352570456502416"><ele>28.0</ele><time>2026-04-25T09:05:38Z</time></trkpt><trkpt lat="43.46451145909609" lon="10.352681941464224"><ele>23.0</ele><time>2026-04-25T09:05:40Z</time></trkpt><trkpt lat="43.4645431271412" lon="10.352791009963179"><ele>23.0</ele><time>2026-04-25T09:05:42Z</time></trkpt><trkpt lat="43.464570485582456" lon="10.352902624019075"><ele>23.0</ele><time>2026-04-25T09:05:44Z</time></trkpt><trkpt lat="43.464603913082065" lon="10.353013638992065"><ele>23.0</ele><time>2026-04-25T09:05:46Z</time></trkpt><trkpt lat="43.46463705903709" lon="10.35311703366587"><ele>23.0</ele><time>2026-04-25T09:05:48Z</time></trkpt><trkpt lat="43.46466964800472" lon="10.353222456334427"><ele>23.0</ele><time>2026-04-25T09:05:50Z</time></trkpt><trkpt lat="43.46471220725857" lon="10.353320583900198"><ele>23.0</ele><time>2026-04-25T09:05:52Z</time></trkpt><trkpt lat="43.46474944112547" lon="10.3534201625808"><ele>26.833333333333336</ele><time>2026-04-25T09:05:54Z</time></trkpt><trkpt lat="43.46479705980865" lon="10.353515231917466"><ele>30.666666666666668</ele><time>2026-04-25T09:05:56Z</time></trkpt><trkpt lat="43.4648410437527" lon="10.353607341668502"><ele>34.5</ele><time>2026-04-25T09:05:58Z</time></trkpt><trkpt lat="43.46489029286165" lon="10.353700856513663"><ele>38.333333333333336</ele><time>2026-04-25T09:06:00Z</time></trkpt><trkpt lat="43.464927858218225" lon="10.353792309637095"><ele>42.16666666666667</ele><time>2026-04-25T09:06:02Z</time></trkpt><trkpt lat="43.46497841777381" lon="10.35388822608284"><ele>46.0</ele><time>2026-04-25T09:06:04Z</time></trkpt><trkpt lat="43.46502329908661" lon="10.353982934108714"><ele>46.0</ele><time>2026-04-25T09:06:06Z</time></trkpt><trkpt lat="43.465073300759656" lon="10.35407638424385"><ele>46.0</ele><time>2026-04-25T09:06:08Z</time></trkpt><trkpt lat="43.46512186495807" lon="10.354175443537843"><ele>46.0</ele><time>2026-04-25T09:06:10Z</time></trkpt><trkpt lat="43.465170517244445" lon="10.354272395501638"><ele>46.0</ele><time>2026-04-25T09:06:12Z</time></trkpt><trkpt lat="43.465221293374036" lon="10.35436670775494"><ele>46.0</ele><time>2026-04-25T09:06:14Z</time></trkpt><trkpt lat="43.46527183130711" lon="10.354463919728651"><ele>46.0</ele><time>2026-04-25T09:06:16Z</time></trkpt><trkpt lat="43.465320713704514" lon="10.354557740627936"><ele>46.0</ele><time>2026-04-25T09:06:18Z</time></trkpt><trkpt lat="43.4653698469464" lon="10.354656277857819"><ele>46.0</ele><time>2026-04-25T09:06:20Z</time></trkpt><trkpt lat="43.46541385545534" lon="10.354758842661468"><ele>46.0</ele><time>2026-04-25T09:06:22Z</time></trkpt><trkpt lat="43.46546370895309" lon="10.35486029877628"><ele>46.0</ele><time>2026-04-25T09:06:24Z</time></trkpt><trkpt lat="43.46551207254712" lon="10.354966185378661"><ele>46.0</ele><time>2026-04-25T09:06:26Z</time></trkpt><trkpt lat="43.465534947039664" lon="10.355079245559544"><ele>46.0</ele><time>2026-04-25T09:06:28Z</time></trkpt><trkpt lat="43.46554679165527" lon="10.355195607409842"><ele>48.5</ele><time>2026-04-25T09:06:30Z</time></trkpt><trkpt lat="43.46553865759276" lon="10.35530923949163"><ele>51.0</ele><time>2026-04-25T09:06:32Z</time></trkpt><trkpt lat="43.46551725398669" lon="10.355419814752729"><ele>53.5</ele><time>2026-04-25T09:06:34Z</time></trkpt><trkpt lat="43.46549645465053" lon="10.355536865454356"><ele>56.0</ele><time>2026-04-25T09:06:36Z</time></trkpt><trkpt lat="43.465466879190764" lon="10.355638605327904"><ele>58.49999999999999</ele><time>2026-04-25T09:06:38Z</time></trkpt><trkpt lat="43.46543395123285" lon="10.35574517605251"><ele>61.0</ele><time>2026-04-25T09:06:40Z</time></trkpt><trkpt lat="43.46538317803733" lon="10.355835348818866"><ele>60.99999999999999</ele><time>2026-04-25T09:06:42Z</time></trkpt><trkpt lat="43.465318238221904" lon="10.355911020867564"><ele>61.0</ele><time>2026-04-25T09:06:44Z</time></trkpt><trkpt lat="43.46524691687411" lon="10.355969133595508"><ele>61.0</ele><time>2026-04-25T09:06:46Z</time></trkpt><trkpt lat="43.46517246356244" lon="10.356006324340289"><ele>61.0</ele><time>2026-04-25T09:06:48Z</time></trkpt><trkpt lat="43.46508701732761" lon="10.356034967806387"><ele>60.99999999999999</ele><time>2026-04-25T09:06:50Z</time></trkpt><trkpt lat="43.4650115052858" lon="10.35604245191841"><ele>61.0</ele><time>2026-04-25T09:06:52Z</time></trkpt><trkpt lat="43.46493218066266" lon="10.356046075255714"><ele>60.99999999999999</ele><time>2026-04-25T09:06:54Z</time></trkpt><trkpt lat="43.46485143533123" lon="10.356060857057848"><ele>61.0</ele><time>2026-04-25T09:06:56Z</time></trkpt><trkpt lat="43.4647764568022" lon="10.35607112734389"><ele>61.0</ele><time>2026-04-25T09:06:58Z</time></trkpt><trkpt lat="43.464700560819026" lon="10.356153947015283"><ele>61.0</ele><time>2026-04-25T09:07:00Z</time></trkpt><trkpt lat="43.46462754612531" lon="10.356192958717774"><ele>60.99999999999999</ele><time>2026-04-25T09:07:02Z</time></trkpt><trkpt lat="43.46457124099395" lon="10.356238525360663"><ele>61.0</ele><time>2026-04-25T09:07:04Z</time></trkpt><trkpt lat="43.46450545724626" lon="10.356337612941848"><ele>64.16666666666666</ele><time>2026-04-25T09:07:06Z</time></trkpt><trkpt lat="43.46444146489918" lon="10.356412331738111"><ele>67.33333333333333</ele><time>2026-04-25T09:07:08Z</time></trkpt><trkpt lat="43.46437313841037" lon="10.356493563922296"><ele>70.5</ele><time>2026-04-25T09:07:10Z</time></trkpt><trkpt lat="43.46430539310021" lon="10.356570531484477"><ele>73.66666666666667</ele><time>2026-04-25T09:07:12Z</time></trkpt><trkpt lat="43.46423654381595" lon="10.356647378288654"><ele>76.83333333333334</ele><time>2026-04-25T09:07:14Z</time></trkpt><trkpt lat="43.46417142720269" lon="10.356730484417392"><ele>80.0</ele><time>2026-04-25T09:07:16Z</time></trkpt><trkpt lat="43.46411458728159" lon="10.356813775284651"><ele>80.0</ele><time>2026-04-25T09:07:18Z</time></trkpt><trkpt lat="43.464049108708544" lon="10.356890599619527"><ele>80.0</ele><time>2026-04-25T09:07:20Z</time></trkpt><trkpt lat="43.463994989364124" lon="10.3569915508777"><ele>80.0</ele><time>2026-04-25T09:07:22Z</time></trkpt><trkpt lat="43.463942516192226" lon="10.357094196133254"><ele>80.0</ele><time>2026-04-25T09:07:24Z</time></trkpt><trkpt lat="43.46390559070147" lon="10.357192262134953"><ele>80.0</ele><time>2026-04-25T09:07:26Z</time></trkpt><trkpt lat="43.4638698820631" lon="10.357319366736425"><ele>80.0</ele><time>2026-04-25T09:07:28Z</time></trkpt><trkpt lat="43.46385269482371" lon="10.357457863120887"><ele>79.0</ele><time>2026-04-25T09:07:30Z</time></trkpt><trkpt lat="43.46382184758839" lon="10.357619209872574"><ele>78.0</ele><time>2026-04-25T09:07:32Z</time></trkpt><trkpt lat="43.46380545507382" lon="10.357703857003981"><ele>77.0</ele><time>2026-04-25T09:07:33Z</time></trkpt><trkpt lat="43.46378666785866" lon="10.357797362941803"><ele>76.0</ele><time>2026-04-25T09:07:34Z</time></trkpt><trkpt lat="43.46377114510009" lon="10.35789703783013"><ele>75.0</ele><time>2026-04-25T09:07:35Z</time></trkpt><trkpt lat="43.46374992621568" lon="10.35799484509049"><ele>74.0</ele><time>2026-04-25T09:07:36Z</time></trkpt><trkpt lat="43.463723700205826" lon="10.358090902784369"><ele>72.16666666666667</ele><time>2026-04-25T09:07:37Z</time></trkpt><trkpt lat="43.46370373078583" lon="10.358200072842175"><ele>70.33333333333334</ele><time>2026-04-25T09:07:38Z</time></trkpt><trkpt lat="43.46368236401982" lon="10.358308449473812"><ele>68.5</ele><time>2026-04-25T09:07:39Z</time></trkpt><trkpt lat="43.46366149492017" lon="10.358419355876677"><ele>66.66666666666667</ele><time>2026-04-25T09:07:40Z</time></trkpt><trkpt lat="43.463639239974555" lon="10.358536138816998"><ele>64.83333333333333</ele><time>2026-04-25T09:07:41Z</time></trkpt><trkpt lat="43.463602783991185" lon="10.358657652747596"><ele>63.0</ele><time>2026-04-25T09:07:42Z</time></trkpt><trkpt lat="43.46355496871717" lon="10.35876924642638"><ele>63.0</ele><time>2026-04-25T09:07:43Z</time></trkpt><trkpt lat="43.463475630035205" lon="10.358856900330982"><ele>63.0</ele><time>2026-04-25T09:07:44Z</time></trkpt><trkpt lat="43.463381330052606" lon="10.358923423827624"><ele>63.0</ele><time>2026-04-25T09:07:45Z</time></trkpt><trkpt lat="43.46328248020791" lon="10.358988634047241"><ele>63.0</ele><time>2026-04-25T09:07:46Z</time></trkpt><trkpt lat="43.46318957785143" lon="10.35905138695971"><ele>63.0</ele><time>2026-04-25T09:07:47Z</time></trkpt><trkpt lat="43.46310501471372" lon="10.359136261688782"><ele>65.25</ele><time>2026-04-25T09:07:48Z</time></trkpt><trkpt lat="43.46301344692779" lon="10.359220432001296"><ele>67.5</ele><time>2026-04-25T09:07:49Z</time></trkpt><trkpt lat="43.462917535188566" lon="10.359298642999038"><ele>69.75</ele><time>2026-04-25T09:07:50Z</time></trkpt><trkpt lat="43.46281318140406" lon="10.359376781157538"><ele>72.0</ele><time>2026-04-25T09:07:51Z</time></trkpt><trkpt lat="43.46271114774933" lon="10.359450540314048"><ele>68.5</ele><time>2026-04-25T09:07:52Z</time></trkpt><trkpt lat="43.46262466077141" lon="10.359544215778797"><ele>65.0</ele><time>2026-04-25T09:07:53Z</time></trkpt><trkpt lat="43.462537714460055" lon="10.359657703982549"><ele>61.5</ele><time>2026-04-25T09:07:54Z</time></trkpt><trkpt lat="43.462469219022005" lon="10.359792203724147"><ele>58.0</ele><time>2026-04-25T09:07:55Z</time></trkpt><trkpt lat="43.46241422330502" lon="10.359940864734938"><ele>58.0</ele><time>2026-04-25T09:07:56Z</time></trkpt><trkpt lat="43.462358917129606" lon="10.360095308986878"><ele>58.0</ele><time>2026-04-25T09:07:57Z</time></trkpt><trkpt lat="43.462309157406374" lon="10.360252418808214"><ele>58.0</ele><time>2026-04-25T09:07:58Z</time></trkpt><trkpt lat="43.462265874365336" lon="10.360410474087553"><ele>58.0</ele><time>2026-04-25T09:07:59Z</time></trkpt><trkpt lat="43.46224940333562" lon="10.360592895781348"><ele>59.0</ele><time>2026-04-25T09:08:00Z</time></trkpt><trkpt lat="43.46225929411607" lon="10.360772227142215"><ele>60.0</ele><time>2026-04-25T09:08:01Z</time></trkpt><trkpt lat="43.462271234303024" lon="10.360954789216454"><ele>61.0</ele><time>2026-04-25T09:08:02Z</time></trkpt><trkpt lat="43.46228701131671" lon="10.361138659637588"><ele>62.0</ele><time>2026-04-25T09:08:03Z</time></trkpt><trkpt lat="43.46229528813255" lon="10.36131984130014"><ele>59.8</ele><time>2026-04-25T09:08:04Z</time></trkpt><trkpt lat="43.46229566000241" lon="10.361478820329248"><ele>57.6</ele><time>2026-04-25T09:08:05Z</time></trkpt><trkpt lat="43.46231881857888" lon="10.361615457366947"><ele>55.4</ele><time>2026-04-25T09:08:06Z</time></trkpt><trkpt lat="43.46238461455759" lon="10.361730092860325"><ele>53.199999999999996</ele><time>2026-04-25T09:08:07Z</time></trkpt><trkpt lat="43.46249088988131" lon="10.361807389140072"><ele>51.0</ele><time>2026-04-25T09:08:08Z</time></trkpt><trkpt lat="43.46261215893428" lon="10.36184312212062"><ele>51.0</ele><time>2026-04-25T09:08:09Z</time></trkpt><trkpt lat="43.46273253309404" lon="10.361854120383784"><ele>51.0</ele><time>2026-04-25T09:08:10Z</time></trkpt><trkpt lat="43.462853319991545" lon="10.361854725482363"><ele>51.0</ele><time>2026-04-25T09:08:11Z</time></trkpt><trkpt lat="43.46296859680512" lon="10.361863101229341"><ele>51.0</ele><time>2026-04-25T09:08:12Z</time></trkpt><trkpt lat="43.46305949315499" lon="10.361880508081427"><ele>51.0</ele><time>2026-04-25T09:08:13Z</time></trkpt><trkpt lat="43.46313994374425" lon="10.361919723254694"><ele>51.666666666666664</ele><time>2026-04-25T09:08:14Z</time></trkpt><trkpt lat="43.463197719263476" lon="10.36200001687153"><ele>52.33333333333333</ele><time>2026-04-25T09:08:15Z</time></trkpt><trkpt lat="43.46322982970914" lon="10.362104335109471"><ele>53.0</ele><time>2026-04-25T09:08:16Z</time></trkpt><trkpt lat="43.463211097634094" lon="10.36222686491612"><ele>53.666666666666664</ele><time>2026-04-25T09:08:17Z</time></trkpt><trkpt lat="43.46316121521754" lon="10.36233183319977"><ele>54.33333333333333</ele><time>2026-04-25T09:08:18Z</time></trkpt><trkpt lat="43.463084331052656" lon="10.36239696259658"><ele>55.0</ele><time>2026-04-25T09:08:19Z</time></trkpt><trkpt lat="43.46299044007325" lon="10.362430588083711"><ele>53.0</ele><time>2026-04-25T09:08:20Z</time></trkpt><trkpt lat="43.46289701980566" lon="10.362442091710239"><ele>51.0</ele><time>2026-04-25T09:08:21Z</time></trkpt><trkpt lat="43.46280641562837" lon="10.36246733883172"><ele>49.0</ele><time>2026-04-25T09:08:22Z</time></trkpt><trkpt lat="43.46271643606871" lon="10.362492563328416"><ele>47.0</ele><time>2026-04-25T09:08:23Z</time></trkpt><trkpt lat="43.46262348132869" lon="10.362527028037915"><ele>45.0</ele><time>2026-04-25T09:08:24Z</time></trkpt><trkpt lat="43.46253170411689" lon="10.362572865341932"><ele>45.0</ele><time>2026-04-25T09:08:25Z</time></trkpt><trkpt lat="43.46244882407431" lon="10.362611843268626"><ele>45.0</ele><time>2026-04-25T09:08:26Z</time></trkpt><trkpt lat="43.46236128532223" lon="10.362685526338973"><ele>45.0</ele><time>2026-04-25T09:08:27Z</time></trkpt><trkpt lat="43.462285794386865" lon="10.362773147080297"><ele>45.0</ele><time>2026-04-25T09:08:28Z</time></trkpt><trkpt lat="43.46221510413067" lon="10.362860424146147"><ele>45.0</ele><time>2026-04-25T09:08:29Z</time></trkpt><trkpt lat="43.462145520808896" lon="10.362963697263869"><ele>42.4</ele><time>2026-04-25T09:08:30Z</time></trkpt><trkpt lat="43.46208704838482" lon="10.363079305390333"><ele>39.8</ele><time>2026-04-25T09:08:31Z</time></trkpt><trkpt lat="43.462036469516796" lon="10.363206032548325"><ele>37.2</ele><time>2026-04-25T09:08:32Z</time></trkpt><trkpt lat="43.46198797348648" lon="10.363342444170382"><ele>34.6</ele><time>2026-04-25T09:08:33Z</time></trkpt><trkpt lat="43.4619486066272" lon="10.363486282409282"><ele>32.0</ele><time>2026-04-25T09:08:34Z</time></trkpt><trkpt lat="43.46192053561828" lon="10.363633511081566"><ele>32.0</ele><time>2026-04-25T09:08:35Z</time></trkpt><trkpt lat="43.46188166641394" lon="10.363782120350074"><ele>32.0</ele><time>2026-04-25T09:08:36Z</time></trkpt><trkpt lat="43.46184135733654" lon="10.36392346889327"><ele>32.0</ele><time>2026-04-25T09:08:37Z</time></trkpt><trkpt lat="43.4618117943226" lon="10.364058357202314"><ele>32.0</ele><time>2026-04-25T09:08:38Z</time></trkpt><trkpt lat="43.461781197679805" lon="10.364200748012879"><ele>32.0</ele><time>2026-04-25T09:08:39Z</time></trkpt><trkpt lat="43.46174377379851" lon="10.364346907819652"><ele>31.0</ele><time>2026-04-25T09:08:40Z</time></trkpt><trkpt lat="43.46169397269327" lon="10.36449272401155"><ele>30.0</ele><time>2026-04-25T09:08:41Z</time></trkpt><trkpt lat="43.461631804660485" lon="10.364627888223009"><ele>29.0</ele><time>2026-04-25T09:08:42Z</time></trkpt><trkpt lat="43.461547827337945" lon="10.364745642501973"><ele>28.0</ele><time>2026-04-25T09:08:43Z</time></trkpt><trkpt lat="43.46145614646834" lon="10.364854070779895"><ele>27.75</ele><time>2026-04-25T09:08:44Z</time></trkpt><trkpt lat="43.46136538279625" lon="10.364959369715686"><ele>27.5</ele><time>2026-04-25T09:08:45Z</time></trkpt><trkpt lat="43.46127463117885" lon="10.36506615300603"><ele>27.25</ele><time>2026-04-25T09:08:46Z</time></trkpt><trkpt lat="43.46118446724463" lon="10.36517505627229"><ele>27.0</ele><time>2026-04-25T09:08:47Z</time></trkpt><trkpt lat="43.461102745122666" lon="10.36528861475432"><ele>26.0</ele><time>2026-04-25T09:08:48Z</time></trkpt><trkpt lat="43.46103068063747" lon="10.365415369908392"><ele>25.0</ele><time>2026-04-25T09:08:49Z</time></trkpt><trkpt lat="43.46097291393429" lon="10.365560121912916"><ele>24.0</ele><time>2026-04-25T09:08:50Z</time></trkpt><trkpt lat="43.460931073804176" lon="10.365709183618838"><ele>23.0</ele><time>2026-04-25T09:08:51Z</time></trkpt><trkpt lat="43.46090494197052" lon="10.365864189906512"><ele>22.4</ele><time>2026-04-25T09:08:52Z</time></trkpt><trkpt lat="43.46088086797556" lon="10.366013890106784"><ele>21.799999999999997</ele><time>2026-04-25T09:08:53Z</time></trkpt><trkpt lat="43.46085280273167" lon="10.366158478029472"><ele>21.2</ele><time>2026-04-25T09:08:54Z</time></trkpt><trkpt lat="43.460821138167184" lon="10.366301637358944"><ele>20.6</ele><time>2026-04-25T09:08:55Z</time></trkpt><trkpt lat="43.460784173738745" lon="10.366439397210945"><ele>20.0</ele><time>2026-04-25T09:08:56Z</time></trkpt><trkpt lat="43.460737763362374" lon="10.366574277719808"><ele>19.0</ele><time>2026-04-25T09:08:57Z</time></trkpt><trkpt lat="43.460676742886356" lon="10.366693247291071"><ele>18.0</ele><time>2026-04-25T09:08:58Z</time></trkpt><trkpt lat="43.46061251982795" lon="10.366805720796782"><ele>17.0</ele><time>2026-04-25T09:08:59Z</time></trkpt><trkpt lat="43.46053798291317" lon="10.366902658053094"><ele>16.0</ele><time>2026-04-25T09:09:00Z</time></trkpt><trkpt lat="43.4604670131831" lon="10.366986780001357"><ele>15.0</ele><time>2026-04-25T09:09:01Z</time></trkpt><trkpt lat="43.460388226915306" lon="10.367066333559055"><ele>15.0</ele><time>2026-04-25T09:09:02Z</time></trkpt><trkpt lat="43.460309946579144" lon="10.367132002056294"><ele>15.0</ele><time>2026-04-25T09:09:03Z</time></trkpt><trkpt lat="43.46023004372364" lon="10.36718393431284"><ele>15.0</ele><time>2026-04-25T09:09:04Z</time></trkpt><trkpt lat="43.46014905989629" lon="10.36722151936988"><ele>15.0</ele><time>2026-04-25T09:09:05Z</time></trkpt><trkpt lat="43.46007149410032" lon="10.367251568166564"><ele>15.0</ele><time>2026-04-25T09:09:06Z</time></trkpt><trkpt lat="43.45999814957835" lon="10.367283223259541"><ele>15.0</ele><time>2026-04-25T09:09:07Z</time></trkpt><trkpt lat="43.45992345543032" lon="10.367316878931904"><ele>16.0</ele><time>2026-04-25T09:09:08Z</time></trkpt><trkpt lat="43.45985382741007" lon="10.367344314748593"><ele>17.0</ele><time>2026-04-25T09:09:09Z</time></trkpt><trkpt lat="43.459789590022666" lon="10.367359984546011"><ele>18.0</ele><time>2026-04-25T09:09:10Z</time></trkpt><trkpt lat="43.459670138657486" lon="10.367410647198795"><ele>19.0</ele><time>2026-04-25T09:09:12Z</time></trkpt><trkpt lat="43.45955519866007" lon="10.367486333720697"><ele>20.0</ele><time>2026-04-25T09:09:14Z</time></trkpt><trkpt lat="43.45944513483683" lon="10.367556941885256"><ele>20.5</ele><time>2026-04-25T09:09:16Z</time></trkpt><trkpt lat="43.45933925921017" lon="10.367647392948824"><ele>21.0</ele><time>2026-04-25T09:09:18Z</time></trkpt><trkpt lat="43.45928688576855" lon="10.367698522909874"><ele>21.5</ele><time>2026-04-25T09:09:19Z</time></trkpt><trkpt lat="43.45923468366938" lon="10.36775062283929"><ele>22.0</ele><time>2026-04-25T09:09:20Z</time></trkpt><trkpt lat="43.459182438814494" lon="10.367804557145611"><ele>22.5</ele><time>2026-04-25T09:09:21Z</time></trkpt><trkpt lat="43.45912886772482" lon="10.367855305321882"><ele>23.0</ele><time>2026-04-25T09:09:22Z</time></trkpt><trkpt lat="43.4590753260358" lon="10.367915294505652"><ele>23.0</ele><time>2026-04-25T09:09:23Z</time></trkpt><trkpt lat="43.459020261117715" lon="10.367973190248224"><ele>23.0</ele><time>2026-04-25T09:09:24Z</time></trkpt><trkpt lat="43.458962262403276" lon="10.368029634278418"><ele>23.0</ele><time>2026-04-25T09:09:25Z</time></trkpt><trkpt lat="43.45890277009212" lon="10.368084106926636"><ele>23.0</ele><time>2026-04-25T09:09:26Z</time></trkpt><trkpt lat="43.45884752780257" lon="10.368142676791507"><ele>23.0</ele><time>2026-04-25T09:09:27Z</time></trkpt><trkpt lat="43.45878994310476" lon="10.368195580253108"><ele>23.0</ele><time>2026-04-25T09:09:28Z</time></trkpt><trkpt lat="43.45873424440208" lon="10.368256652403309"><ele>23.0</ele><time>2026-04-25T09:09:29Z</time></trkpt><trkpt lat="43.458675428913494" lon="10.36831868490794"><ele>22.714285714285715</ele><time>2026-04-25T09:09:30Z</time></trkpt><trkpt lat="43.45862159196768" lon="10.368386026475996"><ele>22.428571428571427</ele><time>2026-04-25T09:09:31Z</time></trkpt><trkpt lat="43.45857095157551" lon="10.368462938301219"><ele>22.142857142857142</ele><time>2026-04-25T09:09:32Z</time></trkpt><trkpt lat="43.458531049877585" lon="10.368547762499073"><ele>21.857142857142858</ele><time>2026-04-25T09:09:33Z</time></trkpt><trkpt lat="43.45848763773091" lon="10.368626242224641"><ele>21.57142857142857</ele><time>2026-04-25T09:09:34Z</time></trkpt><trkpt lat="43.458448446069454" lon="10.368709197709814"><ele>21.285714285714285</ele><time>2026-04-25T09:09:35Z</time></trkpt><trkpt lat="43.458408855808095" lon="10.368795690507845"><ele>21.0</ele><time>2026-04-25T09:09:36Z</time></trkpt><trkpt lat="43.458375235938384" lon="10.36888731578824"><ele>21.0</ele><time>2026-04-25T09:09:37Z</time></trkpt><trkpt lat="43.45834269472369" lon="10.368976384777788"><ele>21.0</ele><time>2026-04-25T09:09:38Z</time></trkpt><trkpt lat="43.45831489742435" lon="10.36906796654775"><ele>21.0</ele><time>2026-04-25T09:09:39Z</time></trkpt><trkpt lat="43.458288517424215" lon="10.369157517972303"><ele>21.0</ele><time>2026-04-25T09:09:40Z</time></trkpt><trkpt lat="43.45826125142541" lon="10.369243972258612"><ele>21.0</ele><time>2026-04-25T09:09:41Z</time></trkpt><trkpt lat="43.45823339966811" lon="10.369329808976463"><ele>21.0</ele><time>2026-04-25T09:09:42Z</time></trkpt><trkpt lat="43.45820666227286" lon="10.36941318984472"><ele>21.0</ele><time>2026-04-25T09:09:43Z</time></trkpt><trkpt lat="43.45818071214753" lon="10.369498401156978"><ele>21.0</ele><time>2026-04-25T09:09:44Z</time></trkpt><trkpt lat="43.45813704655091" lon="10.369658485774861"><ele>21.0</ele><time>2026-04-25T09:09:46Z</time></trkpt><trkpt lat="43.45809610799215" lon="10.369813151527339"><ele>21.0</ele><time>2026-04-25T09:09:48Z</time></trkpt><trkpt lat="43.45805171284068" lon="10.36997020770068"><ele>21.0</ele><time>2026-04-25T09:09:50Z</time></trkpt><trkpt lat="43.458007445436124" lon="10.370125981949082"><ele>21.0</ele><time>2026-04-25T09:09:52Z</time></trkpt><trkpt lat="43.457959483200426" lon="10.370280234916398"><ele>21.0</ele><time>2026-04-25T09:09:54Z</time></trkpt><trkpt lat="43.45791024352997" lon="10.370433651399088"><ele>21.0</ele><time>2026-04-25T09:09:56Z</time></trkpt><trkpt lat="43.457851034304504" lon="10.370577640523447"><ele>21.0</ele><time>2026-04-25T09:09:58Z</time></trkpt><trkpt lat="43.4577814557908" lon="10.370709763195935"><ele>22.0</ele><time>2026-04-25T09:10:00Z</time></trkpt><trkpt lat="43.45770633772327" lon="10.37083990660686"><ele>23.0</ele><time>2026-04-25T09:10:02Z</time></trkpt><trkpt lat="43.45762392193691" lon="10.370959531448435"><ele>24.0</ele><time>2026-04-25T09:10:04Z</time></trkpt><trkpt lat="43.457536382123784" lon="10.371074868526657"><ele>25.0</ele><time>2026-04-25T09:10:06Z</time></trkpt><trkpt lat="43.45744045677806" lon="10.37117735873383"><ele>25.0</ele><time>2026-04-25T09:10:08Z</time></trkpt><trkpt lat="43.457345166376335" lon="10.37128047546349"><ele>25.0</ele><time>2026-04-25T09:10:10Z</time></trkpt><trkpt lat="43.45725641829953" lon="10.371388669182823"><ele>25.0</ele><time>2026-04-25T09:10:12Z</time></trkpt><trkpt lat="43.457170900156996" lon="10.371500896424154"><ele>25.0</ele><time>2026-04-25T09:10:14Z</time></trkpt><trkpt lat="43.457081393627" lon="10.371610930549663"><ele>24.75</ele><time>2026-04-25T09:10:16Z</time></trkpt><trkpt lat="43.456992178750546" lon="10.371721430573043"><ele>24.5</ele><time>2026-04-25T09:10:18Z</time></trkpt><trkpt lat="43.456899479059366" lon="10.37182919704291"><ele>24.25</ele><time>2026-04-25T09:10:20Z</time></trkpt><trkpt lat="43.45681018634546" lon="10.371934391411855"><ele>24.0</ele><time>2026-04-25T09:10:22Z</time></trkpt><trkpt lat="43.456717938924186" lon="10.372042339936794"><ele>24.0</ele><time>2026-04-25T09:10:24Z</time></trkpt><trkpt lat="43.456627718207585" lon="10.372155364512148"><ele>24.0</ele><time>2026-04-25T09:10:26Z</time></trkpt><trkpt lat="43.45653961799419" lon="10.372268671905815"><ele>24.0</ele><time>2026-04-25T09:10:28Z</time></trkpt><trkpt lat="43.456449671753134" lon="10.37237337211406"><ele>24.0</ele><time>2026-04-25T09:10:30Z</time></trkpt><trkpt lat="43.45636013805554" lon="10.372478255024248"><ele>24.0</ele><time>2026-04-25T09:10:32Z</time></trkpt><trkpt lat="43.45626648588472" lon="10.372582227437066"><ele>24.0</ele><time>2026-04-25T09:10:34Z</time></trkpt><trkpt lat="43.45617772822587" lon="10.372696958124848"><ele>24.0</ele><time>2026-04-25T09:10:36Z</time></trkpt><trkpt lat="43.45608849211745" lon="10.372805507664191"><ele>24.0</ele><time>2026-04-25T09:10:38Z</time></trkpt><trkpt lat="43.45600027017274" lon="10.372912350762645"><ele>25.799999999999997</ele><time>2026-04-25T09:10:40Z</time></trkpt><trkpt lat="43.45591168029229" lon="10.373023434528468"><ele>27.599999999999998</ele><time>2026-04-25T09:10:42Z</time></trkpt><trkpt lat="43.455818642670266" lon="10.373133915781494"><ele>29.4</ele><time>2026-04-25T09:10:44Z</time></trkpt><trkpt lat="43.455724954328076" lon="10.373248756577016"><ele>31.2</ele><time>2026-04-25T09:10:46Z</time></trkpt><trkpt lat="43.455680622506" lon="10.37331104742876"><ele>33.0</ele><time>2026-04-25T09:10:47Z</time></trkpt><trkpt lat="43.45563126767352" lon="10.373371352089201"><ele>33.0</ele><time>2026-04-25T09:10:48Z</time></trkpt><trkpt lat="43.45557940064786" lon="10.373428019212374"><ele>33.0</ele><time>2026-04-25T09:10:49Z</time></trkpt><trkpt lat="43.45552991506198" lon="10.373486086323373"><ele>33.0</ele><time>2026-04-25T09:10:50Z</time></trkpt><trkpt lat="43.45548023626221" lon="10.373542516591755"><ele>33.0</ele><time>2026-04-25T09:10:51Z</time></trkpt><trkpt lat="43.45543216420249" lon="10.37360130863859"><ele>33.0</ele><time>2026-04-25T09:10:52Z</time></trkpt><trkpt lat="43.455385822877034" lon="10.37366535910199"><ele>33.0</ele><time>2026-04-25T09:10:53Z</time></trkpt><trkpt lat="43.45533844881116" lon="10.373730154904765"><ele>33.0</ele><time>2026-04-25T09:10:54Z</time></trkpt><trkpt lat="43.4552871758011" lon="10.37378557976235"><ele>32.857142857142854</ele><time>2026-04-25T09:10:55Z</time></trkpt><trkpt lat="43.45523639223074" lon="10.373843139018518"><ele>32.714285714285715</ele><time>2026-04-25T09:10:56Z</time></trkpt><trkpt lat="43.45518612663641" lon="10.373902528523633"><ele>32.57142857142857</ele><time>2026-04-25T09:10:57Z</time></trkpt><trkpt lat="43.45513613929222" lon="10.373960148874222"><ele>32.42857142857143</ele><time>2026-04-25T09:10:58Z</time></trkpt><trkpt lat="43.4550879524657" lon="10.374019127611852"><ele>32.285714285714285</ele><time>2026-04-25T09:10:59Z</time></trkpt><trkpt lat="43.455041990763156" lon="10.374079956680196"><ele>32.14285714285714</ele><time>2026-04-25T09:11:00Z</time></trkpt><trkpt lat="43.45499150353326" lon="10.374137525754318"><ele>32.0</ele><time>2026-04-25T09:11:01Z</time></trkpt><trkpt lat="43.45494209038621" lon="10.374197440531557"><ele>32.0</ele><time>2026-04-25T09:11:02Z</time></trkpt><trkpt lat="43.45489294758979" lon="10.37425688046517"><ele>31.999999999999996</ele><time>2026-04-25T09:11:03Z</time></trkpt><trkpt lat="43.45484084449374" lon="10.374315570812115"><ele>32.0</ele><time>2026-04-25T09:11:04Z</time></trkpt><trkpt lat="43.4547913785704" lon="10.374371692983802"><ele>32.0</ele><time>2026-04-25T09:11:05Z</time></trkpt><trkpt lat="43.45474362673293" lon="10.374429117206123"><ele>31.999999999999996</ele><time>2026-04-25T09:11:06Z</time></trkpt><trkpt lat="43.45469400917844" lon="10.374490577284437"><ele>32.0</ele><time>2026-04-25T09:11:07Z</time></trkpt><trkpt lat="43.454641745478284" lon="10.374548647225684"><ele>32.0</ele><time>2026-04-25T09:11:08Z</time></trkpt><trkpt lat="43.45458400574683" lon="10.374598004319774"><ele>31.857142857142854</ele><time>2026-04-25T09:11:09Z</time></trkpt><trkpt lat="43.454528315589336" lon="10.374651775352833"><ele>31.71428571428571</ele><time>2026-04-25T09:11:10Z</time></trkpt><trkpt lat="43.454472180235676" lon="10.374704026156074"><ele>31.57142857142857</ele><time>2026-04-25T09:11:11Z</time></trkpt><trkpt lat="43.454415583966785" lon="10.374749014671995"><ele>31.42857142857143</ele><time>2026-04-25T09:11:12Z</time></trkpt><trkpt lat="43.4543534114378" lon="10.37479002912422"><ele>31.28571428571429</ele><time>2026-04-25T09:11:13Z</time></trkpt><trkpt lat="43.454295433554215" lon="10.374840662613686"><ele>31.142857142857146</ele><time>2026-04-25T09:11:14Z</time></trkpt><trkpt lat="43.454234676136" lon="10.374878220563286"><ele>31.0</ele><time>2026-04-25T09:11:15Z</time></trkpt><trkpt lat="43.45417432264145" lon="10.374916360878755"><ele>31.0</ele><time>2026-04-25T09:11:16Z</time></trkpt><trkpt lat="43.454117197893844" lon="10.374961244712017"><ele>31.000000000000004</ele><time>2026-04-25T09:11:17Z</time></trkpt><trkpt lat="43.454060753208616" lon="10.375007858889061"><ele>31.0</ele><time>2026-04-25T09:11:18Z</time></trkpt><trkpt lat="43.454002342126884" lon="10.375049614373403"><ele>31.0</ele><time>2026-04-25T09:11:19Z</time></trkpt><trkpt lat="43.45394876692626" lon="10.375101225153069"><ele>31.000000000000004</ele><time>2026-04-25T09:11:20Z</time></trkpt><trkpt lat="43.45389240891646" lon="10.375146004404717"><ele>31.0</ele><time>2026-04-25T09:11:21Z</time></trkpt><trkpt lat="43.453834843873736" lon="10.375190120129368"><ele>31.0</ele><time>2026-04-25T09:11:22Z</time></trkpt><trkpt lat="43.45377593108695" lon="10.375235004595623"><ele>31.28571428571429</ele><time>2026-04-25T09:11:23Z</time></trkpt><trkpt lat="43.45372069257021" lon="10.375282066867447"><ele>31.571428571428577</ele><time>2026-04-25T09:11:24Z</time></trkpt><trkpt lat="43.45366515095741" lon="10.375328418480052"><ele>31.857142857142858</ele><time>2026-04-25T09:11:25Z</time></trkpt><trkpt lat="43.453607611716066" lon="10.37536982837991"><ele>32.142857142857146</ele><time>2026-04-25T09:11:26Z</time></trkpt><trkpt lat="43.453550825394736" lon="10.37541250037529"><ele>32.42857142857143</ele><time>2026-04-25T09:11:27Z</time></trkpt><trkpt lat="43.45349033552696" lon="10.375454736968697"><ele>32.714285714285715</ele><time>2026-04-25T09:11:28Z</time></trkpt><trkpt lat="43.45343051220542" lon="10.375496115907183"><ele>33.0</ele><time>2026-04-25T09:11:29Z</time></trkpt><trkpt lat="43.45336983762243" lon="10.375534659062073"><ele>33.0</ele><time>2026-04-25T09:11:30Z</time></trkpt><trkpt lat="43.4533113857105" lon="10.375583494641642"><ele>33.0</ele><time>2026-04-25T09:11:31Z</time></trkpt><trkpt lat="43.453257001199944" lon="10.37562770186538"><ele>33.0</ele><time>2026-04-25T09:11:32Z</time></trkpt><trkpt lat="43.45319874517388" lon="10.375674231522867"><ele>33.0</ele><time>2026-04-25T09:11:33Z</time></trkpt><trkpt lat="43.45314198363404" lon="10.37571904106026"><ele>33.0</ele><time>2026-04-25T09:11:34Z</time></trkpt><trkpt lat="43.45308566597328" lon="10.375766062897325"><ele>33.0</ele><time>2026-04-25T09:11:35Z</time></trkpt><trkpt lat="43.45302880498479" lon="10.37581275272378"><ele>33.0</ele><time>2026-04-25T09:11:36Z</time></trkpt><trkpt lat="43.45297441527231" lon="10.375860578378758"><ele>32.0</ele><time>2026-04-25T09:11:37Z</time></trkpt><trkpt lat="43.452918812062016" lon="10.375906718027908"><ele>31.0</ele><time>2026-04-25T09:11:38Z</time></trkpt><trkpt lat="43.45286053897722" lon="10.3759516841284"><ele>30.0</ele><time>2026-04-25T09:11:39Z</time></trkpt><trkpt lat="43.4528012453674" lon="10.375999409820231"><ele>29.0</ele><time>2026-04-25T09:11:40Z</time></trkpt><trkpt lat="43.45274531795674" lon="10.376048896968216"><ele>28.0</ele><time>2026-04-25T09:11:41Z</time></trkpt><trkpt lat="43.452689243979606" lon="10.37609856032944"><ele>27.0</ele><time>2026-04-25T09:11:42Z</time></trkpt><trkpt lat="43.45262851051659" lon="10.376148158947595"><ele>26.0</ele><time>2026-04-25T09:11:43Z</time></trkpt><trkpt lat="43.45256000084005" lon="10.376187988147004"><ele>26.0</ele><time>2026-04-25T09:11:44Z</time></trkpt><trkpt lat="43.452501699963015" lon="10.37623992758541"><ele>26.0</ele><time>2026-04-25T09:11:45Z</time></trkpt><trkpt lat="43.45244303565342" lon="10.376297916933185"><ele>26.0</ele><time>2026-04-25T09:11:46Z</time></trkpt><trkpt lat="43.45238275867704" lon="10.376353113832243"><ele>26.0</ele><time>2026-04-25T09:11:47Z</time></trkpt><trkpt lat="43.452314551037574" lon="10.376399125210426"><ele>26.0</ele><time>2026-04-25T09:11:48Z</time></trkpt><trkpt lat="43.452245786204955" lon="10.376444445879747"><ele>26.0</ele><time>2026-04-25T09:11:49Z</time></trkpt><trkpt lat="43.45217609365367" lon="10.376500696756676"><ele>26.0</ele><time>2026-04-25T09:11:50Z</time></trkpt><trkpt lat="43.45210373479106" lon="10.376555396671028"><ele>25.499999999999996</ele><time>2026-04-25T09:11:51Z</time></trkpt><trkpt lat="43.45203292033189" lon="10.376605535708224"><ele>25.0</ele><time>2026-04-25T09:11:52Z</time></trkpt><trkpt lat="43.451961827686624" lon="10.376659682854887"><ele>24.5</ele><time>2026-04-25T09:11:53Z</time></trkpt><trkpt lat="43.4518859911275" lon="10.376714318200914"><ele>24.0</ele><time>2026-04-25T09:11:54Z</time></trkpt><trkpt lat="43.451811765062835" lon="10.37676792057525"><ele>23.5</ele><time>2026-04-25T09:11:55Z</time></trkpt><trkpt lat="43.4517405437606" lon="10.376826565110415"><ele>23.0</ele><time>2026-04-25T09:11:56Z</time></trkpt><trkpt lat="43.451665395260335" lon="10.376879952253537"><ele>23.0</ele><time>2026-04-25T09:11:57Z</time></trkpt><trkpt lat="43.45159049758861" lon="10.376912433602987"><ele>23.0</ele><time>2026-04-25T09:11:58Z</time></trkpt><trkpt lat="43.45150779098069" lon="10.37698667999576"><ele>23.0</ele><time>2026-04-25T09:11:59Z</time></trkpt><trkpt lat="43.45142871553657" lon="10.377048470252795"><ele>23.0</ele><time>2026-04-25T09:12:00Z</time></trkpt><trkpt lat="43.45135576915378" lon="10.377098363008875"><ele>23.0</ele><time>2026-04-25T09:12:01Z</time></trkpt><trkpt lat="43.451277128452794" lon="10.377158846719508"><ele>23.0</ele><time>2026-04-25T09:12:02Z</time></trkpt><trkpt lat="43.45120076120847" lon="10.377217214720428"><ele>22.2</ele><time>2026-04-25T09:12:03Z</time></trkpt><trkpt lat="43.45112512599022" lon="10.377288065914886"><ele>21.4</ele><time>2026-04-25T09:12:04Z</time></trkpt><trkpt lat="43.451040710602626" lon="10.37735686054502"><ele>20.599999999999998</ele><time>2026-04-25T09:12:05Z</time></trkpt><trkpt lat="43.450961101700244" lon="10.377414826200475"><ele>19.799999999999997</ele><time>2026-04-25T09:12:06Z</time></trkpt><trkpt lat="43.45088562388306" lon="10.377487463471804"><ele>19.0</ele><time>2026-04-25T09:12:07Z</time></trkpt><trkpt lat="43.45081475071957" lon="10.377574325223064"><ele>19.0</ele><time>2026-04-25T09:12:08Z</time></trkpt><trkpt lat="43.45074461784591" lon="10.377660387348916"><ele>19.0</ele><time>2026-04-25T09:12:09Z</time></trkpt><trkpt lat="43.45068580490564" lon="10.377753163301682"><ele>19.0</ele><time>2026-04-25T09:12:10Z</time></trkpt><trkpt lat="43.45062701687481" lon="10.377846556740229"><ele>19.0</ele><time>2026-04-25T09:12:11Z</time></trkpt><trkpt lat="43.45057150106912" lon="10.377946854363325"><ele>19.0</ele><time>2026-04-25T09:12:12Z</time></trkpt><trkpt lat="43.45051405420035" lon="10.378039203921976"><ele>18.2</ele><time>2026-04-25T09:12:13Z</time></trkpt><trkpt lat="43.450461960808816" lon="10.378132926803387"><ele>17.4</ele><time>2026-04-25T09:12:14Z</time></trkpt><trkpt lat="43.4504129549131" lon="10.378235944887061"><ele>16.6</ele><time>2026-04-25T09:12:15Z</time></trkpt><trkpt lat="43.45035877067164" lon="10.378346376259863"><ele>15.8</ele><time>2026-04-25T09:12:16Z</time></trkpt><trkpt lat="43.4503003907193" lon="10.378452967899406"><ele>15.0</ele><time>2026-04-25T09:12:17Z</time></trkpt><trkpt lat="43.45023843993056" lon="10.378561269367108"><ele>15.0</ele><time>2026-04-25T09:12:18Z</time></trkpt><trkpt lat="43.450167638857806" lon="10.37867432814547"><ele>15.0</ele><time>2026-04-25T09:12:19Z</time></trkpt><trkpt lat="43.45008611535369" lon="10.378785557793313"><ele>15.0</ele><time>2026-04-25T09:12:20Z</time></trkpt><trkpt lat="43.44999625080099" lon="10.378892624829943"><ele>15.0</ele><time>2026-04-25T09:12:21Z</time></trkpt><trkpt lat="43.44990753355367" lon="10.379002235746471"><ele>14.6</ele><time>2026-04-25T09:12:22Z</time></trkpt><trkpt lat="43.44981965853756" lon="10.379103643303488"><ele>14.2</ele><time>2026-04-25T09:12:23Z</time></trkpt><trkpt lat="43.449738234583485" lon="10.379202554845078"><ele>13.8</ele><time>2026-04-25T09:12:24Z</time></trkpt><trkpt lat="43.44965580930493" lon="10.379290897286197"><ele>13.4</ele><time>2026-04-25T09:12:25Z</time></trkpt><trkpt lat="43.449573785226136" lon="10.379373052032648"><ele>13.0</ele><time>2026-04-25T09:12:26Z</time></trkpt><trkpt lat="43.449493396817296" lon="10.379452370815395"><ele>12.666666666666666</ele><time>2026-04-25T09:12:27Z</time></trkpt><trkpt lat="43.44941306095769" lon="10.379526589727226"><ele>12.333333333333332</ele><time>2026-04-25T09:12:28Z</time></trkpt><trkpt lat="43.449343735356635" lon="10.379606116861492"><ele>12.0</ele><time>2026-04-25T09:12:29Z</time></trkpt><trkpt lat="43.44927043778206" lon="10.379671667183395"><ele>11.666666666666666</ele><time>2026-04-25T09:12:30Z</time></trkpt><trkpt lat="43.44919865709804" lon="10.37973280813677"><ele>11.333333333333332</ele><time>2026-04-25T09:12:31Z</time></trkpt><trkpt lat="43.44913593607682" lon="10.379806242566598"><ele>11.0</ele><time>2026-04-25T09:12:32Z</time></trkpt><trkpt lat="43.449072338371685" lon="10.379872325166986"><ele>11.0</ele><time>2026-04-25T09:12:33Z</time></trkpt><trkpt lat="43.44900842974818" lon="10.379932041027761"><ele>11.0</ele><time>2026-04-25T09:12:34Z</time></trkpt><trkpt lat="43.448946007425235" lon="10.379992127032487"><ele>11.0</ele><time>2026-04-25T09:12:35Z</time></trkpt><trkpt lat="43.44888782097126" lon="10.38004397525389"><ele>11.0</ele><time>2026-04-25T09:12:36Z</time></trkpt><trkpt lat="43.44883118332556" lon="10.380093473679146"><ele>11.0</ele><time>2026-04-25T09:12:37Z</time></trkpt><trkpt lat="43.448780814880024" lon="10.38014977337687"><ele>11.0</ele><time>2026-04-25T09:12:38Z</time></trkpt><trkpt lat="43.44873004240879" lon="10.380201506224576"><ele>11.0</ele><time>2026-04-25T09:12:39Z</time></trkpt><trkpt lat="43.44863286941533" lon="10.38029797676329"><ele>10.75</ele><time>2026-04-25T09:12:41Z</time></trkpt><trkpt lat="43.44853362581427" lon="10.380390050720226"><ele>10.5</ele><time>2026-04-25T09:12:43Z</time></trkpt><trkpt lat="43.44843418604326" lon="10.380475388230966"><ele>10.25</ele><time>2026-04-25T09:12:45Z</time></trkpt><trkpt lat="43.44833507534975" lon="10.380563321412968"><ele>10.0</ele><time>2026-04-25T09:12:47Z</time></trkpt><trkpt lat="43.44823776496385" lon="10.380654375549966"><ele>10.25</ele><time>2026-04-25T09:12:49Z</time></trkpt><trkpt lat="43.448131309275915" lon="10.380730669779245"><ele>10.5</ele><time>2026-04-25T09:12:51Z</time></trkpt><trkpt lat="43.4480311513181" lon="10.380814983255108"><ele>10.75</ele><time>2026-04-25T09:12:53Z</time></trkpt><trkpt lat="43.447935792521854" lon="10.380904334904697"><ele>11.0</ele><time>2026-04-25T09:12:55Z</time></trkpt><trkpt lat="43.447840361886335" lon="10.380987873606582"><ele>11.0</ele><time>2026-04-25T09:12:57Z</time></trkpt><trkpt lat="43.447749046028505" lon="10.381078948146435"><ele>11.0</ele><time>2026-04-25T09:12:59Z</time></trkpt><trkpt lat="43.44765618144879" lon="10.381166513945386"><ele>11.0</ele><time>2026-04-25T09:13:01Z</time></trkpt><trkpt lat="43.44756198067577" lon="10.381249560257226"><ele>11.0</ele><time>2026-04-25T09:13:03Z</time></trkpt><trkpt lat="43.447469411630195" lon="10.381338156461995"><ele>10.600000000000001</ele><time>2026-04-25T09:13:05Z</time></trkpt><trkpt lat="43.44738049062514" lon="10.381423263711122"><ele>10.200000000000001</ele><time>2026-04-25T09:13:07Z</time></trkpt><trkpt lat="43.447288422474834" lon="10.381512480175715"><ele>9.8</ele><time>2026-04-25T09:13:09Z</time></trkpt><trkpt lat="43.447195646001305" lon="10.381598760803948"><ele>9.4</ele><time>2026-04-25T09:13:11Z</time></trkpt><trkpt lat="43.447110067359674" lon="10.381681170656336"><ele>9.0</ele><time>2026-04-25T09:13:13Z</time></trkpt><trkpt lat="43.447018690359805" lon="10.381769565499365"><ele>9.0</ele><time>2026-04-25T09:13:15Z</time></trkpt><trkpt lat="43.4469293351188" lon="10.381858232350977"><ele>9.0</ele><time>2026-04-25T09:13:17Z</time></trkpt><trkpt lat="43.446844236123525" lon="10.38194819966059"><ele>9.0</ele><time>2026-04-25T09:13:19Z</time></trkpt><trkpt lat="43.44674831981072" lon="10.382034686219697"><ele>9.0</ele><time>2026-04-25T09:13:21Z</time></trkpt><trkpt lat="43.44665645116809" lon="10.382118083746304"><ele>9.0</ele><time>2026-04-25T09:13:23Z</time></trkpt><trkpt lat="43.44656409264461" lon="10.382198586697088"><ele>9.8</ele><time>2026-04-25T09:13:25Z</time></trkpt><trkpt lat="43.44647096054559" lon="10.382278637947847"><ele>10.600000000000001</ele><time>2026-04-25T09:13:27Z</time></trkpt><trkpt lat="43.44637320499116" lon="10.382355869610413"><ele>11.4</ele><time>2026-04-25T09:13:29Z</time></trkpt><trkpt lat="43.446284494463285" lon="10.382436711157679"><ele>12.200000000000001</ele><time>2026-04-25T09:13:31Z</time></trkpt><trkpt lat="43.44617969680226" lon="10.382492895787413"><ele>13.0</ele><time>2026-04-25T09:13:33Z</time></trkpt><trkpt lat="43.44606888323531" lon="10.38251983339826"><ele>13.0</ele><time>2026-04-25T09:13:35Z</time></trkpt><trkpt lat="43.44595459840187" lon="10.382553005153136"><ele>13.0</ele><time>2026-04-25T09:13:37Z</time></trkpt><trkpt lat="43.44584436174959" lon="10.382593514599503"><ele>13.0</ele><time>2026-04-25T09:13:39Z</time></trkpt><trkpt lat="43.44573846172727" lon="10.382657254963274"><ele>13.0</ele><time>2026-04-25T09:13:41Z</time></trkpt><trkpt lat="43.44563666390519" lon="10.382730520205268"><ele>13.0</ele><time>2026-04-25T09:13:43Z</time></trkpt><trkpt lat="43.445585452599396" lon="10.382781576512372"><ele>13.0</ele><time>2026-04-25T09:13:44Z</time></trkpt><trkpt lat="43.44551091609974" lon="10.382736740279064"><ele>13.0</ele><time>2026-04-25T09:13:45Z</time></trkpt><trkpt lat="43.44544682364001" lon="10.382742347907344"><ele>13.0</ele><time>2026-04-25T09:13:46Z</time></trkpt><trkpt lat="43.445329607315315" lon="10.382772420281599"><ele>13.0</ele><time>2026-04-25T09:13:48Z</time></trkpt><trkpt lat="43.44520327375699" lon="10.382803548814799"><ele>12.714285714285714</ele><time>2026-04-25T09:13:50Z</time></trkpt><trkpt lat="43.44515502871826" lon="10.382865364834112"><ele>12.428571428571429</ele><time>2026-04-25T09:13:51Z</time></trkpt><trkpt lat="43.44507644964938" lon="10.382839034546953"><ele>12.142857142857142</ele><time>2026-04-25T09:13:52Z</time></trkpt><trkpt lat="43.4450107482065" lon="10.382856713599313"><ele>11.857142857142858</ele><time>2026-04-25T09:13:53Z</time></trkpt><trkpt lat="43.444945231730074" lon="10.382873717869913"><ele>11.571428571428571</ele><time>2026-04-25T09:13:54Z</time></trkpt><trkpt lat="43.44488134421981" lon="10.38289220401277"><ele>11.285714285714286</ele><time>2026-04-25T09:13:55Z</time></trkpt><trkpt lat="43.444816742797904" lon="10.38290998762368"><ele>11.0</ele><time>2026-04-25T09:13:56Z</time></trkpt><trkpt lat="43.444750955007635" lon="10.382930993243686"><ele>11.0</ele><time>2026-04-25T09:13:57Z</time></trkpt><trkpt lat="43.44468494086673" lon="10.382950090234093"><ele>11.0</ele><time>2026-04-25T09:13:58Z</time></trkpt><trkpt lat="43.44461259650384" lon="10.38297186739528"><ele>11.0</ele><time>2026-04-25T09:13:59Z</time></trkpt><trkpt lat="43.4445407905092" lon="10.382992232822366"><ele>11.0</ele><time>2026-04-25T09:14:00Z</time></trkpt><trkpt lat="43.44446659861497" lon="10.383015597512147"><ele>11.0</ele><time>2026-04-25T09:14:01Z</time></trkpt><trkpt lat="43.44438910566557" lon="10.38304128213308"><ele>11.0</ele><time>2026-04-25T09:14:02Z</time></trkpt><trkpt lat="43.44431164294209" lon="10.38306683604538"><ele>12.333333333333332</ele><time>2026-04-25T09:14:03Z</time></trkpt><trkpt lat="43.4442296499221" lon="10.38310209680153"><ele>13.666666666666666</ele><time>2026-04-25T09:14:04Z</time></trkpt><trkpt lat="43.444149332337155" lon="10.383137303231248"><ele>15.0</ele><time>2026-04-25T09:14:05Z</time></trkpt><trkpt lat="43.44406572188697" lon="10.383175402367787"><ele>16.333333333333332</ele><time>2026-04-25T09:14:06Z</time></trkpt><trkpt lat="43.44398072778171" lon="10.383208282940299"><ele>17.666666666666664</ele><time>2026-04-25T09:14:07Z</time></trkpt><trkpt lat="43.44390664429069" lon="10.383241228825373"><ele>19.0</ele><time>2026-04-25T09:14:08Z</time></trkpt><trkpt lat="43.443835186849334" lon="10.383297350687256"><ele>18.0</ele><time>2026-04-25T09:14:09Z</time></trkpt><trkpt lat="43.44376981975093" lon="10.383345266820964"><ele>17.0</ele><time>2026-04-25T09:14:10Z</time></trkpt><trkpt lat="43.44366281056317" lon="10.383413524499705"><ele>16.0</ele><time>2026-04-25T09:14:12Z</time></trkpt><trkpt lat="43.44357302137497" lon="10.383471356912228"><ele>15.0</ele><time>2026-04-25T09:14:14Z</time></trkpt><trkpt lat="43.44350639866842" lon="10.38352325590903"><ele>13.999999999999998</ele><time>2026-04-25T09:14:16Z</time></trkpt><trkpt lat="43.44345022110735" lon="10.383565841481955"><ele>13.0</ele><time>2026-04-25T09:14:19Z</time></trkpt><trkpt lat="43.443394411575376" lon="10.383626535837445"><ele>12.999999999999998</ele><time>2026-04-25T09:14:55Z</time></trkpt><trkpt lat="43.44332675516813" lon="10.383678247554997"><ele>13.0</ele><time>2026-04-25T09:14:58Z</time></trkpt><trkpt lat="43.44326979862673" lon="10.383723175258826"><ele>13.0</ele><time>2026-04-25T09:15:00Z</time></trkpt><trkpt lat="43.443205825627714" lon="10.383765342449044"><ele>13.0</ele><time>2026-04-25T09:15:02Z</time></trkpt><trkpt lat="43.44313111482525" lon="10.38382073085566"><ele>12.999999999999998</ele><time>2026-04-25T09:15:04Z</time></trkpt><trkpt lat="43.44305320879392" lon="10.38387735421546"><ele>13.0</ele><time>2026-04-25T09:15:06Z</time></trkpt><trkpt lat="43.442982223254496" lon="10.383924895645626"><ele>13.2</ele><time>2026-04-25T09:15:08Z</time></trkpt><trkpt lat="43.442909618957216" lon="10.383987469338862"><ele>13.4</ele><time>2026-04-25T09:15:10Z</time></trkpt><trkpt lat="43.44281166274982" lon="10.384049469269197"><ele>13.599999999999998</ele><time>2026-04-25T09:15:12Z</time></trkpt><trkpt lat="43.442720495259195" lon="10.384119549327934"><ele>13.799999999999999</ele><time>2026-04-25T09:15:14Z</time></trkpt><trkpt lat="43.44261992913961" lon="10.384185616618005"><ele>14.0</ele><time>2026-04-25T09:15:16Z</time></trkpt><trkpt lat="43.44252024610752" lon="10.384259088947022"><ele>14.0</ele><time>2026-04-25T09:15:18Z</time></trkpt><trkpt lat="43.44241556342853" lon="10.384338583574706"><ele>13.999999999999998</ele><time>2026-04-25T09:15:20Z</time></trkpt><trkpt lat="43.442304334585835" lon="10.384427170829435"><ele>13.999999999999998</ele><time>2026-04-25T09:15:22Z</time></trkpt><trkpt lat="43.442204177270106" lon="10.384491795071591"><ele>14.0</ele><time>2026-04-25T09:15:24Z</time></trkpt><trkpt lat="43.4421497980833" lon="10.384538568249761"><ele>14.0</ele><time>2026-04-25T09:15:25Z</time></trkpt><trkpt lat="43.4420427194748" lon="10.384619519476518"><ele>15.2</ele><time>2026-04-25T09:15:27Z</time></trkpt><trkpt lat="43.44193323032537" lon="10.38468959274217"><ele>16.4</ele><time>2026-04-25T09:15:29Z</time></trkpt><trkpt lat="43.44182012594423" lon="10.384764079247239"><ele>17.6</ele><time>2026-04-25T09:15:31Z</time></trkpt><trkpt lat="43.44176398610616" lon="10.384811630949178"><ele>18.8</ele><time>2026-04-25T09:15:32Z</time></trkpt><trkpt lat="43.44170573743802" lon="10.384864179811489"><ele>20.0</ele><time>2026-04-25T09:15:33Z</time></trkpt><trkpt lat="43.44159789662288" lon="10.384942561224797"><ele>20.0</ele><time>2026-04-25T09:15:35Z</time></trkpt><trkpt lat="43.44153901394691" lon="10.384982016598732"><ele>20.0</ele><time>2026-04-25T09:15:36Z</time></trkpt><trkpt lat="43.441481178246185" lon="10.385018231119162"><ele>20.0</ele><time>2026-04-25T09:15:37Z</time></trkpt><trkpt lat="43.44142530759756" lon="10.385069405151746"><ele>20.0</ele><time>2026-04-25T09:15:38Z</time></trkpt><trkpt lat="43.441312441544476" lon="10.385142741296885"><ele>20.0</ele><time>2026-04-25T09:15:40Z</time></trkpt><trkpt lat="43.44125629513954" lon="10.385186836157889"><ele>20.0</ele><time>2026-04-25T09:15:41Z</time></trkpt><trkpt lat="43.44120032535574" lon="10.385232522026437"><ele>19.4</ele><time>2026-04-25T09:15:42Z</time></trkpt><trkpt lat="43.441142419611715" lon="10.385279553055106"><ele>18.8</ele><time>2026-04-25T09:15:43Z</time></trkpt><trkpt lat="43.441025580657175" lon="10.385360396072663"><ele>18.2</ele><time>2026-04-25T09:15:45Z</time></trkpt><trkpt lat="43.44096763162075" lon="10.385400229132284"><ele>17.6</ele><time>2026-04-25T09:15:46Z</time></trkpt><trkpt lat="43.44085964338556" lon="10.385479400675898"><ele>17.0</ele><time>2026-04-25T09:15:48Z</time></trkpt><trkpt lat="43.440803480661636" lon="10.38552569018015"><ele>16.999999999999996</ele><time>2026-04-25T09:15:49Z</time></trkpt><trkpt lat="43.44074418112041" lon="10.385567959824371"><ele>17.0</ele><time>2026-04-25T09:15:50Z</time></trkpt><trkpt lat="43.44068954653801" lon="10.385612062067057"><ele>17.0</ele><time>2026-04-25T09:15:51Z</time></trkpt><trkpt lat="43.44063463689209" lon="10.385655955726294"><ele>17.0</ele><time>2026-04-25T09:15:52Z</time></trkpt><trkpt lat="43.44057636929368" lon="10.385700628497053"><ele>17.0</ele><time>2026-04-25T09:15:53Z</time></trkpt><trkpt lat="43.44052003750222" lon="10.385742936719348"><ele>16.999999999999996</ele><time>2026-04-25T09:15:54Z</time></trkpt><trkpt lat="43.44046387090101" lon="10.385788915222307"><ele>17.0</ele><time>2026-04-25T09:15:55Z</time></trkpt><trkpt lat="43.44035111210019" lon="10.385861468434296"><ele>17.0</ele><time>2026-04-25T09:15:57Z</time></trkpt><trkpt lat="43.44029089646459" lon="10.385896682634701"><ele>17.0</ele><time>2026-04-25T09:15:58Z</time></trkpt><trkpt lat="43.44017860050678" lon="10.385963055518172"><ele>17.0</ele><time>2026-04-25T09:16:00Z</time></trkpt><trkpt lat="43.44006838429571" lon="10.386028817935431"><ele>17.0</ele><time>2026-04-25T09:16:02Z</time></trkpt><trkpt lat="43.43994990340035" lon="10.386100058814103"><ele>17.0</ele><time>2026-04-25T09:16:04Z</time></trkpt><trkpt lat="43.43983926471641" lon="10.386153408158393"><ele>17.0</ele><time>2026-04-25T09:16:06Z</time></trkpt><trkpt lat="43.439777392465814" lon="10.386186884998954"><ele>17.0</ele><time>2026-04-25T09:16:07Z</time></trkpt><trkpt lat="43.43971681284899" lon="10.38622044397056"><ele>17.0</ele><time>2026-04-25T09:16:08Z</time></trkpt><trkpt lat="43.439657294117545" lon="10.38626026216715"><ele>17.0</ele><time>2026-04-25T09:16:09Z</time></trkpt><trkpt lat="43.439537395485345" lon="10.38631635374996"><ele>17.0</ele><time>2026-04-25T09:16:11Z</time></trkpt><trkpt lat="43.439470295119605" lon="10.386353768760893"><ele>17.0</ele><time>2026-04-25T09:16:12Z</time></trkpt><trkpt lat="43.439408574602616" lon="10.386378688693995"><ele>16.999999999999996</ele><time>2026-04-25T09:16:13Z</time></trkpt><trkpt lat="43.439347979281656" lon="10.386413213819562"><ele>17.0</ele><time>2026-04-25T09:16:14Z</time></trkpt><trkpt lat="43.439286386498196" lon="10.386450242802544"><ele>17.0</ele><time>2026-04-25T09:16:15Z</time></trkpt><trkpt lat="43.43922533992215" lon="10.386476655664522"><ele>17.0</ele><time>2026-04-25T09:16:16Z</time></trkpt><trkpt lat="43.439164604522134" lon="10.386510492529547"><ele>17.0</ele><time>2026-04-25T09:16:17Z</time></trkpt><trkpt lat="43.439103908102794" lon="10.386538143221983"><ele>16.999999999999996</ele><time>2026-04-25T09:16:18Z</time></trkpt><trkpt lat="43.439040388722375" lon="10.38656363634636"><ele>17.0</ele><time>2026-04-25T09:16:19Z</time></trkpt><trkpt lat="43.438923529072206" lon="10.386625749563592"><ele>16.999999999999996</ele><time>2026-04-25T09:16:21Z</time></trkpt><trkpt lat="43.43886212085539" lon="10.386654410410198"><ele>17.0</ele><time>2026-04-25T09:16:22Z</time></trkpt><trkpt lat="43.43880205151401" lon="10.386684926736335"><ele>17.0</ele><time>2026-04-25T09:16:23Z</time></trkpt><trkpt lat="43.438744033367676" lon="10.386724070888771"><ele>17.0</ele><time>2026-04-25T09:16:24Z</time></trkpt><trkpt lat="43.43868589502317" lon="10.38676012574977"><ele>17.0</ele><time>2026-04-25T09:16:25Z</time></trkpt><trkpt lat="43.43856514871361" lon="10.386821261540568"><ele>16.999999999999996</ele><time>2026-04-25T09:16:27Z</time></trkpt><trkpt lat="43.43850553682745" lon="10.386850251550438"><ele>17.0</ele><time>2026-04-25T09:16:28Z</time></trkpt><trkpt lat="43.438444624783884" lon="10.386882845801436"><ele>16.285714285714285</ele><time>2026-04-25T09:16:29Z</time></trkpt><trkpt lat="43.438384803443824" lon="10.386912675803567"><ele>15.571428571428571</ele><time>2026-04-25T09:16:30Z</time></trkpt><trkpt lat="43.43832517927651" lon="10.386944351534874"><ele>14.857142857142856</ele><time>2026-04-25T09:16:31Z</time></trkpt><trkpt lat="43.43826475178118" lon="10.386973268649848"><ele>14.142857142857142</ele><time>2026-04-25T09:16:32Z</time></trkpt><trkpt lat="43.43820449192106" lon="10.387005274787095"><ele>13.428571428571427</ele><time>2026-04-25T09:16:33Z</time></trkpt><trkpt lat="43.43814364618983" lon="10.3870372076294"><ele>12.714285714285714</ele><time>2026-04-25T09:16:34Z</time></trkpt><trkpt lat="43.438084431716106" lon="10.387066673573315"><ele>12.0</ele><time>2026-04-25T09:16:35Z</time></trkpt><trkpt lat="43.43796628597697" lon="10.387115065755605"><ele>11.2</ele><time>2026-04-25T09:16:37Z</time></trkpt><trkpt lat="43.43784636240776" lon="10.38717435083782"><ele>10.399999999999999</ele><time>2026-04-25T09:16:39Z</time></trkpt><trkpt lat="43.43778407613126" lon="10.387204656220401"><ele>9.600000000000001</ele><time>2026-04-25T09:16:40Z</time></trkpt><trkpt lat="43.437668754123" lon="10.387264183644826"><ele>8.8</ele><time>2026-04-25T09:16:42Z</time></trkpt><trkpt lat="43.43755327908934" lon="10.3873250552455"><ele>8.0</ele><time>2026-04-25T09:16:44Z</time></trkpt><trkpt lat="43.43743601759636" lon="10.38738804574245"><ele>9.0</ele><time>2026-04-25T09:16:46Z</time></trkpt><trkpt lat="43.43737387157407" lon="10.387416393927467"><ele>10.0</ele><time>2026-04-25T09:16:47Z</time></trkpt><trkpt lat="43.43731162768546" lon="10.38744851160934"><ele>11.0</ele><time>2026-04-25T09:16:48Z</time></trkpt><trkpt lat="43.43719285182338" lon="10.387509790279466"><ele>12.0</ele><time>2026-04-25T09:16:50Z</time></trkpt><trkpt lat="43.43713148199225" lon="10.387540051642686"><ele>13.000000000000002</ele><time>2026-04-25T09:16:51Z</time></trkpt><trkpt lat="43.43707159360547" lon="10.387576557218049"><ele>14.0</ele><time>2026-04-25T09:16:52Z</time></trkpt><trkpt lat="43.43701296620991" lon="10.387612968055256"><ele>14.0</ele><time>2026-04-25T09:16:53Z</time></trkpt><trkpt lat="43.43689323576154" lon="10.387675049417252"><ele>13.999999999999998</ele><time>2026-04-25T09:16:55Z</time></trkpt><trkpt lat="43.43677544143879" lon="10.387728848171074"><ele>13.999999999999998</ele><time>2026-04-25T09:16:57Z</time></trkpt><trkpt lat="43.43671532461026" lon="10.387757753817668"><ele>14.0</ele><time>2026-04-25T09:16:58Z</time></trkpt><trkpt lat="43.43660657100618" lon="10.387804796806927"><ele>14.0</ele><time>2026-04-25T09:17:00Z</time></trkpt><trkpt lat="43.436491304699494" lon="10.387860762659926"><ele>14.0</ele><time>2026-04-25T09:17:02Z</time></trkpt><trkpt lat="43.436375626814915" lon="10.387933863278795"><ele>13.999999999999998</ele><time>2026-04-25T09:17:04Z</time></trkpt><trkpt lat="43.43631646019015" lon="10.38796503568865"><ele>13.999999999999998</ele><time>2026-04-25T09:17:05Z</time></trkpt><trkpt lat="43.436202349369125" lon="10.38802299481932"><ele>14.0</ele><time>2026-04-25T09:17:07Z</time></trkpt><trkpt lat="43.43608700755355" lon="10.388081989873147"><ele>14.0</ele><time>2026-04-25T09:17:09Z</time></trkpt><trkpt lat="43.43597929755152" lon="10.388170801181184"><ele>15.2</ele><time>2026-04-25T09:17:11Z</time></trkpt><trkpt lat="43.43586479243368" lon="10.388223007581102"><ele>16.4</ele><time>2026-04-25T09:17:13Z</time></trkpt><trkpt lat="43.43575961114781" lon="10.388287143569869"><ele>17.6</ele><time>2026-04-25T09:17:15Z</time></trkpt><trkpt lat="43.43569793806499" lon="10.388313268937575"><ele>18.8</ele><time>2026-04-25T09:17:16Z</time></trkpt><trkpt lat="43.43558992106062" lon="10.388375038854337"><ele>20.0</ele><time>2026-04-25T09:17:18Z</time></trkpt><trkpt lat="43.435483130136404" lon="10.388425127820662"><ele>19.6</ele><time>2026-04-25T09:17:20Z</time></trkpt><trkpt lat="43.435396937203556" lon="10.388463675777166"><ele>19.2</ele><time>2026-04-25T09:17:22Z</time></trkpt><trkpt lat="43.43530673484512" lon="10.388508899769997"><ele>18.8</ele><time>2026-04-25T09:17:24Z</time></trkpt><trkpt lat="43.43524532111543" lon="10.388578635001755"><ele>18.4</ele><time>2026-04-25T09:17:25Z</time></trkpt><trkpt lat="43.43513917310486" lon="10.388649023389563"><ele>18.0</ele><time>2026-04-25T09:17:27Z</time></trkpt><trkpt lat="43.43504242336674" lon="10.388718718981684"><ele>18.0</ele><time>2026-04-25T09:17:29Z</time></trkpt><trkpt lat="43.434939494347475" lon="10.388798046796968"><ele>18.0</ele><time>2026-04-25T09:17:31Z</time></trkpt><trkpt lat="43.434836532093925" lon="10.38886181840366"><ele>18.0</ele><time>2026-04-25T09:17:33Z</time></trkpt><trkpt lat="43.434735168773265" lon="10.388942311003797"><ele>18.0</ele><time>2026-04-25T09:17:35Z</time></trkpt><trkpt lat="43.4346328245117" lon="10.389019419528262"><ele>17.8</ele><time>2026-04-25T09:17:37Z</time></trkpt><trkpt lat="43.43452076680267" lon="10.38910449181395"><ele>17.6</ele><time>2026-04-25T09:17:39Z</time></trkpt><trkpt lat="43.43441034779939" lon="10.389177676045545"><ele>17.4</ele><time>2026-04-25T09:17:41Z</time></trkpt><trkpt lat="43.43431804524329" lon="10.38924614262976"><ele>17.2</ele><time>2026-04-25T09:17:43Z</time></trkpt><trkpt lat="43.43424199136678" lon="10.38930043349135"><ele>17.0</ele><time>2026-04-25T09:17:44Z</time></trkpt><trkpt lat="43.434183668483605" lon="10.389340485140215"><ele>17.0</ele><time>2026-04-25T09:17:45Z</time></trkpt><trkpt lat="43.43406763646019" lon="10.389397452767824"><ele>17.0</ele><time>2026-04-25T09:17:47Z</time></trkpt><trkpt lat="43.43400918830774" lon="10.389461238085714"><ele>17.0</ele><time>2026-04-25T09:17:48Z</time></trkpt><trkpt lat="43.43389481510191" lon="10.389547613941419"><ele>17.0</ele><time>2026-04-25T09:17:50Z</time></trkpt><trkpt lat="43.43383733693079" lon="10.389593295580013"><ele>17.0</ele><time>2026-04-25T09:17:51Z</time></trkpt><trkpt lat="43.43377936321967" lon="10.389634609639408"><ele>17.5</ele><time>2026-04-25T09:17:52Z</time></trkpt><trkpt lat="43.43372010649975" lon="10.38967359733369"><ele>18.0</ele><time>2026-04-25T09:17:53Z</time></trkpt><trkpt lat="43.433611796604005" lon="10.389762810163017"><ele>18.5</ele><time>2026-04-25T09:17:55Z</time></trkpt><trkpt lat="43.43355126274197" lon="10.38980992792676"><ele>19.0</ele><time>2026-04-25T09:17:56Z</time></trkpt><trkpt lat="43.43349297875415" lon="10.38985325070992"><ele>19.5</ele><time>2026-04-25T09:17:57Z</time></trkpt><trkpt lat="43.43343670047631" lon="10.389896875691777"><ele>20.0</ele><time>2026-04-25T09:17:58Z</time></trkpt><trkpt lat="43.433380658867314" lon="10.389941221906822"><ele>20.0</ele><time>2026-04-25T09:17:59Z</time></trkpt><trkpt lat="43.4333189569155" lon="10.389987360869313"><ele>20.0</ele><time>2026-04-25T09:18:00Z</time></trkpt><trkpt lat="43.433257445083804" lon="10.390023316468517"><ele>20.0</ele><time>2026-04-25T09:18:01Z</time></trkpt><trkpt lat="43.43320004613863" lon="10.390063137692737"><ele>20.0</ele><time>2026-04-25T09:18:02Z</time></trkpt><trkpt lat="43.433141559231686" lon="10.390115522757062"><ele>20.0</ele><time>2026-04-25T09:18:03Z</time></trkpt><trkpt lat="43.43308588809286" lon="10.390157651890194"><ele>20.0</ele><time>2026-04-25T09:18:04Z</time></trkpt><trkpt lat="43.43302468923313" lon="10.390212763115011"><ele>20.0</ele><time>2026-04-25T09:18:05Z</time></trkpt><trkpt lat="43.43297156004731" lon="10.390276431409303"><ele>20.166666666666668</ele><time>2026-04-25T09:18:06Z</time></trkpt><trkpt lat="43.43291108422669" lon="10.390303755697026"><ele>20.333333333333336</ele><time>2026-04-25T09:18:07Z</time></trkpt><trkpt lat="43.43280449708704" lon="10.390378537426136"><ele>20.5</ele><time>2026-04-25T09:18:09Z</time></trkpt><trkpt lat="43.43269516840414" lon="10.39045683805496"><ele>20.666666666666668</ele><time>2026-04-25T09:18:11Z</time></trkpt><trkpt lat="43.43263199528938" lon="10.390502565984438"><ele>20.833333333333332</ele><time>2026-04-25T09:18:12Z</time></trkpt><trkpt lat="43.43257532469723" lon="10.390559937413148"><ele>21.0</ele><time>2026-04-25T09:18:13Z</time></trkpt><trkpt lat="43.43249188690912" lon="10.390595531648083"><ele>21.0</ele><time>2026-04-25T09:18:15Z</time></trkpt><trkpt lat="43.43242440025153" lon="10.390639382099684"><ele>21.0</ele><time>2026-04-25T09:18:16Z</time></trkpt><trkpt lat="43.432321918431725" lon="10.390729818505807"><ele>21.0</ele><time>2026-04-25T09:18:18Z</time></trkpt><trkpt lat="43.43221319859361" lon="10.390795868758461"><ele>21.0</ele><time>2026-04-25T09:18:20Z</time></trkpt><trkpt lat="43.43210263341919" lon="10.39089079913815"><ele>21.0</ele><time>2026-04-25T09:18:22Z</time></trkpt><trkpt lat="43.431984684997666" lon="10.390957039781801"><ele>20.0</ele><time>2026-04-25T09:18:24Z</time></trkpt><trkpt lat="43.43191533011109" lon="10.391006085903319"><ele>19.0</ele><time>2026-04-25T09:18:25Z</time></trkpt><trkpt lat="43.43185813127749" lon="10.391048765991302"><ele>18.0</ele><time>2026-04-25T09:18:26Z</time></trkpt><trkpt lat="43.431739352862465" lon="10.391147036325792"><ele>17.0</ele><time>2026-04-25T09:18:28Z</time></trkpt><trkpt lat="43.43162576033552" lon="10.39120787210152"><ele>16.0</ele><time>2026-04-25T09:18:30Z</time></trkpt><trkpt lat="43.43151170834448" lon="10.39130330047186"><ele>16.666666666666664</ele><time>2026-04-25T09:18:32Z</time></trkpt><trkpt lat="43.431406893365654" lon="10.39139648326708"><ele>17.333333333333332</ele><time>2026-04-25T09:18:34Z</time></trkpt><trkpt lat="43.43135255308925" lon="10.391440978341231"><ele>18.0</ele><time>2026-04-25T09:18:35Z</time></trkpt><trkpt lat="43.43130262663008" lon="10.3915027846298"><ele>18.666666666666668</ele><time>2026-04-25T09:18:36Z</time></trkpt><trkpt lat="43.431214930351686" lon="10.39162727704071"><ele>19.333333333333336</ele><time>2026-04-25T09:18:38Z</time></trkpt><trkpt lat="43.43117865548135" lon="10.391700273430184"><ele>20.0</ele><time>2026-04-25T09:18:39Z</time></trkpt><trkpt lat="43.43114030592968" lon="10.391778153452881"><ele>19.0</ele><time>2026-04-25T09:18:40Z</time></trkpt><trkpt lat="43.43110987455899" lon="10.391855096856936"><ele>18.0</ele><time>2026-04-25T09:18:41Z</time></trkpt><trkpt lat="43.43108375419307" lon="10.391943036253387"><ele>17.0</ele><time>2026-04-25T09:18:42Z</time></trkpt><trkpt lat="43.43106510718074" lon="10.392028935728288"><ele>16.0</ele><time>2026-04-25T09:18:43Z</time></trkpt><trkpt lat="43.4310417119733" lon="10.392122901556057"><ele>15.0</ele><time>2026-04-25T09:18:44Z</time></trkpt><trkpt lat="43.43102392363394" lon="10.392217379577577"><ele>14.0</ele><time>2026-04-25T09:18:45Z</time></trkpt><trkpt lat="43.43101215225338" lon="10.392318614784427"><ele>13.0</ele><time>2026-04-25T09:18:46Z</time></trkpt><trkpt lat="43.43101098560148" lon="10.392414032013908"><ele>13.0</ele><time>2026-04-25T09:18:47Z</time></trkpt><trkpt lat="43.43101527786464" lon="10.392513818611414"><ele>13.0</ele><time>2026-04-25T09:18:48Z</time></trkpt><trkpt lat="43.43101753141708" lon="10.392615683361129"><ele>13.0</ele><time>2026-04-25T09:18:49Z</time></trkpt><trkpt lat="43.431013978963854" lon="10.39271905172046"><ele>13.0</ele><time>2026-04-25T09:18:50Z</time></trkpt><trkpt lat="43.43100256045567" lon="10.392818804845465"><ele>13.0</ele><time>2026-04-25T09:18:51Z</time></trkpt><trkpt lat="43.43098941087653" lon="10.392918959440754"><ele>13.0</ele><time>2026-04-25T09:18:52Z</time></trkpt><trkpt lat="43.43097139149708" lon="10.393017076637307"><ele>13.0</ele><time>2026-04-25T09:18:53Z</time></trkpt><trkpt lat="43.43094046472764" lon="10.393109990088655"><ele>13.666666666666666</ele><time>2026-04-25T09:18:54Z</time></trkpt><trkpt lat="43.430907878047414" lon="10.393196886210994"><ele>14.333333333333332</ele><time>2026-04-25T09:18:55Z</time></trkpt><trkpt lat="43.430871883614394" lon="10.393280449562276"><ele>15.0</ele><time>2026-04-25T09:18:56Z</time></trkpt><trkpt lat="43.43083759855804" lon="10.393355530322935"><ele>15.666666666666668</ele><time>2026-04-25T09:18:57Z</time></trkpt><trkpt lat="43.43080201789801" lon="10.39343016028099"><ele>16.333333333333336</ele><time>2026-04-25T09:18:58Z</time></trkpt><trkpt lat="43.43072845847244" lon="10.393569567792799"><ele>17.0</ele><time>2026-04-25T09:19:00Z</time></trkpt><trkpt lat="43.430660471759246" lon="10.39370818531205"><ele>18.0</ele><time>2026-04-25T09:19:02Z</time></trkpt><trkpt lat="43.430588666879764" lon="10.393840337167719"><ele>19.0</ele><time>2026-04-25T09:19:04Z</time></trkpt><trkpt lat="43.430522691327205" lon="10.393975637835283"><ele>20.0</ele><time>2026-04-25T09:19:06Z</time></trkpt><trkpt lat="43.43046211692761" lon="10.394111742555456"><ele>21.0</ele><time>2026-04-25T09:19:08Z</time></trkpt><trkpt lat="43.430398511260606" lon="10.394237992620065"><ele>21.0</ele><time>2026-04-25T09:19:10Z</time></trkpt><trkpt lat="43.43033479334757" lon="10.394360069533004"><ele>21.0</ele><time>2026-04-25T09:19:12Z</time></trkpt><trkpt lat="43.4302689998676" lon="10.394478819698223"><ele>21.0</ele><time>2026-04-25T09:19:14Z</time></trkpt><trkpt lat="43.430197530428316" lon="10.394585987646341"><ele>21.0</ele><time>2026-04-25T09:19:16Z</time></trkpt><trkpt lat="43.4301221052213" lon="10.394691030637256"><ele>21.0</ele><time>2026-04-25T09:19:18Z</time></trkpt><trkpt lat="43.43003061671495" lon="10.394780207941942"><ele>21.8</ele><time>2026-04-25T09:19:20Z</time></trkpt><trkpt lat="43.42991625288901" lon="10.394826694207529"><ele>22.6</ele><time>2026-04-25T09:19:22Z</time></trkpt><trkpt lat="43.42986444712643" lon="10.394879767941951"><ele>23.4</ele><time>2026-04-25T09:19:23Z</time></trkpt><trkpt lat="43.42979043997425" lon="10.394872830645998"><ele>24.2</ele><time>2026-04-25T09:19:24Z</time></trkpt><trkpt lat="43.42971923904509" lon="10.394981845576329"><ele>25.0</ele><time>2026-04-25T09:19:26Z</time></trkpt><trkpt lat="43.42968661551497" lon="10.395151844437043"><ele>25.000000000000004</ele><time>2026-04-25T09:19:28Z</time></trkpt><trkpt lat="43.42966038296467" lon="10.39523178005439"><ele>25.0</ele><time>2026-04-25T09:19:29Z</time></trkpt><trkpt lat="43.42963118005631" lon="10.395316176837257"><ele>25.0</ele><time>2026-04-25T09:19:30Z</time></trkpt><trkpt lat="43.42960379039485" lon="10.395401752876783"><ele>25.0</ele><time>2026-04-25T09:19:31Z</time></trkpt><trkpt lat="43.42957664259587" lon="10.395486674293947"><ele>25.0</ele><time>2026-04-25T09:19:32Z</time></trkpt><trkpt lat="43.42954930623682" lon="10.395575506011024"><ele>25.000000000000004</ele><time>2026-04-25T09:19:33Z</time></trkpt><trkpt lat="43.42951651444034" lon="10.395654686054757"><ele>25.0</ele><time>2026-04-25T09:19:34Z</time></trkpt><trkpt lat="43.429475632354645" lon="10.395735563990433"><ele>24.333333333333336</ele><time>2026-04-25T09:19:35Z</time></trkpt><trkpt lat="43.429436498008485" lon="10.395827759305725"><ele>23.666666666666668</ele><time>2026-04-25T09:19:36Z</time></trkpt><trkpt lat="43.4293982150318" lon="10.395924269448555"><ele>23.0</ele><time>2026-04-25T09:19:37Z</time></trkpt><trkpt lat="43.42935117780398" lon="10.396008956790766"><ele>22.333333333333336</ele><time>2026-04-25T09:19:38Z</time></trkpt><trkpt lat="43.42929404538029" lon="10.396078739133973"><ele>21.666666666666668</ele><time>2026-04-25T09:19:39Z</time></trkpt><trkpt lat="43.42922583359393" lon="10.396130717565772"><ele>21.0</ele><time>2026-04-25T09:19:40Z</time></trkpt><trkpt lat="43.42915326800105" lon="10.396167083310365"><ele>21.0</ele><time>2026-04-25T09:19:41Z</time></trkpt><trkpt lat="43.429089454850306" lon="10.396205764299271"><ele>21.0</ele><time>2026-04-25T09:19:42Z</time></trkpt><trkpt lat="43.429022790803955" lon="10.396252763382163"><ele>21.0</ele><time>2026-04-25T09:19:43Z</time></trkpt><trkpt lat="43.428963083354915" lon="10.396295856795032"><ele>21.0</ele><time>2026-04-25T09:19:44Z</time></trkpt><trkpt lat="43.42890384299417" lon="10.396344159462732"><ele>21.0</ele><time>2026-04-25T09:19:45Z</time></trkpt><trkpt lat="43.42884667647341" lon="10.39639360021705"><ele>21.0</ele><time>2026-04-25T09:19:46Z</time></trkpt><trkpt lat="43.428794450326826" lon="10.39645369753437"><ele>21.0</ele><time>2026-04-25T09:19:47Z</time></trkpt><trkpt lat="43.42874716723203" lon="10.396514058205192"><ele>20.142857142857142</ele><time>2026-04-25T09:19:48Z</time></trkpt><trkpt lat="43.42870349073562" lon="10.396583332093082"><ele>19.285714285714285</ele><time>2026-04-25T09:19:49Z</time></trkpt><trkpt lat="43.428667921916954" lon="10.396660088122202"><ele>18.42857142857143</ele><time>2026-04-25T09:19:50Z</time></trkpt><trkpt lat="43.428635144636786" lon="10.396743665265065"><ele>17.57142857142857</ele><time>2026-04-25T09:19:51Z</time></trkpt><trkpt lat="43.428607589981645" lon="10.396827069212266"><ele>16.714285714285715</ele><time>2026-04-25T09:19:52Z</time></trkpt><trkpt lat="43.4285774574561" lon="10.396916074563746"><ele>15.857142857142858</ele><time>2026-04-25T09:19:53Z</time></trkpt><trkpt lat="43.428555443561095" lon="10.39700743931494"><ele>15.0</ele><time>2026-04-25T09:19:54Z</time></trkpt><trkpt lat="43.42853371134412" lon="10.397102212901371"><ele>15.333333333333334</ele><time>2026-04-25T09:19:55Z</time></trkpt><trkpt lat="43.42850811548148" lon="10.397197742905147"><ele>15.666666666666668</ele><time>2026-04-25T09:19:56Z</time></trkpt><trkpt lat="43.42848651916211" lon="10.397300037291606"><ele>16.0</ele><time>2026-04-25T09:19:57Z</time></trkpt><trkpt lat="43.428468804349116" lon="10.397408447788761"><ele>16.333333333333336</ele><time>2026-04-25T09:19:58Z</time></trkpt><trkpt lat="43.42845397483162" lon="10.397514479271301"><ele>16.666666666666668</ele><time>2026-04-25T09:19:59Z</time></trkpt><trkpt lat="43.42843962726173" lon="10.397624716087519"><ele>17.0</ele><time>2026-04-25T09:20:00Z</time></trkpt><trkpt lat="43.428407767729986" lon="10.397731335068285"><ele>17.0</ele><time>2026-04-25T09:20:01Z</time></trkpt><trkpt lat="43.42836701578299" lon="10.3978412901356"><ele>17.0</ele><time>2026-04-25T09:20:02Z</time></trkpt><trkpt lat="43.42832211629709" lon="10.397939145665303"><ele>17.0</ele><time>2026-04-25T09:20:03Z</time></trkpt><trkpt lat="43.428271414563106" lon="10.398044144893708"><ele>17.0</ele><time>2026-04-25T09:20:04Z</time></trkpt><trkpt lat="43.42821416924097" lon="10.398139669776898"><ele>17.0</ele><time>2026-04-25T09:20:05Z</time></trkpt><trkpt lat="43.42814887484507" lon="10.398232164700973"><ele>17.0</ele><time>2026-04-25T09:20:06Z</time></trkpt><trkpt lat="43.42809248875417" lon="10.398322965149964"><ele>16.833333333333336</ele><time>2026-04-25T09:20:07Z</time></trkpt><trkpt lat="43.42803139353674" lon="10.398414111980896"><ele>16.666666666666668</ele><time>2026-04-25T09:20:08Z</time></trkpt><trkpt lat="43.42796658098312" lon="10.398493238184123"><ele>16.5</ele><time>2026-04-25T09:20:09Z</time></trkpt><trkpt lat="43.42790607386288" lon="10.398577856382955"><ele>16.333333333333332</ele><time>2026-04-25T09:20:10Z</time></trkpt><trkpt lat="43.427843840238005" lon="10.398649043152027"><ele>16.166666666666664</ele><time>2026-04-25T09:20:11Z</time></trkpt><trkpt lat="43.42778598234464" lon="10.398710547205432"><ele>16.0</ele><time>2026-04-25T09:20:12Z</time></trkpt><trkpt lat="43.42766765688802" lon="10.3987557998394"><ele>14.600000000000001</ele><time>2026-04-25T09:20:14Z</time></trkpt><trkpt lat="43.427602225177104" lon="10.398764972224859"><ele>13.200000000000001</ele><time>2026-04-25T09:20:15Z</time></trkpt><trkpt lat="43.42753342891399" lon="10.398765812156608"><ele>11.8</ele><time>2026-04-25T09:20:16Z</time></trkpt><trkpt lat="43.42741072617975" lon="10.398773972138857"><ele>10.4</ele><time>2026-04-25T09:20:18Z</time></trkpt><trkpt lat="43.42728971882634" lon="10.398791273856611"><ele>9.0</ele><time>2026-04-25T09:20:20Z</time></trkpt><trkpt lat="43.427171207596466" lon="10.398811050737443"><ele>8.75</ele><time>2026-04-25T09:20:22Z</time></trkpt><trkpt lat="43.42705747977962" lon="10.398860654498268"><ele>8.5</ele><time>2026-04-25T09:20:24Z</time></trkpt><trkpt lat="43.42695757002535" lon="10.398947906559117"><ele>8.25</ele><time>2026-04-25T09:20:26Z</time></trkpt><trkpt lat="43.42688593972134" lon="10.399082199087434"><ele>8.0</ele><time>2026-04-25T09:20:28Z</time></trkpt><trkpt lat="43.426837277343665" lon="10.399234870578816"><ele>7.999999999999999</ele><time>2026-04-25T09:20:30Z</time></trkpt><trkpt lat="43.42679771368759" lon="10.399394241084241"><ele>8.0</ele><time>2026-04-25T09:20:32Z</time></trkpt><trkpt lat="43.42675343462395" lon="10.399555207574537"><ele>8.0</ele><time>2026-04-25T09:20:34Z</time></trkpt><trkpt lat="43.42672419249308" lon="10.399635665069487"><ele>8.0</ele><time>2026-04-25T09:20:35Z</time></trkpt><trkpt lat="43.42668765609779" lon="10.399708116380207"><ele>7.999999999999999</ele><time>2026-04-25T09:20:36Z</time></trkpt><trkpt lat="43.42663973326037" lon="10.399765488350885"><ele>8.0</ele><time>2026-04-25T09:20:37Z</time></trkpt><trkpt lat="43.42652857045816" lon="10.399843968409408"><ele>7.666666666666666</ele><time>2026-04-25T09:20:39Z</time></trkpt><trkpt lat="43.42646589768383" lon="10.399857110319969"><ele>7.333333333333333</ele><time>2026-04-25T09:20:40Z</time></trkpt><trkpt lat="43.4263397572305" lon="10.39988783157273"><ele>7.0</ele><time>2026-04-25T09:20:42Z</time></trkpt><trkpt lat="43.42627864193662" lon="10.399912142286102"><ele>6.666666666666666</ele><time>2026-04-25T09:20:43Z</time></trkpt><trkpt lat="43.42621760000618" lon="10.399934721178932"><ele>6.333333333333333</ele><time>2026-04-25T09:20:44Z</time></trkpt><trkpt lat="43.4261129285776" lon="10.400013404426568"><ele>6.0</ele><time>2026-04-25T09:20:46Z</time></trkpt><trkpt lat="43.426026429121606" lon="10.400126273471692"><ele>6.0</ele><time>2026-04-25T09:20:48Z</time></trkpt><trkpt lat="43.425953367129615" lon="10.400259001906246"><ele>6.0</ele><time>2026-04-25T09:20:50Z</time></trkpt><trkpt lat="43.42588463673871" lon="10.400392707601188"><ele>6.0</ele><time>2026-04-25T09:20:52Z</time></trkpt><trkpt lat="43.42582794907579" lon="10.400539368535487"><ele>6.0</ele><time>2026-04-25T09:20:54Z</time></trkpt><trkpt lat="43.425756698851394" lon="10.400648926551241"><ele>6.8</ele><time>2026-04-25T09:20:56Z</time></trkpt><trkpt lat="43.425669532285454" lon="10.400769072070043"><ele>7.6</ele><time>2026-04-25T09:20:58Z</time></trkpt><trkpt lat="43.425616424637006" lon="10.400819579655694"><ele>8.4</ele><time>2026-04-25T09:20:59Z</time></trkpt><trkpt lat="43.425555908787345" lon="10.400844133826347"><ele>9.2</ele><time>2026-04-25T09:21:00Z</time></trkpt><trkpt lat="43.425434108657946" lon="10.400881495241212"><ele>10.0</ele><time>2026-04-25T09:21:02Z</time></trkpt><trkpt lat="43.42532006147624" lon="10.400930818447614"><ele>10.0</ele><time>2026-04-25T09:21:04Z</time></trkpt><trkpt lat="43.42525934829587" lon="10.400956193522127"><ele>10.0</ele><time>2026-04-25T09:21:05Z</time></trkpt><trkpt lat="43.42514096523414" lon="10.401001072792601"><ele>10.0</ele><time>2026-04-25T09:21:07Z</time></trkpt><trkpt lat="43.42502426204521" lon="10.401051394296001"><ele>10.0</ele><time>2026-04-25T09:21:09Z</time></trkpt><trkpt lat="43.42490535628906" lon="10.401091413409718"><ele>10.0</ele><time>2026-04-25T09:21:11Z</time></trkpt><trkpt lat="43.424786951775985" lon="10.401134969315146"><ele>10.0</ele><time>2026-04-25T09:21:13Z</time></trkpt><trkpt lat="43.42466955042405" lon="10.40116170715181"><ele>10.0</ele><time>2026-04-25T09:21:15Z</time></trkpt><trkpt lat="43.42454874511272" lon="10.401182723330933"><ele>10.0</ele><time>2026-04-25T09:21:17Z</time></trkpt><trkpt lat="43.42442934801545" lon="10.401195664725694"><ele>10.0</ele><time>2026-04-25T09:21:19Z</time></trkpt><trkpt lat="43.42430878204275" lon="10.401210350448899"><ele>9.333333333333334</ele><time>2026-04-25T09:21:21Z</time></trkpt><trkpt lat="43.424185801253074" lon="10.401229951393978"><ele>8.666666666666668</ele><time>2026-04-25T09:21:23Z</time></trkpt><trkpt lat="43.42412227203698" lon="10.40123793212873"><ele>8.0</ele><time>2026-04-25T09:21:24Z</time></trkpt><trkpt lat="43.424056836940345" lon="10.40124616779023"><ele>7.333333333333334</ele><time>2026-04-25T09:21:25Z</time></trkpt><trkpt lat="43.42393447606593" lon="10.401271954877295"><ele>6.666666666666667</ele><time>2026-04-25T09:21:27Z</time></trkpt><trkpt lat="43.423871642143354" lon="10.401286690993466"><ele>6.0</ele><time>2026-04-25T09:21:28Z</time></trkpt><trkpt lat="43.423746120583736" lon="10.401328006606061"><ele>8.5</ele><time>2026-04-25T09:21:30Z</time></trkpt><trkpt lat="43.423683293891756" lon="10.401347309204201"><ele>11.0</ele><time>2026-04-25T09:21:31Z</time></trkpt><trkpt lat="43.423620889767896" lon="10.40136621575674"><ele>13.5</ele><time>2026-04-25T09:21:32Z</time></trkpt><trkpt lat="43.42355809473416" lon="10.401385016147092"><ele>16.0</ele><time>2026-04-25T09:21:33Z</time></trkpt><trkpt lat="43.423435913904385" lon="10.401441166587588"><ele>18.5</ele><time>2026-04-25T09:21:35Z</time></trkpt><trkpt lat="43.42337408670237" lon="10.401467405503633"><ele>21.0</ele><time>2026-04-25T09:21:36Z</time></trkpt><trkpt lat="43.42331361367931" lon="10.401495833611081"><ele>21.0</ele><time>2026-04-25T09:21:37Z</time></trkpt><trkpt lat="43.423253298257656" lon="10.401524208890551"><ele>21.0</ele><time>2026-04-25T09:21:38Z</time></trkpt><trkpt lat="43.42319158659884" lon="10.40154528200637"><ele>21.0</ele><time>2026-04-25T09:21:39Z</time></trkpt><trkpt lat="43.423126700113436" lon="10.4015643074163"><ele>21.0</ele><time>2026-04-25T09:21:40Z</time></trkpt><trkpt lat="43.423001717594225" lon="10.401568680640178"><ele>21.0</ele><time>2026-04-25T09:21:42Z</time></trkpt><trkpt lat="43.42293755817739" lon="10.401552584623131"><ele>21.0</ele><time>2026-04-25T09:21:43Z</time></trkpt><trkpt lat="43.422818588088" lon="10.40151986987666"><ele>21.0</ele><time>2026-04-25T09:21:45Z</time></trkpt><trkpt lat="43.422699470790555" lon="10.40148954329834"><ele>21.0</ele><time>2026-04-25T09:21:47Z</time></trkpt><trkpt lat="43.42262814901188" lon="10.401475346515438"><ele>21.0</ele><time>2026-04-25T09:21:48Z</time></trkpt><trkpt lat="43.422564811772126" lon="10.401451051808827"><ele>21.0</ele><time>2026-04-25T09:21:49Z</time></trkpt><trkpt lat="43.42244268699693" lon="10.401433671178427"><ele>21.0</ele><time>2026-04-25T09:21:51Z</time></trkpt><trkpt lat="43.42238001896306" lon="10.4014023746203"><ele>21.0</ele><time>2026-04-25T09:21:52Z</time></trkpt><trkpt lat="43.42231478028848" lon="10.401394102106135"><ele>21.0</ele><time>2026-04-25T09:21:53Z</time></trkpt><trkpt lat="43.422193727563176" lon="10.401350517421232"><ele>21.0</ele><time>2026-04-25T09:21:55Z</time></trkpt><trkpt lat="43.422129374517034" lon="10.40132830895396"><ele>21.0</ele><time>2026-04-25T09:21:56Z</time></trkpt><trkpt lat="43.42206429182479" lon="10.401313344679417"><ele>21.0</ele><time>2026-04-25T09:21:57Z</time></trkpt><trkpt lat="43.42200220753091" lon="10.401295989477573"><ele>21.0</ele><time>2026-04-25T09:21:58Z</time></trkpt><trkpt lat="43.42193476797987" lon="10.401271890536439"><ele>21.0</ele><time>2026-04-25T09:21:59Z</time></trkpt><trkpt lat="43.42181384081659" lon="10.401255654146532"><ele>19.166666666666668</ele><time>2026-04-25T09:22:01Z</time></trkpt><trkpt lat="43.42175063033116" lon="10.401230654427081"><ele>17.333333333333332</ele><time>2026-04-25T09:22:02Z</time></trkpt><trkpt lat="43.42168699306159" lon="10.401210204083334"><ele>15.5</ele><time>2026-04-25T09:22:03Z</time></trkpt><trkpt lat="43.42156357791453" lon="10.401167443591996"><ele>13.666666666666668</ele><time>2026-04-25T09:22:05Z</time></trkpt><trkpt lat="43.421442835922775" lon="10.401137983992108"><ele>11.833333333333334</ele><time>2026-04-25T09:22:07Z</time></trkpt><trkpt lat="43.42137941004351" lon="10.401117917408103"><ele>10.0</ele><time>2026-04-25T09:22:08Z</time></trkpt><trkpt lat="43.42131540575621" lon="10.401106616126778"><ele>9.2</ele><time>2026-04-25T09:22:09Z</time></trkpt><trkpt lat="43.42119373378139" lon="10.401099335772457"><ele>8.4</ele><time>2026-04-25T09:22:11Z</time></trkpt><trkpt lat="43.421069948818925" lon="10.401106012061245"><ele>7.6</ele><time>2026-04-25T09:22:13Z</time></trkpt><trkpt lat="43.42100747075437" lon="10.401141080279888"><ele>6.8</ele><time>2026-04-25T09:22:14Z</time></trkpt><trkpt lat="43.42094721292828" lon="10.401173990686354"><ele>6.0</ele><time>2026-04-25T09:22:15Z</time></trkpt><trkpt lat="43.420841513341266" lon="10.401262872448424"><ele>6.0</ele><time>2026-04-25T09:22:17Z</time></trkpt><trkpt lat="43.420782748001045" lon="10.401308854639176"><ele>6.0</ele><time>2026-04-25T09:22:18Z</time></trkpt><trkpt lat="43.420675726468204" lon="10.401397924453551"><ele>6.0</ele><time>2026-04-25T09:22:20Z</time></trkpt><trkpt lat="43.42061950814705" lon="10.401447147381639"><ele>6.0</ele><time>2026-04-25T09:22:21Z</time></trkpt><trkpt lat="43.4205156151729" lon="10.40153741619788"><ele>6.0</ele><time>2026-04-25T09:22:23Z</time></trkpt><trkpt lat="43.42040648232108" lon="10.401628850381671"><ele>6.6</ele><time>2026-04-25T09:22:25Z</time></trkpt><trkpt lat="43.42035158543947" lon="10.401672976481393"><ele>7.199999999999999</ele><time>2026-04-25T09:22:26Z</time></trkpt><trkpt lat="43.42023606703784" lon="10.401747319202514"><ele>7.800000000000001</ele><time>2026-04-25T09:22:28Z</time></trkpt><trkpt lat="43.42011329566717" lon="10.401788424949306"><ele>8.4</ele><time>2026-04-25T09:22:30Z</time></trkpt><trkpt lat="43.41998720178646" lon="10.40180193906806"><ele>9.0</ele><time>2026-04-25T09:22:32Z</time></trkpt><trkpt lat="43.41986458357145" lon="10.401790795058687"><ele>9.0</ele><time>2026-04-25T09:22:34Z</time></trkpt><trkpt lat="43.41974886237903" lon="10.401796318284525"><ele>9.0</ele><time>2026-04-25T09:22:36Z</time></trkpt><trkpt lat="43.419628115078304" lon="10.401791014644859"><ele>9.0</ele><time>2026-04-25T09:22:38Z</time></trkpt><trkpt lat="43.419563506133215" lon="10.40179416089918"><ele>9.0</ele><time>2026-04-25T09:22:39Z</time></trkpt><trkpt lat="43.419438253408096" lon="10.401790061088834"><ele>9.0</ele><time>2026-04-25T09:22:41Z</time></trkpt><trkpt lat="43.41937175244761" lon="10.401785834817252"><ele>9.833333333333334</ele><time>2026-04-25T09:22:42Z</time></trkpt><trkpt lat="43.41924723873127" lon="10.401779740794625"><ele>10.666666666666668</ele><time>2026-04-25T09:22:44Z</time></trkpt><trkpt lat="43.419182958973146" lon="10.401779316821697"><ele>11.5</ele><time>2026-04-25T09:22:45Z</time></trkpt><trkpt lat="43.41911790938088" lon="10.401776158125143"><ele>12.333333333333334</ele><time>2026-04-25T09:22:46Z</time></trkpt><trkpt lat="43.41905450717929" lon="10.401771598499646"><ele>13.166666666666668</ele><time>2026-04-25T09:22:47Z</time></trkpt><trkpt lat="43.41898728126481" lon="10.401770679565752"><ele>14.0</ele><time>2026-04-25T09:22:48Z</time></trkpt><trkpt lat="43.41886839123342" lon="10.401764363177373"><ele>14.333333333333334</ele><time>2026-04-25T09:22:50Z</time></trkpt><trkpt lat="43.41880434923309" lon="10.401749907424852"><ele>14.666666666666668</ele><time>2026-04-25T09:22:51Z</time></trkpt><trkpt lat="43.418739165138305" lon="10.401746308415463"><ele>15.0</ele><time>2026-04-25T09:22:52Z</time></trkpt><trkpt lat="43.418676135007445" lon="10.401750013083046"><ele>15.333333333333332</ele><time>2026-04-25T09:22:53Z</time></trkpt><trkpt lat="43.41855588482193" lon="10.401718475140052"><ele>15.666666666666666</ele><time>2026-04-25T09:22:55Z</time></trkpt><trkpt lat="43.4184355195823" lon="10.401708502055083"><ele>16.0</ele><time>2026-04-25T09:22:57Z</time></trkpt><trkpt lat="43.418370487468" lon="10.40169944453431"><ele>16.0</ele><time>2026-04-25T09:22:58Z</time></trkpt><trkpt lat="43.4182522931656" lon="10.40167083779"><ele>16.0</ele><time>2026-04-25T09:23:00Z</time></trkpt><trkpt lat="43.41813644858303" lon="10.401645038040106"><ele>16.0</ele><time>2026-04-25T09:23:02Z</time></trkpt><trkpt lat="43.418018424928356" lon="10.40163128684503"><ele>16.0</ele><time>2026-04-25T09:23:04Z</time></trkpt><trkpt lat="43.41789907569165" lon="10.401603479132666"><ele>16.8</ele><time>2026-04-25T09:23:06Z</time></trkpt><trkpt lat="43.417781226588154" lon="10.401580368873244"><ele>17.6</ele><time>2026-04-25T09:23:08Z</time></trkpt><trkpt lat="43.41771688372832" lon="10.401572359140483"><ele>18.4</ele><time>2026-04-25T09:23:09Z</time></trkpt><trkpt lat="43.41759527327918" lon="10.40154758315038"><ele>19.2</ele><time>2026-04-25T09:23:11Z</time></trkpt><trkpt lat="43.41747846066564" lon="10.401521487123041"><ele>20.0</ele><time>2026-04-25T09:23:13Z</time></trkpt><trkpt lat="43.4173622692064" lon="10.401500603965937"><ele>20.0</ele><time>2026-04-25T09:23:15Z</time></trkpt><trkpt lat="43.417246403156476" lon="10.401476325232696"><ele>20.0</ele><time>2026-04-25T09:23:17Z</time></trkpt><trkpt lat="43.417127799922405" lon="10.401450673797918"><ele>20.0</ele><time>2026-04-25T09:23:19Z</time></trkpt><trkpt lat="43.417005735644665" lon="10.401424794423114"><ele>20.0</ele><time>2026-04-25T09:23:21Z</time></trkpt><trkpt lat="43.41688778286931" lon="10.401400721468843"><ele>21.5</ele><time>2026-04-25T09:23:23Z</time></trkpt><trkpt lat="43.41677206112062" lon="10.401357070147819"><ele>23.0</ele><time>2026-04-25T09:23:25Z</time></trkpt><trkpt lat="43.41665608125184" lon="10.401337745063927"><ele>24.5</ele><time>2026-04-25T09:23:27Z</time></trkpt><trkpt lat="43.41653898434279" lon="10.40131290164007"><ele>26.0</ele><time>2026-04-25T09:23:29Z</time></trkpt><trkpt lat="43.416425473450055" lon="10.401281235878228"><ele>21.8</ele><time>2026-04-25T09:23:31Z</time></trkpt><trkpt lat="43.41631667271486" lon="10.401268629130527"><ele>17.6</ele><time>2026-04-25T09:23:33Z</time></trkpt><trkpt lat="43.41621219270706" lon="10.401261089780233"><ele>13.4</ele><time>2026-04-25T09:23:35Z</time></trkpt><trkpt lat="43.416106690670446" lon="10.401268832233084"><ele>9.2</ele><time>2026-04-25T09:23:37Z</time></trkpt><trkpt lat="43.41600622140447" lon="10.401291503271972"><ele>5.0</ele><time>2026-04-25T09:23:39Z</time></trkpt><trkpt lat="43.415910157218896" lon="10.40132742904249"><ele>8.8</ele><time>2026-04-25T09:23:41Z</time></trkpt><trkpt lat="43.41582214607527" lon="10.401382218784171"><ele>12.6</ele><time>2026-04-25T09:23:43Z</time></trkpt><trkpt lat="43.41574486480328" lon="10.401453815100158"><ele>16.4</ele><time>2026-04-25T09:23:45Z</time></trkpt><trkpt lat="43.41567789727491" lon="10.401542766307587"><ele>20.2</ele><time>2026-04-25T09:23:47Z</time></trkpt><trkpt lat="43.415616318013925" lon="10.40163739515825"><ele>24.0</ele><time>2026-04-25T09:23:49Z</time></trkpt><trkpt lat="43.4155517452854" lon="10.40173215616835"><ele>20.8</ele><time>2026-04-25T09:23:51Z</time></trkpt><trkpt lat="43.41548173286448" lon="10.401824465487833"><ele>17.599999999999998</ele><time>2026-04-25T09:23:53Z</time></trkpt><trkpt lat="43.41542196474922" lon="10.401924097457291"><ele>14.4</ele><time>2026-04-25T09:23:55Z</time></trkpt><trkpt lat="43.41535308588947" lon="10.402004966463611"><ele>11.2</ele><time>2026-04-25T09:23:57Z</time></trkpt><trkpt lat="43.415266588444744" lon="10.402056752995643"><ele>8.0</ele><time>2026-04-25T09:23:59Z</time></trkpt><trkpt lat="43.415164623107124" lon="10.4020540901167"><ele>8.0</ele><time>2026-04-25T09:24:01Z</time></trkpt><trkpt lat="43.41506220934568" lon="10.402061432889228"><ele>8.0</ele><time>2026-04-25T09:24:03Z</time></trkpt><trkpt lat="43.4149636428256" lon="10.402090724701816"><ele>8.0</ele><time>2026-04-25T09:24:05Z</time></trkpt><trkpt lat="43.41487618218368" lon="10.40213724224836"><ele>8.0</ele><time>2026-04-25T09:24:07Z</time></trkpt><trkpt lat="43.414788096966156" lon="10.402213081932535"><ele>8.0</ele><time>2026-04-25T09:24:09Z</time></trkpt><trkpt lat="43.41470983936611" lon="10.402293621586784"><ele>10.8</ele><time>2026-04-25T09:24:11Z</time></trkpt><trkpt lat="43.414626835222016" lon="10.402371740795411"><ele>13.600000000000001</ele><time>2026-04-25T09:24:13Z</time></trkpt><trkpt lat="43.414545785076086" lon="10.402442727933387"><ele>16.400000000000002</ele><time>2026-04-25T09:24:15Z</time></trkpt><trkpt lat="43.41445668433054" lon="10.402496088175505"><ele>19.200000000000003</ele><time>2026-04-25T09:24:17Z</time></trkpt><trkpt lat="43.41436291700793" lon="10.402548378697619"><ele>22.0</ele><time>2026-04-25T09:24:19Z</time></trkpt><trkpt lat="43.414271224941686" lon="10.402598673265029"><ele>22.0</ele><time>2026-04-25T09:24:21Z</time></trkpt><trkpt lat="43.41417888778883" lon="10.40263907574997"><ele>22.0</ele><time>2026-04-25T09:24:23Z</time></trkpt><trkpt lat="43.41407838330039" lon="10.402669187936564"><ele>22.0</ele><time>2026-04-25T09:24:25Z</time></trkpt><trkpt lat="43.41397346511353" lon="10.402667574342535"><ele>22.0</ele><time>2026-04-25T09:24:27Z</time></trkpt><trkpt lat="43.413860112378444" lon="10.402629845408642"><ele>22.0</ele><time>2026-04-25T09:24:29Z</time></trkpt><trkpt lat="43.41375421030775" lon="10.40259067245031"><ele>20.6</ele><time>2026-04-25T09:24:31Z</time></trkpt><trkpt lat="43.413637476369814" lon="10.402570405503031"><ele>19.200000000000003</ele><time>2026-04-25T09:24:33Z</time></trkpt><trkpt lat="43.41351502711842" lon="10.402593555105977"><ele>17.8</ele><time>2026-04-25T09:24:35Z</time></trkpt><trkpt lat="43.41345154210572" lon="10.402624707008332"><ele>16.4</ele><time>2026-04-25T09:24:36Z</time></trkpt><trkpt lat="43.41339327843729" lon="10.402660448069444"><ele>15.0</ele><time>2026-04-25T09:24:37Z</time></trkpt><trkpt lat="43.41329468696562" lon="10.402763998233072"><ele>15.0</ele><time>2026-04-25T09:24:39Z</time></trkpt><trkpt lat="43.41320429620903" lon="10.402888770036805"><ele>15.0</ele><time>2026-04-25T09:24:41Z</time></trkpt><trkpt lat="43.413163362758524" lon="10.402960413853197"><ele>15.0</ele><time>2026-04-25T09:24:42Z</time></trkpt><trkpt lat="43.41308511317844" lon="10.403093852677216"><ele>15.0</ele><time>2026-04-25T09:24:44Z</time></trkpt><trkpt lat="43.41301224637214" lon="10.403217656134247"><ele>15.0</ele><time>2026-04-25T09:24:46Z</time></trkpt><trkpt lat="43.41294255602768" lon="10.403340412761281"><ele>14.2</ele><time>2026-04-25T09:24:48Z</time></trkpt><trkpt lat="43.41287146729943" lon="10.403441295650698"><ele>13.4</ele><time>2026-04-25T09:24:50Z</time></trkpt><trkpt lat="43.41281741807411" lon="10.403540343849558"><ele>12.600000000000001</ele><time>2026-04-25T09:24:52Z</time></trkpt><trkpt lat="43.412748048801554" lon="10.403643889387885"><ele>11.8</ele><time>2026-04-25T09:24:54Z</time></trkpt><trkpt lat="43.4126623912728" lon="10.403749341676638"><ele>11.0</ele><time>2026-04-25T09:24:56Z</time></trkpt><trkpt lat="43.41256410412498" lon="10.403849600695027"><ele>13.285714285714286</ele><time>2026-04-25T09:24:58Z</time></trkpt><trkpt lat="43.41250909278527" lon="10.40389317917537"><ele>15.571428571428571</ele><time>2026-04-25T09:24:59Z</time></trkpt><trkpt lat="43.41245235331923" lon="10.403938811064434"><ele>17.857142857142858</ele><time>2026-04-25T09:25:00Z</time></trkpt><trkpt lat="43.412392822371814" lon="10.403986551747519"><ele>20.142857142857142</ele><time>2026-04-25T09:25:01Z</time></trkpt><trkpt lat="43.41232839451488" lon="10.40402186325152"><ele>22.428571428571427</ele><time>2026-04-25T09:25:02Z</time></trkpt><trkpt lat="43.41226376758653" lon="10.404053426950055"><ele>24.714285714285715</ele><time>2026-04-25T09:25:03Z</time></trkpt><trkpt lat="43.412198460757146" lon="10.404073980310867"><ele>27.0</ele><time>2026-04-25T09:25:04Z</time></trkpt><trkpt lat="43.41213103100217" lon="10.404085605189183"><ele>27.0</ele><time>2026-04-25T09:25:05Z</time></trkpt><trkpt lat="43.41205682331271" lon="10.404085517206783"><ele>27.0</ele><time>2026-04-25T09:25:06Z</time></trkpt><trkpt lat="43.41198750891343" lon="10.404069302901826"><ele>27.0</ele><time>2026-04-25T09:25:07Z</time></trkpt><trkpt lat="43.41190513602735" lon="10.404061063911284"><ele>27.0</ele><time>2026-04-25T09:25:08Z</time></trkpt><trkpt lat="43.411832323633625" lon="10.404046279096235"><ele>27.0</ele><time>2026-04-25T09:25:09Z</time></trkpt><trkpt lat="43.41175862704039" lon="10.404008512882799"><ele>27.0</ele><time>2026-04-25T09:25:10Z</time></trkpt><trkpt lat="43.41168315797312" lon="10.403986747080584"><ele>27.0</ele><time>2026-04-25T09:25:11Z</time></trkpt><trkpt lat="43.41160615267056" lon="10.403962649541588"><ele>27.0</ele><time>2026-04-25T09:25:12Z</time></trkpt><trkpt lat="43.411534195177865" lon="10.403925454518193"><ele>27.0</ele><time>2026-04-25T09:25:13Z</time></trkpt><trkpt lat="43.41146166147937" lon="10.403897430618468"><ele>27.0</ele><time>2026-04-25T09:25:14Z</time></trkpt><trkpt lat="43.41138760929686" lon="10.40386881227623"><ele>27.0</ele><time>2026-04-25T09:25:15Z</time></trkpt><trkpt lat="43.41130766512921" lon="10.403848895279438"><ele>27.0</ele><time>2026-04-25T09:25:16Z</time></trkpt><trkpt lat="43.41123249792002" lon="10.403843403982032"><ele>26.833333333333332</ele><time>2026-04-25T09:25:17Z</time></trkpt><trkpt lat="43.4111571120814" lon="10.403823817061513"><ele>26.666666666666664</ele><time>2026-04-25T09:25:18Z</time></trkpt><trkpt lat="43.41107716148946" lon="10.403811292116234"><ele>26.5</ele><time>2026-04-25T09:25:19Z</time></trkpt><trkpt lat="43.41099992643799" lon="10.403815027474158"><ele>26.333333333333332</ele><time>2026-04-25T09:25:20Z</time></trkpt><trkpt lat="43.41092393184966" lon="10.403832205541287"><ele>26.166666666666664</ele><time>2026-04-25T09:25:21Z</time></trkpt><trkpt lat="43.41084971448944" lon="10.403852779275564"><ele>26.0</ele><time>2026-04-25T09:25:22Z</time></trkpt><trkpt lat="43.41077082620861" lon="10.403862741906444"><ele>25.999999999999996</ele><time>2026-04-25T09:25:23Z</time></trkpt><trkpt lat="43.41069985478688" lon="10.403923096658689"><ele>26.0</ele><time>2026-04-25T09:25:24Z</time></trkpt><trkpt lat="43.410633964443534" lon="10.403972908687614"><ele>26.0</ele><time>2026-04-25T09:25:25Z</time></trkpt><trkpt lat="43.41057134905939" lon="10.404032697097044"><ele>26.0</ele><time>2026-04-25T09:25:26Z</time></trkpt><trkpt lat="43.41050601034788" lon="10.404095910593572"><ele>25.999999999999996</ele><time>2026-04-25T09:25:27Z</time></trkpt><trkpt lat="43.41044376509645" lon="10.404165884169199"><ele>26.0</ele><time>2026-04-25T09:25:28Z</time></trkpt><trkpt lat="43.41039204856433" lon="10.404250159419707"><ele>24.166666666666664</ele><time>2026-04-25T09:25:29Z</time></trkpt><trkpt lat="43.410354364238835" lon="10.404356884044862"><ele>22.333333333333332</ele><time>2026-04-25T09:25:30Z</time></trkpt><trkpt lat="43.4103040462811" lon="10.404449958473043"><ele>20.5</ele><time>2026-04-25T09:25:31Z</time></trkpt><trkpt lat="43.41027551925323" lon="10.404549714128327"><ele>18.666666666666664</ele><time>2026-04-25T09:25:32Z</time></trkpt><trkpt lat="43.410235042346" lon="10.404653527883882"><ele>16.833333333333332</ele><time>2026-04-25T09:25:33Z</time></trkpt><trkpt lat="43.41020221929418" lon="10.404763435149073"><ele>15.0</ele><time>2026-04-25T09:25:34Z</time></trkpt><trkpt lat="43.410178149398824" lon="10.404872652936742"><ele>15.0</ele><time>2026-04-25T09:25:35Z</time></trkpt><trkpt lat="43.41015518539163" lon="10.404980463403566"><ele>15.0</ele><time>2026-04-25T09:25:36Z</time></trkpt><trkpt lat="43.41013581468878" lon="10.405092176520288"><ele>15.0</ele><time>2026-04-25T09:25:37Z</time></trkpt><trkpt lat="43.41010664830277" lon="10.405208887182592"><ele>15.0</ele><time>2026-04-25T09:25:38Z</time></trkpt><trkpt lat="43.410087737701346" lon="10.405328276411462"><ele>15.0</ele><time>2026-04-25T09:25:39Z</time></trkpt><trkpt lat="43.41007425017385" lon="10.405442994435154"><ele>15.0</ele><time>2026-04-25T09:25:40Z</time></trkpt><trkpt lat="43.410062422518564" lon="10.4055621755497"><ele>15.5</ele><time>2026-04-25T09:25:41Z</time></trkpt><trkpt lat="43.41006091376507" lon="10.4056753816796"><ele>16.0</ele><time>2026-04-25T09:25:42Z</time></trkpt><trkpt lat="43.41004108521516" lon="10.405796602614329"><ele>16.5</ele><time>2026-04-25T09:25:43Z</time></trkpt><trkpt lat="43.41005220670413" lon="10.40591784548716"><ele>17.0</ele><time>2026-04-25T09:25:44Z</time></trkpt><trkpt lat="43.41006760327646" lon="10.406040472613418"><ele>17.5</ele><time>2026-04-25T09:25:45Z</time></trkpt><trkpt lat="43.410084541032674" lon="10.406161676134216"><ele>18.0</ele><time>2026-04-25T09:25:46Z</time></trkpt><trkpt lat="43.41010058880343" lon="10.406292092940747"><ele>17.4</ele><time>2026-04-25T09:25:47Z</time></trkpt><trkpt lat="43.410118749698185" lon="10.406412321077758"><ele>16.8</ele><time>2026-04-25T09:25:48Z</time></trkpt><trkpt lat="43.4101394294076" lon="10.406539240419173"><ele>16.2</ele><time>2026-04-25T09:25:49Z</time></trkpt><trkpt lat="43.41013340979268" lon="10.40668370549401"><ele>15.6</ele><time>2026-04-25T09:25:50Z</time></trkpt><trkpt lat="43.410153007320744" lon="10.406817685320139"><ele>15.0</ele><time>2026-04-25T09:25:51Z</time></trkpt><trkpt lat="43.41017379658719" lon="10.406957919693557"><ele>15.0</ele><time>2026-04-25T09:25:52Z</time></trkpt><trkpt lat="43.410195470243536" lon="10.407095768183826"><ele>15.0</ele><time>2026-04-25T09:25:53Z</time></trkpt><trkpt lat="43.41021581664639" lon="10.407234415977525"><ele>15.0</ele><time>2026-04-25T09:25:54Z</time></trkpt><trkpt lat="43.41023084671497" lon="10.407347974540599"><ele>15.0</ele><time>2026-04-25T09:25:55Z</time></trkpt><trkpt lat="43.41020929600634" lon="10.407437365052353"><ele>15.0</ele><time>2026-04-25T09:25:56Z</time></trkpt><trkpt lat="43.4101663602683" lon="10.407511443924472"><ele>15.0</ele><time>2026-04-25T09:25:57Z</time></trkpt><trkpt lat="43.41008120966677" lon="10.407604321621964"><ele>15.2</ele><time>2026-04-25T09:25:59Z</time></trkpt><trkpt lat="43.40996176593377" lon="10.407626381788385"><ele>15.4</ele><time>2026-04-25T09:26:01Z</time></trkpt><trkpt lat="43.409898758079166" lon="10.407623368831159"><ele>15.600000000000001</ele><time>2026-04-25T09:26:02Z</time></trkpt><trkpt lat="43.409835880397914" lon="10.407602661708081"><ele>15.8</ele><time>2026-04-25T09:26:03Z</time></trkpt><trkpt lat="43.40972210084331" lon="10.407568511111107"><ele>16.0</ele><time>2026-04-25T09:26:05Z</time></trkpt><trkpt lat="43.40960583954859" lon="10.407551425438742"><ele>16.0</ele><time>2026-04-25T09:26:07Z</time></trkpt><trkpt lat="43.409489442225045" lon="10.407543971623666"><ele>16.0</ele><time>2026-04-25T09:26:09Z</time></trkpt><trkpt lat="43.40937789258136" lon="10.407534025035051"><ele>16.0</ele><time>2026-04-25T09:26:11Z</time></trkpt><trkpt lat="43.40926670602487" lon="10.407544741872362"><ele>16.0</ele><time>2026-04-25T09:26:13Z</time></trkpt><trkpt lat="43.40915354566835" lon="10.407571277845497"><ele>16.0</ele><time>2026-04-25T09:26:15Z</time></trkpt><trkpt lat="43.40904725787626" lon="10.40761284554499"><ele>16.0</ele><time>2026-04-25T09:26:17Z</time></trkpt><trkpt lat="43.4089402214729" lon="10.407647042035288"><ele>16.0</ele><time>2026-04-25T09:26:19Z</time></trkpt><trkpt lat="43.408836311554786" lon="10.407683524114104"><ele>16.0</ele><time>2026-04-25T09:26:21Z</time></trkpt><trkpt lat="43.40873223863149" lon="10.407718044719223"><ele>16.0</ele><time>2026-04-25T09:26:23Z</time></trkpt><trkpt lat="43.40862448963077" lon="10.407759212105963"><ele>15.5</ele><time>2026-04-25T09:26:25Z</time></trkpt><trkpt lat="43.408514365327754" lon="10.40779586761489"><ele>15.0</ele><time>2026-04-25T09:26:27Z</time></trkpt><trkpt lat="43.40840414435397" lon="10.407835291234147"><ele>14.5</ele><time>2026-04-25T09:26:29Z</time></trkpt><trkpt lat="43.40829499858581" lon="10.407879386900202"><ele>14.0</ele><time>2026-04-25T09:26:31Z</time></trkpt><trkpt lat="43.40817600855511" lon="10.407913281570796"><ele>14.0</ele><time>2026-04-25T09:26:33Z</time></trkpt><trkpt lat="43.408062726611384" lon="10.407957960300708"><ele>14.0</ele><time>2026-04-25T09:26:35Z</time></trkpt><trkpt lat="43.407951207431196" lon="10.408003078886765"><ele>14.0</ele><time>2026-04-25T09:26:37Z</time></trkpt><trkpt lat="43.40783618369816" lon="10.40804700701706"><ele>14.0</ele><time>2026-04-25T09:26:39Z</time></trkpt><trkpt lat="43.407728356301966" lon="10.408096831682577"><ele>15.399999999999999</ele><time>2026-04-25T09:26:41Z</time></trkpt><trkpt lat="43.40761924528185" lon="10.40814436494711"><ele>16.799999999999997</ele><time>2026-04-25T09:26:43Z</time></trkpt><trkpt lat="43.40751266389909" lon="10.408196238796368"><ele>18.200000000000003</ele><time>2026-04-25T09:26:45Z</time></trkpt><trkpt lat="43.407410429606955" lon="10.408253459584056"><ele>19.6</ele><time>2026-04-25T09:26:47Z</time></trkpt><trkpt lat="43.407311407505006" lon="10.408315002207285"><ele>21.0</ele><time>2026-04-25T09:26:49Z</time></trkpt><trkpt lat="43.40720777025453" lon="10.408379056077917"><ele>20.6</ele><time>2026-04-25T09:26:51Z</time></trkpt><trkpt lat="43.407110947808235" lon="10.408444973683357"><ele>20.200000000000003</ele><time>2026-04-25T09:26:53Z</time></trkpt><trkpt lat="43.407018410727765" lon="10.40851494838138"><ele>19.799999999999997</ele><time>2026-04-25T09:26:55Z</time></trkpt><trkpt lat="43.40692960831711" lon="10.408587590054568"><ele>19.4</ele><time>2026-04-25T09:26:57Z</time></trkpt><trkpt lat="43.40684432105922" lon="10.408663762117518"><ele>19.0</ele><time>2026-04-25T09:26:59Z</time></trkpt><trkpt lat="43.40675931338673" lon="10.408740139366913"><ele>21.0</ele><time>2026-04-25T09:27:01Z</time></trkpt><trkpt lat="43.40668411202506" lon="10.408827488493063"><ele>23.0</ele><time>2026-04-25T09:27:03Z</time></trkpt><trkpt lat="43.406604804414485" lon="10.408904748494637"><ele>25.0</ele><time>2026-04-25T09:27:05Z</time></trkpt><trkpt lat="43.40652265615385" lon="10.408976097546113"><ele>27.0</ele><time>2026-04-25T09:27:07Z</time></trkpt><trkpt lat="43.406452800061125" lon="10.409035192842175"><ele>29.0</ele><time>2026-04-25T09:27:09Z</time></trkpt><trkpt lat="43.406379061883015" lon="10.409063200167628"><ele>28.999999999999996</ele><time>2026-04-25T09:27:12Z</time></trkpt><trkpt lat="43.40645489995448" lon="10.409231935171015"><ele>29.0</ele><time>2026-04-25T09:27:15Z</time></trkpt><trkpt lat="43.4064972786032" lon="10.40933665086645"><ele>29.0</ele><time>2026-04-25T09:27:18Z</time></trkpt><trkpt lat="43.406536793972926" lon="10.409404283062672"><ele>29.0</ele><time>2026-04-25T09:27:20Z</time></trkpt><trkpt lat="43.40657058268725" lon="10.409480590875132"><ele>28.999999999999996</ele><time>2026-04-25T09:27:22Z</time></trkpt><trkpt lat="43.40659075241854" lon="10.409565782326917"><ele>29.0</ele><time>2026-04-25T09:27:24Z</time></trkpt><trkpt lat="43.40661264167812" lon="10.409650340045369"><ele>30.000000000000004</ele><time>2026-04-25T09:27:26Z</time></trkpt><trkpt lat="43.40662838443115" lon="10.409737748056816"><ele>31.0</ele><time>2026-04-25T09:27:27.999Z</time></trkpt><trkpt lat="43.40665383170652" lon="10.409826564516495"><ele>32.0</ele><time>2026-04-25T09:27:29.999Z</time></trkpt><trkpt lat="43.406674075001064" lon="10.409912114833382"><ele>33.0</ele><time>2026-04-25T09:27:31.999Z</time></trkpt><trkpt lat="43.40669089745924" lon="10.409998097806369"><ele>34.0</ele><time>2026-04-25T09:27:34Z</time></trkpt><trkpt lat="43.40671356757328" lon="10.410083943684013"><ele>35.00000000000001</ele><time>2026-04-25T09:27:36Z</time></trkpt><trkpt lat="43.40671777202212" lon="10.41018615340559"><ele>36.0</ele><time>2026-04-25T09:27:38Z</time></trkpt><trkpt lat="43.40669291857032" lon="10.410294494154542"><ele>36.00000000000001</ele><time>2026-04-25T09:27:40Z</time></trkpt><trkpt lat="43.406684510524705" lon="10.41041246873074"><ele>36.0</ele><time>2026-04-25T09:27:43Z</time></trkpt><trkpt lat="43.40667923929871" lon="10.410505198422134"><ele>36.0</ele><time>2026-04-25T09:27:45Z</time></trkpt><trkpt lat="43.40667789646766" lon="10.410598055249773"><ele>36.0</ele><time>2026-04-25T09:27:47Z</time></trkpt><trkpt lat="43.40667948128612" lon="10.410689887235359"><ele>36.0</ele><time>2026-04-25T09:27:49Z</time></trkpt><trkpt lat="43.406693193091" lon="10.410783219997473"><ele>36.00000000000001</ele><time>2026-04-25T09:27:51Z</time></trkpt><trkpt lat="43.40671517274342" lon="10.410881426304725"><ele>36.0</ele><time>2026-04-25T09:27:53Z</time></trkpt><trkpt lat="43.40672420787172" lon="10.410982353033166"><ele>37.0</ele><time>2026-04-25T09:27:55Z</time></trkpt><trkpt lat="43.406737987461675" lon="10.411079644363436"><ele>38.0</ele><time>2026-04-25T09:27:57Z</time></trkpt><trkpt lat="43.40675398917158" lon="10.411172764175587"><ele>39.0</ele><time>2026-04-25T09:27:59Z</time></trkpt><trkpt lat="43.40677425551388" lon="10.411259386650276"><ele>40.0</ele><time>2026-04-25T09:28:01Z</time></trkpt><trkpt lat="43.4068006834292" lon="10.411352846799328"><ele>41.0</ele><time>2026-04-25T09:28:03Z</time></trkpt><trkpt lat="43.406865817551946" lon="10.411391029045726"><ele>42.0</ele><time>2026-04-25T09:28:05Z</time></trkpt><trkpt lat="43.40697192303048" lon="10.411391306684953"><ele>42.714285714285715</ele><time>2026-04-25T09:28:08Z</time></trkpt><trkpt lat="43.40703935355886" lon="10.411402789128944"><ele>43.42857142857143</ele><time>2026-04-25T09:28:10Z</time></trkpt><trkpt lat="43.407108468135675" lon="10.411402815899406"><ele>44.14285714285714</ele><time>2026-04-25T09:28:12Z</time></trkpt><trkpt lat="43.407173946828706" lon="10.411398426360872"><ele>44.85714285714286</ele><time>2026-04-25T09:28:14Z</time></trkpt><trkpt lat="43.40725196136928" lon="10.41139341898452"><ele>45.57142857142857</ele><time>2026-04-25T09:28:16Z</time></trkpt><trkpt lat="43.407318637914045" lon="10.411398098013379"><ele>46.285714285714285</ele><time>2026-04-25T09:28:18Z</time></trkpt><trkpt lat="43.407387944163155" lon="10.411427211740135"><ele>47.0</ele><time>2026-04-25T09:28:20Z</time></trkpt><trkpt lat="43.40745976350526" lon="10.4114353591897"><ele>48.33333333333333</ele><time>2026-04-25T09:28:22Z</time></trkpt><trkpt lat="43.407533084427655" lon="10.411443522266607"><ele>49.666666666666664</ele><time>2026-04-25T09:28:24Z</time></trkpt><trkpt lat="43.40760243574469" lon="10.411472992005988"><ele>51.0</ele><time>2026-04-25T09:28:26Z</time></trkpt><trkpt lat="43.40766470070496" lon="10.411513259992429"><ele>52.33333333333333</ele><time>2026-04-25T09:28:28Z</time></trkpt><trkpt lat="43.40776892081361" lon="10.411542095261119"><ele>53.666666666666664</ele><time>2026-04-25T09:28:31Z</time></trkpt><trkpt lat="43.40783374818434" lon="10.411567564102246"><ele>55.0</ele><time>2026-04-25T09:28:33Z</time></trkpt><trkpt lat="43.407905121478464" lon="10.411597125730502"><ele>54.99999999999999</ele><time>2026-04-25T09:28:35Z</time></trkpt><trkpt lat="43.407976838709665" lon="10.411616622016652"><ele>55.0</ele><time>2026-04-25T09:28:37Z</time></trkpt><trkpt lat="43.40803284705717" lon="10.411657863822345"><ele>55.0</ele><time>2026-04-25T09:28:39Z</time></trkpt><trkpt lat="43.40808516786948" lon="10.411725608819594"><ele>55.0</ele><time>2026-04-25T09:28:41Z</time></trkpt><trkpt lat="43.40814069004196" lon="10.41179161039817"><ele>55.0</ele><time>2026-04-25T09:28:43Z</time></trkpt><trkpt lat="43.40819554769193" lon="10.411849761543376"><ele>54.99999999999999</ele><time>2026-04-25T09:28:45Z</time></trkpt><trkpt lat="43.40824321884964" lon="10.411924930143444"><ele>55.0</ele><time>2026-04-25T09:28:47Z</time></trkpt><trkpt lat="43.40831149099728" lon="10.412002117847171"><ele>55.57142857142857</ele><time>2026-04-25T09:28:50Z</time></trkpt><trkpt lat="43.408383434503335" lon="10.412051033520102"><ele>56.14285714285714</ele><time>2026-04-25T09:28:52Z</time></trkpt><trkpt lat="43.4084582445991" lon="10.412049077124996"><ele>56.71428571428571</ele><time>2026-04-25T09:28:54Z</time></trkpt><trkpt lat="43.4085206541337" lon="10.412017942961116"><ele>57.285714285714285</ele><time>2026-04-25T09:28:56Z</time></trkpt><trkpt lat="43.40858573282669" lon="10.411972328740958"><ele>57.85714285714286</ele><time>2026-04-25T09:28:58Z</time></trkpt><trkpt lat="43.40862964489105" lon="10.411899314023195"><ele>58.42857142857142</ele><time>2026-04-25T09:29:00Z</time></trkpt><trkpt lat="43.40864432756564" lon="10.411791842485993"><ele>59.0</ele><time>2026-04-25T09:29:02Z</time></trkpt><trkpt lat="43.4086541902186" lon="10.411700302401215"><ele>59.0</ele><time>2026-04-25T09:29:04Z</time></trkpt><trkpt lat="43.40867077691466" lon="10.411603044875964"><ele>59.0</ele><time>2026-04-25T09:29:06Z</time></trkpt><trkpt lat="43.40868273160319" lon="10.411504312767601"><ele>59.0</ele><time>2026-04-25T09:29:08Z</time></trkpt><trkpt lat="43.40870979732926" lon="10.411416154129629"><ele>59.0</ele><time>2026-04-25T09:29:10Z</time></trkpt><trkpt lat="43.408757218308786" lon="10.411346402920026"><ele>59.0</ele><time>2026-04-25T09:29:12Z</time></trkpt><trkpt lat="43.4088256848361" lon="10.4113264717547"><ele>59.0</ele><time>2026-04-25T09:29:14Z</time></trkpt><trkpt lat="43.40888792931449" lon="10.411347826203988"><ele>59.0</ele><time>2026-04-25T09:29:16Z</time></trkpt><trkpt lat="43.40892959588271" lon="10.411426930560925"><ele>60.0</ele><time>2026-04-25T09:29:18Z</time></trkpt><trkpt lat="43.40895716360265" lon="10.411510354919384"><ele>61.0</ele><time>2026-04-25T09:29:20Z</time></trkpt><trkpt lat="43.408986435120745" lon="10.41159873924766"><ele>62.0</ele><time>2026-04-25T09:29:22Z</time></trkpt><trkpt lat="43.40900119245979" lon="10.411695319946462"><ele>63.0</ele><time>2026-04-25T09:29:24Z</time></trkpt><trkpt lat="43.40902107845659" lon="10.411778903037089"><ele>64.0</ele><time>2026-04-25T09:29:26Z</time></trkpt><trkpt lat="43.40904449034145" lon="10.411871753502767"><ele>65.0</ele><time>2026-04-25T09:29:28Z</time></trkpt><trkpt lat="43.40907020025701" lon="10.411964124612517"><ele>66.0</ele><time>2026-04-25T09:29:30Z</time></trkpt><trkpt lat="43.40908672821461" lon="10.412058104354836"><ele>66.0</ele><time>2026-04-25T09:29:32Z</time></trkpt><trkpt lat="43.40911134139451" lon="10.412144230074544"><ele>66.0</ele><time>2026-04-25T09:29:34Z</time></trkpt><trkpt lat="43.40914338895009" lon="10.412232337892695"><ele>66.0</ele><time>2026-04-25T09:29:36Z</time></trkpt><trkpt lat="43.409159661716785" lon="10.412321841449302"><ele>66.0</ele><time>2026-04-25T09:29:38Z</time></trkpt><trkpt lat="43.40918471352164" lon="10.41241170945185"><ele>66.0</ele><time>2026-04-25T09:29:40Z</time></trkpt><trkpt lat="43.40922351694945" lon="10.412523985401357"><ele>66.0</ele><time>2026-04-25T09:29:43Z</time></trkpt><trkpt lat="43.409264393269034" lon="10.412613913256008"><ele>66.0</ele><time>2026-04-25T09:29:46Z</time></trkpt><trkpt lat="43.40931461828499" lon="10.412703537483463"><ele>72.0</ele><time>2026-04-25T09:29:50Z</time></trkpt><trkpt lat="43.40939022149677" lon="10.412750365196333"><ele>72.0</ele><time>2026-04-25T09:29:54Z</time></trkpt><trkpt lat="43.409413801102694" lon="10.412834990493925"><ele>72.0</ele><time>2026-04-25T09:29:57Z</time></trkpt><trkpt lat="43.4094479432761" lon="10.412910831371816"><ele>72.0</ele><time>2026-04-25T09:30:00Z</time></trkpt></trkseg></trk></gpx>